<?xml version="1.0" encoding="UTF-8" standalone="no" ?>
<gpx xmlns="http://www.topografix.com/GPX/1/1" xmlns:xsi="http://www.w3.org/2001/XMLSchema-instance" xsi:schemaLocation="http://www.topografix.com/GPX/1/1 http://www.topografix.com/GPX/1/1/gpx.xsd" version="1.1" creator="VisuGPX - https://www.visugpx.com">
  <metadata>
    <name>Rando Pornichet 11/10/2020</name>
    <desc><![CDATA[Rando Pornichet du dimanche 11 octobre 2020]]></desc>
  </metadata>
  <trk>
    <name><![CDATA[Saint-Nazaire Cyclisme]]></name>
    <trkseg>
      <trkpt lat="47.27195" lon="-2.29107">
        <ele>23.200000762939</ele>
        <time>2020-10-11T06:38:08.000Z</time>
      </trkpt>
      <trkpt lat="47.27202" lon="-2.291">
        <ele>23.200000762939</ele>
        <time>2020-10-11T06:38:11.000Z</time>
      </trkpt>
      <trkpt lat="47.27204" lon="-2.29097">
        <ele>23.39999961853</ele>
        <time>2020-10-11T06:38:12.000Z</time>
      </trkpt>
      <trkpt lat="47.27209" lon="-2.29092">
        <ele>23.39999961853</ele>
        <time>2020-10-11T06:38:14.000Z</time>
      </trkpt>
      <trkpt lat="47.27228" lon="-2.29072">
        <ele>23.39999961853</ele>
        <time>2020-10-11T06:38:22.000Z</time>
      </trkpt>
      <trkpt lat="47.27243" lon="-2.29059">
        <ele>23.39999961853</ele>
        <time>2020-10-11T06:38:28.000Z</time>
      </trkpt>
      <trkpt lat="47.27255" lon="-2.29041">
        <ele>23.39999961853</ele>
        <time>2020-10-11T06:38:35.000Z</time>
      </trkpt>
      <trkpt lat="47.27264" lon="-2.29025">
        <ele>23.39999961853</ele>
        <time>2020-10-11T06:38:39.000Z</time>
      </trkpt>
      <trkpt lat="47.27272" lon="-2.29007">
        <ele>23.39999961853</ele>
        <time>2020-10-11T06:38:44.000Z</time>
      </trkpt>
      <trkpt lat="47.27283" lon="-2.28988">
        <ele>23.39999961853</ele>
        <time>2020-10-11T06:38:51.000Z</time>
      </trkpt>
      <trkpt lat="47.27294" lon="-2.28969">
        <ele>23.39999961853</ele>
        <time>2020-10-11T06:38:57.000Z</time>
      </trkpt>
      <trkpt lat="47.27303" lon="-2.28954">
        <ele>23.39999961853</ele>
        <time>2020-10-11T06:39:01.000Z</time>
      </trkpt>
      <trkpt lat="47.27308" lon="-2.28951">
        <ele>23.39999961853</ele>
        <time>2020-10-11T06:39:02.000Z</time>
      </trkpt>
      <trkpt lat="47.2732" lon="-2.28954">
        <ele>23.39999961853</ele>
        <time>2020-10-11T06:39:06.000Z</time>
      </trkpt>
      <trkpt lat="47.27324" lon="-2.28958">
        <ele>23.39999961853</ele>
        <time>2020-10-11T06:39:08.000Z</time>
      </trkpt>
      <trkpt lat="47.27331" lon="-2.28959">
        <ele>23.39999961853</ele>
        <time>2020-10-11T06:39:11.000Z</time>
      </trkpt>
      <trkpt lat="47.27331" lon="-2.28958">
        <ele>23.39999961853</ele>
        <time>2020-10-11T06:39:13.000Z</time>
      </trkpt>
      <trkpt lat="47.27334" lon="-2.28958">
        <ele>23.39999961853</ele>
        <time>2020-10-11T06:42:59.000Z</time>
      </trkpt>
      <trkpt lat="47.27335" lon="-2.28955">
        <ele>23.39999961853</ele>
        <time>2020-10-11T06:43:00.000Z</time>
      </trkpt>
      <trkpt lat="47.27342" lon="-2.28936">
        <ele>23.39999961853</ele>
        <time>2020-10-11T06:43:04.000Z</time>
      </trkpt>
      <trkpt lat="47.27344" lon="-2.28929">
        <ele>23.39999961853</ele>
        <time>2020-10-11T06:43:05.000Z</time>
      </trkpt>
      <trkpt lat="47.27348" lon="-2.28898">
        <ele>23.39999961853</ele>
        <time>2020-10-11T06:43:09.000Z</time>
      </trkpt>
      <trkpt lat="47.27356" lon="-2.28853">
        <ele>23.39999961853</ele>
        <time>2020-10-11T06:43:15.000Z</time>
      </trkpt>
      <trkpt lat="47.27359" lon="-2.28838">
        <ele>23.39999961853</ele>
        <time>2020-10-11T06:43:17.000Z</time>
      </trkpt>
      <trkpt lat="47.27364" lon="-2.28815">
        <ele>23.39999961853</ele>
        <time>2020-10-11T06:43:20.000Z</time>
      </trkpt>
      <trkpt lat="47.27381" lon="-2.28776">
        <ele>23.39999961853</ele>
        <time>2020-10-11T06:43:26.000Z</time>
      </trkpt>
      <trkpt lat="47.27395" lon="-2.28743">
        <ele>23.39999961853</ele>
        <time>2020-10-11T06:43:32.000Z</time>
      </trkpt>
      <trkpt lat="47.27409" lon="-2.28712">
        <ele>23.39999961853</ele>
        <time>2020-10-11T06:43:38.000Z</time>
      </trkpt>
      <trkpt lat="47.27422" lon="-2.28688">
        <ele>23.39999961853</ele>
        <time>2020-10-11T06:43:42.000Z</time>
      </trkpt>
      <trkpt lat="47.27426" lon="-2.28682">
        <ele>23.39999961853</ele>
        <time>2020-10-11T06:43:43.000Z</time>
      </trkpt>
      <trkpt lat="47.27439" lon="-2.28657">
        <ele>23.39999961853</ele>
        <time>2020-10-11T06:43:47.000Z</time>
      </trkpt>
      <trkpt lat="47.27442" lon="-2.28651">
        <ele>23.39999961853</ele>
        <time>2020-10-11T06:43:48.000Z</time>
      </trkpt>
      <trkpt lat="47.27454" lon="-2.28634">
        <ele>23.39999961853</ele>
        <time>2020-10-11T06:43:51.000Z</time>
      </trkpt>
      <trkpt lat="47.27461" lon="-2.28622">
        <ele>23.39999961853</ele>
        <time>2020-10-11T06:43:53.000Z</time>
      </trkpt>
      <trkpt lat="47.27465" lon="-2.28617">
        <ele>23.39999961853</ele>
        <time>2020-10-11T06:43:54.000Z</time>
      </trkpt>
      <trkpt lat="47.27476" lon="-2.28613">
        <ele>23.39999961853</ele>
        <time>2020-10-11T06:43:57.000Z</time>
      </trkpt>
      <trkpt lat="47.27485" lon="-2.28628">
        <ele>23.39999961853</ele>
        <time>2020-10-11T06:44:00.000Z</time>
      </trkpt>
      <trkpt lat="47.27487" lon="-2.28634">
        <ele>23.39999961853</ele>
        <time>2020-10-11T06:44:01.000Z</time>
      </trkpt>
      <trkpt lat="47.27492" lon="-2.28647">
        <ele>23.39999961853</ele>
        <time>2020-10-11T06:44:03.000Z</time>
      </trkpt>
      <trkpt lat="47.27498" lon="-2.2866">
        <ele>23.39999961853</ele>
        <time>2020-10-11T06:44:05.000Z</time>
      </trkpt>
      <trkpt lat="47.27501" lon="-2.28665">
        <ele>23.39999961853</ele>
        <time>2020-10-11T06:44:06.000Z</time>
      </trkpt>
      <trkpt lat="47.27518" lon="-2.28691">
        <ele>23.39999961853</ele>
        <time>2020-10-11T06:44:11.000Z</time>
      </trkpt>
      <trkpt lat="47.27539" lon="-2.28712">
        <ele>23.39999961853</ele>
        <time>2020-10-11T06:44:17.000Z</time>
      </trkpt>
      <trkpt lat="47.27566" lon="-2.28729">
        <ele>23.39999961853</ele>
        <time>2020-10-11T06:44:23.000Z</time>
      </trkpt>
      <trkpt lat="47.27588" lon="-2.28739">
        <ele>23.39999961853</ele>
        <time>2020-10-11T06:44:27.000Z</time>
      </trkpt>
      <trkpt lat="47.27594" lon="-2.28742">
        <ele>23.39999961853</ele>
        <time>2020-10-11T06:44:28.000Z</time>
      </trkpt>
      <trkpt lat="47.27612" lon="-2.28749">
        <ele>23.39999961853</ele>
        <time>2020-10-11T06:44:31.000Z</time>
      </trkpt>
      <trkpt lat="47.27623" lon="-2.28752">
        <ele>23.39999961853</ele>
        <time>2020-10-11T06:44:33.000Z</time>
      </trkpt>
      <trkpt lat="47.27651" lon="-2.28762">
        <ele>23.39999961853</ele>
        <time>2020-10-11T06:44:39.000Z</time>
      </trkpt>
      <trkpt lat="47.27663" lon="-2.28768">
        <ele>22.799999237061</ele>
        <time>2020-10-11T06:44:42.000Z</time>
      </trkpt>
      <trkpt lat="47.27667" lon="-2.28771">
        <ele>22.39999961853</ele>
        <time>2020-10-11T06:44:43.000Z</time>
      </trkpt>
      <trkpt lat="47.2767" lon="-2.28775">
        <ele>22</ele>
        <time>2020-10-11T06:44:44.000Z</time>
      </trkpt>
      <trkpt lat="47.27673" lon="-2.2878">
        <ele>21.60000038147</ele>
        <time>2020-10-11T06:44:45.000Z</time>
      </trkpt>
      <trkpt lat="47.27677" lon="-2.28785">
        <ele>21.200000762939</ele>
        <time>2020-10-11T06:44:46.000Z</time>
      </trkpt>
      <trkpt lat="47.27685" lon="-2.28802">
        <ele>21.200000762939</ele>
        <time>2020-10-11T06:44:49.000Z</time>
      </trkpt>
      <trkpt lat="47.27696" lon="-2.28808">
        <ele>21.200000762939</ele>
        <time>2020-10-11T06:44:52.000Z</time>
      </trkpt>
      <trkpt lat="47.27701" lon="-2.28807">
        <ele>21.200000762939</ele>
        <time>2020-10-11T06:44:53.000Z</time>
      </trkpt>
      <trkpt lat="47.27706" lon="-2.28806">
        <ele>21.200000762939</ele>
        <time>2020-10-11T06:44:54.000Z</time>
      </trkpt>
      <trkpt lat="47.27724" lon="-2.28802">
        <ele>21.200000762939</ele>
        <time>2020-10-11T06:44:57.000Z</time>
      </trkpt>
      <trkpt lat="47.27768" lon="-2.28791">
        <ele>21.200000762939</ele>
        <time>2020-10-11T06:45:04.000Z</time>
      </trkpt>
      <trkpt lat="47.27796" lon="-2.28792">
        <ele>21.200000762939</ele>
        <time>2020-10-11T06:45:09.000Z</time>
      </trkpt>
      <trkpt lat="47.27802" lon="-2.28791">
        <ele>21.200000762939</ele>
        <time>2020-10-11T06:45:10.000Z</time>
      </trkpt>
      <trkpt lat="47.27824" lon="-2.28794">
        <ele>21.200000762939</ele>
        <time>2020-10-11T06:45:14.000Z</time>
      </trkpt>
      <trkpt lat="47.27834" lon="-2.28799">
        <ele>21.200000762939</ele>
        <time>2020-10-11T06:45:16.000Z</time>
      </trkpt>
      <trkpt lat="47.27847" lon="-2.28807">
        <ele>21.200000762939</ele>
        <time>2020-10-11T06:45:19.000Z</time>
      </trkpt>
      <trkpt lat="47.2785" lon="-2.2881">
        <ele>21.200000762939</ele>
        <time>2020-10-11T06:45:20.000Z</time>
      </trkpt>
      <trkpt lat="47.27858" lon="-2.28813">
        <ele>21.200000762939</ele>
        <time>2020-10-11T06:45:23.000Z</time>
      </trkpt>
      <trkpt lat="47.27861" lon="-2.28812">
        <ele>21.200000762939</ele>
        <time>2020-10-11T06:45:24.000Z</time>
      </trkpt>
      <trkpt lat="47.27866" lon="-2.28801">
        <ele>21.200000762939</ele>
        <time>2020-10-11T06:45:28.000Z</time>
      </trkpt>
      <trkpt lat="47.27875" lon="-2.28773">
        <ele>21.200000762939</ele>
        <time>2020-10-11T06:45:35.000Z</time>
      </trkpt>
      <trkpt lat="47.27877" lon="-2.2877">
        <ele>21.200000762939</ele>
        <time>2020-10-11T06:45:36.000Z</time>
      </trkpt>
      <trkpt lat="47.27884" lon="-2.28768">
        <ele>21.200000762939</ele>
        <time>2020-10-11T06:45:38.000Z</time>
      </trkpt>
      <trkpt lat="47.27899" lon="-2.28767">
        <ele>21.200000762939</ele>
        <time>2020-10-11T06:45:41.000Z</time>
      </trkpt>
      <trkpt lat="47.27904" lon="-2.28766">
        <ele>21.200000762939</ele>
        <time>2020-10-11T06:45:42.000Z</time>
      </trkpt>
      <trkpt lat="47.27913" lon="-2.28762">
        <ele>21.200000762939</ele>
        <time>2020-10-11T06:45:44.000Z</time>
      </trkpt>
      <trkpt lat="47.27938" lon="-2.28752">
        <ele>21.200000762939</ele>
        <time>2020-10-11T06:45:49.000Z</time>
      </trkpt>
      <trkpt lat="47.27954" lon="-2.28748">
        <ele>21.200000762939</ele>
        <time>2020-10-11T06:45:52.000Z</time>
      </trkpt>
      <trkpt lat="47.2797" lon="-2.28747">
        <ele>21.200000762939</ele>
        <time>2020-10-11T06:45:55.000Z</time>
      </trkpt>
      <trkpt lat="47.28004" lon="-2.28752">
        <ele>21.200000762939</ele>
        <time>2020-10-11T06:46:01.000Z</time>
      </trkpt>
      <trkpt lat="47.28015" lon="-2.28754">
        <ele>21.200000762939</ele>
        <time>2020-10-11T06:46:03.000Z</time>
      </trkpt>
      <trkpt lat="47.28037" lon="-2.28757">
        <ele>21.200000762939</ele>
        <time>2020-10-11T06:46:07.000Z</time>
      </trkpt>
      <trkpt lat="47.28048" lon="-2.2876">
        <ele>21.200000762939</ele>
        <time>2020-10-11T06:46:09.000Z</time>
      </trkpt>
      <trkpt lat="47.28054" lon="-2.28761">
        <ele>21.200000762939</ele>
        <time>2020-10-11T06:46:10.000Z</time>
      </trkpt>
      <trkpt lat="47.2808" lon="-2.28773">
        <ele>21.200000762939</ele>
        <time>2020-10-11T06:46:15.000Z</time>
      </trkpt>
      <trkpt lat="47.28114" lon="-2.28792">
        <ele>21.200000762939</ele>
        <time>2020-10-11T06:46:22.000Z</time>
      </trkpt>
      <trkpt lat="47.28139" lon="-2.2881">
        <ele>21.60000038147</ele>
        <time>2020-10-11T06:46:28.000Z</time>
      </trkpt>
      <trkpt lat="47.28142" lon="-2.28813">
        <ele>22</ele>
        <time>2020-10-11T06:46:29.000Z</time>
      </trkpt>
      <trkpt lat="47.28146" lon="-2.28815">
        <ele>22.60000038147</ele>
        <time>2020-10-11T06:46:30.000Z</time>
      </trkpt>
      <trkpt lat="47.2815" lon="-2.28818">
        <ele>23</ele>
        <time>2020-10-11T06:46:31.000Z</time>
      </trkpt>
      <trkpt lat="47.28154" lon="-2.28821">
        <ele>23.39999961853</ele>
        <time>2020-10-11T06:46:32.000Z</time>
      </trkpt>
      <trkpt lat="47.28165" lon="-2.28832">
        <ele>23.39999961853</ele>
        <time>2020-10-11T06:46:35.000Z</time>
      </trkpt>
      <trkpt lat="47.28176" lon="-2.28842">
        <ele>23.799999237061</ele>
        <time>2020-10-11T06:46:38.000Z</time>
      </trkpt>
      <trkpt lat="47.2818" lon="-2.28845">
        <ele>24.200000762939</ele>
        <time>2020-10-11T06:46:39.000Z</time>
      </trkpt>
      <trkpt lat="47.28184" lon="-2.28849">
        <ele>24.60000038147</ele>
        <time>2020-10-11T06:46:40.000Z</time>
      </trkpt>
      <trkpt lat="47.28188" lon="-2.28853">
        <ele>25</ele>
        <time>2020-10-11T06:46:41.000Z</time>
      </trkpt>
      <trkpt lat="47.28191" lon="-2.28857">
        <ele>25.39999961853</ele>
        <time>2020-10-11T06:46:42.000Z</time>
      </trkpt>
      <trkpt lat="47.282" lon="-2.28883">
        <ele>25.39999961853</ele>
        <time>2020-10-11T06:46:46.000Z</time>
      </trkpt>
      <trkpt lat="47.28197" lon="-2.28905">
        <ele>25.39999961853</ele>
        <time>2020-10-11T06:46:49.000Z</time>
      </trkpt>
      <trkpt lat="47.28195" lon="-2.28911">
        <ele>25.39999961853</ele>
        <time>2020-10-11T06:46:50.000Z</time>
      </trkpt>
      <trkpt lat="47.2818" lon="-2.28972">
        <ele>25.39999961853</ele>
        <time>2020-10-11T06:46:59.000Z</time>
      </trkpt>
      <trkpt lat="47.2817" lon="-2.29012">
        <ele>25.799999237061</ele>
        <time>2020-10-11T06:47:05.000Z</time>
      </trkpt>
      <trkpt lat="47.28168" lon="-2.29019">
        <ele>26.200000762939</ele>
        <time>2020-10-11T06:47:06.000Z</time>
      </trkpt>
      <trkpt lat="47.28167" lon="-2.29026">
        <ele>26.60000038147</ele>
        <time>2020-10-11T06:47:07.000Z</time>
      </trkpt>
      <trkpt lat="47.28165" lon="-2.29033">
        <ele>27</ele>
        <time>2020-10-11T06:47:08.000Z</time>
      </trkpt>
      <trkpt lat="47.28163" lon="-2.2904">
        <ele>27.39999961853</ele>
        <time>2020-10-11T06:47:09.000Z</time>
      </trkpt>
      <trkpt lat="47.28151" lon="-2.29087">
        <ele>27.39999961853</ele>
        <time>2020-10-11T06:47:16.000Z</time>
      </trkpt>
      <trkpt lat="47.28137" lon="-2.2914">
        <ele>27.39999961853</ele>
        <time>2020-10-11T06:47:24.000Z</time>
      </trkpt>
      <trkpt lat="47.28122" lon="-2.29207">
        <ele>27.39999961853</ele>
        <time>2020-10-11T06:47:34.000Z</time>
      </trkpt>
      <trkpt lat="47.2811" lon="-2.2927">
        <ele>27.39999961853</ele>
        <time>2020-10-11T06:47:43.000Z</time>
      </trkpt>
      <trkpt lat="47.28106" lon="-2.29299">
        <ele>27.799999237061</ele>
        <time>2020-10-11T06:47:47.000Z</time>
      </trkpt>
      <trkpt lat="47.28105" lon="-2.29306">
        <ele>28.200000762939</ele>
        <time>2020-10-11T06:47:48.000Z</time>
      </trkpt>
      <trkpt lat="47.28104" lon="-2.29313">
        <ele>28.60000038147</ele>
        <time>2020-10-11T06:47:49.000Z</time>
      </trkpt>
      <trkpt lat="47.28104" lon="-2.29321">
        <ele>29</ele>
        <time>2020-10-11T06:47:50.000Z</time>
      </trkpt>
      <trkpt lat="47.28103" lon="-2.29329">
        <ele>29.39999961853</ele>
        <time>2020-10-11T06:47:51.000Z</time>
      </trkpt>
      <trkpt lat="47.28102" lon="-2.29336">
        <ele>29.39999961853</ele>
        <time>2020-10-11T06:47:52.000Z</time>
      </trkpt>
      <trkpt lat="47.28097" lon="-2.29395">
        <ele>29.39999961853</ele>
        <time>2020-10-11T06:48:00.000Z</time>
      </trkpt>
      <trkpt lat="47.28102" lon="-2.29446">
        <ele>29.39999961853</ele>
        <time>2020-10-11T06:48:07.000Z</time>
      </trkpt>
      <trkpt lat="47.28118" lon="-2.29501">
        <ele>29.39999961853</ele>
        <time>2020-10-11T06:48:15.000Z</time>
      </trkpt>
      <trkpt lat="47.28122" lon="-2.29513">
        <ele>29.39999961853</ele>
        <time>2020-10-11T06:48:17.000Z</time>
      </trkpt>
      <trkpt lat="47.28133" lon="-2.29523">
        <ele>29.39999961853</ele>
        <time>2020-10-11T06:48:20.000Z</time>
      </trkpt>
      <trkpt lat="47.28149" lon="-2.2952">
        <ele>29.39999961853</ele>
        <time>2020-10-11T06:48:23.000Z</time>
      </trkpt>
      <trkpt lat="47.28169" lon="-2.29512">
        <ele>29.39999961853</ele>
        <time>2020-10-11T06:48:27.000Z</time>
      </trkpt>
      <trkpt lat="47.2818" lon="-2.29508">
        <ele>29.39999961853</ele>
        <time>2020-10-11T06:48:29.000Z</time>
      </trkpt>
      <trkpt lat="47.2822" lon="-2.29491">
        <ele>29</ele>
        <time>2020-10-11T06:48:36.000Z</time>
      </trkpt>
      <trkpt lat="47.28227" lon="-2.29487">
        <ele>28.60000038147</ele>
        <time>2020-10-11T06:48:37.000Z</time>
      </trkpt>
      <trkpt lat="47.28233" lon="-2.29483">
        <ele>28</ele>
        <time>2020-10-11T06:48:38.000Z</time>
      </trkpt>
      <trkpt lat="47.2824" lon="-2.29478">
        <ele>27.60000038147</ele>
        <time>2020-10-11T06:48:39.000Z</time>
      </trkpt>
      <trkpt lat="47.28247" lon="-2.29474">
        <ele>27.200000762939</ele>
        <time>2020-10-11T06:48:40.000Z</time>
      </trkpt>
      <trkpt lat="47.28254" lon="-2.2947">
        <ele>27.200000762939</ele>
        <time>2020-10-11T06:48:41.000Z</time>
      </trkpt>
      <trkpt lat="47.28262" lon="-2.29465">
        <ele>27.200000762939</ele>
        <time>2020-10-11T06:48:42.000Z</time>
      </trkpt>
      <trkpt lat="47.28294" lon="-2.29441">
        <ele>26.799999237061</ele>
        <time>2020-10-11T06:48:47.000Z</time>
      </trkpt>
      <trkpt lat="47.28301" lon="-2.29435">
        <ele>25.799999237061</ele>
        <time>2020-10-11T06:48:48.000Z</time>
      </trkpt>
      <trkpt lat="47.28307" lon="-2.29429">
        <ele>25.200000762939</ele>
        <time>2020-10-11T06:48:49.000Z</time>
      </trkpt>
      <trkpt lat="47.28313" lon="-2.29424">
        <ele>24.799999237061</ele>
        <time>2020-10-11T06:48:50.000Z</time>
      </trkpt>
      <trkpt lat="47.28342" lon="-2.29394">
        <ele>24.799999237061</ele>
        <time>2020-10-11T06:48:55.000Z</time>
      </trkpt>
      <trkpt lat="47.28374" lon="-2.29365">
        <ele>24.799999237061</ele>
        <time>2020-10-11T06:49:01.000Z</time>
      </trkpt>
      <trkpt lat="47.28419" lon="-2.29338">
        <ele>24.799999237061</ele>
        <time>2020-10-11T06:49:09.000Z</time>
      </trkpt>
      <trkpt lat="47.28462" lon="-2.2932">
        <ele>24.799999237061</ele>
        <time>2020-10-11T06:49:16.000Z</time>
      </trkpt>
      <trkpt lat="47.28493" lon="-2.29306">
        <ele>24.39999961853</ele>
        <time>2020-10-11T06:49:21.000Z</time>
      </trkpt>
      <trkpt lat="47.28499" lon="-2.29303">
        <ele>23.799999237061</ele>
        <time>2020-10-11T06:49:22.000Z</time>
      </trkpt>
      <trkpt lat="47.28504" lon="-2.293">
        <ele>23.39999961853</ele>
        <time>2020-10-11T06:49:23.000Z</time>
      </trkpt>
      <trkpt lat="47.2851" lon="-2.29296">
        <ele>23</ele>
        <time>2020-10-11T06:49:24.000Z</time>
      </trkpt>
      <trkpt lat="47.28515" lon="-2.29293">
        <ele>22.39999961853</ele>
        <time>2020-10-11T06:49:25.000Z</time>
      </trkpt>
      <trkpt lat="47.28522" lon="-2.29288">
        <ele>22</ele>
        <time>2020-10-11T06:49:27.000Z</time>
      </trkpt>
      <trkpt lat="47.28523" lon="-2.29283">
        <ele>21.60000038147</ele>
        <time>2020-10-11T06:49:28.000Z</time>
      </trkpt>
      <trkpt lat="47.28524" lon="-2.29278">
        <ele>21.200000762939</ele>
        <time>2020-10-11T06:49:29.000Z</time>
      </trkpt>
      <trkpt lat="47.28523" lon="-2.29273">
        <ele>20.799999237061</ele>
        <time>2020-10-11T06:49:30.000Z</time>
      </trkpt>
      <trkpt lat="47.28522" lon="-2.29267">
        <ele>20.39999961853</ele>
        <time>2020-10-11T06:49:31.000Z</time>
      </trkpt>
      <trkpt lat="47.28521" lon="-2.29237">
        <ele>20.39999961853</ele>
        <time>2020-10-11T06:49:35.000Z</time>
      </trkpt>
      <trkpt lat="47.28522" lon="-2.29208">
        <ele>20.39999961853</ele>
        <time>2020-10-11T06:49:39.000Z</time>
      </trkpt>
      <trkpt lat="47.28526" lon="-2.29198">
        <ele>20.39999961853</ele>
        <time>2020-10-11T06:49:41.000Z</time>
      </trkpt>
      <trkpt lat="47.28533" lon="-2.29191">
        <ele>20.39999961853</ele>
        <time>2020-10-11T06:49:43.000Z</time>
      </trkpt>
      <trkpt lat="47.28551" lon="-2.29176">
        <ele>20.39999961853</ele>
        <time>2020-10-11T06:49:47.000Z</time>
      </trkpt>
      <trkpt lat="47.2857" lon="-2.29159">
        <ele>20.39999961853</ele>
        <time>2020-10-11T06:49:51.000Z</time>
      </trkpt>
      <trkpt lat="47.28574" lon="-2.29154">
        <ele>20.39999961853</ele>
        <time>2020-10-11T06:49:52.000Z</time>
      </trkpt>
      <trkpt lat="47.28586" lon="-2.29138">
        <ele>20.39999961853</ele>
        <time>2020-10-11T06:49:55.000Z</time>
      </trkpt>
      <trkpt lat="47.28592" lon="-2.29125">
        <ele>20.39999961853</ele>
        <time>2020-10-11T06:49:57.000Z</time>
      </trkpt>
      <trkpt lat="47.28601" lon="-2.29097">
        <ele>20.39999961853</ele>
        <time>2020-10-11T06:50:01.000Z</time>
      </trkpt>
      <trkpt lat="47.28604" lon="-2.29084">
        <ele>20.39999961853</ele>
        <time>2020-10-11T06:50:03.000Z</time>
      </trkpt>
      <trkpt lat="47.28607" lon="-2.29064">
        <ele>20.39999961853</ele>
        <time>2020-10-11T06:50:06.000Z</time>
      </trkpt>
      <trkpt lat="47.28604" lon="-2.29054">
        <ele>20</ele>
        <time>2020-10-11T06:50:08.000Z</time>
      </trkpt>
      <trkpt lat="47.28602" lon="-2.29049">
        <ele>19.60000038147</ele>
        <time>2020-10-11T06:50:09.000Z</time>
      </trkpt>
      <trkpt lat="47.28599" lon="-2.29046">
        <ele>19.200000762939</ele>
        <time>2020-10-11T06:50:10.000Z</time>
      </trkpt>
      <trkpt lat="47.28595" lon="-2.29044">
        <ele>18.799999237061</ele>
        <time>2020-10-11T06:50:11.000Z</time>
      </trkpt>
      <trkpt lat="47.28592" lon="-2.29041">
        <ele>18.39999961853</ele>
        <time>2020-10-11T06:50:12.000Z</time>
      </trkpt>
      <trkpt lat="47.28579" lon="-2.29037">
        <ele>18.39999961853</ele>
        <time>2020-10-11T06:50:16.000Z</time>
      </trkpt>
      <trkpt lat="47.2857" lon="-2.29036">
        <ele>18.39999961853</ele>
        <time>2020-10-11T06:50:18.000Z</time>
      </trkpt>
      <trkpt lat="47.28557" lon="-2.29036">
        <ele>18.39999961853</ele>
        <time>2020-10-11T06:50:21.000Z</time>
      </trkpt>
      <trkpt lat="47.28543" lon="-2.29035">
        <ele>18.39999961853</ele>
        <time>2020-10-11T06:50:25.000Z</time>
      </trkpt>
      <trkpt lat="47.28523" lon="-2.29031">
        <ele>18.39999961853</ele>
        <time>2020-10-11T06:50:32.000Z</time>
      </trkpt>
      <trkpt lat="47.28507" lon="-2.29019">
        <ele>18.39999961853</ele>
        <time>2020-10-11T06:50:37.000Z</time>
      </trkpt>
      <trkpt lat="47.28503" lon="-2.29018">
        <ele>18.799999237061</ele>
        <time>2020-10-11T06:50:38.000Z</time>
      </trkpt>
      <trkpt lat="47.285" lon="-2.29017">
        <ele>19.200000762939</ele>
        <time>2020-10-11T06:50:39.000Z</time>
      </trkpt>
      <trkpt lat="47.28497" lon="-2.29016">
        <ele>19.60000038147</ele>
        <time>2020-10-11T06:50:40.000Z</time>
      </trkpt>
      <trkpt lat="47.28494" lon="-2.29014">
        <ele>20</ele>
        <time>2020-10-11T06:50:41.000Z</time>
      </trkpt>
      <trkpt lat="47.28491" lon="-2.29013">
        <ele>20.39999961853</ele>
        <time>2020-10-11T06:50:42.000Z</time>
      </trkpt>
      <trkpt lat="47.28485" lon="-2.29011">
        <ele>20.39999961853</ele>
        <time>2020-10-11T06:50:44.000Z</time>
      </trkpt>
      <trkpt lat="47.28464" lon="-2.29002">
        <ele>20.39999961853</ele>
        <time>2020-10-11T06:50:50.000Z</time>
      </trkpt>
      <trkpt lat="47.28448" lon="-2.28997">
        <ele>20.799999237061</ele>
        <time>2020-10-11T06:50:55.000Z</time>
      </trkpt>
      <trkpt lat="47.28445" lon="-2.28997">
        <ele>21.200000762939</ele>
        <time>2020-10-11T06:50:56.000Z</time>
      </trkpt>
      <trkpt lat="47.28441" lon="-2.28996">
        <ele>21.60000038147</ele>
        <time>2020-10-11T06:50:57.000Z</time>
      </trkpt>
      <trkpt lat="47.28437" lon="-2.28996">
        <ele>22</ele>
        <time>2020-10-11T06:50:58.000Z</time>
      </trkpt>
      <trkpt lat="47.28434" lon="-2.28995">
        <ele>22.39999961853</ele>
        <time>2020-10-11T06:50:59.000Z</time>
      </trkpt>
      <trkpt lat="47.28428" lon="-2.28994">
        <ele>22.39999961853</ele>
        <time>2020-10-11T06:51:01.000Z</time>
      </trkpt>
      <trkpt lat="47.28415" lon="-2.28994">
        <ele>22.39999961853</ele>
        <time>2020-10-11T06:51:07.000Z</time>
      </trkpt>
      <trkpt lat="47.28404" lon="-2.28989">
        <ele>22.799999237061</ele>
        <time>2020-10-11T06:51:12.000Z</time>
      </trkpt>
      <trkpt lat="47.28402" lon="-2.28988">
        <ele>23.39999961853</ele>
        <time>2020-10-11T06:51:13.000Z</time>
      </trkpt>
      <trkpt lat="47.284" lon="-2.28985">
        <ele>23.799999237061</ele>
        <time>2020-10-11T06:51:14.000Z</time>
      </trkpt>
      <trkpt lat="47.28399" lon="-2.2898">
        <ele>24.200000762939</ele>
        <time>2020-10-11T06:51:15.000Z</time>
      </trkpt>
      <trkpt lat="47.28399" lon="-2.28975">
        <ele>24.60000038147</ele>
        <time>2020-10-11T06:51:16.000Z</time>
      </trkpt>
      <trkpt lat="47.28398" lon="-2.28956">
        <ele>24.60000038147</ele>
        <time>2020-10-11T06:51:19.000Z</time>
      </trkpt>
      <trkpt lat="47.28398" lon="-2.2895">
        <ele>24.60000038147</ele>
        <time>2020-10-11T06:51:20.000Z</time>
      </trkpt>
      <trkpt lat="47.28394" lon="-2.28905">
        <ele>24.60000038147</ele>
        <time>2020-10-11T06:51:26.000Z</time>
      </trkpt>
      <trkpt lat="47.28396" lon="-2.28899">
        <ele>24.60000038147</ele>
        <time>2020-10-11T06:51:27.000Z</time>
      </trkpt>
      <trkpt lat="47.28408" lon="-2.28889">
        <ele>24.60000038147</ele>
        <time>2020-10-11T06:51:30.000Z</time>
      </trkpt>
      <trkpt lat="47.28413" lon="-2.28887">
        <ele>24.60000038147</ele>
        <time>2020-10-11T06:51:31.000Z</time>
      </trkpt>
      <trkpt lat="47.28443" lon="-2.28875">
        <ele>24.60000038147</ele>
        <time>2020-10-11T06:51:36.000Z</time>
      </trkpt>
      <trkpt lat="47.28484" lon="-2.28852">
        <ele>24.60000038147</ele>
        <time>2020-10-11T06:51:42.000Z</time>
      </trkpt>
      <trkpt lat="47.28531" lon="-2.28818">
        <ele>24.60000038147</ele>
        <time>2020-10-11T06:51:49.000Z</time>
      </trkpt>
      <trkpt lat="47.28538" lon="-2.28815">
        <ele>24.200000762939</ele>
        <time>2020-10-11T06:51:50.000Z</time>
      </trkpt>
      <trkpt lat="47.28546" lon="-2.28812">
        <ele>23.799999237061</ele>
        <time>2020-10-11T06:51:51.000Z</time>
      </trkpt>
      <trkpt lat="47.28553" lon="-2.2881">
        <ele>23.39999961853</ele>
        <time>2020-10-11T06:51:52.000Z</time>
      </trkpt>
      <trkpt lat="47.28562" lon="-2.28809">
        <ele>23</ele>
        <time>2020-10-11T06:51:53.000Z</time>
      </trkpt>
      <trkpt lat="47.2857" lon="-2.2881">
        <ele>22.60000038147</ele>
        <time>2020-10-11T06:51:54.000Z</time>
      </trkpt>
      <trkpt lat="47.28577" lon="-2.2881">
        <ele>22.60000038147</ele>
        <time>2020-10-11T06:51:55.000Z</time>
      </trkpt>
      <trkpt lat="47.286" lon="-2.28818">
        <ele>22.60000038147</ele>
        <time>2020-10-11T06:51:58.000Z</time>
      </trkpt>
      <trkpt lat="47.28622" lon="-2.28825">
        <ele>22.200000762939</ele>
        <time>2020-10-11T06:52:01.000Z</time>
      </trkpt>
      <trkpt lat="47.28629" lon="-2.28825">
        <ele>21.799999237061</ele>
        <time>2020-10-11T06:52:02.000Z</time>
      </trkpt>
      <trkpt lat="47.28637" lon="-2.28826">
        <ele>21.39999961853</ele>
        <time>2020-10-11T06:52:03.000Z</time>
      </trkpt>
      <trkpt lat="47.28643" lon="-2.28827">
        <ele>21</ele>
        <time>2020-10-11T06:52:04.000Z</time>
      </trkpt>
      <trkpt lat="47.2865" lon="-2.28828">
        <ele>20.60000038147</ele>
        <time>2020-10-11T06:52:05.000Z</time>
      </trkpt>
      <trkpt lat="47.28675" lon="-2.28825">
        <ele>20.60000038147</ele>
        <time>2020-10-11T06:52:09.000Z</time>
      </trkpt>
      <trkpt lat="47.28707" lon="-2.28816">
        <ele>20.60000038147</ele>
        <time>2020-10-11T06:52:14.000Z</time>
      </trkpt>
      <trkpt lat="47.28713" lon="-2.28814">
        <ele>20.60000038147</ele>
        <time>2020-10-11T06:52:15.000Z</time>
      </trkpt>
      <trkpt lat="47.2873" lon="-2.288">
        <ele>20.60000038147</ele>
        <time>2020-10-11T06:52:18.000Z</time>
      </trkpt>
      <trkpt lat="47.28735" lon="-2.28795">
        <ele>20.200000762939</ele>
        <time>2020-10-11T06:52:19.000Z</time>
      </trkpt>
      <trkpt lat="47.28741" lon="-2.2879">
        <ele>19.799999237061</ele>
        <time>2020-10-11T06:52:20.000Z</time>
      </trkpt>
      <trkpt lat="47.28746" lon="-2.28785">
        <ele>19.39999961853</ele>
        <time>2020-10-11T06:52:21.000Z</time>
      </trkpt>
      <trkpt lat="47.28751" lon="-2.28779">
        <ele>19</ele>
        <time>2020-10-11T06:52:22.000Z</time>
      </trkpt>
      <trkpt lat="47.28757" lon="-2.28773">
        <ele>18.60000038147</ele>
        <time>2020-10-11T06:52:23.000Z</time>
      </trkpt>
      <trkpt lat="47.28771" lon="-2.28755">
        <ele>18.60000038147</ele>
        <time>2020-10-11T06:52:26.000Z</time>
      </trkpt>
      <trkpt lat="47.28775" lon="-2.28749">
        <ele>18.60000038147</ele>
        <time>2020-10-11T06:52:27.000Z</time>
      </trkpt>
      <trkpt lat="47.2879" lon="-2.28717">
        <ele>18.60000038147</ele>
        <time>2020-10-11T06:52:31.000Z</time>
      </trkpt>
      <trkpt lat="47.28811" lon="-2.28665">
        <ele>18.60000038147</ele>
        <time>2020-10-11T06:52:37.000Z</time>
      </trkpt>
      <trkpt lat="47.28815" lon="-2.28657">
        <ele>18.60000038147</ele>
        <time>2020-10-11T06:52:38.000Z</time>
      </trkpt>
      <trkpt lat="47.28838" lon="-2.28629">
        <ele>18.60000038147</ele>
        <time>2020-10-11T06:52:43.000Z</time>
      </trkpt>
      <trkpt lat="47.28858" lon="-2.28609">
        <ele>18.200000762939</ele>
        <time>2020-10-11T06:52:47.000Z</time>
      </trkpt>
      <trkpt lat="47.28863" lon="-2.28605">
        <ele>17.799999237061</ele>
        <time>2020-10-11T06:52:48.000Z</time>
      </trkpt>
      <trkpt lat="47.28868" lon="-2.28601">
        <ele>17.200000762939</ele>
        <time>2020-10-11T06:52:49.000Z</time>
      </trkpt>
      <trkpt lat="47.28873" lon="-2.28597">
        <ele>16.799999237061</ele>
        <time>2020-10-11T06:52:50.000Z</time>
      </trkpt>
      <trkpt lat="47.28878" lon="-2.28593">
        <ele>16.39999961853</ele>
        <time>2020-10-11T06:52:51.000Z</time>
      </trkpt>
      <trkpt lat="47.28894" lon="-2.28578">
        <ele>16.39999961853</ele>
        <time>2020-10-11T06:52:55.000Z</time>
      </trkpt>
      <trkpt lat="47.28912" lon="-2.28561">
        <ele>16.39999961853</ele>
        <time>2020-10-11T06:53:00.000Z</time>
      </trkpt>
      <trkpt lat="47.28916" lon="-2.28556">
        <ele>16.39999961853</ele>
        <time>2020-10-11T06:53:01.000Z</time>
      </trkpt>
      <trkpt lat="47.28931" lon="-2.28541">
        <ele>16.39999961853</ele>
        <time>2020-10-11T06:53:04.000Z</time>
      </trkpt>
      <trkpt lat="47.28957" lon="-2.28512">
        <ele>16.39999961853</ele>
        <time>2020-10-11T06:53:10.000Z</time>
      </trkpt>
      <trkpt lat="47.28975" lon="-2.28496">
        <ele>16.39999961853</ele>
        <time>2020-10-11T06:53:14.000Z</time>
      </trkpt>
      <trkpt lat="47.28991" lon="-2.28483">
        <ele>16.39999961853</ele>
        <time>2020-10-11T06:53:17.000Z</time>
      </trkpt>
      <trkpt lat="47.28996" lon="-2.28478">
        <ele>16.39999961853</ele>
        <time>2020-10-11T06:53:18.000Z</time>
      </trkpt>
      <trkpt lat="47.2901" lon="-2.28463">
        <ele>16.39999961853</ele>
        <time>2020-10-11T06:53:21.000Z</time>
      </trkpt>
      <trkpt lat="47.29015" lon="-2.28458">
        <ele>16.39999961853</ele>
        <time>2020-10-11T06:53:22.000Z</time>
      </trkpt>
      <trkpt lat="47.29029" lon="-2.28443">
        <ele>16.39999961853</ele>
        <time>2020-10-11T06:53:25.000Z</time>
      </trkpt>
      <trkpt lat="47.29037" lon="-2.28433">
        <ele>16.39999961853</ele>
        <time>2020-10-11T06:53:27.000Z</time>
      </trkpt>
      <trkpt lat="47.29068" lon="-2.284">
        <ele>16.39999961853</ele>
        <time>2020-10-11T06:53:33.000Z</time>
      </trkpt>
      <trkpt lat="47.29091" lon="-2.28376">
        <ele>16.39999961853</ele>
        <time>2020-10-11T06:53:37.000Z</time>
      </trkpt>
      <trkpt lat="47.29097" lon="-2.28372">
        <ele>16.39999961853</ele>
        <time>2020-10-11T06:53:38.000Z</time>
      </trkpt>
      <trkpt lat="47.29137" lon="-2.28341">
        <ele>16.39999961853</ele>
        <time>2020-10-11T06:53:45.000Z</time>
      </trkpt>
      <trkpt lat="47.29143" lon="-2.28336">
        <ele>16.39999961853</ele>
        <time>2020-10-11T06:53:46.000Z</time>
      </trkpt>
      <trkpt lat="47.29156" lon="-2.28321">
        <ele>16.39999961853</ele>
        <time>2020-10-11T06:53:49.000Z</time>
      </trkpt>
      <trkpt lat="47.29163" lon="-2.28315">
        <ele>16</ele>
        <time>2020-10-11T06:53:51.000Z</time>
      </trkpt>
      <trkpt lat="47.29166" lon="-2.28312">
        <ele>15.60000038147</ele>
        <time>2020-10-11T06:53:52.000Z</time>
      </trkpt>
      <trkpt lat="47.2917" lon="-2.2831">
        <ele>15.199999809265</ele>
        <time>2020-10-11T06:53:53.000Z</time>
      </trkpt>
      <trkpt lat="47.29174" lon="-2.28308">
        <ele>14.60000038147</ele>
        <time>2020-10-11T06:53:54.000Z</time>
      </trkpt>
      <trkpt lat="47.29177" lon="-2.28306">
        <ele>14.199999809265</ele>
        <time>2020-10-11T06:53:55.000Z</time>
      </trkpt>
      <trkpt lat="47.29184" lon="-2.28306">
        <ele>14.199999809265</ele>
        <time>2020-10-11T06:53:58.000Z</time>
      </trkpt>
      <trkpt lat="47.29186" lon="-2.28306">
        <ele>14.199999809265</ele>
        <time>2020-10-11T06:53:59.000Z</time>
      </trkpt>
      <trkpt lat="47.2919" lon="-2.28304">
        <ele>14.199999809265</ele>
        <time>2020-10-11T06:54:01.000Z</time>
      </trkpt>
      <trkpt lat="47.29192" lon="-2.283">
        <ele>14.199999809265</ele>
        <time>2020-10-11T06:54:02.000Z</time>
      </trkpt>
      <trkpt lat="47.29199" lon="-2.28269">
        <ele>14.199999809265</ele>
        <time>2020-10-11T06:54:07.000Z</time>
      </trkpt>
      <trkpt lat="47.29208" lon="-2.28239">
        <ele>14.199999809265</ele>
        <time>2020-10-11T06:54:11.000Z</time>
      </trkpt>
      <trkpt lat="47.29212" lon="-2.28232">
        <ele>14.199999809265</ele>
        <time>2020-10-11T06:54:12.000Z</time>
      </trkpt>
      <trkpt lat="47.29227" lon="-2.28211">
        <ele>14.199999809265</ele>
        <time>2020-10-11T06:54:15.000Z</time>
      </trkpt>
      <trkpt lat="47.29236" lon="-2.28198">
        <ele>14.199999809265</ele>
        <time>2020-10-11T06:54:17.000Z</time>
      </trkpt>
      <trkpt lat="47.29272" lon="-2.28155">
        <ele>14.199999809265</ele>
        <time>2020-10-11T06:54:24.000Z</time>
      </trkpt>
      <trkpt lat="47.29299" lon="-2.28125">
        <ele>13.800000190735</ele>
        <time>2020-10-11T06:54:29.000Z</time>
      </trkpt>
      <trkpt lat="47.29304" lon="-2.28119">
        <ele>13.39999961853</ele>
        <time>2020-10-11T06:54:30.000Z</time>
      </trkpt>
      <trkpt lat="47.29309" lon="-2.28113">
        <ele>13</ele>
        <time>2020-10-11T06:54:31.000Z</time>
      </trkpt>
      <trkpt lat="47.29314" lon="-2.28107">
        <ele>12.60000038147</ele>
        <time>2020-10-11T06:54:32.000Z</time>
      </trkpt>
      <trkpt lat="47.2932" lon="-2.28102">
        <ele>12</ele>
        <time>2020-10-11T06:54:33.000Z</time>
      </trkpt>
      <trkpt lat="47.29349" lon="-2.28083">
        <ele>12</ele>
        <time>2020-10-11T06:54:38.000Z</time>
      </trkpt>
      <trkpt lat="47.2936" lon="-2.28077">
        <ele>12</ele>
        <time>2020-10-11T06:54:40.000Z</time>
      </trkpt>
      <trkpt lat="47.29366" lon="-2.28065">
        <ele>12</ele>
        <time>2020-10-11T06:54:42.000Z</time>
      </trkpt>
      <trkpt lat="47.29369" lon="-2.2805">
        <ele>12</ele>
        <time>2020-10-11T06:54:44.000Z</time>
      </trkpt>
      <trkpt lat="47.29368" lon="-2.28034">
        <ele>12</ele>
        <time>2020-10-11T06:54:46.000Z</time>
      </trkpt>
      <trkpt lat="47.29364" lon="-2.28017">
        <ele>12</ele>
        <time>2020-10-11T06:54:48.000Z</time>
      </trkpt>
      <trkpt lat="47.29356" lon="-2.27992">
        <ele>12</ele>
        <time>2020-10-11T06:54:51.000Z</time>
      </trkpt>
      <trkpt lat="47.29331" lon="-2.27927">
        <ele>12</ele>
        <time>2020-10-11T06:54:59.000Z</time>
      </trkpt>
      <trkpt lat="47.29319" lon="-2.27894">
        <ele>12.39999961853</ele>
        <time>2020-10-11T06:55:03.000Z</time>
      </trkpt>
      <trkpt lat="47.29316" lon="-2.27886">
        <ele>12.800000190735</ele>
        <time>2020-10-11T06:55:04.000Z</time>
      </trkpt>
      <trkpt lat="47.29313" lon="-2.27878">
        <ele>13.199999809265</ele>
        <time>2020-10-11T06:55:05.000Z</time>
      </trkpt>
      <trkpt lat="47.29311" lon="-2.27869">
        <ele>13.60000038147</ele>
        <time>2020-10-11T06:55:06.000Z</time>
      </trkpt>
      <trkpt lat="47.29309" lon="-2.2786">
        <ele>14.199999809265</ele>
        <time>2020-10-11T06:55:07.000Z</time>
      </trkpt>
      <trkpt lat="47.293" lon="-2.27812">
        <ele>14.199999809265</ele>
        <time>2020-10-11T06:55:13.000Z</time>
      </trkpt>
      <trkpt lat="47.29298" lon="-2.27797">
        <ele>14.199999809265</ele>
        <time>2020-10-11T06:55:15.000Z</time>
      </trkpt>
      <trkpt lat="47.29296" lon="-2.27774">
        <ele>14.199999809265</ele>
        <time>2020-10-11T06:55:18.000Z</time>
      </trkpt>
      <trkpt lat="47.29289" lon="-2.27711">
        <ele>14.199999809265</ele>
        <time>2020-10-11T06:55:25.000Z</time>
      </trkpt>
      <trkpt lat="47.2928" lon="-2.27626">
        <ele>14.199999809265</ele>
        <time>2020-10-11T06:55:34.000Z</time>
      </trkpt>
      <trkpt lat="47.29274" lon="-2.27562">
        <ele>14.199999809265</ele>
        <time>2020-10-11T06:55:41.000Z</time>
      </trkpt>
      <trkpt lat="47.29272" lon="-2.27553">
        <ele>14.199999809265</ele>
        <time>2020-10-11T06:55:42.000Z</time>
      </trkpt>
      <trkpt lat="47.29265" lon="-2.27531">
        <ele>14.199999809265</ele>
        <time>2020-10-11T06:55:45.000Z</time>
      </trkpt>
      <trkpt lat="47.2927" lon="-2.27518">
        <ele>14.199999809265</ele>
        <time>2020-10-11T06:55:47.000Z</time>
      </trkpt>
      <trkpt lat="47.29279" lon="-2.27517">
        <ele>14.199999809265</ele>
        <time>2020-10-11T06:55:49.000Z</time>
      </trkpt>
      <trkpt lat="47.29288" lon="-2.27523">
        <ele>14.199999809265</ele>
        <time>2020-10-11T06:55:51.000Z</time>
      </trkpt>
      <trkpt lat="47.293" lon="-2.27528">
        <ele>14.199999809265</ele>
        <time>2020-10-11T06:55:53.000Z</time>
      </trkpt>
      <trkpt lat="47.29332" lon="-2.27531">
        <ele>14.199999809265</ele>
        <time>2020-10-11T06:55:58.000Z</time>
      </trkpt>
      <trkpt lat="47.29381" lon="-2.27521">
        <ele>14.199999809265</ele>
        <time>2020-10-11T06:56:05.000Z</time>
      </trkpt>
      <trkpt lat="47.29436" lon="-2.27512">
        <ele>14.199999809265</ele>
        <time>2020-10-11T06:56:13.000Z</time>
      </trkpt>
      <trkpt lat="47.29469" lon="-2.27517">
        <ele>14.199999809265</ele>
        <time>2020-10-11T06:56:18.000Z</time>
      </trkpt>
      <trkpt lat="47.29508" lon="-2.2753">
        <ele>14.199999809265</ele>
        <time>2020-10-11T06:56:24.000Z</time>
      </trkpt>
      <trkpt lat="47.29534" lon="-2.27538">
        <ele>13.60000038147</ele>
        <time>2020-10-11T06:56:28.000Z</time>
      </trkpt>
      <trkpt lat="47.29541" lon="-2.2754">
        <ele>13.199999809265</ele>
        <time>2020-10-11T06:56:29.000Z</time>
      </trkpt>
      <trkpt lat="47.29548" lon="-2.27542">
        <ele>12.800000190735</ele>
        <time>2020-10-11T06:56:30.000Z</time>
      </trkpt>
      <trkpt lat="47.29555" lon="-2.27544">
        <ele>12.39999961853</ele>
        <time>2020-10-11T06:56:31.000Z</time>
      </trkpt>
      <trkpt lat="47.29561" lon="-2.27547">
        <ele>12</ele>
        <time>2020-10-11T06:56:32.000Z</time>
      </trkpt>
      <trkpt lat="47.29587" lon="-2.27562">
        <ele>12</ele>
        <time>2020-10-11T06:56:36.000Z</time>
      </trkpt>
      <trkpt lat="47.29636" lon="-2.27593">
        <ele>12</ele>
        <time>2020-10-11T06:56:43.000Z</time>
      </trkpt>
      <trkpt lat="47.2965" lon="-2.27602">
        <ele>12</ele>
        <time>2020-10-11T06:56:45.000Z</time>
      </trkpt>
      <trkpt lat="47.29658" lon="-2.27606">
        <ele>11.60000038147</ele>
        <time>2020-10-11T06:56:46.000Z</time>
      </trkpt>
      <trkpt lat="47.29665" lon="-2.27608">
        <ele>11.199999809265</ele>
        <time>2020-10-11T06:56:47.000Z</time>
      </trkpt>
      <trkpt lat="47.29673" lon="-2.2761">
        <ele>10.800000190735</ele>
        <time>2020-10-11T06:56:48.000Z</time>
      </trkpt>
      <trkpt lat="47.29681" lon="-2.27612">
        <ele>10.39999961853</ele>
        <time>2020-10-11T06:56:49.000Z</time>
      </trkpt>
      <trkpt lat="47.29688" lon="-2.27614">
        <ele>9.8000001907349</ele>
        <time>2020-10-11T06:56:50.000Z</time>
      </trkpt>
      <trkpt lat="47.29696" lon="-2.27614">
        <ele>9.8000001907349</ele>
        <time>2020-10-11T06:56:51.000Z</time>
      </trkpt>
      <trkpt lat="47.29718" lon="-2.27612">
        <ele>9.3999996185303</ele>
        <time>2020-10-11T06:56:54.000Z</time>
      </trkpt>
      <trkpt lat="47.29726" lon="-2.27611">
        <ele>9</ele>
        <time>2020-10-11T06:56:55.000Z</time>
      </trkpt>
      <trkpt lat="47.29732" lon="-2.27609">
        <ele>8.6000003814697</ele>
        <time>2020-10-11T06:56:56.000Z</time>
      </trkpt>
      <trkpt lat="47.29739" lon="-2.27606">
        <ele>8.1999998092651</ele>
        <time>2020-10-11T06:56:57.000Z</time>
      </trkpt>
      <trkpt lat="47.29746" lon="-2.27603">
        <ele>7.8000001907349</ele>
        <time>2020-10-11T06:56:58.000Z</time>
      </trkpt>
      <trkpt lat="47.29754" lon="-2.276">
        <ele>7.8000001907349</ele>
        <time>2020-10-11T06:56:59.000Z</time>
      </trkpt>
      <trkpt lat="47.29785" lon="-2.27593">
        <ele>7.8000001907349</ele>
        <time>2020-10-11T06:57:03.000Z</time>
      </trkpt>
      <trkpt lat="47.29793" lon="-2.27594">
        <ele>7.8000001907349</ele>
        <time>2020-10-11T06:57:04.000Z</time>
      </trkpt>
      <trkpt lat="47.29824" lon="-2.27608">
        <ele>7.8000001907349</ele>
        <time>2020-10-11T06:57:08.000Z</time>
      </trkpt>
      <trkpt lat="47.29856" lon="-2.27621">
        <ele>7.8000001907349</ele>
        <time>2020-10-11T06:57:12.000Z</time>
      </trkpt>
      <trkpt lat="47.29864" lon="-2.27621">
        <ele>7.8000001907349</ele>
        <time>2020-10-11T06:57:13.000Z</time>
      </trkpt>
      <trkpt lat="47.29886" lon="-2.27614">
        <ele>7.8000001907349</ele>
        <time>2020-10-11T06:57:16.000Z</time>
      </trkpt>
      <trkpt lat="47.29893" lon="-2.2761">
        <ele>7.8000001907349</ele>
        <time>2020-10-11T06:57:17.000Z</time>
      </trkpt>
      <trkpt lat="47.29924" lon="-2.27597">
        <ele>7.8000001907349</ele>
        <time>2020-10-11T06:57:22.000Z</time>
      </trkpt>
      <trkpt lat="47.2993" lon="-2.27597">
        <ele>7.8000001907349</ele>
        <time>2020-10-11T06:57:23.000Z</time>
      </trkpt>
      <trkpt lat="47.29941" lon="-2.27597">
        <ele>7.8000001907349</ele>
        <time>2020-10-11T06:57:25.000Z</time>
      </trkpt>
      <trkpt lat="47.29947" lon="-2.276">
        <ele>7.8000001907349</ele>
        <time>2020-10-11T06:57:26.000Z</time>
      </trkpt>
      <trkpt lat="47.29958" lon="-2.27617">
        <ele>7.8000001907349</ele>
        <time>2020-10-11T06:57:29.000Z</time>
      </trkpt>
      <trkpt lat="47.29959" lon="-2.27649">
        <ele>7.8000001907349</ele>
        <time>2020-10-11T06:57:33.000Z</time>
      </trkpt>
      <trkpt lat="47.29958" lon="-2.27657">
        <ele>7.4000000953674</ele>
        <time>2020-10-11T06:57:34.000Z</time>
      </trkpt>
      <trkpt lat="47.29957" lon="-2.27665">
        <ele>7</ele>
        <time>2020-10-11T06:57:35.000Z</time>
      </trkpt>
      <trkpt lat="47.29956" lon="-2.27674">
        <ele>6.5999999046326</ele>
        <time>2020-10-11T06:57:36.000Z</time>
      </trkpt>
      <trkpt lat="47.29954" lon="-2.27683">
        <ele>6.1999998092651</ele>
        <time>2020-10-11T06:57:37.000Z</time>
      </trkpt>
      <trkpt lat="47.29953" lon="-2.27692">
        <ele>5.5999999046326</ele>
        <time>2020-10-11T06:57:38.000Z</time>
      </trkpt>
      <trkpt lat="47.29952" lon="-2.27712">
        <ele>5.5999999046326</ele>
        <time>2020-10-11T06:57:40.000Z</time>
      </trkpt>
      <trkpt lat="47.29945" lon="-2.27783">
        <ele>5.5999999046326</ele>
        <time>2020-10-11T06:57:48.000Z</time>
      </trkpt>
      <trkpt lat="47.29944" lon="-2.27799">
        <ele>6</ele>
        <time>2020-10-11T06:57:50.000Z</time>
      </trkpt>
      <trkpt lat="47.29944" lon="-2.27807">
        <ele>7</ele>
        <time>2020-10-11T06:57:51.000Z</time>
      </trkpt>
      <trkpt lat="47.29943" lon="-2.27815">
        <ele>7.4000000953674</ele>
        <time>2020-10-11T06:57:52.000Z</time>
      </trkpt>
      <trkpt lat="47.29942" lon="-2.27823">
        <ele>7.8000001907349</ele>
        <time>2020-10-11T06:57:53.000Z</time>
      </trkpt>
      <trkpt lat="47.2994" lon="-2.27839">
        <ele>7.8000001907349</ele>
        <time>2020-10-11T06:57:55.000Z</time>
      </trkpt>
      <trkpt lat="47.29936" lon="-2.27897">
        <ele>7.8000001907349</ele>
        <time>2020-10-11T06:58:02.000Z</time>
      </trkpt>
      <trkpt lat="47.2993" lon="-2.27967">
        <ele>7.8000001907349</ele>
        <time>2020-10-11T06:58:10.000Z</time>
      </trkpt>
      <trkpt lat="47.29932" lon="-2.28002">
        <ele>7.8000001907349</ele>
        <time>2020-10-11T06:58:14.000Z</time>
      </trkpt>
      <trkpt lat="47.29934" lon="-2.2801">
        <ele>7.8000001907349</ele>
        <time>2020-10-11T06:58:15.000Z</time>
      </trkpt>
      <trkpt lat="47.29944" lon="-2.28041">
        <ele>7.8000001907349</ele>
        <time>2020-10-11T06:58:20.000Z</time>
      </trkpt>
      <trkpt lat="47.29947" lon="-2.28045">
        <ele>7.8000001907349</ele>
        <time>2020-10-11T06:58:21.000Z</time>
      </trkpt>
      <trkpt lat="47.29959" lon="-2.28045">
        <ele>7.8000001907349</ele>
        <time>2020-10-11T06:58:24.000Z</time>
      </trkpt>
      <trkpt lat="47.29967" lon="-2.28041">
        <ele>7.8000001907349</ele>
        <time>2020-10-11T06:58:26.000Z</time>
      </trkpt>
      <trkpt lat="47.29973" lon="-2.28039">
        <ele>7.8000001907349</ele>
        <time>2020-10-11T06:58:28.000Z</time>
      </trkpt>
      <trkpt lat="47.29988" lon="-2.28033">
        <ele>7.8000001907349</ele>
        <time>2020-10-11T06:58:34.000Z</time>
      </trkpt>
      <trkpt lat="47.2999" lon="-2.28035">
        <ele>7.8000001907349</ele>
        <time>2020-10-11T06:58:35.000Z</time>
      </trkpt>
      <trkpt lat="47.29991" lon="-2.28044">
        <ele>7.8000001907349</ele>
        <time>2020-10-11T06:58:38.000Z</time>
      </trkpt>
      <trkpt lat="47.29984" lon="-2.28064">
        <ele>7.8000001907349</ele>
        <time>2020-10-11T06:58:42.000Z</time>
      </trkpt>
      <trkpt lat="47.29979" lon="-2.28082">
        <ele>7.8000001907349</ele>
        <time>2020-10-11T06:58:45.000Z</time>
      </trkpt>
      <trkpt lat="47.29975" lon="-2.28101">
        <ele>7.8000001907349</ele>
        <time>2020-10-11T06:58:48.000Z</time>
      </trkpt>
      <trkpt lat="47.29964" lon="-2.28137">
        <ele>7.8000001907349</ele>
        <time>2020-10-11T06:58:53.000Z</time>
      </trkpt>
      <trkpt lat="47.2996" lon="-2.28153">
        <ele>7.8000001907349</ele>
        <time>2020-10-11T06:58:55.000Z</time>
      </trkpt>
      <trkpt lat="47.29955" lon="-2.28166">
        <ele>7.8000001907349</ele>
        <time>2020-10-11T06:58:57.000Z</time>
      </trkpt>
      <trkpt lat="47.2995" lon="-2.28179">
        <ele>7.8000001907349</ele>
        <time>2020-10-11T06:58:59.000Z</time>
      </trkpt>
      <trkpt lat="47.29947" lon="-2.28201">
        <ele>7.8000001907349</ele>
        <time>2020-10-11T06:59:02.000Z</time>
      </trkpt>
      <trkpt lat="47.29948" lon="-2.28208">
        <ele>7.8000001907349</ele>
        <time>2020-10-11T06:59:03.000Z</time>
      </trkpt>
      <trkpt lat="47.29951" lon="-2.28245">
        <ele>7.8000001907349</ele>
        <time>2020-10-11T06:59:08.000Z</time>
      </trkpt>
      <trkpt lat="47.29952" lon="-2.28262">
        <ele>7.8000001907349</ele>
        <time>2020-10-11T06:59:10.000Z</time>
      </trkpt>
      <trkpt lat="47.29954" lon="-2.28293">
        <ele>7.8000001907349</ele>
        <time>2020-10-11T06:59:14.000Z</time>
      </trkpt>
      <trkpt lat="47.29953" lon="-2.28328">
        <ele>7.8000001907349</ele>
        <time>2020-10-11T06:59:18.000Z</time>
      </trkpt>
      <trkpt lat="47.29952" lon="-2.28337">
        <ele>7.8000001907349</ele>
        <time>2020-10-11T06:59:19.000Z</time>
      </trkpt>
      <trkpt lat="47.29947" lon="-2.28387">
        <ele>7.8000001907349</ele>
        <time>2020-10-11T06:59:25.000Z</time>
      </trkpt>
      <trkpt lat="47.29946" lon="-2.28411">
        <ele>7.8000001907349</ele>
        <time>2020-10-11T06:59:28.000Z</time>
      </trkpt>
      <trkpt lat="47.29942" lon="-2.28424">
        <ele>7.8000001907349</ele>
        <time>2020-10-11T06:59:30.000Z</time>
      </trkpt>
      <trkpt lat="47.2994" lon="-2.28437">
        <ele>7.8000001907349</ele>
        <time>2020-10-11T06:59:32.000Z</time>
      </trkpt>
      <trkpt lat="47.29937" lon="-2.28451">
        <ele>7.8000001907349</ele>
        <time>2020-10-11T06:59:34.000Z</time>
      </trkpt>
      <trkpt lat="47.29937" lon="-2.28477">
        <ele>7.8000001907349</ele>
        <time>2020-10-11T06:59:37.000Z</time>
      </trkpt>
      <trkpt lat="47.29937" lon="-2.28486">
        <ele>7.8000001907349</ele>
        <time>2020-10-11T06:59:38.000Z</time>
      </trkpt>
      <trkpt lat="47.29936" lon="-2.28495">
        <ele>7.8000001907349</ele>
        <time>2020-10-11T06:59:39.000Z</time>
      </trkpt>
      <trkpt lat="47.29931" lon="-2.28513">
        <ele>7.8000001907349</ele>
        <time>2020-10-11T06:59:41.000Z</time>
      </trkpt>
      <trkpt lat="47.29926" lon="-2.28531">
        <ele>7.8000001907349</ele>
        <time>2020-10-11T06:59:43.000Z</time>
      </trkpt>
      <trkpt lat="47.29929" lon="-2.28548">
        <ele>7.8000001907349</ele>
        <time>2020-10-11T06:59:45.000Z</time>
      </trkpt>
      <trkpt lat="47.29937" lon="-2.28567">
        <ele>7.8000001907349</ele>
        <time>2020-10-11T06:59:48.000Z</time>
      </trkpt>
      <trkpt lat="47.29937" lon="-2.28596">
        <ele>7.8000001907349</ele>
        <time>2020-10-11T06:59:52.000Z</time>
      </trkpt>
      <trkpt lat="47.29935" lon="-2.28612">
        <ele>7.8000001907349</ele>
        <time>2020-10-11T06:59:54.000Z</time>
      </trkpt>
      <trkpt lat="47.29933" lon="-2.28629">
        <ele>7.4000000953674</ele>
        <time>2020-10-11T06:59:56.000Z</time>
      </trkpt>
      <trkpt lat="47.29931" lon="-2.28635">
        <ele>7</ele>
        <time>2020-10-11T06:59:57.000Z</time>
      </trkpt>
      <trkpt lat="47.29928" lon="-2.28641">
        <ele>6.5999999046326</ele>
        <time>2020-10-11T06:59:58.000Z</time>
      </trkpt>
      <trkpt lat="47.29926" lon="-2.28647">
        <ele>6</ele>
        <time>2020-10-11T06:59:59.000Z</time>
      </trkpt>
      <trkpt lat="47.29924" lon="-2.28653">
        <ele>5.5999999046326</ele>
        <time>2020-10-11T07:00:00.000Z</time>
      </trkpt>
      <trkpt lat="47.2992" lon="-2.28666">
        <ele>5.5999999046326</ele>
        <time>2020-10-11T07:00:02.000Z</time>
      </trkpt>
      <trkpt lat="47.29918" lon="-2.28672">
        <ele>5.5999999046326</ele>
        <time>2020-10-11T07:00:03.000Z</time>
      </trkpt>
      <trkpt lat="47.29909" lon="-2.28707">
        <ele>5.5999999046326</ele>
        <time>2020-10-11T07:00:08.000Z</time>
      </trkpt>
      <trkpt lat="47.29901" lon="-2.28744">
        <ele>5.5999999046326</ele>
        <time>2020-10-11T07:00:13.000Z</time>
      </trkpt>
      <trkpt lat="47.299" lon="-2.28758">
        <ele>5.5999999046326</ele>
        <time>2020-10-11T07:00:15.000Z</time>
      </trkpt>
      <trkpt lat="47.29898" lon="-2.2878">
        <ele>5.5999999046326</ele>
        <time>2020-10-11T07:00:18.000Z</time>
      </trkpt>
      <trkpt lat="47.29894" lon="-2.28801">
        <ele>5.5999999046326</ele>
        <time>2020-10-11T07:00:21.000Z</time>
      </trkpt>
      <trkpt lat="47.29888" lon="-2.28836">
        <ele>5.5999999046326</ele>
        <time>2020-10-11T07:00:26.000Z</time>
      </trkpt>
      <trkpt lat="47.29882" lon="-2.28877">
        <ele>5.5999999046326</ele>
        <time>2020-10-11T07:00:31.000Z</time>
      </trkpt>
      <trkpt lat="47.29876" lon="-2.28891">
        <ele>5.5999999046326</ele>
        <time>2020-10-11T07:00:33.000Z</time>
      </trkpt>
      <trkpt lat="47.29872" lon="-2.28916">
        <ele>5.5999999046326</ele>
        <time>2020-10-11T07:00:36.000Z</time>
      </trkpt>
      <trkpt lat="47.29872" lon="-2.28924">
        <ele>5.5999999046326</ele>
        <time>2020-10-11T07:00:37.000Z</time>
      </trkpt>
      <trkpt lat="47.29878" lon="-2.2894">
        <ele>5.5999999046326</ele>
        <time>2020-10-11T07:00:40.000Z</time>
      </trkpt>
      <trkpt lat="47.29882" lon="-2.28941">
        <ele>5.1999998092651</ele>
        <time>2020-10-11T07:00:41.000Z</time>
      </trkpt>
      <trkpt lat="47.29887" lon="-2.28942">
        <ele>4.8000001907349</ele>
        <time>2020-10-11T07:00:42.000Z</time>
      </trkpt>
      <trkpt lat="47.29893" lon="-2.28943">
        <ele>4.4000000953674</ele>
        <time>2020-10-11T07:00:43.000Z</time>
      </trkpt>
      <trkpt lat="47.29898" lon="-2.28944">
        <ele>4</ele>
        <time>2020-10-11T07:00:44.000Z</time>
      </trkpt>
      <trkpt lat="47.29904" lon="-2.28945">
        <ele>3.5999999046326</ele>
        <time>2020-10-11T07:00:45.000Z</time>
      </trkpt>
      <trkpt lat="47.2991" lon="-2.28946">
        <ele>3.5999999046326</ele>
        <time>2020-10-11T07:00:46.000Z</time>
      </trkpt>
      <trkpt lat="47.29922" lon="-2.28956">
        <ele>3.5999999046326</ele>
        <time>2020-10-11T07:00:49.000Z</time>
      </trkpt>
      <trkpt lat="47.29932" lon="-2.28973">
        <ele>3.5999999046326</ele>
        <time>2020-10-11T07:00:52.000Z</time>
      </trkpt>
      <trkpt lat="47.2994" lon="-2.28985">
        <ele>3.5999999046326</ele>
        <time>2020-10-11T07:00:54.000Z</time>
      </trkpt>
      <trkpt lat="47.29962" lon="-2.29029">
        <ele>3.5999999046326</ele>
        <time>2020-10-11T07:01:00.000Z</time>
      </trkpt>
      <trkpt lat="47.29979" lon="-2.2906">
        <ele>3.5999999046326</ele>
        <time>2020-10-11T07:01:05.000Z</time>
      </trkpt>
      <trkpt lat="47.29983" lon="-2.29072">
        <ele>3.2000000476837</ele>
        <time>2020-10-11T07:01:07.000Z</time>
      </trkpt>
      <trkpt lat="47.29986" lon="-2.29079">
        <ele>2.5999999046326</ele>
        <time>2020-10-11T07:01:08.000Z</time>
      </trkpt>
      <trkpt lat="47.2999" lon="-2.29085">
        <ele>2.2000000476837</ele>
        <time>2020-10-11T07:01:09.000Z</time>
      </trkpt>
      <trkpt lat="47.29994" lon="-2.29089">
        <ele>1.2000000476837</ele>
        <time>2020-10-11T07:01:10.000Z</time>
      </trkpt>
      <trkpt lat="47.30024" lon="-2.29117">
        <ele>1.2000000476837</ele>
        <time>2020-10-11T07:01:16.000Z</time>
      </trkpt>
      <trkpt lat="47.30048" lon="-2.2913">
        <ele>1.2000000476837</ele>
        <time>2020-10-11T07:01:20.000Z</time>
      </trkpt>
      <trkpt lat="47.30054" lon="-2.29134">
        <ele>1.2000000476837</ele>
        <time>2020-10-11T07:01:21.000Z</time>
      </trkpt>
      <trkpt lat="47.3006" lon="-2.2914">
        <ele>1.2000000476837</ele>
        <time>2020-10-11T07:01:22.000Z</time>
      </trkpt>
      <trkpt lat="47.30071" lon="-2.29156">
        <ele>1.2000000476837</ele>
        <time>2020-10-11T07:01:24.000Z</time>
      </trkpt>
      <trkpt lat="47.30112" lon="-2.29218">
        <ele>1.2000000476837</ele>
        <time>2020-10-11T07:01:31.000Z</time>
      </trkpt>
      <trkpt lat="47.30155" lon="-2.29285">
        <ele>1.2000000476837</ele>
        <time>2020-10-11T07:01:38.000Z</time>
      </trkpt>
      <trkpt lat="47.30172" lon="-2.29313">
        <ele>1.2000000476837</ele>
        <time>2020-10-11T07:01:41.000Z</time>
      </trkpt>
      <trkpt lat="47.30199" lon="-2.29355">
        <ele>1.2000000476837</ele>
        <time>2020-10-11T07:01:46.000Z</time>
      </trkpt>
      <trkpt lat="47.30205" lon="-2.29361">
        <ele>1.2000000476837</ele>
        <time>2020-10-11T07:01:47.000Z</time>
      </trkpt>
      <trkpt lat="47.30228" lon="-2.29368">
        <ele>1.2000000476837</ele>
        <time>2020-10-11T07:01:50.000Z</time>
      </trkpt>
      <trkpt lat="47.30257" lon="-2.29358">
        <ele>1.2000000476837</ele>
        <time>2020-10-11T07:01:54.000Z</time>
      </trkpt>
      <trkpt lat="47.30275" lon="-2.2934">
        <ele>1.2000000476837</ele>
        <time>2020-10-11T07:01:57.000Z</time>
      </trkpt>
      <trkpt lat="47.3028" lon="-2.29334">
        <ele>1.2000000476837</ele>
        <time>2020-10-11T07:01:58.000Z</time>
      </trkpt>
      <trkpt lat="47.30285" lon="-2.29328">
        <ele>1.2000000476837</ele>
        <time>2020-10-11T07:01:59.000Z</time>
      </trkpt>
      <trkpt lat="47.30308" lon="-2.29306">
        <ele>1.2000000476837</ele>
        <time>2020-10-11T07:02:03.000Z</time>
      </trkpt>
      <trkpt lat="47.30326" lon="-2.29294">
        <ele>1.2000000476837</ele>
        <time>2020-10-11T07:02:06.000Z</time>
      </trkpt>
      <trkpt lat="47.30338" lon="-2.29291">
        <ele>1.2000000476837</ele>
        <time>2020-10-11T07:02:08.000Z</time>
      </trkpt>
      <trkpt lat="47.30356" lon="-2.2929">
        <ele>1.2000000476837</ele>
        <time>2020-10-11T07:02:11.000Z</time>
      </trkpt>
      <trkpt lat="47.30369" lon="-2.2929">
        <ele>1.2000000476837</ele>
        <time>2020-10-11T07:02:13.000Z</time>
      </trkpt>
      <trkpt lat="47.30374" lon="-2.29288">
        <ele>1.2000000476837</ele>
        <time>2020-10-11T07:02:14.000Z</time>
      </trkpt>
      <trkpt lat="47.30393" lon="-2.29278">
        <ele>1.2000000476837</ele>
        <time>2020-10-11T07:02:17.000Z</time>
      </trkpt>
      <trkpt lat="47.30399" lon="-2.29272">
        <ele>0.80000001192093</ele>
        <time>2020-10-11T07:02:18.000Z</time>
      </trkpt>
      <trkpt lat="47.30405" lon="-2.29265">
        <ele>0.40000000596046</ele>
        <time>2020-10-11T07:02:19.000Z</time>
      </trkpt>
      <trkpt lat="47.30411" lon="-2.29258">
        <ele>2.2</ele>
        <time>2020-10-11T07:02:20.000Z</time>
      </trkpt>
      <trkpt lat="47.30416" lon="-2.2925">
        <ele>-0.40000000596046</ele>
        <time>2020-10-11T07:02:21.000Z</time>
      </trkpt>
      <trkpt lat="47.30422" lon="-2.29242">
        <ele>-0.80000001192093</ele>
        <time>2020-10-11T07:02:22.000Z</time>
      </trkpt>
      <trkpt lat="47.30454" lon="-2.29199">
        <ele>-0.80000001192093</ele>
        <time>2020-10-11T07:02:28.000Z</time>
      </trkpt>
      <trkpt lat="47.30473" lon="-2.29172">
        <ele>-0.80000001192093</ele>
        <time>2020-10-11T07:02:32.000Z</time>
      </trkpt>
      <trkpt lat="47.30484" lon="-2.29151">
        <ele>-0.80000001192093</ele>
        <time>2020-10-11T07:02:35.000Z</time>
      </trkpt>
      <trkpt lat="47.30487" lon="-2.29143">
        <ele>-0.80000001192093</ele>
        <time>2020-10-11T07:02:36.000Z</time>
      </trkpt>
      <trkpt lat="47.305" lon="-2.29111">
        <ele>-0.80000001192093</ele>
        <time>2020-10-11T07:02:40.000Z</time>
      </trkpt>
      <trkpt lat="47.30507" lon="-2.29072">
        <ele>-0.80000001192093</ele>
        <time>2020-10-11T07:02:44.000Z</time>
      </trkpt>
      <trkpt lat="47.30502" lon="-2.29035">
        <ele>-0.80000001192093</ele>
        <time>2020-10-11T07:02:48.000Z</time>
      </trkpt>
      <trkpt lat="47.305" lon="-2.29027">
        <ele>-0.80000001192093</ele>
        <time>2020-10-11T07:02:49.000Z</time>
      </trkpt>
      <trkpt lat="47.30494" lon="-2.29004">
        <ele>-0.80000001192093</ele>
        <time>2020-10-11T07:02:52.000Z</time>
      </trkpt>
      <trkpt lat="47.30495" lon="-2.28997">
        <ele>-0.80000001192093</ele>
        <time>2020-10-11T07:02:53.000Z</time>
      </trkpt>
      <trkpt lat="47.30505" lon="-2.28979">
        <ele>-0.80000001192093</ele>
        <time>2020-10-11T07:02:56.000Z</time>
      </trkpt>
      <trkpt lat="47.30526" lon="-2.28963">
        <ele>-0.80000001192093</ele>
        <time>2020-10-11T07:03:00.000Z</time>
      </trkpt>
      <trkpt lat="47.30531" lon="-2.28961">
        <ele>-0.80000001192093</ele>
        <time>2020-10-11T07:03:01.000Z</time>
      </trkpt>
      <trkpt lat="47.30554" lon="-2.28945">
        <ele>-0.80000001192093</ele>
        <time>2020-10-11T07:03:05.000Z</time>
      </trkpt>
      <trkpt lat="47.30581" lon="-2.28919">
        <ele>-0.80000001192093</ele>
        <time>2020-10-11T07:03:10.000Z</time>
      </trkpt>
      <trkpt lat="47.30587" lon="-2.28916">
        <ele>-0.80000001192093</ele>
        <time>2020-10-11T07:03:11.000Z</time>
      </trkpt>
      <trkpt lat="47.30598" lon="-2.28909">
        <ele>5.7</ele>
        <time>2020-10-11T07:03:13.000Z</time>
      </trkpt>
      <trkpt lat="47.30603" lon="-2.28905">
        <ele>0.40000000596046</ele>
        <time>2020-10-11T07:03:14.000Z</time>
      </trkpt>
      <trkpt lat="47.30608" lon="-2.28902">
        <ele>0.80000001192093</ele>
        <time>2020-10-11T07:03:15.000Z</time>
      </trkpt>
      <trkpt lat="47.30614" lon="-2.28899">
        <ele>1.2000000476837</ele>
        <time>2020-10-11T07:03:16.000Z</time>
      </trkpt>
      <trkpt lat="47.30619" lon="-2.28895">
        <ele>1.2000000476837</ele>
        <time>2020-10-11T07:03:17.000Z</time>
      </trkpt>
      <trkpt lat="47.30635" lon="-2.28886">
        <ele>1.2000000476837</ele>
        <time>2020-10-11T07:03:20.000Z</time>
      </trkpt>
      <trkpt lat="47.30651" lon="-2.28877">
        <ele>1.2000000476837</ele>
        <time>2020-10-11T07:03:23.000Z</time>
      </trkpt>
      <trkpt lat="47.30667" lon="-2.28867">
        <ele>1.6000000238419</ele>
        <time>2020-10-11T07:03:24.000Z</time>
      </trkpt>
      <trkpt lat="47.30673" lon="-2.28863">
        <ele>2.2000000476837</ele>
        <time>2020-10-11T07:03:27.000Z</time>
      </trkpt>
      <trkpt lat="47.30677" lon="-2.28859">
        <ele>2.5999999046326</ele>
        <time>2020-10-11T07:03:28.000Z</time>
      </trkpt>
      <trkpt lat="47.30682" lon="-2.28855">
        <ele>3</ele>
        <time>2020-10-11T07:03:29.000Z</time>
      </trkpt>
      <trkpt lat="47.30687" lon="-2.28851">
        <ele>3.4000000953674</ele>
        <time>2020-10-11T07:03:30.000Z</time>
      </trkpt>
      <trkpt lat="47.30712" lon="-2.28833">
        <ele>3.4000000953674</ele>
        <time>2020-10-11T07:03:35.000Z</time>
      </trkpt>
      <trkpt lat="47.30724" lon="-2.2883">
        <ele>3.4000000953674</ele>
        <time>2020-10-11T07:03:37.000Z</time>
      </trkpt>
      <trkpt lat="47.3077" lon="-2.28819">
        <ele>3.4000000953674</ele>
        <time>2020-10-11T07:03:44.000Z</time>
      </trkpt>
      <trkpt lat="47.30819" lon="-2.28815">
        <ele>3.4000000953674</ele>
        <time>2020-10-11T07:03:51.000Z</time>
      </trkpt>
      <trkpt lat="47.30835" lon="-2.28818">
        <ele>3.4000000953674</ele>
        <time>2020-10-11T07:03:53.000Z</time>
      </trkpt>
      <trkpt lat="47.30843" lon="-2.2882">
        <ele>2.7999999523163</ele>
        <time>2020-10-11T07:03:54.000Z</time>
      </trkpt>
      <trkpt lat="47.3085" lon="-2.28821">
        <ele>2.4000000953674</ele>
        <time>2020-10-11T07:03:55.000Z</time>
      </trkpt>
      <trkpt lat="47.30858" lon="-2.2882">
        <ele>2</ele>
        <time>2020-10-11T07:03:56.000Z</time>
      </trkpt>
      <trkpt lat="47.30866" lon="-2.2882">
        <ele>1.6000000238419</ele>
        <time>2020-10-11T07:03:57.000Z</time>
      </trkpt>
      <trkpt lat="47.30875" lon="-2.2882">
        <ele>1</ele>
        <time>2020-10-11T07:03:58.000Z</time>
      </trkpt>
      <trkpt lat="47.30915" lon="-2.28818">
        <ele>1</ele>
        <time>2020-10-11T07:04:03.000Z</time>
      </trkpt>
      <trkpt lat="47.30947" lon="-2.28819">
        <ele>1</ele>
        <time>2020-10-11T07:04:08.000Z</time>
      </trkpt>
      <trkpt lat="47.30957" lon="-2.28817">
        <ele>1</ele>
        <time>2020-10-11T07:04:10.000Z</time>
      </trkpt>
      <trkpt lat="47.30973" lon="-2.28812">
        <ele>1</ele>
        <time>2020-10-11T07:04:13.000Z</time>
      </trkpt>
      <trkpt lat="47.30984" lon="-2.28808">
        <ele>1.3999999761581</ele>
        <time>2020-10-11T07:04:15.000Z</time>
      </trkpt>
      <trkpt lat="47.30989" lon="-2.28807">
        <ele>2</ele>
        <time>2020-10-11T07:04:16.000Z</time>
      </trkpt>
      <trkpt lat="47.30994" lon="-2.28806">
        <ele>2.4000000953674</ele>
        <time>2020-10-11T07:04:17.000Z</time>
      </trkpt>
      <trkpt lat="47.31" lon="-2.28806">
        <ele>2.7999999523163</ele>
        <time>2020-10-11T07:04:18.000Z</time>
      </trkpt>
      <trkpt lat="47.31005" lon="-2.28808">
        <ele>3.2000000476837</ele>
        <time>2020-10-11T07:04:19.000Z</time>
      </trkpt>
      <trkpt lat="47.31011" lon="-2.28811">
        <ele>3.5999999046326</ele>
        <time>2020-10-11T07:04:20.000Z</time>
      </trkpt>
      <trkpt lat="47.31016" lon="-2.28815">
        <ele>4</ele>
        <time>2020-10-11T07:04:21.000Z</time>
      </trkpt>
      <trkpt lat="47.31021" lon="-2.28819">
        <ele>4.4000000953674</ele>
        <time>2020-10-11T07:04:22.000Z</time>
      </trkpt>
      <trkpt lat="47.31026" lon="-2.28824">
        <ele>4.8000001907349</ele>
        <time>2020-10-11T07:04:23.000Z</time>
      </trkpt>
      <trkpt lat="47.31031" lon="-2.28829">
        <ele>5.1999998092651</ele>
        <time>2020-10-11T07:04:24.000Z</time>
      </trkpt>
      <trkpt lat="47.31055" lon="-2.28846">
        <ele>5.1999998092651</ele>
        <time>2020-10-11T07:04:28.000Z</time>
      </trkpt>
      <trkpt lat="47.31095" lon="-2.28875">
        <ele>4.8000001907349</ele>
        <time>2020-10-11T07:04:34.000Z</time>
      </trkpt>
      <trkpt lat="47.31102" lon="-2.2888">
        <ele>4.4000000953674</ele>
        <time>2020-10-11T07:04:35.000Z</time>
      </trkpt>
      <trkpt lat="47.31108" lon="-2.28886">
        <ele>3.7999999523163</ele>
        <time>2020-10-11T07:04:36.000Z</time>
      </trkpt>
      <trkpt lat="47.31115" lon="-2.28893">
        <ele>3.4000000953674</ele>
        <time>2020-10-11T07:04:37.000Z</time>
      </trkpt>
      <trkpt lat="47.31121" lon="-2.28899">
        <ele>3</ele>
        <time>2020-10-11T07:04:38.000Z</time>
      </trkpt>
      <trkpt lat="47.31128" lon="-2.28902">
        <ele>3</ele>
        <time>2020-10-11T07:04:39.000Z</time>
      </trkpt>
      <trkpt lat="47.31149" lon="-2.28897">
        <ele>3</ele>
        <time>2020-10-11T07:04:42.000Z</time>
      </trkpt>
      <trkpt lat="47.31156" lon="-2.28894">
        <ele>2.5999999046326</ele>
        <time>2020-10-11T07:04:43.000Z</time>
      </trkpt>
      <trkpt lat="47.31162" lon="-2.28893">
        <ele>2</ele>
        <time>2020-10-11T07:04:44.000Z</time>
      </trkpt>
      <trkpt lat="47.31169" lon="-2.28894">
        <ele>1.6000000238419</ele>
        <time>2020-10-11T07:04:45.000Z</time>
      </trkpt>
      <trkpt lat="47.31174" lon="-2.28899">
        <ele>1.2000000476837</ele>
        <time>2020-10-11T07:04:46.000Z</time>
      </trkpt>
      <trkpt lat="47.31179" lon="-2.28906">
        <ele>0.80000001192093</ele>
        <time>2020-10-11T07:04:47.000Z</time>
      </trkpt>
      <trkpt lat="47.31184" lon="-2.28925">
        <ele>0.80000001192093</ele>
        <time>2020-10-11T07:04:49.000Z</time>
      </trkpt>
      <trkpt lat="47.31187" lon="-2.28934">
        <ele>0.80000001192093</ele>
        <time>2020-10-11T07:04:50.000Z</time>
      </trkpt>
      <trkpt lat="47.31196" lon="-2.28984">
        <ele>0.80000001192093</ele>
        <time>2020-10-11T07:04:55.000Z</time>
      </trkpt>
      <trkpt lat="47.31203" lon="-2.29057">
        <ele>0.80000001192093</ele>
        <time>2020-10-11T07:05:02.000Z</time>
      </trkpt>
      <trkpt lat="47.31205" lon="-2.29077">
        <ele>1.2000000476837</ele>
        <time>2020-10-11T07:05:04.000Z</time>
      </trkpt>
      <trkpt lat="47.31206" lon="-2.29087">
        <ele>1.6000000238419</ele>
        <time>2020-10-11T07:05:05.000Z</time>
      </trkpt>
      <trkpt lat="47.31207" lon="-2.29096">
        <ele>2</ele>
        <time>2020-10-11T07:05:06.000Z</time>
      </trkpt>
      <trkpt lat="47.31209" lon="-2.29106">
        <ele>2.4000000953674</ele>
        <time>2020-10-11T07:05:07.000Z</time>
      </trkpt>
      <trkpt lat="47.3121" lon="-2.29116">
        <ele>3</ele>
        <time>2020-10-11T07:05:08.000Z</time>
      </trkpt>
      <trkpt lat="47.31212" lon="-2.29135">
        <ele>3</ele>
        <time>2020-10-11T07:05:10.000Z</time>
      </trkpt>
      <trkpt lat="47.31227" lon="-2.29207">
        <ele>3</ele>
        <time>2020-10-11T07:05:17.000Z</time>
      </trkpt>
      <trkpt lat="47.31246" lon="-2.29279">
        <ele>3</ele>
        <time>2020-10-11T07:05:24.000Z</time>
      </trkpt>
      <trkpt lat="47.31257" lon="-2.29329">
        <ele>3</ele>
        <time>2020-10-11T07:05:30.000Z</time>
      </trkpt>
      <trkpt lat="47.31262" lon="-2.2934">
        <ele>3</ele>
        <time>2020-10-11T07:05:33.000Z</time>
      </trkpt>
      <trkpt lat="47.31265" lon="-2.2934">
        <ele>3</ele>
        <time>2020-10-11T07:05:34.000Z</time>
      </trkpt>
      <trkpt lat="47.31272" lon="-2.29331">
        <ele>3</ele>
        <time>2020-10-11T07:05:37.000Z</time>
      </trkpt>
      <trkpt lat="47.31279" lon="-2.29316">
        <ele>3</ele>
        <time>2020-10-11T07:05:40.000Z</time>
      </trkpt>
      <trkpt lat="47.31283" lon="-2.2931">
        <ele>3</ele>
        <time>2020-10-11T07:05:41.000Z</time>
      </trkpt>
      <trkpt lat="47.31286" lon="-2.29305">
        <ele>3</ele>
        <time>2020-10-11T07:05:42.000Z</time>
      </trkpt>
      <trkpt lat="47.31301" lon="-2.29296">
        <ele>3</ele>
        <time>2020-10-11T07:05:45.000Z</time>
      </trkpt>
      <trkpt lat="47.31305" lon="-2.29295">
        <ele>3</ele>
        <time>2020-10-11T07:05:46.000Z</time>
      </trkpt>
      <trkpt lat="47.31311" lon="-2.29294">
        <ele>3</ele>
        <time>2020-10-11T07:05:47.000Z</time>
      </trkpt>
      <trkpt lat="47.31327" lon="-2.29297">
        <ele>3</ele>
        <time>2020-10-11T07:05:50.000Z</time>
      </trkpt>
      <trkpt lat="47.31333" lon="-2.29298">
        <ele>3</ele>
        <time>2020-10-11T07:05:51.000Z</time>
      </trkpt>
      <trkpt lat="47.31344" lon="-2.29303">
        <ele>3</ele>
        <time>2020-10-11T07:05:53.000Z</time>
      </trkpt>
      <trkpt lat="47.31355" lon="-2.29308">
        <ele>3</ele>
        <time>2020-10-11T07:05:55.000Z</time>
      </trkpt>
      <trkpt lat="47.31385" lon="-2.29322">
        <ele>3</ele>
        <time>2020-10-11T07:06:01.000Z</time>
      </trkpt>
      <trkpt lat="47.314" lon="-2.29331">
        <ele>3.4000000953674</ele>
        <time>2020-10-11T07:06:04.000Z</time>
      </trkpt>
      <trkpt lat="47.31404" lon="-2.29335">
        <ele>3.7999999523163</ele>
        <time>2020-10-11T07:06:05.000Z</time>
      </trkpt>
      <trkpt lat="47.31409" lon="-2.29339">
        <ele>4.1999998092651</ele>
        <time>2020-10-11T07:06:06.000Z</time>
      </trkpt>
      <trkpt lat="47.31412" lon="-2.29344">
        <ele>4.5999999046326</ele>
        <time>2020-10-11T07:06:07.000Z</time>
      </trkpt>
      <trkpt lat="47.31416" lon="-2.29348">
        <ele>5</ele>
        <time>2020-10-11T07:06:08.000Z</time>
      </trkpt>
      <trkpt lat="47.3143" lon="-2.29367">
        <ele>5</ele>
        <time>2020-10-11T07:06:12.000Z</time>
      </trkpt>
      <trkpt lat="47.31433" lon="-2.29372">
        <ele>5</ele>
        <time>2020-10-11T07:06:13.000Z</time>
      </trkpt>
      <trkpt lat="47.31449" lon="-2.29398">
        <ele>5</ele>
        <time>2020-10-11T07:06:18.000Z</time>
      </trkpt>
      <trkpt lat="47.31453" lon="-2.294">
        <ele>5</ele>
        <time>2020-10-11T07:06:19.000Z</time>
      </trkpt>
      <trkpt lat="47.31471" lon="-2.29401">
        <ele>5</ele>
        <time>2020-10-11T07:06:23.000Z</time>
      </trkpt>
      <trkpt lat="47.31479" lon="-2.29398">
        <ele>5</ele>
        <time>2020-10-11T07:06:25.000Z</time>
      </trkpt>
      <trkpt lat="47.31498" lon="-2.29396">
        <ele>5.4000000953674</ele>
        <time>2020-10-11T07:06:29.000Z</time>
      </trkpt>
      <trkpt lat="47.31501" lon="-2.29399">
        <ele>5.8000001907349</ele>
        <time>2020-10-11T07:06:30.000Z</time>
      </trkpt>
      <trkpt lat="47.31504" lon="-2.29402">
        <ele>6.1999998092651</ele>
        <time>2020-10-11T07:06:31.000Z</time>
      </trkpt>
      <trkpt lat="47.31507" lon="-2.29407">
        <ele>7</ele>
        <time>2020-10-11T07:06:32.000Z</time>
      </trkpt>
      <trkpt lat="47.3151" lon="-2.29411">
        <ele>7</ele>
        <time>2020-10-11T07:06:33.000Z</time>
      </trkpt>
      <trkpt lat="47.31517" lon="-2.29422">
        <ele>7</ele>
        <time>2020-10-11T07:06:35.000Z</time>
      </trkpt>
      <trkpt lat="47.31526" lon="-2.29444">
        <ele>7</ele>
        <time>2020-10-11T07:06:38.000Z</time>
      </trkpt>
      <trkpt lat="47.31537" lon="-2.29479">
        <ele>7.5999999046326</ele>
        <time>2020-10-11T07:06:43.000Z</time>
      </trkpt>
      <trkpt lat="47.31538" lon="-2.29486">
        <ele>8</ele>
        <time>2020-10-11T07:06:44.000Z</time>
      </trkpt>
      <trkpt lat="47.31539" lon="-2.29492">
        <ele>8.3999996185303</ele>
        <time>2020-10-11T07:06:45.000Z</time>
      </trkpt>
      <trkpt lat="47.3154" lon="-2.29498">
        <ele>8.8000001907349</ele>
        <time>2020-10-11T07:06:46.000Z</time>
      </trkpt>
      <trkpt lat="47.31541" lon="-2.29503">
        <ele>9.1999998092651</ele>
        <time>2020-10-11T07:06:47.000Z</time>
      </trkpt>
      <trkpt lat="47.31545" lon="-2.29518">
        <ele>9.1999998092651</ele>
        <time>2020-10-11T07:06:50.000Z</time>
      </trkpt>
      <trkpt lat="47.31549" lon="-2.2953">
        <ele>9.1999998092651</ele>
        <time>2020-10-11T07:06:52.000Z</time>
      </trkpt>
      <trkpt lat="47.31555" lon="-2.29541">
        <ele>9.1999998092651</ele>
        <time>2020-10-11T07:06:54.000Z</time>
      </trkpt>
      <trkpt lat="47.31561" lon="-2.29549">
        <ele>9.1999998092651</ele>
        <time>2020-10-11T07:06:56.000Z</time>
      </trkpt>
      <trkpt lat="47.3157" lon="-2.29564">
        <ele>9.1999998092651</ele>
        <time>2020-10-11T07:06:59.000Z</time>
      </trkpt>
      <trkpt lat="47.31581" lon="-2.29579">
        <ele>9.1999998092651</ele>
        <time>2020-10-11T07:07:02.000Z</time>
      </trkpt>
      <trkpt lat="47.31593" lon="-2.29592">
        <ele>9.1999998092651</ele>
        <time>2020-10-11T07:07:05.000Z</time>
      </trkpt>
      <trkpt lat="47.31608" lon="-2.29606">
        <ele>9.1999998092651</ele>
        <time>2020-10-11T07:07:09.000Z</time>
      </trkpt>
      <trkpt lat="47.31615" lon="-2.29615">
        <ele>9.1999998092651</ele>
        <time>2020-10-11T07:07:11.000Z</time>
      </trkpt>
      <trkpt lat="47.31629" lon="-2.29642">
        <ele>9.1999998092651</ele>
        <time>2020-10-11T07:07:16.000Z</time>
      </trkpt>
      <trkpt lat="47.31632" lon="-2.29648">
        <ele>9.1999998092651</ele>
        <time>2020-10-11T07:07:17.000Z</time>
      </trkpt>
      <trkpt lat="47.31639" lon="-2.29667">
        <ele>9.6000003814697</ele>
        <time>2020-10-11T07:07:20.000Z</time>
      </trkpt>
      <trkpt lat="47.31641" lon="-2.29673">
        <ele>10</ele>
        <time>2020-10-11T07:07:21.000Z</time>
      </trkpt>
      <trkpt lat="47.31643" lon="-2.29679">
        <ele>10.39999961853</ele>
        <time>2020-10-11T07:07:22.000Z</time>
      </trkpt>
      <trkpt lat="47.31645" lon="-2.29685">
        <ele>10.800000190735</ele>
        <time>2020-10-11T07:07:23.000Z</time>
      </trkpt>
      <trkpt lat="47.31647" lon="-2.29692">
        <ele>11.39999961853</ele>
        <time>2020-10-11T07:07:24.000Z</time>
      </trkpt>
      <trkpt lat="47.31659" lon="-2.29725">
        <ele>11.39999961853</ele>
        <time>2020-10-11T07:07:29.000Z</time>
      </trkpt>
      <trkpt lat="47.31674" lon="-2.29733">
        <ele>11.39999961853</ele>
        <time>2020-10-11T07:07:32.000Z</time>
      </trkpt>
      <trkpt lat="47.31688" lon="-2.2973">
        <ele>11.39999961853</ele>
        <time>2020-10-11T07:07:35.000Z</time>
      </trkpt>
      <trkpt lat="47.31693" lon="-2.2973">
        <ele>11.39999961853</ele>
        <time>2020-10-11T07:07:36.000Z</time>
      </trkpt>
      <trkpt lat="47.31705" lon="-2.29726">
        <ele>11.39999961853</ele>
        <time>2020-10-11T07:07:38.000Z</time>
      </trkpt>
      <trkpt lat="47.31715" lon="-2.29717">
        <ele>11.39999961853</ele>
        <time>2020-10-11T07:07:40.000Z</time>
      </trkpt>
      <trkpt lat="47.31726" lon="-2.29711">
        <ele>11.39999961853</ele>
        <time>2020-10-11T07:07:42.000Z</time>
      </trkpt>
      <trkpt lat="47.31742" lon="-2.29698">
        <ele>11.39999961853</ele>
        <time>2020-10-11T07:07:45.000Z</time>
      </trkpt>
      <trkpt lat="47.31783" lon="-2.29669">
        <ele>11.39999961853</ele>
        <time>2020-10-11T07:07:52.000Z</time>
      </trkpt>
      <trkpt lat="47.31822" lon="-2.29641">
        <ele>11.39999961853</ele>
        <time>2020-10-11T07:07:59.000Z</time>
      </trkpt>
      <trkpt lat="47.31856" lon="-2.2962">
        <ele>11.39999961853</ele>
        <time>2020-10-11T07:08:05.000Z</time>
      </trkpt>
      <trkpt lat="47.31861" lon="-2.29615">
        <ele>11.39999961853</ele>
        <time>2020-10-11T07:08:06.000Z</time>
      </trkpt>
      <trkpt lat="47.3187" lon="-2.29602">
        <ele>11.39999961853</ele>
        <time>2020-10-11T07:08:08.000Z</time>
      </trkpt>
      <trkpt lat="47.31874" lon="-2.29583">
        <ele>11.39999961853</ele>
        <time>2020-10-11T07:08:10.000Z</time>
      </trkpt>
      <trkpt lat="47.31869" lon="-2.29556">
        <ele>11.39999961853</ele>
        <time>2020-10-11T07:08:13.000Z</time>
      </trkpt>
      <trkpt lat="47.31866" lon="-2.29548">
        <ele>11.39999961853</ele>
        <time>2020-10-11T07:08:14.000Z</time>
      </trkpt>
      <trkpt lat="47.31847" lon="-2.29492">
        <ele>11.39999961853</ele>
        <time>2020-10-11T07:08:20.000Z</time>
      </trkpt>
      <trkpt lat="47.31846" lon="-2.29481">
        <ele>11.39999961853</ele>
        <time>2020-10-11T07:08:21.000Z</time>
      </trkpt>
      <trkpt lat="47.31847" lon="-2.29459">
        <ele>11.39999961853</ele>
        <time>2020-10-11T07:08:23.000Z</time>
      </trkpt>
      <trkpt lat="47.31851" lon="-2.29427">
        <ele>11.39999961853</ele>
        <time>2020-10-11T07:08:26.000Z</time>
      </trkpt>
      <trkpt lat="47.31851" lon="-2.29404">
        <ele>11.39999961853</ele>
        <time>2020-10-11T07:08:28.000Z</time>
      </trkpt>
      <trkpt lat="47.31844" lon="-2.29359">
        <ele>11.39999961853</ele>
        <time>2020-10-11T07:08:32.000Z</time>
      </trkpt>
      <trkpt lat="47.31834" lon="-2.29302">
        <ele>10.800000190735</ele>
        <time>2020-10-11T07:08:37.000Z</time>
      </trkpt>
      <trkpt lat="47.31833" lon="-2.29289">
        <ele>10.39999961853</ele>
        <time>2020-10-11T07:08:38.000Z</time>
      </trkpt>
      <trkpt lat="47.31832" lon="-2.29276">
        <ele>10</ele>
        <time>2020-10-11T07:08:39.000Z</time>
      </trkpt>
      <trkpt lat="47.3183" lon="-2.29263">
        <ele>9.6000003814697</ele>
        <time>2020-10-11T07:08:40.000Z</time>
      </trkpt>
      <trkpt lat="47.31829" lon="-2.29251">
        <ele>9.1999998092651</ele>
        <time>2020-10-11T07:08:41.000Z</time>
      </trkpt>
      <trkpt lat="47.31823" lon="-2.29202">
        <ele>8.8000001907349</ele>
        <time>2020-10-11T07:08:45.000Z</time>
      </trkpt>
      <trkpt lat="47.31823" lon="-2.2919">
        <ele>8.1999998092651</ele>
        <time>2020-10-11T07:08:46.000Z</time>
      </trkpt>
      <trkpt lat="47.31824" lon="-2.29176">
        <ele>7.8000001907349</ele>
        <time>2020-10-11T07:08:47.000Z</time>
      </trkpt>
      <trkpt lat="47.31825" lon="-2.29164">
        <ele>7.4000000953674</ele>
        <time>2020-10-11T07:08:48.000Z</time>
      </trkpt>
      <trkpt lat="47.31827" lon="-2.29152">
        <ele>7</ele>
        <time>2020-10-11T07:08:49.000Z</time>
      </trkpt>
      <trkpt lat="47.31838" lon="-2.29078">
        <ele>6.5999999046326</ele>
        <time>2020-10-11T07:08:55.000Z</time>
      </trkpt>
      <trkpt lat="47.31841" lon="-2.29066">
        <ele>6.1999998092651</ele>
        <time>2020-10-11T07:08:56.000Z</time>
      </trkpt>
      <trkpt lat="47.31843" lon="-2.29055">
        <ele>5.8000001907349</ele>
        <time>2020-10-11T07:08:57.000Z</time>
      </trkpt>
      <trkpt lat="47.31846" lon="-2.29043">
        <ele>5.4000000953674</ele>
        <time>2020-10-11T07:08:58.000Z</time>
      </trkpt>
      <trkpt lat="47.31849" lon="-2.29032">
        <ele>4.4000000953674</ele>
        <time>2020-10-11T07:08:59.000Z</time>
      </trkpt>
      <trkpt lat="47.31851" lon="-2.29021">
        <ele>4</ele>
        <time>2020-10-11T07:09:00.000Z</time>
      </trkpt>
      <trkpt lat="47.31854" lon="-2.2901">
        <ele>3.4000000953674</ele>
        <time>2020-10-11T07:09:01.000Z</time>
      </trkpt>
      <trkpt lat="47.31855" lon="-2.28999">
        <ele>3</ele>
        <time>2020-10-11T07:09:02.000Z</time>
      </trkpt>
      <trkpt lat="47.31856" lon="-2.28988">
        <ele>2.5999999046326</ele>
        <time>2020-10-11T07:09:03.000Z</time>
      </trkpt>
      <trkpt lat="47.3186" lon="-2.28959">
        <ele>2.5999999046326</ele>
        <time>2020-10-11T07:09:06.000Z</time>
      </trkpt>
      <trkpt lat="47.31861" lon="-2.28952">
        <ele>2.2000000476837</ele>
        <time>2020-10-11T07:09:07.000Z</time>
      </trkpt>
      <trkpt lat="47.31862" lon="-2.28946">
        <ele>1.7999999523163</ele>
        <time>2020-10-11T07:09:08.000Z</time>
      </trkpt>
      <trkpt lat="47.31864" lon="-2.28942">
        <ele>1.3999999761581</ele>
        <time>2020-10-11T07:09:09.000Z</time>
      </trkpt>
      <trkpt lat="47.31867" lon="-2.2894">
        <ele>1</ele>
        <time>2020-10-11T07:09:10.000Z</time>
      </trkpt>
      <trkpt lat="47.3187" lon="-2.2894">
        <ele>0.60000002384186</ele>
        <time>2020-10-11T07:09:11.000Z</time>
      </trkpt>
      <trkpt lat="47.31878" lon="-2.2894">
        <ele>0.60000002384186</ele>
        <time>2020-10-11T07:09:14.000Z</time>
      </trkpt>
      <trkpt lat="47.31894" lon="-2.28938">
        <ele>0.60000002384186</ele>
        <time>2020-10-11T07:09:19.000Z</time>
      </trkpt>
      <trkpt lat="47.31913" lon="-2.28925">
        <ele>0.60000002384186</ele>
        <time>2020-10-11T07:09:24.000Z</time>
      </trkpt>
      <trkpt lat="47.31938" lon="-2.28903">
        <ele>0.60000002384186</ele>
        <time>2020-10-11T07:09:31.000Z</time>
      </trkpt>
      <trkpt lat="47.31966" lon="-2.28891">
        <ele>0.60000002384186</ele>
        <time>2020-10-11T07:09:36.000Z</time>
      </trkpt>
      <trkpt lat="47.32011" lon="-2.28878">
        <ele>0.60000002384186</ele>
        <time>2020-10-11T07:09:43.000Z</time>
      </trkpt>
      <trkpt lat="47.32032" lon="-2.28869">
        <ele>0.60000002384186</ele>
        <time>2020-10-11T07:09:47.000Z</time>
      </trkpt>
      <trkpt lat="47.32036" lon="-2.28873">
        <ele>0.20000000298023</ele>
        <time>2020-10-11T07:09:48.000Z</time>
      </trkpt>
      <trkpt lat="47.32039" lon="-2.28878">
        <ele>-0.20000000298023</ele>
        <time>2020-10-11T07:09:49.000Z</time>
      </trkpt>
      <trkpt lat="47.32041" lon="-2.28885">
        <ele>-0.60000002384186</ele>
        <time>2020-10-11T07:09:50.000Z</time>
      </trkpt>
      <trkpt lat="47.32042" lon="-2.28893">
        <ele>-1</ele>
        <time>2020-10-11T07:09:51.000Z</time>
      </trkpt>
      <trkpt lat="47.32043" lon="-2.28901">
        <ele>-1.3999999761581</ele>
        <time>2020-10-11T07:09:52.000Z</time>
      </trkpt>
      <trkpt lat="47.32044" lon="-2.2891">
        <ele>-1.3999999761581</ele>
        <time>2020-10-11T07:09:53.000Z</time>
      </trkpt>
      <trkpt lat="47.32044" lon="-2.28918">
        <ele>-1.3999999761581</ele>
        <time>2020-10-11T07:09:54.000Z</time>
      </trkpt>
      <trkpt lat="47.32048" lon="-2.28938">
        <ele>-1.3999999761581</ele>
        <time>2020-10-11T07:09:57.000Z</time>
      </trkpt>
      <trkpt lat="47.32053" lon="-2.28942">
        <ele>-1.3999999761581</ele>
        <time>2020-10-11T07:09:58.000Z</time>
      </trkpt>
      <trkpt lat="47.32068" lon="-2.2895">
        <ele>-1.3999999761581</ele>
        <time>2020-10-11T07:10:02.000Z</time>
      </trkpt>
      <trkpt lat="47.32089" lon="-2.2896">
        <ele>-1.3999999761581</ele>
        <time>2020-10-11T07:10:07.000Z</time>
      </trkpt>
      <trkpt lat="47.32104" lon="-2.2898">
        <ele>-1.3999999761581</ele>
        <time>2020-10-11T07:10:11.000Z</time>
      </trkpt>
      <trkpt lat="47.32112" lon="-2.28996">
        <ele>-1.3999999761581</ele>
        <time>2020-10-11T07:10:14.000Z</time>
      </trkpt>
      <trkpt lat="47.3212" lon="-2.29012">
        <ele>-1</ele>
        <time>2020-10-11T07:10:17.000Z</time>
      </trkpt>
      <trkpt lat="47.32123" lon="-2.29019">
        <ele>-0.60000002384186</ele>
        <time>2020-10-11T07:10:18.000Z</time>
      </trkpt>
      <trkpt lat="47.32125" lon="-2.29025">
        <ele>-0.20000000298023</ele>
        <time>2020-10-11T07:10:19.000Z</time>
      </trkpt>
      <trkpt lat="47.32127" lon="-2.29033">
        <ele>0.20000000298023</ele>
        <time>2020-10-11T07:10:20.000Z</time>
      </trkpt>
      <trkpt lat="47.32129" lon="-2.2904">
        <ele>0.60000002384186</ele>
        <time>2020-10-11T07:10:21.000Z</time>
      </trkpt>
      <trkpt lat="47.32133" lon="-2.29052">
        <ele>0.60000002384186</ele>
        <time>2020-10-11T07:10:23.000Z</time>
      </trkpt>
      <trkpt lat="47.32149" lon="-2.29089">
        <ele>0.60000002384186</ele>
        <time>2020-10-11T07:10:29.000Z</time>
      </trkpt>
      <trkpt lat="47.32153" lon="-2.29095">
        <ele>0.60000002384186</ele>
        <time>2020-10-11T07:10:30.000Z</time>
      </trkpt>
      <trkpt lat="47.32167" lon="-2.29111">
        <ele>0.60000002384186</ele>
        <time>2020-10-11T07:10:33.000Z</time>
      </trkpt>
      <trkpt lat="47.32177" lon="-2.2912">
        <ele>0.60000002384186</ele>
        <time>2020-10-11T07:10:35.000Z</time>
      </trkpt>
      <trkpt lat="47.32208" lon="-2.29156">
        <ele>0.60000002384186</ele>
        <time>2020-10-11T07:10:42.000Z</time>
      </trkpt>
      <trkpt lat="47.3222" lon="-2.29171">
        <ele>0.60000002384186</ele>
        <time>2020-10-11T07:10:45.000Z</time>
      </trkpt>
      <trkpt lat="47.32227" lon="-2.29184">
        <ele>0.60000002384186</ele>
        <time>2020-10-11T07:10:47.000Z</time>
      </trkpt>
      <trkpt lat="47.32247" lon="-2.29218">
        <ele>0.60000002384186</ele>
        <time>2020-10-11T07:10:53.000Z</time>
      </trkpt>
      <trkpt lat="47.32251" lon="-2.29219">
        <ele>0.60000002384186</ele>
        <time>2020-10-11T07:10:54.000Z</time>
      </trkpt>
      <trkpt lat="47.32271" lon="-2.29216">
        <ele>0.60000002384186</ele>
        <time>2020-10-11T07:10:58.000Z</time>
      </trkpt>
      <trkpt lat="47.32296" lon="-2.29214">
        <ele>0.60000002384186</ele>
        <time>2020-10-11T07:11:02.000Z</time>
      </trkpt>
      <trkpt lat="47.32309" lon="-2.29217">
        <ele>0.60000002384186</ele>
        <time>2020-10-11T07:11:04.000Z</time>
      </trkpt>
      <trkpt lat="47.32339" lon="-2.2923">
        <ele>0.60000002384186</ele>
        <time>2020-10-11T07:11:09.000Z</time>
      </trkpt>
      <trkpt lat="47.32384" lon="-2.29254">
        <ele>0.60000002384186</ele>
        <time>2020-10-11T07:11:16.000Z</time>
      </trkpt>
      <trkpt lat="47.32401" lon="-2.29266">
        <ele>0.60000002384186</ele>
        <time>2020-10-11T07:11:19.000Z</time>
      </trkpt>
      <trkpt lat="47.3241" lon="-2.2928">
        <ele>0.60000002384186</ele>
        <time>2020-10-11T07:11:21.000Z</time>
      </trkpt>
      <trkpt lat="47.3242" lon="-2.29316">
        <ele>0.60000002384186</ele>
        <time>2020-10-11T07:11:25.000Z</time>
      </trkpt>
      <trkpt lat="47.32427" lon="-2.29372">
        <ele>0.60000002384186</ele>
        <time>2020-10-11T07:11:31.000Z</time>
      </trkpt>
      <trkpt lat="47.32431" lon="-2.29391">
        <ele>0.60000002384186</ele>
        <time>2020-10-11T07:11:33.000Z</time>
      </trkpt>
      <trkpt lat="47.32436" lon="-2.29417">
        <ele>0.60000002384186</ele>
        <time>2020-10-11T07:11:36.000Z</time>
      </trkpt>
      <trkpt lat="47.3244" lon="-2.29439">
        <ele>0.60000002384186</ele>
        <time>2020-10-11T07:11:39.000Z</time>
      </trkpt>
      <trkpt lat="47.32441" lon="-2.29446">
        <ele>0.60000002384186</ele>
        <time>2020-10-11T07:11:40.000Z</time>
      </trkpt>
      <trkpt lat="47.32442" lon="-2.2946">
        <ele>1</ele>
        <time>2020-10-11T07:11:42.000Z</time>
      </trkpt>
      <trkpt lat="47.32443" lon="-2.29467">
        <ele>1.3999999761581</ele>
        <time>2020-10-11T07:11:43.000Z</time>
      </trkpt>
      <trkpt lat="47.32445" lon="-2.29474">
        <ele>1.7999999523163</ele>
        <time>2020-10-11T07:11:44.000Z</time>
      </trkpt>
      <trkpt lat="47.32447" lon="-2.29481">
        <ele>2.2000000476837</ele>
        <time>2020-10-11T07:11:45.000Z</time>
      </trkpt>
      <trkpt lat="47.3245" lon="-2.29487">
        <ele>2.5999999046326</ele>
        <time>2020-10-11T07:11:46.000Z</time>
      </trkpt>
      <trkpt lat="47.32453" lon="-2.29502">
        <ele>2.5999999046326</ele>
        <time>2020-10-11T07:11:48.000Z</time>
      </trkpt>
      <trkpt lat="47.32459" lon="-2.2952">
        <ele>2.5999999046326</ele>
        <time>2020-10-11T07:11:51.000Z</time>
      </trkpt>
      <trkpt lat="47.32461" lon="-2.29526">
        <ele>3</ele>
        <time>2020-10-11T07:11:52.000Z</time>
      </trkpt>
      <trkpt lat="47.32462" lon="-2.29533">
        <ele>3.5999999046326</ele>
        <time>2020-10-11T07:11:53.000Z</time>
      </trkpt>
      <trkpt lat="47.32464" lon="-2.29539">
        <ele>4</ele>
        <time>2020-10-11T07:11:54.000Z</time>
      </trkpt>
      <trkpt lat="47.32466" lon="-2.29545">
        <ele>4.4000000953674</ele>
        <time>2020-10-11T07:11:55.000Z</time>
      </trkpt>
      <trkpt lat="47.32468" lon="-2.2955">
        <ele>4.8000001907349</ele>
        <time>2020-10-11T07:11:56.000Z</time>
      </trkpt>
      <trkpt lat="47.3247" lon="-2.29556">
        <ele>4.8000001907349</ele>
        <time>2020-10-11T07:11:57.000Z</time>
      </trkpt>
      <trkpt lat="47.32477" lon="-2.29584">
        <ele>5.4000000953674</ele>
        <time>2020-10-11T07:12:02.000Z</time>
      </trkpt>
      <trkpt lat="47.32478" lon="-2.29589">
        <ele>5.8000001907349</ele>
        <time>2020-10-11T07:12:03.000Z</time>
      </trkpt>
      <trkpt lat="47.3248" lon="-2.29596">
        <ele>6.1999998092651</ele>
        <time>2020-10-11T07:12:04.000Z</time>
      </trkpt>
      <trkpt lat="47.32481" lon="-2.29601">
        <ele>6.8000001907349</ele>
        <time>2020-10-11T07:12:05.000Z</time>
      </trkpt>
      <trkpt lat="47.32483" lon="-2.29607">
        <ele>7.1999998092651</ele>
        <time>2020-10-11T07:12:06.000Z</time>
      </trkpt>
      <trkpt lat="47.32488" lon="-2.29632">
        <ele>7.1999998092651</ele>
        <time>2020-10-11T07:12:10.000Z</time>
      </trkpt>
      <trkpt lat="47.32489" lon="-2.29637">
        <ele>7.5999999046326</ele>
        <time>2020-10-11T07:12:11.000Z</time>
      </trkpt>
      <trkpt lat="47.3249" lon="-2.29643">
        <ele>8.1999998092651</ele>
        <time>2020-10-11T07:12:12.000Z</time>
      </trkpt>
      <trkpt lat="47.32491" lon="-2.29648">
        <ele>8.6000003814697</ele>
        <time>2020-10-11T07:12:13.000Z</time>
      </trkpt>
      <trkpt lat="47.32493" lon="-2.29654">
        <ele>9</ele>
        <time>2020-10-11T07:12:14.000Z</time>
      </trkpt>
      <trkpt lat="47.32494" lon="-2.2966">
        <ele>9.3999996185303</ele>
        <time>2020-10-11T07:12:15.000Z</time>
      </trkpt>
      <trkpt lat="47.32498" lon="-2.29678">
        <ele>9.3999996185303</ele>
        <time>2020-10-11T07:12:18.000Z</time>
      </trkpt>
      <trkpt lat="47.32502" lon="-2.29691">
        <ele>10</ele>
        <time>2020-10-11T07:12:20.000Z</time>
      </trkpt>
      <trkpt lat="47.32503" lon="-2.29697">
        <ele>10.39999961853</ele>
        <time>2020-10-11T07:12:21.000Z</time>
      </trkpt>
      <trkpt lat="47.32505" lon="-2.29703">
        <ele>10.800000190735</ele>
        <time>2020-10-11T07:12:22.000Z</time>
      </trkpt>
      <trkpt lat="47.32507" lon="-2.2971">
        <ele>11.199999809265</ele>
        <time>2020-10-11T07:12:23.000Z</time>
      </trkpt>
      <trkpt lat="47.32508" lon="-2.29717">
        <ele>11.60000038147</ele>
        <time>2020-10-11T07:12:24.000Z</time>
      </trkpt>
      <trkpt lat="47.3251" lon="-2.29725">
        <ele>11.60000038147</ele>
        <time>2020-10-11T07:12:25.000Z</time>
      </trkpt>
      <trkpt lat="47.32518" lon="-2.29756">
        <ele>11.60000038147</ele>
        <time>2020-10-11T07:12:30.000Z</time>
      </trkpt>
      <trkpt lat="47.32521" lon="-2.29766">
        <ele>11.60000038147</ele>
        <time>2020-10-11T07:12:32.000Z</time>
      </trkpt>
      <trkpt lat="47.32522" lon="-2.29792">
        <ele>11.60000038147</ele>
        <time>2020-10-11T07:12:37.000Z</time>
      </trkpt>
      <trkpt lat="47.32519" lon="-2.29797">
        <ele>11.60000038147</ele>
        <time>2020-10-11T07:12:38.000Z</time>
      </trkpt>
      <trkpt lat="47.3251" lon="-2.29805">
        <ele>11.60000038147</ele>
        <time>2020-10-11T07:12:40.000Z</time>
      </trkpt>
      <trkpt lat="47.32501" lon="-2.29811">
        <ele>11.60000038147</ele>
        <time>2020-10-11T07:12:42.000Z</time>
      </trkpt>
      <trkpt lat="47.32484" lon="-2.29828">
        <ele>11.60000038147</ele>
        <time>2020-10-11T07:12:46.000Z</time>
      </trkpt>
      <trkpt lat="47.32475" lon="-2.29836">
        <ele>11.60000038147</ele>
        <time>2020-10-11T07:12:48.000Z</time>
      </trkpt>
      <trkpt lat="47.32457" lon="-2.29853">
        <ele>11.60000038147</ele>
        <time>2020-10-11T07:12:52.000Z</time>
      </trkpt>
      <trkpt lat="47.32452" lon="-2.29857">
        <ele>11.60000038147</ele>
        <time>2020-10-11T07:12:53.000Z</time>
      </trkpt>
      <trkpt lat="47.32442" lon="-2.2988">
        <ele>11.60000038147</ele>
        <time>2020-10-11T07:12:56.000Z</time>
      </trkpt>
      <trkpt lat="47.32445" lon="-2.29914">
        <ele>11.60000038147</ele>
        <time>2020-10-11T07:13:00.000Z</time>
      </trkpt>
      <trkpt lat="47.32446" lon="-2.29921">
        <ele>11.60000038147</ele>
        <time>2020-10-11T07:13:01.000Z</time>
      </trkpt>
      <trkpt lat="47.32446" lon="-2.29929">
        <ele>11.60000038147</ele>
        <time>2020-10-11T07:13:02.000Z</time>
      </trkpt>
      <trkpt lat="47.32444" lon="-2.29939">
        <ele>11.60000038147</ele>
        <time>2020-10-11T07:13:04.000Z</time>
      </trkpt>
      <trkpt lat="47.32448" lon="-2.29961">
        <ele>11.60000038147</ele>
        <time>2020-10-11T07:13:08.000Z</time>
      </trkpt>
      <trkpt lat="47.32464" lon="-2.29987">
        <ele>11.60000038147</ele>
        <time>2020-10-11T07:13:13.000Z</time>
      </trkpt>
      <trkpt lat="47.32478" lon="-2.30015">
        <ele>11.60000038147</ele>
        <time>2020-10-11T07:13:17.000Z</time>
      </trkpt>
      <trkpt lat="47.3248" lon="-2.30023">
        <ele>11.60000038147</ele>
        <time>2020-10-11T07:13:18.000Z</time>
      </trkpt>
      <trkpt lat="47.32494" lon="-2.30068">
        <ele>12</ele>
        <time>2020-10-11T07:13:24.000Z</time>
      </trkpt>
      <trkpt lat="47.32495" lon="-2.30076">
        <ele>12.39999961853</ele>
        <time>2020-10-11T07:13:25.000Z</time>
      </trkpt>
      <trkpt lat="47.32494" lon="-2.30084">
        <ele>12.800000190735</ele>
        <time>2020-10-11T07:13:26.000Z</time>
      </trkpt>
      <trkpt lat="47.32494" lon="-2.30092">
        <ele>13.199999809265</ele>
        <time>2020-10-11T07:13:27.000Z</time>
      </trkpt>
      <trkpt lat="47.32495" lon="-2.30099">
        <ele>13.60000038147</ele>
        <time>2020-10-11T07:13:28.000Z</time>
      </trkpt>
      <trkpt lat="47.32496" lon="-2.30107">
        <ele>13.60000038147</ele>
        <time>2020-10-11T07:13:29.000Z</time>
      </trkpt>
      <trkpt lat="47.32498" lon="-2.30121">
        <ele>13.60000038147</ele>
        <time>2020-10-11T07:13:31.000Z</time>
      </trkpt>
      <trkpt lat="47.32502" lon="-2.30151">
        <ele>13.60000038147</ele>
        <time>2020-10-11T07:13:35.000Z</time>
      </trkpt>
      <trkpt lat="47.32509" lon="-2.30201">
        <ele>13.60000038147</ele>
        <time>2020-10-11T07:13:42.000Z</time>
      </trkpt>
      <trkpt lat="47.32516" lon="-2.30252">
        <ele>13.60000038147</ele>
        <time>2020-10-11T07:13:49.000Z</time>
      </trkpt>
      <trkpt lat="47.32524" lon="-2.30299">
        <ele>13.199999809265</ele>
        <time>2020-10-11T07:13:55.000Z</time>
      </trkpt>
      <trkpt lat="47.32525" lon="-2.30306">
        <ele>12.800000190735</ele>
        <time>2020-10-11T07:13:56.000Z</time>
      </trkpt>
      <trkpt lat="47.32527" lon="-2.30313">
        <ele>12.39999961853</ele>
        <time>2020-10-11T07:13:57.000Z</time>
      </trkpt>
      <trkpt lat="47.32529" lon="-2.3032">
        <ele>12</ele>
        <time>2020-10-11T07:13:58.000Z</time>
      </trkpt>
      <trkpt lat="47.3253" lon="-2.30327">
        <ele>11.60000038147</ele>
        <time>2020-10-11T07:13:59.000Z</time>
      </trkpt>
      <trkpt lat="47.32533" lon="-2.30346">
        <ele>11.60000038147</ele>
        <time>2020-10-11T07:14:02.000Z</time>
      </trkpt>
      <trkpt lat="47.32542" lon="-2.30395">
        <ele>11.60000038147</ele>
        <time>2020-10-11T07:14:10.000Z</time>
      </trkpt>
      <trkpt lat="47.32532" lon="-2.30403">
        <ele>11.60000038147</ele>
        <time>2020-10-11T07:14:13.000Z</time>
      </trkpt>
      <trkpt lat="47.32527" lon="-2.30404">
        <ele>11.199999809265</ele>
        <time>2020-10-11T07:14:14.000Z</time>
      </trkpt>
      <trkpt lat="47.32522" lon="-2.30406">
        <ele>10.800000190735</ele>
        <time>2020-10-11T07:14:15.000Z</time>
      </trkpt>
      <trkpt lat="47.32517" lon="-2.30408">
        <ele>10.39999961853</ele>
        <time>2020-10-11T07:14:16.000Z</time>
      </trkpt>
      <trkpt lat="47.32513" lon="-2.30411">
        <ele>10</ele>
        <time>2020-10-11T07:14:17.000Z</time>
      </trkpt>
      <trkpt lat="47.32508" lon="-2.30413">
        <ele>9.6000003814697</ele>
        <time>2020-10-11T07:14:18.000Z</time>
      </trkpt>
      <trkpt lat="47.32503" lon="-2.30415">
        <ele>9.6000003814697</ele>
        <time>2020-10-11T07:14:19.000Z</time>
      </trkpt>
      <trkpt lat="47.325" lon="-2.30419">
        <ele>9.6000003814697</ele>
        <time>2020-10-11T07:14:20.000Z</time>
      </trkpt>
      <trkpt lat="47.325" lon="-2.30433">
        <ele>9.6000003814697</ele>
        <time>2020-10-11T07:14:22.000Z</time>
      </trkpt>
      <trkpt lat="47.32504" lon="-2.30448">
        <ele>9.6000003814697</ele>
        <time>2020-10-11T07:14:24.000Z</time>
      </trkpt>
      <trkpt lat="47.32507" lon="-2.30464">
        <ele>9.6000003814697</ele>
        <time>2020-10-11T07:14:26.000Z</time>
      </trkpt>
      <trkpt lat="47.3252" lon="-2.30526">
        <ele>9.6000003814697</ele>
        <time>2020-10-11T07:14:33.000Z</time>
      </trkpt>
      <trkpt lat="47.32526" lon="-2.30569">
        <ele>9.6000003814697</ele>
        <time>2020-10-11T07:14:38.000Z</time>
      </trkpt>
      <trkpt lat="47.32535" lon="-2.30629">
        <ele>9.6000003814697</ele>
        <time>2020-10-11T07:14:45.000Z</time>
      </trkpt>
      <trkpt lat="47.32544" lon="-2.30677">
        <ele>9.6000003814697</ele>
        <time>2020-10-11T07:14:51.000Z</time>
      </trkpt>
      <trkpt lat="47.32544" lon="-2.30684">
        <ele>9.6000003814697</ele>
        <time>2020-10-11T07:14:52.000Z</time>
      </trkpt>
      <trkpt lat="47.32547" lon="-2.30711">
        <ele>9.6000003814697</ele>
        <time>2020-10-11T07:14:55.000Z</time>
      </trkpt>
      <trkpt lat="47.32556" lon="-2.3076">
        <ele>9.6000003814697</ele>
        <time>2020-10-11T07:15:00.000Z</time>
      </trkpt>
      <trkpt lat="47.32565" lon="-2.30837">
        <ele>9.6000003814697</ele>
        <time>2020-10-11T07:15:08.000Z</time>
      </trkpt>
      <trkpt lat="47.32567" lon="-2.30905">
        <ele>9.6000003814697</ele>
        <time>2020-10-11T07:15:15.000Z</time>
      </trkpt>
      <trkpt lat="47.32566" lon="-2.30914">
        <ele>9.6000003814697</ele>
        <time>2020-10-11T07:15:16.000Z</time>
      </trkpt>
      <trkpt lat="47.32565" lon="-2.3095">
        <ele>9.6000003814697</ele>
        <time>2020-10-11T07:15:20.000Z</time>
      </trkpt>
      <trkpt lat="47.32565" lon="-2.31007">
        <ele>9.6000003814697</ele>
        <time>2020-10-11T07:15:27.000Z</time>
      </trkpt>
      <trkpt lat="47.32569" lon="-2.31031">
        <ele>9.6000003814697</ele>
        <time>2020-10-11T07:15:30.000Z</time>
      </trkpt>
      <trkpt lat="47.32573" lon="-2.31053">
        <ele>9.6000003814697</ele>
        <time>2020-10-11T07:15:33.000Z</time>
      </trkpt>
      <trkpt lat="47.32575" lon="-2.31069">
        <ele>9.6000003814697</ele>
        <time>2020-10-11T07:15:35.000Z</time>
      </trkpt>
      <trkpt lat="47.32574" lon="-2.31095">
        <ele>9.1999998092651</ele>
        <time>2020-10-11T07:15:38.000Z</time>
      </trkpt>
      <trkpt lat="47.32573" lon="-2.31104">
        <ele>8.8000001907349</ele>
        <time>2020-10-11T07:15:39.000Z</time>
      </trkpt>
      <trkpt lat="47.32571" lon="-2.31113">
        <ele>8.1999998092651</ele>
        <time>2020-10-11T07:15:40.000Z</time>
      </trkpt>
      <trkpt lat="47.3257" lon="-2.31121">
        <ele>7.8000001907349</ele>
        <time>2020-10-11T07:15:41.000Z</time>
      </trkpt>
      <trkpt lat="47.32569" lon="-2.31129">
        <ele>7.4000000953674</ele>
        <time>2020-10-11T07:15:42.000Z</time>
      </trkpt>
      <trkpt lat="47.32566" lon="-2.31147">
        <ele>7.4000000953674</ele>
        <time>2020-10-11T07:15:44.000Z</time>
      </trkpt>
      <trkpt lat="47.32563" lon="-2.31188">
        <ele>7.4000000953674</ele>
        <time>2020-10-11T07:15:48.000Z</time>
      </trkpt>
      <trkpt lat="47.32563" lon="-2.31196">
        <ele>7.4000000953674</ele>
        <time>2020-10-11T07:15:49.000Z</time>
      </trkpt>
      <trkpt lat="47.32567" lon="-2.31203">
        <ele>7.4000000953674</ele>
        <time>2020-10-11T07:15:50.000Z</time>
      </trkpt>
      <trkpt lat="47.32573" lon="-2.31221">
        <ele>7.4000000953674</ele>
        <time>2020-10-11T07:15:52.000Z</time>
      </trkpt>
      <trkpt lat="47.32574" lon="-2.31239">
        <ele>7.4000000953674</ele>
        <time>2020-10-11T07:15:54.000Z</time>
      </trkpt>
      <trkpt lat="47.32573" lon="-2.31269">
        <ele>7.4000000953674</ele>
        <time>2020-10-11T07:15:57.000Z</time>
      </trkpt>
      <trkpt lat="47.32567" lon="-2.31319">
        <ele>7.4000000953674</ele>
        <time>2020-10-11T07:16:02.000Z</time>
      </trkpt>
      <trkpt lat="47.32562" lon="-2.31327">
        <ele>7.4000000953674</ele>
        <time>2020-10-11T07:16:03.000Z</time>
      </trkpt>
      <trkpt lat="47.32556" lon="-2.31343">
        <ele>7.4000000953674</ele>
        <time>2020-10-11T07:16:05.000Z</time>
      </trkpt>
      <trkpt lat="47.32555" lon="-2.3136">
        <ele>7.4000000953674</ele>
        <time>2020-10-11T07:16:07.000Z</time>
      </trkpt>
      <trkpt lat="47.32553" lon="-2.31396">
        <ele>7.4000000953674</ele>
        <time>2020-10-11T07:16:12.000Z</time>
      </trkpt>
      <trkpt lat="47.32552" lon="-2.31407">
        <ele>7.4000000953674</ele>
        <time>2020-10-11T07:16:14.000Z</time>
      </trkpt>
      <trkpt lat="47.32553" lon="-2.31421">
        <ele>7.4000000953674</ele>
        <time>2020-10-11T07:16:16.000Z</time>
      </trkpt>
      <trkpt lat="47.3256" lon="-2.31467">
        <ele>7.4000000953674</ele>
        <time>2020-10-11T07:16:22.000Z</time>
      </trkpt>
      <trkpt lat="47.32561" lon="-2.31485">
        <ele>7.4000000953674</ele>
        <time>2020-10-11T07:16:24.000Z</time>
      </trkpt>
      <trkpt lat="47.32559" lon="-2.3151">
        <ele>7.4000000953674</ele>
        <time>2020-10-11T07:16:27.000Z</time>
      </trkpt>
      <trkpt lat="47.32558" lon="-2.3153">
        <ele>7.4000000953674</ele>
        <time>2020-10-11T07:16:29.000Z</time>
      </trkpt>
      <trkpt lat="47.32558" lon="-2.31547">
        <ele>7.4000000953674</ele>
        <time>2020-10-11T07:16:31.000Z</time>
      </trkpt>
      <trkpt lat="47.32561" lon="-2.31576">
        <ele>7.4000000953674</ele>
        <time>2020-10-11T07:16:36.000Z</time>
      </trkpt>
      <trkpt lat="47.32569" lon="-2.31578">
        <ele>7.4000000953674</ele>
        <time>2020-10-11T07:16:39.000Z</time>
      </trkpt>
      <trkpt lat="47.32572" lon="-2.31577">
        <ele>7.4000000953674</ele>
        <time>2020-10-11T07:16:40.000Z</time>
      </trkpt>
      <trkpt lat="47.32579" lon="-2.31574">
        <ele>7</ele>
        <time>2020-10-11T07:16:42.000Z</time>
      </trkpt>
      <trkpt lat="47.32582" lon="-2.31572">
        <ele>6.5999999046326</ele>
        <time>2020-10-11T07:16:43.000Z</time>
      </trkpt>
      <trkpt lat="47.32584" lon="-2.31572">
        <ele>6.1999998092651</ele>
        <time>2020-10-11T07:16:44.000Z</time>
      </trkpt>
      <trkpt lat="47.32587" lon="-2.31571">
        <ele>5.8000001907349</ele>
        <time>2020-10-11T07:16:45.000Z</time>
      </trkpt>
      <trkpt lat="47.32589" lon="-2.3157">
        <ele>5.4000000953674</ele>
        <time>2020-10-11T07:16:46.000Z</time>
      </trkpt>
      <trkpt lat="47.326" lon="-2.31564">
        <ele>5.4000000953674</ele>
        <time>2020-10-11T07:16:53.000Z</time>
      </trkpt>
      <trkpt lat="47.32606" lon="-2.31561">
        <ele>5.4000000953674</ele>
        <time>2020-10-11T07:17:07.000Z</time>
      </trkpt>
      <trkpt lat="47.32609" lon="-2.31561">
        <ele>5.4000000953674</ele>
        <time>2020-10-11T07:17:09.000Z</time>
      </trkpt>
      <trkpt lat="47.32611" lon="-2.31559">
        <ele>5.4000000953674</ele>
        <time>2020-10-11T07:17:10.000Z</time>
      </trkpt>
      <trkpt lat="47.3263" lon="-2.31552">
        <ele>5.4000000953674</ele>
        <time>2020-10-11T07:17:16.000Z</time>
      </trkpt>
      <trkpt lat="47.32659" lon="-2.31542">
        <ele>5.4000000953674</ele>
        <time>2020-10-11T07:17:22.000Z</time>
      </trkpt>
      <trkpt lat="47.32677" lon="-2.31531">
        <ele>5.4000000953674</ele>
        <time>2020-10-11T07:17:26.000Z</time>
      </trkpt>
      <trkpt lat="47.32682" lon="-2.31529">
        <ele>5.4000000953674</ele>
        <time>2020-10-11T07:17:27.000Z</time>
      </trkpt>
      <trkpt lat="47.32698" lon="-2.31517">
        <ele>5.4000000953674</ele>
        <time>2020-10-11T07:17:30.000Z</time>
      </trkpt>
      <trkpt lat="47.32708" lon="-2.31507">
        <ele>5.4000000953674</ele>
        <time>2020-10-11T07:17:32.000Z</time>
      </trkpt>
      <trkpt lat="47.32735" lon="-2.31473">
        <ele>5.4000000953674</ele>
        <time>2020-10-11T07:17:37.000Z</time>
      </trkpt>
      <trkpt lat="47.32759" lon="-2.31433">
        <ele>5</ele>
        <time>2020-10-11T07:17:42.000Z</time>
      </trkpt>
      <trkpt lat="47.32763" lon="-2.31427">
        <ele>4.5999999046326</ele>
        <time>2020-10-11T07:17:43.000Z</time>
      </trkpt>
      <trkpt lat="47.32769" lon="-2.3142">
        <ele>4.1999998092651</ele>
        <time>2020-10-11T07:17:44.000Z</time>
      </trkpt>
      <trkpt lat="47.32775" lon="-2.31413">
        <ele>3.7999999523163</ele>
        <time>2020-10-11T07:17:45.000Z</time>
      </trkpt>
      <trkpt lat="47.32781" lon="-2.31407">
        <ele>3.4000000953674</ele>
        <time>2020-10-11T07:17:46.000Z</time>
      </trkpt>
      <trkpt lat="47.32788" lon="-2.31402">
        <ele>3.4000000953674</ele>
        <time>2020-10-11T07:17:47.000Z</time>
      </trkpt>
      <trkpt lat="47.32829" lon="-2.31368">
        <ele>3.4000000953674</ele>
        <time>2020-10-11T07:17:53.000Z</time>
      </trkpt>
      <trkpt lat="47.32835" lon="-2.3136">
        <ele>3.4000000953674</ele>
        <time>2020-10-11T07:17:54.000Z</time>
      </trkpt>
      <trkpt lat="47.32843" lon="-2.31331">
        <ele>3.4000000953674</ele>
        <time>2020-10-11T07:17:57.000Z</time>
      </trkpt>
      <trkpt lat="47.32846" lon="-2.31322">
        <ele>3.4000000953674</ele>
        <time>2020-10-11T07:17:58.000Z</time>
      </trkpt>
      <trkpt lat="47.32855" lon="-2.3131">
        <ele>3.4000000953674</ele>
        <time>2020-10-11T07:18:00.000Z</time>
      </trkpt>
      <trkpt lat="47.32868" lon="-2.31304">
        <ele>2.5999999046326</ele>
        <time>2020-10-11T07:18:02.000Z</time>
      </trkpt>
      <trkpt lat="47.32874" lon="-2.31302">
        <ele>2.2000000476837</ele>
        <time>2020-10-11T07:18:03.000Z</time>
      </trkpt>
      <trkpt lat="47.32881" lon="-2.313">
        <ele>1.7999999523163</ele>
        <time>2020-10-11T07:18:04.000Z</time>
      </trkpt>
      <trkpt lat="47.32889" lon="-2.31297">
        <ele>1.3999999761581</ele>
        <time>2020-10-11T07:18:05.000Z</time>
      </trkpt>
      <trkpt lat="47.32911" lon="-2.31287">
        <ele>1.3999999761581</ele>
        <time>2020-10-11T07:18:08.000Z</time>
      </trkpt>
      <trkpt lat="47.32931" lon="-2.31273">
        <ele>1.3999999761581</ele>
        <time>2020-10-11T07:18:11.000Z</time>
      </trkpt>
      <trkpt lat="47.32934" lon="-2.31264">
        <ele>1.3999999761581</ele>
        <time>2020-10-11T07:18:12.000Z</time>
      </trkpt>
      <trkpt lat="47.32933" lon="-2.31233">
        <ele>1.3999999761581</ele>
        <time>2020-10-11T07:18:15.000Z</time>
      </trkpt>
      <trkpt lat="47.32925" lon="-2.31202">
        <ele>1.3999999761581</ele>
        <time>2020-10-11T07:18:18.000Z</time>
      </trkpt>
      <trkpt lat="47.32922" lon="-2.31193">
        <ele>1.3999999761581</ele>
        <time>2020-10-11T07:18:19.000Z</time>
      </trkpt>
      <trkpt lat="47.32904" lon="-2.31121">
        <ele>1.3999999761581</ele>
        <time>2020-10-11T07:18:26.000Z</time>
      </trkpt>
      <trkpt lat="47.32894" lon="-2.31059">
        <ele>1.3999999761581</ele>
        <time>2020-10-11T07:18:32.000Z</time>
      </trkpt>
      <trkpt lat="47.32893" lon="-2.31">
        <ele>1.3999999761581</ele>
        <time>2020-10-11T07:18:38.000Z</time>
      </trkpt>
      <trkpt lat="47.32894" lon="-2.30991">
        <ele>1.3999999761581</ele>
        <time>2020-10-11T07:18:39.000Z</time>
      </trkpt>
      <trkpt lat="47.32897" lon="-2.30953">
        <ele>1.3999999761581</ele>
        <time>2020-10-11T07:18:43.000Z</time>
      </trkpt>
      <trkpt lat="47.32904" lon="-2.30886">
        <ele>1.3999999761581</ele>
        <time>2020-10-11T07:18:50.000Z</time>
      </trkpt>
      <trkpt lat="47.32909" lon="-2.30825">
        <ele>1.3999999761581</ele>
        <time>2020-10-11T07:18:57.000Z</time>
      </trkpt>
      <trkpt lat="47.32912" lon="-2.30817">
        <ele>1.3999999761581</ele>
        <time>2020-10-11T07:18:58.000Z</time>
      </trkpt>
      <trkpt lat="47.32921" lon="-2.30809">
        <ele>1.3999999761581</ele>
        <time>2020-10-11T07:19:00.000Z</time>
      </trkpt>
      <trkpt lat="47.32933" lon="-2.30807">
        <ele>1.3999999761581</ele>
        <time>2020-10-11T07:19:02.000Z</time>
      </trkpt>
      <trkpt lat="47.32946" lon="-2.30807">
        <ele>1.3999999761581</ele>
        <time>2020-10-11T07:19:04.000Z</time>
      </trkpt>
      <trkpt lat="47.32995" lon="-2.30806">
        <ele>1.3999999761581</ele>
        <time>2020-10-11T07:19:11.000Z</time>
      </trkpt>
      <trkpt lat="47.33042" lon="-2.30805">
        <ele>1</ele>
        <time>2020-10-11T07:19:18.000Z</time>
      </trkpt>
      <trkpt lat="47.33048" lon="-2.30801">
        <ele>0.40000000596046</ele>
        <time>2020-10-11T07:19:19.000Z</time>
      </trkpt>
      <trkpt lat="47.33053" lon="-2.30795">
        <ele>3</ele>
        <time>2020-10-11T07:19:20.000Z</time>
      </trkpt>
      <trkpt lat="47.33056" lon="-2.30786">
        <ele>-0.40000000596046</ele>
        <time>2020-10-11T07:19:21.000Z</time>
      </trkpt>
      <trkpt lat="47.33058" lon="-2.30777">
        <ele>-0.80000001192093</ele>
        <time>2020-10-11T07:19:22.000Z</time>
      </trkpt>
      <trkpt lat="47.33062" lon="-2.30759">
        <ele>-0.80000001192093</ele>
        <time>2020-10-11T07:19:24.000Z</time>
      </trkpt>
      <trkpt lat="47.33065" lon="-2.3074">
        <ele>-0.80000001192093</ele>
        <time>2020-10-11T07:19:26.000Z</time>
      </trkpt>
      <trkpt lat="47.33076" lon="-2.30676">
        <ele>-0.80000001192093</ele>
        <time>2020-10-11T07:19:33.000Z</time>
      </trkpt>
      <trkpt lat="47.33084" lon="-2.30617">
        <ele>-0.80000001192093</ele>
        <time>2020-10-11T07:19:40.000Z</time>
      </trkpt>
      <trkpt lat="47.33089" lon="-2.30592">
        <ele>-0.80000001192093</ele>
        <time>2020-10-11T07:19:43.000Z</time>
      </trkpt>
      <trkpt lat="47.33095" lon="-2.30578">
        <ele>-0.80000001192093</ele>
        <time>2020-10-11T07:19:45.000Z</time>
      </trkpt>
      <trkpt lat="47.33109" lon="-2.30568">
        <ele>-0.80000001192093</ele>
        <time>2020-10-11T07:19:48.000Z</time>
      </trkpt>
      <trkpt lat="47.33141" lon="-2.30555">
        <ele>-0.80000001192093</ele>
        <time>2020-10-11T07:19:53.000Z</time>
      </trkpt>
      <trkpt lat="47.33174" lon="-2.30541">
        <ele>-0.80000001192093</ele>
        <time>2020-10-11T07:19:58.000Z</time>
      </trkpt>
      <trkpt lat="47.33219" lon="-2.30525">
        <ele>-0.80000001192093</ele>
        <time>2020-10-11T07:20:05.000Z</time>
      </trkpt>
      <trkpt lat="47.33238" lon="-2.3052">
        <ele>-0.80000001192093</ele>
        <time>2020-10-11T07:20:08.000Z</time>
      </trkpt>
      <trkpt lat="47.33257" lon="-2.30514">
        <ele>-0.80000001192093</ele>
        <time>2020-10-11T07:20:11.000Z</time>
      </trkpt>
      <trkpt lat="47.33294" lon="-2.30508">
        <ele>-0.80000001192093</ele>
        <time>2020-10-11T07:20:17.000Z</time>
      </trkpt>
      <trkpt lat="47.33315" lon="-2.30506">
        <ele>-1.2000000476837</ele>
        <time>2020-10-11T07:20:21.000Z</time>
      </trkpt>
      <trkpt lat="47.3332" lon="-2.30506">
        <ele>-1.6000000238419</ele>
        <time>2020-10-11T07:20:22.000Z</time>
      </trkpt>
      <trkpt lat="47.33324" lon="-2.30506">
        <ele>-2</ele>
        <time>2020-10-11T07:20:23.000Z</time>
      </trkpt>
      <trkpt lat="47.33329" lon="-2.30505">
        <ele>-2.4000000953674</ele>
        <time>2020-10-11T07:20:24.000Z</time>
      </trkpt>
      <trkpt lat="47.33333" lon="-2.30505">
        <ele>-2.7999999523163</ele>
        <time>2020-10-11T07:20:25.000Z</time>
      </trkpt>
      <trkpt lat="47.33341" lon="-2.30504">
        <ele>-2.7999999523163</ele>
        <time>2020-10-11T07:20:27.000Z</time>
      </trkpt>
      <trkpt lat="47.33348" lon="-2.30506">
        <ele>-2.7999999523163</ele>
        <time>2020-10-11T07:20:29.000Z</time>
      </trkpt>
      <trkpt lat="47.33352" lon="-2.30512">
        <ele>-2.7999999523163</ele>
        <time>2020-10-11T07:20:31.000Z</time>
      </trkpt>
      <trkpt lat="47.33354" lon="-2.3052">
        <ele>-2.7999999523163</ele>
        <time>2020-10-11T07:20:35.000Z</time>
      </trkpt>
      <trkpt lat="47.33355" lon="-2.30522">
        <ele>-2.7999999523163</ele>
        <time>2020-10-11T07:20:38.000Z</time>
      </trkpt>
      <trkpt lat="47.33356" lon="-2.30526">
        <ele>-2.7999999523163</ele>
        <time>2020-10-11T07:20:40.000Z</time>
      </trkpt>
      <trkpt lat="47.3336" lon="-2.30534">
        <ele>-2.7999999523163</ele>
        <time>2020-10-11T07:20:45.000Z</time>
      </trkpt>
      <trkpt lat="47.33364" lon="-2.30542">
        <ele>-2.7999999523163</ele>
        <time>2020-10-11T07:20:50.000Z</time>
      </trkpt>
      <trkpt lat="47.33369" lon="-2.30545">
        <ele>-2.7999999523163</ele>
        <time>2020-10-11T07:20:53.000Z</time>
      </trkpt>
      <trkpt lat="47.33374" lon="-2.30549">
        <ele>-2.7999999523163</ele>
        <time>2020-10-11T07:20:56.000Z</time>
      </trkpt>
      <trkpt lat="47.33375" lon="-2.30568">
        <ele>-2.7999999523163</ele>
        <time>2020-10-11T07:21:00.000Z</time>
      </trkpt>
      <trkpt lat="47.33367" lon="-2.30585">
        <ele>-2.7999999523163</ele>
        <time>2020-10-11T07:21:03.000Z</time>
      </trkpt>
      <trkpt lat="47.33359" lon="-2.30602">
        <ele>-2.7999999523163</ele>
        <time>2020-10-11T07:21:06.000Z</time>
      </trkpt>
      <trkpt lat="47.33357" lon="-2.30608">
        <ele>-2.7999999523163</ele>
        <time>2020-10-11T07:21:07.000Z</time>
      </trkpt>
      <trkpt lat="47.33356" lon="-2.30614">
        <ele>-2.7999999523163</ele>
        <time>2020-10-11T07:21:08.000Z</time>
      </trkpt>
      <trkpt lat="47.33353" lon="-2.30641">
        <ele>-2.7999999523163</ele>
        <time>2020-10-11T07:21:12.000Z</time>
      </trkpt>
      <trkpt lat="47.33348" lon="-2.3067">
        <ele>-2.7999999523163</ele>
        <time>2020-10-11T07:21:16.000Z</time>
      </trkpt>
      <trkpt lat="47.33345" lon="-2.30675">
        <ele>-2.7999999523163</ele>
        <time>2020-10-11T07:21:17.000Z</time>
      </trkpt>
      <trkpt lat="47.33339" lon="-2.30685">
        <ele>-2.7999999523163</ele>
        <time>2020-10-11T07:21:19.000Z</time>
      </trkpt>
      <trkpt lat="47.33334" lon="-2.30696">
        <ele>-2.7999999523163</ele>
        <time>2020-10-11T07:21:21.000Z</time>
      </trkpt>
      <trkpt lat="47.33333" lon="-2.30703">
        <ele>-2.7999999523163</ele>
        <time>2020-10-11T07:21:22.000Z</time>
      </trkpt>
      <trkpt lat="47.33331" lon="-2.30736">
        <ele>-2.7999999523163</ele>
        <time>2020-10-11T07:21:27.000Z</time>
      </trkpt>
      <trkpt lat="47.33331" lon="-2.30743">
        <ele>-2.7999999523163</ele>
        <time>2020-10-11T07:21:28.000Z</time>
      </trkpt>
      <trkpt lat="47.33332" lon="-2.3075">
        <ele>-2.7999999523163</ele>
        <time>2020-10-11T07:21:29.000Z</time>
      </trkpt>
      <trkpt lat="47.33338" lon="-2.30761">
        <ele>-2.7999999523163</ele>
        <time>2020-10-11T07:21:31.000Z</time>
      </trkpt>
      <trkpt lat="47.33345" lon="-2.30771">
        <ele>-2.7999999523163</ele>
        <time>2020-10-11T07:21:33.000Z</time>
      </trkpt>
      <trkpt lat="47.33349" lon="-2.30784">
        <ele>-2.7999999523163</ele>
        <time>2020-10-11T07:21:35.000Z</time>
      </trkpt>
      <trkpt lat="47.33354" lon="-2.30796">
        <ele>-2.7999999523163</ele>
        <time>2020-10-11T07:21:37.000Z</time>
      </trkpt>
      <trkpt lat="47.33356" lon="-2.30802">
        <ele>-2.7999999523163</ele>
        <time>2020-10-11T07:21:38.000Z</time>
      </trkpt>
      <trkpt lat="47.33357" lon="-2.30809">
        <ele>-2.7999999523163</ele>
        <time>2020-10-11T07:21:39.000Z</time>
      </trkpt>
      <trkpt lat="47.33362" lon="-2.30838">
        <ele>-2.7999999523163</ele>
        <time>2020-10-11T07:21:43.000Z</time>
      </trkpt>
      <trkpt lat="47.33362" lon="-2.30845">
        <ele>-2.7999999523163</ele>
        <time>2020-10-11T07:21:44.000Z</time>
      </trkpt>
      <trkpt lat="47.33363" lon="-2.30869">
        <ele>-2.7999999523163</ele>
        <time>2020-10-11T07:21:48.000Z</time>
      </trkpt>
      <trkpt lat="47.33367" lon="-2.30892">
        <ele>-2.7999999523163</ele>
        <time>2020-10-11T07:21:52.000Z</time>
      </trkpt>
      <trkpt lat="47.33371" lon="-2.30904">
        <ele>-2.7999999523163</ele>
        <time>2020-10-11T07:21:54.000Z</time>
      </trkpt>
      <trkpt lat="47.33377" lon="-2.30923">
        <ele>-2.7999999523163</ele>
        <time>2020-10-11T07:21:57.000Z</time>
      </trkpt>
      <trkpt lat="47.3338" lon="-2.30929">
        <ele>-2.7999999523163</ele>
        <time>2020-10-11T07:21:58.000Z</time>
      </trkpt>
      <trkpt lat="47.33394" lon="-2.30963">
        <ele>-2.7999999523163</ele>
        <time>2020-10-11T07:22:04.000Z</time>
      </trkpt>
      <trkpt lat="47.33405" lon="-2.30986">
        <ele>-2.7999999523163</ele>
        <time>2020-10-11T07:22:08.000Z</time>
      </trkpt>
      <trkpt lat="47.33412" lon="-2.30998">
        <ele>-2.7999999523163</ele>
        <time>2020-10-11T07:22:10.000Z</time>
      </trkpt>
      <trkpt lat="47.33417" lon="-2.3101">
        <ele>-2.7999999523163</ele>
        <time>2020-10-11T07:22:12.000Z</time>
      </trkpt>
      <trkpt lat="47.33423" lon="-2.31026">
        <ele>-2.7999999523163</ele>
        <time>2020-10-11T07:22:15.000Z</time>
      </trkpt>
      <trkpt lat="47.33436" lon="-2.31061">
        <ele>-2.7999999523163</ele>
        <time>2020-10-11T07:22:22.000Z</time>
      </trkpt>
      <trkpt lat="47.33441" lon="-2.31073">
        <ele>-2.7999999523163</ele>
        <time>2020-10-11T07:22:24.000Z</time>
      </trkpt>
      <trkpt lat="47.33447" lon="-2.31099">
        <ele>-2.7999999523163</ele>
        <time>2020-10-11T07:22:28.000Z</time>
      </trkpt>
      <trkpt lat="47.33456" lon="-2.31124">
        <ele>-2.7999999523163</ele>
        <time>2020-10-11T07:22:33.000Z</time>
      </trkpt>
      <trkpt lat="47.33469" lon="-2.31148">
        <ele>-2.7999999523163</ele>
        <time>2020-10-11T07:22:38.000Z</time>
      </trkpt>
      <trkpt lat="47.33476" lon="-2.31156">
        <ele>-2.7999999523163</ele>
        <time>2020-10-11T07:22:40.000Z</time>
      </trkpt>
      <trkpt lat="47.33485" lon="-2.3117">
        <ele>-2.7999999523163</ele>
        <time>2020-10-11T07:22:43.000Z</time>
      </trkpt>
      <trkpt lat="47.335" lon="-2.31196">
        <ele>-2.7999999523163</ele>
        <time>2020-10-11T07:22:49.000Z</time>
      </trkpt>
      <trkpt lat="47.33509" lon="-2.31208">
        <ele>-2.7999999523163</ele>
        <time>2020-10-11T07:22:52.000Z</time>
      </trkpt>
      <trkpt lat="47.3352" lon="-2.31222">
        <ele>-2.7999999523163</ele>
        <time>2020-10-11T07:22:55.000Z</time>
      </trkpt>
      <trkpt lat="47.33536" lon="-2.31245">
        <ele>-2.7999999523163</ele>
        <time>2020-10-11T07:22:59.000Z</time>
      </trkpt>
      <trkpt lat="47.3354" lon="-2.31249">
        <ele>-2.7999999523163</ele>
        <time>2020-10-11T07:23:00.000Z</time>
      </trkpt>
      <trkpt lat="47.33543" lon="-2.31255">
        <ele>-2.7999999523163</ele>
        <time>2020-10-11T07:23:02.000Z</time>
      </trkpt>
      <trkpt lat="47.33549" lon="-2.31268">
        <ele>-2.7999999523163</ele>
        <time>2020-10-11T07:23:06.000Z</time>
      </trkpt>
      <trkpt lat="47.33554" lon="-2.31274">
        <ele>-2.7999999523163</ele>
        <time>2020-10-11T07:23:08.000Z</time>
      </trkpt>
      <trkpt lat="47.33566" lon="-2.31285">
        <ele>-2.7999999523163</ele>
        <time>2020-10-11T07:23:12.000Z</time>
      </trkpt>
      <trkpt lat="47.3357" lon="-2.31287">
        <ele>-2.7999999523163</ele>
        <time>2020-10-11T07:23:13.000Z</time>
      </trkpt>
      <trkpt lat="47.33583" lon="-2.31285">
        <ele>-2.7999999523163</ele>
        <time>2020-10-11T07:23:16.000Z</time>
      </trkpt>
      <trkpt lat="47.33591" lon="-2.3128">
        <ele>-2.7999999523163</ele>
        <time>2020-10-11T07:23:18.000Z</time>
      </trkpt>
      <trkpt lat="47.33612" lon="-2.31269">
        <ele>-2.7999999523163</ele>
        <time>2020-10-11T07:23:23.000Z</time>
      </trkpt>
      <trkpt lat="47.33621" lon="-2.31266">
        <ele>-2.7999999523163</ele>
        <time>2020-10-11T07:23:25.000Z</time>
      </trkpt>
      <trkpt lat="47.33634" lon="-2.3126">
        <ele>-2.7999999523163</ele>
        <time>2020-10-11T07:23:28.000Z</time>
      </trkpt>
      <trkpt lat="47.33652" lon="-2.31251">
        <ele>-2.7999999523163</ele>
        <time>2020-10-11T07:23:32.000Z</time>
      </trkpt>
      <trkpt lat="47.33661" lon="-2.31247">
        <ele>-2.7999999523163</ele>
        <time>2020-10-11T07:23:34.000Z</time>
      </trkpt>
      <trkpt lat="47.33687" lon="-2.31236">
        <ele>-2.7999999523163</ele>
        <time>2020-10-11T07:23:39.000Z</time>
      </trkpt>
      <trkpt lat="47.33691" lon="-2.31234">
        <ele>-2.7999999523163</ele>
        <time>2020-10-11T07:23:40.000Z</time>
      </trkpt>
      <trkpt lat="47.33706" lon="-2.31228">
        <ele>-2.7999999523163</ele>
        <time>2020-10-11T07:23:43.000Z</time>
      </trkpt>
      <trkpt lat="47.3372" lon="-2.31221">
        <ele>-2.7999999523163</ele>
        <time>2020-10-11T07:23:46.000Z</time>
      </trkpt>
      <trkpt lat="47.33725" lon="-2.31218">
        <ele>-2.7999999523163</ele>
        <time>2020-10-11T07:23:47.000Z</time>
      </trkpt>
      <trkpt lat="47.33747" lon="-2.31204">
        <ele>-2.7999999523163</ele>
        <time>2020-10-11T07:23:52.000Z</time>
      </trkpt>
      <trkpt lat="47.33778" lon="-2.31184">
        <ele>-2.7999999523163</ele>
        <time>2020-10-11T07:23:59.000Z</time>
      </trkpt>
      <trkpt lat="47.33795" lon="-2.31172">
        <ele>-2.7999999523163</ele>
        <time>2020-10-11T07:24:03.000Z</time>
      </trkpt>
      <trkpt lat="47.33813" lon="-2.3116">
        <ele>-2.7999999523163</ele>
        <time>2020-10-11T07:24:07.000Z</time>
      </trkpt>
      <trkpt lat="47.33822" lon="-2.31154">
        <ele>-2.7999999523163</ele>
        <time>2020-10-11T07:24:09.000Z</time>
      </trkpt>
      <trkpt lat="47.33834" lon="-2.31144">
        <ele>-2.7999999523163</ele>
        <time>2020-10-11T07:24:12.000Z</time>
      </trkpt>
      <trkpt lat="47.33847" lon="-2.31133">
        <ele>-2.7999999523163</ele>
        <time>2020-10-11T07:24:15.000Z</time>
      </trkpt>
      <trkpt lat="47.33864" lon="-2.31124">
        <ele>-2.7999999523163</ele>
        <time>2020-10-11T07:24:19.000Z</time>
      </trkpt>
      <trkpt lat="47.33874" lon="-2.31121">
        <ele>-2.7999999523163</ele>
        <time>2020-10-11T07:24:21.000Z</time>
      </trkpt>
      <trkpt lat="47.33882" lon="-2.31118">
        <ele>-2.7999999523163</ele>
        <time>2020-10-11T07:24:23.000Z</time>
      </trkpt>
      <trkpt lat="47.33899" lon="-2.3111">
        <ele>-2.7999999523163</ele>
        <time>2020-10-11T07:24:27.000Z</time>
      </trkpt>
      <trkpt lat="47.33907" lon="-2.31108">
        <ele>-2.7999999523163</ele>
        <time>2020-10-11T07:24:29.000Z</time>
      </trkpt>
      <trkpt lat="47.33922" lon="-2.31109">
        <ele>-2.7999999523163</ele>
        <time>2020-10-11T07:24:32.000Z</time>
      </trkpt>
      <trkpt lat="47.33953" lon="-2.31117">
        <ele>-2.7999999523163</ele>
        <time>2020-10-11T07:24:39.000Z</time>
      </trkpt>
      <trkpt lat="47.3398" lon="-2.31128">
        <ele>-2.7999999523163</ele>
        <time>2020-10-11T07:24:45.000Z</time>
      </trkpt>
      <trkpt lat="47.34002" lon="-2.31139">
        <ele>-2.7999999523163</ele>
        <time>2020-10-11T07:24:50.000Z</time>
      </trkpt>
      <trkpt lat="47.34006" lon="-2.31142">
        <ele>-2.7999999523163</ele>
        <time>2020-10-11T07:24:51.000Z</time>
      </trkpt>
      <trkpt lat="47.34022" lon="-2.31153">
        <ele>-2.7999999523163</ele>
        <time>2020-10-11T07:24:55.000Z</time>
      </trkpt>
      <trkpt lat="47.34055" lon="-2.31178">
        <ele>-2.7999999523163</ele>
        <time>2020-10-11T07:25:03.000Z</time>
      </trkpt>
      <trkpt lat="47.34081" lon="-2.31198">
        <ele>-2.7999999523163</ele>
        <time>2020-10-11T07:25:09.000Z</time>
      </trkpt>
      <trkpt lat="47.34111" lon="-2.31225">
        <ele>-2.7999999523163</ele>
        <time>2020-10-11T07:25:16.000Z</time>
      </trkpt>
      <trkpt lat="47.34116" lon="-2.31228">
        <ele>-2.7999999523163</ele>
        <time>2020-10-11T07:25:17.000Z</time>
      </trkpt>
      <trkpt lat="47.34133" lon="-2.31244">
        <ele>-2.7999999523163</ele>
        <time>2020-10-11T07:25:21.000Z</time>
      </trkpt>
      <trkpt lat="47.34168" lon="-2.31279">
        <ele>-2.7999999523163</ele>
        <time>2020-10-11T07:25:29.000Z</time>
      </trkpt>
      <trkpt lat="47.34181" lon="-2.31292">
        <ele>-2.7999999523163</ele>
        <time>2020-10-11T07:25:32.000Z</time>
      </trkpt>
      <trkpt lat="47.34194" lon="-2.31304">
        <ele>-2.7999999523163</ele>
        <time>2020-10-11T07:25:35.000Z</time>
      </trkpt>
      <trkpt lat="47.34198" lon="-2.31308">
        <ele>-2.7999999523163</ele>
        <time>2020-10-11T07:25:36.000Z</time>
      </trkpt>
      <trkpt lat="47.3421" lon="-2.31319">
        <ele>-2.7999999523163</ele>
        <time>2020-10-11T07:25:39.000Z</time>
      </trkpt>
      <trkpt lat="47.34219" lon="-2.31326">
        <ele>-2.7999999523163</ele>
        <time>2020-10-11T07:25:41.000Z</time>
      </trkpt>
      <trkpt lat="47.34245" lon="-2.31352">
        <ele>-2.7999999523163</ele>
        <time>2020-10-11T07:25:48.000Z</time>
      </trkpt>
      <trkpt lat="47.3426" lon="-2.31365">
        <ele>-2.7999999523163</ele>
        <time>2020-10-11T07:25:53.000Z</time>
      </trkpt>
      <trkpt lat="47.34274" lon="-2.31372">
        <ele>-2.7999999523163</ele>
        <time>2020-10-11T07:25:59.000Z</time>
      </trkpt>
      <trkpt lat="47.3428" lon="-2.31379">
        <ele>-2.7999999523163</ele>
        <time>2020-10-11T07:26:05.000Z</time>
      </trkpt>
      <trkpt lat="47.34283" lon="-2.31382">
        <ele>-2.7999999523163</ele>
        <time>2020-10-11T07:26:07.000Z</time>
      </trkpt>
      <trkpt lat="47.34287" lon="-2.31389">
        <ele>-2.7999999523163</ele>
        <time>2020-10-11T07:26:09.000Z</time>
      </trkpt>
      <trkpt lat="47.34294" lon="-2.31397">
        <ele>-2.7999999523163</ele>
        <time>2020-10-11T07:26:11.000Z</time>
      </trkpt>
      <trkpt lat="47.34304" lon="-2.3141">
        <ele>-2.7999999523163</ele>
        <time>2020-10-11T07:26:14.000Z</time>
      </trkpt>
      <trkpt lat="47.34308" lon="-2.31412">
        <ele>-2.7999999523163</ele>
        <time>2020-10-11T07:26:15.000Z</time>
      </trkpt>
      <trkpt lat="47.34315" lon="-2.31418">
        <ele>-2.7999999523163</ele>
        <time>2020-10-11T07:26:18.000Z</time>
      </trkpt>
      <trkpt lat="47.34318" lon="-2.31422">
        <ele>-2.7999999523163</ele>
        <time>2020-10-11T07:26:20.000Z</time>
      </trkpt>
      <trkpt lat="47.34324" lon="-2.31426">
        <ele>-2.7999999523163</ele>
        <time>2020-10-11T07:26:22.000Z</time>
      </trkpt>
      <trkpt lat="47.34333" lon="-2.31435">
        <ele>-2.7999999523163</ele>
        <time>2020-10-11T07:26:25.000Z</time>
      </trkpt>
      <trkpt lat="47.34344" lon="-2.31445">
        <ele>-2.7999999523163</ele>
        <time>2020-10-11T07:26:28.000Z</time>
      </trkpt>
      <trkpt lat="47.34356" lon="-2.31456">
        <ele>-2.7999999523163</ele>
        <time>2020-10-11T07:26:31.000Z</time>
      </trkpt>
      <trkpt lat="47.34365" lon="-2.31462">
        <ele>-2.7999999523163</ele>
        <time>2020-10-11T07:26:33.000Z</time>
      </trkpt>
      <trkpt lat="47.34369" lon="-2.31466">
        <ele>-2.7999999523163</ele>
        <time>2020-10-11T07:26:34.000Z</time>
      </trkpt>
      <trkpt lat="47.3439" lon="-2.31488">
        <ele>-2.7999999523163</ele>
        <time>2020-10-11T07:26:39.000Z</time>
      </trkpt>
      <trkpt lat="47.34416" lon="-2.31511">
        <ele>-2.7999999523163</ele>
        <time>2020-10-11T07:26:45.000Z</time>
      </trkpt>
      <trkpt lat="47.34424" lon="-2.31519">
        <ele>-2.7999999523163</ele>
        <time>2020-10-11T07:26:47.000Z</time>
      </trkpt>
      <trkpt lat="47.3444" lon="-2.31536">
        <ele>-2.7999999523163</ele>
        <time>2020-10-11T07:26:51.000Z</time>
      </trkpt>
      <trkpt lat="47.34478" lon="-2.31577">
        <ele>-2.7999999523163</ele>
        <time>2020-10-11T07:27:00.000Z</time>
      </trkpt>
      <trkpt lat="47.34494" lon="-2.31593">
        <ele>-2.7999999523163</ele>
        <time>2020-10-11T07:27:04.000Z</time>
      </trkpt>
      <trkpt lat="47.34503" lon="-2.31597">
        <ele>-2.7999999523163</ele>
        <time>2020-10-11T07:27:06.000Z</time>
      </trkpt>
      <trkpt lat="47.34518" lon="-2.31598">
        <ele>-2.7999999523163</ele>
        <time>2020-10-11T07:27:09.000Z</time>
      </trkpt>
      <trkpt lat="47.34523" lon="-2.31599">
        <ele>-2.7999999523163</ele>
        <time>2020-10-11T07:27:10.000Z</time>
      </trkpt>
      <trkpt lat="47.34528" lon="-2.316">
        <ele>-2.7999999523163</ele>
        <time>2020-10-11T07:27:11.000Z</time>
      </trkpt>
      <trkpt lat="47.34548" lon="-2.31601">
        <ele>-2.7999999523163</ele>
        <time>2020-10-11T07:27:15.000Z</time>
      </trkpt>
      <trkpt lat="47.34558" lon="-2.316">
        <ele>-2.7999999523163</ele>
        <time>2020-10-11T07:27:17.000Z</time>
      </trkpt>
      <trkpt lat="47.34563" lon="-2.31599">
        <ele>-2.7999999523163</ele>
        <time>2020-10-11T07:27:18.000Z</time>
      </trkpt>
      <trkpt lat="47.34577" lon="-2.31597">
        <ele>-2.7999999523163</ele>
        <time>2020-10-11T07:27:21.000Z</time>
      </trkpt>
      <trkpt lat="47.34594" lon="-2.31592">
        <ele>-2.7999999523163</ele>
        <time>2020-10-11T07:27:25.000Z</time>
      </trkpt>
      <trkpt lat="47.34624" lon="-2.31584">
        <ele>-2.7999999523163</ele>
        <time>2020-10-11T07:27:31.000Z</time>
      </trkpt>
      <trkpt lat="47.34633" lon="-2.31581">
        <ele>-2.7999999523163</ele>
        <time>2020-10-11T07:27:33.000Z</time>
      </trkpt>
      <trkpt lat="47.34651" lon="-2.31576">
        <ele>-2.7999999523163</ele>
        <time>2020-10-11T07:27:37.000Z</time>
      </trkpt>
      <trkpt lat="47.34679" lon="-2.31571">
        <ele>-2.7999999523163</ele>
        <time>2020-10-11T07:27:43.000Z</time>
      </trkpt>
      <trkpt lat="47.34695" lon="-2.31569">
        <ele>-2.7999999523163</ele>
        <time>2020-10-11T07:27:47.000Z</time>
      </trkpt>
      <trkpt lat="47.34703" lon="-2.31572">
        <ele>-2.7999999523163</ele>
        <time>2020-10-11T07:27:49.000Z</time>
      </trkpt>
      <trkpt lat="47.34718" lon="-2.31584">
        <ele>-2.7999999523163</ele>
        <time>2020-10-11T07:27:53.000Z</time>
      </trkpt>
      <trkpt lat="47.34719" lon="-2.31603">
        <ele>-2.7999999523163</ele>
        <time>2020-10-11T07:27:56.000Z</time>
      </trkpt>
      <trkpt lat="47.34718" lon="-2.3161">
        <ele>-2.7999999523163</ele>
        <time>2020-10-11T07:27:57.000Z</time>
      </trkpt>
      <trkpt lat="47.34718" lon="-2.31631">
        <ele>-2.7999999523163</ele>
        <time>2020-10-11T07:28:00.000Z</time>
      </trkpt>
      <trkpt lat="47.34716" lon="-2.31644">
        <ele>-2.7999999523163</ele>
        <time>2020-10-11T07:28:02.000Z</time>
      </trkpt>
      <trkpt lat="47.34714" lon="-2.3167">
        <ele>-2.7999999523163</ele>
        <time>2020-10-11T07:28:06.000Z</time>
      </trkpt>
      <trkpt lat="47.34713" lon="-2.31682">
        <ele>-2.7999999523163</ele>
        <time>2020-10-11T07:28:08.000Z</time>
      </trkpt>
      <trkpt lat="47.34712" lon="-2.31714">
        <ele>-2.7999999523163</ele>
        <time>2020-10-11T07:28:13.000Z</time>
      </trkpt>
      <trkpt lat="47.34719" lon="-2.31736">
        <ele>-2.7999999523163</ele>
        <time>2020-10-11T07:28:17.000Z</time>
      </trkpt>
      <trkpt lat="47.34725" lon="-2.31744">
        <ele>-2.7999999523163</ele>
        <time>2020-10-11T07:28:19.000Z</time>
      </trkpt>
      <trkpt lat="47.34732" lon="-2.31752">
        <ele>-2.7999999523163</ele>
        <time>2020-10-11T07:28:21.000Z</time>
      </trkpt>
      <trkpt lat="47.34735" lon="-2.31756">
        <ele>-2.7999999523163</ele>
        <time>2020-10-11T07:28:22.000Z</time>
      </trkpt>
      <trkpt lat="47.34747" lon="-2.31773">
        <ele>-2.7999999523163</ele>
        <time>2020-10-11T07:28:26.000Z</time>
      </trkpt>
      <trkpt lat="47.34753" lon="-2.31781">
        <ele>-2.7999999523163</ele>
        <time>2020-10-11T07:28:28.000Z</time>
      </trkpt>
      <trkpt lat="47.34769" lon="-2.31804">
        <ele>-2.7999999523163</ele>
        <time>2020-10-11T07:28:34.000Z</time>
      </trkpt>
      <trkpt lat="47.34789" lon="-2.31831">
        <ele>-2.7999999523163</ele>
        <time>2020-10-11T07:28:42.000Z</time>
      </trkpt>
      <trkpt lat="47.348" lon="-2.31841">
        <ele>-2.7999999523163</ele>
        <time>2020-10-11T07:28:47.000Z</time>
      </trkpt>
      <trkpt lat="47.34808" lon="-2.31853">
        <ele>-2.7999999523163</ele>
        <time>2020-10-11T07:28:53.000Z</time>
      </trkpt>
      <trkpt lat="47.34809" lon="-2.31856">
        <ele>-2.7999999523163</ele>
        <time>2020-10-11T07:28:54.000Z</time>
      </trkpt>
      <trkpt lat="47.34813" lon="-2.31863">
        <ele>-2.7999999523163</ele>
        <time>2020-10-11T07:28:59.000Z</time>
      </trkpt>
      <trkpt lat="47.34816" lon="-2.31868">
        <ele>-2.7999999523163</ele>
        <time>2020-10-11T07:30:37.000Z</time>
      </trkpt>
      <trkpt lat="47.34816" lon="-2.31876">
        <ele>-2.7999999523163</ele>
        <time>2020-10-11T07:30:39.000Z</time>
      </trkpt>
      <trkpt lat="47.34813" lon="-2.31893">
        <ele>-2.7999999523163</ele>
        <time>2020-10-11T07:30:43.000Z</time>
      </trkpt>
      <trkpt lat="47.34806" lon="-2.31917">
        <ele>-2.7999999523163</ele>
        <time>2020-10-11T07:30:47.000Z</time>
      </trkpt>
      <trkpt lat="47.34794" lon="-2.31962">
        <ele>-2.7999999523163</ele>
        <time>2020-10-11T07:30:53.000Z</time>
      </trkpt>
      <trkpt lat="47.34779" lon="-2.32023">
        <ele>-2.7999999523163</ele>
        <time>2020-10-11T07:31:01.000Z</time>
      </trkpt>
      <trkpt lat="47.34774" lon="-2.32036">
        <ele>-2.7999999523163</ele>
        <time>2020-10-11T07:31:03.000Z</time>
      </trkpt>
      <trkpt lat="47.34769" lon="-2.32051">
        <ele>-2.7999999523163</ele>
        <time>2020-10-11T07:31:06.000Z</time>
      </trkpt>
      <trkpt lat="47.34767" lon="-2.32053">
        <ele>-2.7999999523163</ele>
        <time>2020-10-11T07:31:07.000Z</time>
      </trkpt>
      <trkpt lat="47.34761" lon="-2.32057">
        <ele>-2.7999999523163</ele>
        <time>2020-10-11T07:31:10.000Z</time>
      </trkpt>
      <trkpt lat="47.34754" lon="-2.32068">
        <ele>-2.7999999523163</ele>
        <time>2020-10-11T07:31:15.000Z</time>
      </trkpt>
      <trkpt lat="47.3475" lon="-2.32078">
        <ele>-2.7999999523163</ele>
        <time>2020-10-11T07:31:21.000Z</time>
      </trkpt>
      <trkpt lat="47.34749" lon="-2.3208">
        <ele>-2.7999999523163</ele>
        <time>2020-10-11T07:31:24.000Z</time>
      </trkpt>
      <trkpt lat="47.34748" lon="-2.32087">
        <ele>-4.8000001907349</ele>
        <time>2020-10-11T07:36:50.000Z</time>
      </trkpt>
      <trkpt lat="47.34747" lon="-2.32091">
        <ele>-4.8000001907349</ele>
        <time>2020-10-11T07:36:51.000Z</time>
      </trkpt>
      <trkpt lat="47.34747" lon="-2.32117">
        <ele>-4.8000001907349</ele>
        <time>2020-10-11T07:36:57.000Z</time>
      </trkpt>
      <trkpt lat="47.34751" lon="-2.32128">
        <ele>-4.4000000953674</ele>
        <time>2020-10-11T07:36:59.000Z</time>
      </trkpt>
      <trkpt lat="47.34753" lon="-2.32134">
        <ele>-3.5999999046326</ele>
        <time>2020-10-11T07:37:00.000Z</time>
      </trkpt>
      <trkpt lat="47.34755" lon="-2.3214">
        <ele>-3.2000000476837</ele>
        <time>2020-10-11T07:37:01.000Z</time>
      </trkpt>
      <trkpt lat="47.34758" lon="-2.32145">
        <ele>-2.5999999046326</ele>
        <time>2020-10-11T07:37:02.000Z</time>
      </trkpt>
      <trkpt lat="47.3476" lon="-2.32151">
        <ele>-2.5999999046326</ele>
        <time>2020-10-11T07:37:03.000Z</time>
      </trkpt>
      <trkpt lat="47.34773" lon="-2.32174">
        <ele>-2.5999999046326</ele>
        <time>2020-10-11T07:37:07.000Z</time>
      </trkpt>
      <trkpt lat="47.34796" lon="-2.32213">
        <ele>-2.5999999046326</ele>
        <time>2020-10-11T07:37:14.000Z</time>
      </trkpt>
      <trkpt lat="47.34814" lon="-2.32238">
        <ele>-2.5999999046326</ele>
        <time>2020-10-11T07:37:19.000Z</time>
      </trkpt>
      <trkpt lat="47.3483" lon="-2.32262">
        <ele>-2.5999999046326</ele>
        <time>2020-10-11T07:37:25.000Z</time>
      </trkpt>
      <trkpt lat="47.34845" lon="-2.32286">
        <ele>-2.5999999046326</ele>
        <time>2020-10-11T07:37:31.000Z</time>
      </trkpt>
      <trkpt lat="47.34853" lon="-2.32294">
        <ele>-2.5999999046326</ele>
        <time>2020-10-11T07:37:33.000Z</time>
      </trkpt>
      <trkpt lat="47.34866" lon="-2.32311">
        <ele>-2.5999999046326</ele>
        <time>2020-10-11T07:37:37.000Z</time>
      </trkpt>
      <trkpt lat="47.34868" lon="-2.32328">
        <ele>-2.5999999046326</ele>
        <time>2020-10-11T07:37:40.000Z</time>
      </trkpt>
      <trkpt lat="47.3486" lon="-2.32348">
        <ele>-2.5999999046326</ele>
        <time>2020-10-11T07:37:44.000Z</time>
      </trkpt>
      <trkpt lat="47.34852" lon="-2.3236">
        <ele>-2.5999999046326</ele>
        <time>2020-10-11T07:37:47.000Z</time>
      </trkpt>
      <trkpt lat="47.34844" lon="-2.32371">
        <ele>-2.5999999046326</ele>
        <time>2020-10-11T07:37:50.000Z</time>
      </trkpt>
      <trkpt lat="47.34825" lon="-2.32397">
        <ele>-2.5999999046326</ele>
        <time>2020-10-11T07:37:56.000Z</time>
      </trkpt>
      <trkpt lat="47.34804" lon="-2.32431">
        <ele>-2.5999999046326</ele>
        <time>2020-10-11T07:38:03.000Z</time>
      </trkpt>
      <trkpt lat="47.34791" lon="-2.32452">
        <ele>-2.5999999046326</ele>
        <time>2020-10-11T07:38:08.000Z</time>
      </trkpt>
      <trkpt lat="47.34787" lon="-2.32456">
        <ele>-2.5999999046326</ele>
        <time>2020-10-11T07:38:09.000Z</time>
      </trkpt>
      <trkpt lat="47.34778" lon="-2.32464">
        <ele>-2.5999999046326</ele>
        <time>2020-10-11T07:38:11.000Z</time>
      </trkpt>
      <trkpt lat="47.34766" lon="-2.32476">
        <ele>-2.5999999046326</ele>
        <time>2020-10-11T07:38:14.000Z</time>
      </trkpt>
      <trkpt lat="47.34738" lon="-2.32495">
        <ele>-2.5999999046326</ele>
        <time>2020-10-11T07:38:20.000Z</time>
      </trkpt>
      <trkpt lat="47.34711" lon="-2.32511">
        <ele>-2.5999999046326</ele>
        <time>2020-10-11T07:38:27.000Z</time>
      </trkpt>
      <trkpt lat="47.34706" lon="-2.32511">
        <ele>-2.5999999046326</ele>
        <time>2020-10-11T07:38:28.000Z</time>
      </trkpt>
      <trkpt lat="47.34688" lon="-2.32513">
        <ele>-2.5999999046326</ele>
        <time>2020-10-11T07:38:32.000Z</time>
      </trkpt>
      <trkpt lat="47.34674" lon="-2.32524">
        <ele>-2.5999999046326</ele>
        <time>2020-10-11T07:38:36.000Z</time>
      </trkpt>
      <trkpt lat="47.34671" lon="-2.3253">
        <ele>-2.5999999046326</ele>
        <time>2020-10-11T07:38:37.000Z</time>
      </trkpt>
      <trkpt lat="47.34661" lon="-2.32553">
        <ele>-2.5999999046326</ele>
        <time>2020-10-11T07:38:41.000Z</time>
      </trkpt>
      <trkpt lat="47.34649" lon="-2.32579">
        <ele>-2.5999999046326</ele>
        <time>2020-10-11T07:38:46.000Z</time>
      </trkpt>
      <trkpt lat="47.34636" lon="-2.32598">
        <ele>-2.2000000476837</ele>
        <time>2020-10-11T07:38:50.000Z</time>
      </trkpt>
      <trkpt lat="47.34632" lon="-2.32603">
        <ele>-1.7999999523163</ele>
        <time>2020-10-11T07:38:51.000Z</time>
      </trkpt>
      <trkpt lat="47.34629" lon="-2.32609">
        <ele>-1.3999999761581</ele>
        <time>2020-10-11T07:38:52.000Z</time>
      </trkpt>
      <trkpt lat="47.34625" lon="-2.32613">
        <ele>-1</ele>
        <time>2020-10-11T07:38:53.000Z</time>
      </trkpt>
      <trkpt lat="47.34621" lon="-2.32617">
        <ele>-0.60000002384186</ele>
        <time>2020-10-11T07:38:54.000Z</time>
      </trkpt>
      <trkpt lat="47.3461" lon="-2.32631">
        <ele>-0.60000002384186</ele>
        <time>2020-10-11T07:38:57.000Z</time>
      </trkpt>
      <trkpt lat="47.34607" lon="-2.32634">
        <ele>-0.60000002384186</ele>
        <time>2020-10-11T07:38:58.000Z</time>
      </trkpt>
      <trkpt lat="47.34589" lon="-2.32655">
        <ele>-0.20000000298023</ele>
        <time>2020-10-11T07:39:03.000Z</time>
      </trkpt>
      <trkpt lat="47.34585" lon="-2.32659">
        <ele>0.20000000298023</ele>
        <time>2020-10-11T07:39:04.000Z</time>
      </trkpt>
      <trkpt lat="47.34581" lon="-2.32663">
        <ele>0.80000001192093</ele>
        <time>2020-10-11T07:39:05.000Z</time>
      </trkpt>
      <trkpt lat="47.34578" lon="-2.32666">
        <ele>1.2000000476837</ele>
        <time>2020-10-11T07:39:06.000Z</time>
      </trkpt>
      <trkpt lat="47.34575" lon="-2.32669">
        <ele>1.6000000238419</ele>
        <time>2020-10-11T07:39:07.000Z</time>
      </trkpt>
      <trkpt lat="47.3456" lon="-2.32682">
        <ele>1.6000000238419</ele>
        <time>2020-10-11T07:39:11.000Z</time>
      </trkpt>
      <trkpt lat="47.34538" lon="-2.32699">
        <ele>2</ele>
        <time>2020-10-11T07:39:16.000Z</time>
      </trkpt>
      <trkpt lat="47.34533" lon="-2.32702">
        <ele>2.4000000953674</ele>
        <time>2020-10-11T07:39:17.000Z</time>
      </trkpt>
      <trkpt lat="47.34528" lon="-2.32706">
        <ele>2.7999999523163</ele>
        <time>2020-10-11T07:39:18.000Z</time>
      </trkpt>
      <trkpt lat="47.34524" lon="-2.32709">
        <ele>3.2000000476837</ele>
        <time>2020-10-11T07:39:19.000Z</time>
      </trkpt>
      <trkpt lat="47.3452" lon="-2.32712">
        <ele>3.5999999046326</ele>
        <time>2020-10-11T07:39:20.000Z</time>
      </trkpt>
      <trkpt lat="47.34495" lon="-2.32727">
        <ele>3.5999999046326</ele>
        <time>2020-10-11T07:39:25.000Z</time>
      </trkpt>
      <trkpt lat="47.34486" lon="-2.32734">
        <ele>3.5999999046326</ele>
        <time>2020-10-11T07:39:27.000Z</time>
      </trkpt>
      <trkpt lat="47.34469" lon="-2.32745">
        <ele>3.5999999046326</ele>
        <time>2020-10-11T07:39:31.000Z</time>
      </trkpt>
      <trkpt lat="47.34456" lon="-2.32768">
        <ele>3.5999999046326</ele>
        <time>2020-10-11T07:39:35.000Z</time>
      </trkpt>
      <trkpt lat="47.34456" lon="-2.32784">
        <ele>3.5999999046326</ele>
        <time>2020-10-11T07:39:37.000Z</time>
      </trkpt>
      <trkpt lat="47.34456" lon="-2.32801">
        <ele>3.5999999046326</ele>
        <time>2020-10-11T07:39:39.000Z</time>
      </trkpt>
      <trkpt lat="47.34455" lon="-2.32824">
        <ele>3.5999999046326</ele>
        <time>2020-10-11T07:39:42.000Z</time>
      </trkpt>
      <trkpt lat="47.34452" lon="-2.3283">
        <ele>3.2000000476837</ele>
        <time>2020-10-11T07:39:43.000Z</time>
      </trkpt>
      <trkpt lat="47.34448" lon="-2.32834">
        <ele>2.5999999046326</ele>
        <time>2020-10-11T07:39:44.000Z</time>
      </trkpt>
      <trkpt lat="47.34443" lon="-2.32836">
        <ele>2.2000000476837</ele>
        <time>2020-10-11T07:39:45.000Z</time>
      </trkpt>
      <trkpt lat="47.34438" lon="-2.32839">
        <ele>1.7999999523163</ele>
        <time>2020-10-11T07:39:46.000Z</time>
      </trkpt>
      <trkpt lat="47.34433" lon="-2.32842">
        <ele>1.3999999761581</ele>
        <time>2020-10-11T07:39:47.000Z</time>
      </trkpt>
      <trkpt lat="47.34404" lon="-2.32859">
        <ele>1.3999999761581</ele>
        <time>2020-10-11T07:39:52.000Z</time>
      </trkpt>
      <trkpt lat="47.34368" lon="-2.32889">
        <ele>1.3999999761581</ele>
        <time>2020-10-11T07:39:59.000Z</time>
      </trkpt>
      <trkpt lat="47.34359" lon="-2.32898">
        <ele>1.3999999761581</ele>
        <time>2020-10-11T07:40:01.000Z</time>
      </trkpt>
      <trkpt lat="47.34355" lon="-2.32912">
        <ele>1.3999999761581</ele>
        <time>2020-10-11T07:40:03.000Z</time>
      </trkpt>
      <trkpt lat="47.34357" lon="-2.32939">
        <ele>1.3999999761581</ele>
        <time>2020-10-11T07:40:06.000Z</time>
      </trkpt>
      <trkpt lat="47.34367" lon="-2.32993">
        <ele>0.80000001192093</ele>
        <time>2020-10-11T07:40:12.000Z</time>
      </trkpt>
      <trkpt lat="47.34369" lon="-2.33001">
        <ele>0.40000000596046</ele>
        <time>2020-10-11T07:40:13.000Z</time>
      </trkpt>
      <trkpt lat="47.34372" lon="-2.3301">
        <ele>3.2</ele>
        <time>2020-10-11T07:40:14.000Z</time>
      </trkpt>
      <trkpt lat="47.34374" lon="-2.33018">
        <ele>-0.40000000596046</ele>
        <time>2020-10-11T07:40:15.000Z</time>
      </trkpt>
      <trkpt lat="47.34376" lon="-2.33025">
        <ele>-0.80000001192093</ele>
        <time>2020-10-11T07:40:16.000Z</time>
      </trkpt>
      <trkpt lat="47.3438" lon="-2.33039">
        <ele>-0.80000001192093</ele>
        <time>2020-10-11T07:40:18.000Z</time>
      </trkpt>
      <trkpt lat="47.34388" lon="-2.33075">
        <ele>-0.80000001192093</ele>
        <time>2020-10-11T07:40:24.000Z</time>
      </trkpt>
      <trkpt lat="47.34398" lon="-2.33116">
        <ele>-0.80000001192093</ele>
        <time>2020-10-11T07:40:31.000Z</time>
      </trkpt>
      <trkpt lat="47.34408" lon="-2.33152">
        <ele>-0.80000001192093</ele>
        <time>2020-10-11T07:40:37.000Z</time>
      </trkpt>
      <trkpt lat="47.34414" lon="-2.33181">
        <ele>-0.80000001192093</ele>
        <time>2020-10-11T07:40:42.000Z</time>
      </trkpt>
      <trkpt lat="47.3442" lon="-2.33215">
        <ele>-0.80000001192093</ele>
        <time>2020-10-11T07:40:47.000Z</time>
      </trkpt>
      <trkpt lat="47.34428" lon="-2.33256">
        <ele>-0.80000001192093</ele>
        <time>2020-10-11T07:40:53.000Z</time>
      </trkpt>
      <trkpt lat="47.34433" lon="-2.33276">
        <ele>-0.80000001192093</ele>
        <time>2020-10-11T07:40:56.000Z</time>
      </trkpt>
      <trkpt lat="47.34439" lon="-2.33287">
        <ele>-0.40000000596046</ele>
        <time>2020-10-11T07:40:58.000Z</time>
      </trkpt>
      <trkpt lat="47.34443" lon="-2.3329">
        <ele>7</ele>
        <time>2020-10-11T07:40:59.000Z</time>
      </trkpt>
      <trkpt lat="47.34446" lon="-2.33292">
        <ele>0.60000002384186</ele>
        <time>2020-10-11T07:41:00.000Z</time>
      </trkpt>
      <trkpt lat="47.3445" lon="-2.33296">
        <ele>1</ele>
        <time>2020-10-11T07:41:01.000Z</time>
      </trkpt>
      <trkpt lat="47.34453" lon="-2.33299">
        <ele>1.3999999761581</ele>
        <time>2020-10-11T07:41:02.000Z</time>
      </trkpt>
      <trkpt lat="47.3446" lon="-2.33316">
        <ele>1.3999999761581</ele>
        <time>2020-10-11T07:41:05.000Z</time>
      </trkpt>
      <trkpt lat="47.34462" lon="-2.33334">
        <ele>1.3999999761581</ele>
        <time>2020-10-11T07:41:08.000Z</time>
      </trkpt>
      <trkpt lat="47.34462" lon="-2.33344">
        <ele>1.3999999761581</ele>
        <time>2020-10-11T07:41:10.000Z</time>
      </trkpt>
      <trkpt lat="47.34464" lon="-2.33374">
        <ele>1.3999999761581</ele>
        <time>2020-10-11T07:41:15.000Z</time>
      </trkpt>
      <trkpt lat="47.34469" lon="-2.33401">
        <ele>1.3999999761581</ele>
        <time>2020-10-11T07:41:20.000Z</time>
      </trkpt>
      <trkpt lat="47.34472" lon="-2.33425">
        <ele>1.3999999761581</ele>
        <time>2020-10-11T07:41:25.000Z</time>
      </trkpt>
      <trkpt lat="47.34475" lon="-2.33454">
        <ele>1.3999999761581</ele>
        <time>2020-10-11T07:41:31.000Z</time>
      </trkpt>
      <trkpt lat="47.34479" lon="-2.3348">
        <ele>1.3999999761581</ele>
        <time>2020-10-11T07:41:37.000Z</time>
      </trkpt>
      <trkpt lat="47.3448" lon="-2.33503">
        <ele>1.3999999761581</ele>
        <time>2020-10-11T07:41:42.000Z</time>
      </trkpt>
      <trkpt lat="47.34483" lon="-2.33527">
        <ele>1.3999999761581</ele>
        <time>2020-10-11T07:41:47.000Z</time>
      </trkpt>
      <trkpt lat="47.34485" lon="-2.33553">
        <ele>1.3999999761581</ele>
        <time>2020-10-11T07:41:53.000Z</time>
      </trkpt>
      <trkpt lat="47.34491" lon="-2.33573">
        <ele>1.3999999761581</ele>
        <time>2020-10-11T07:41:59.000Z</time>
      </trkpt>
      <trkpt lat="47.34495" lon="-2.33579">
        <ele>1.7999999523163</ele>
        <time>2020-10-11T07:42:01.000Z</time>
      </trkpt>
      <trkpt lat="47.34497" lon="-2.33583">
        <ele>2.2000000476837</ele>
        <time>2020-10-11T07:42:02.000Z</time>
      </trkpt>
      <trkpt lat="47.345" lon="-2.33587">
        <ele>2.5999999046326</ele>
        <time>2020-10-11T07:42:03.000Z</time>
      </trkpt>
      <trkpt lat="47.34501" lon="-2.33592">
        <ele>3</ele>
        <time>2020-10-11T07:42:04.000Z</time>
      </trkpt>
      <trkpt lat="47.34502" lon="-2.33598">
        <ele>3.4000000953674</ele>
        <time>2020-10-11T07:42:05.000Z</time>
      </trkpt>
      <trkpt lat="47.34507" lon="-2.33615">
        <ele>3.4000000953674</ele>
        <time>2020-10-11T07:42:08.000Z</time>
      </trkpt>
      <trkpt lat="47.34511" lon="-2.33636">
        <ele>3.4000000953674</ele>
        <time>2020-10-11T07:42:13.000Z</time>
      </trkpt>
      <trkpt lat="47.34514" lon="-2.33658">
        <ele>3.4000000953674</ele>
        <time>2020-10-11T07:42:19.000Z</time>
      </trkpt>
      <trkpt lat="47.34519" lon="-2.3368">
        <ele>3.4000000953674</ele>
        <time>2020-10-11T07:42:25.000Z</time>
      </trkpt>
      <trkpt lat="47.34524" lon="-2.33709">
        <ele>3.4000000953674</ele>
        <time>2020-10-11T07:42:32.000Z</time>
      </trkpt>
      <trkpt lat="47.3453" lon="-2.33739">
        <ele>3.4000000953674</ele>
        <time>2020-10-11T07:42:38.000Z</time>
      </trkpt>
      <trkpt lat="47.34537" lon="-2.33773">
        <ele>3.4000000953674</ele>
        <time>2020-10-11T07:42:44.000Z</time>
      </trkpt>
      <trkpt lat="47.34544" lon="-2.33806">
        <ele>3.4000000953674</ele>
        <time>2020-10-11T07:42:50.000Z</time>
      </trkpt>
      <trkpt lat="47.34553" lon="-2.3385">
        <ele>3.4000000953674</ele>
        <time>2020-10-11T07:42:57.000Z</time>
      </trkpt>
      <trkpt lat="47.34561" lon="-2.33888">
        <ele>3.4000000953674</ele>
        <time>2020-10-11T07:43:03.000Z</time>
      </trkpt>
      <trkpt lat="47.34563" lon="-2.33896">
        <ele>3.4000000953674</ele>
        <time>2020-10-11T07:43:04.000Z</time>
      </trkpt>
      <trkpt lat="47.34579" lon="-2.33941">
        <ele>3.4000000953674</ele>
        <time>2020-10-11T07:43:10.000Z</time>
      </trkpt>
      <trkpt lat="47.34592" lon="-2.33991">
        <ele>3.4000000953674</ele>
        <time>2020-10-11T07:43:17.000Z</time>
      </trkpt>
      <trkpt lat="47.34604" lon="-2.3403">
        <ele>3.4000000953674</ele>
        <time>2020-10-11T07:43:23.000Z</time>
      </trkpt>
      <trkpt lat="47.34607" lon="-2.34042">
        <ele>3.4000000953674</ele>
        <time>2020-10-11T07:43:25.000Z</time>
      </trkpt>
      <trkpt lat="47.34612" lon="-2.34063">
        <ele>3.4000000953674</ele>
        <time>2020-10-11T07:43:28.000Z</time>
      </trkpt>
      <trkpt lat="47.34618" lon="-2.34086">
        <ele>3.4000000953674</ele>
        <time>2020-10-11T07:43:31.000Z</time>
      </trkpt>
      <trkpt lat="47.34623" lon="-2.34108">
        <ele>3.4000000953674</ele>
        <time>2020-10-11T07:43:34.000Z</time>
      </trkpt>
      <trkpt lat="47.34628" lon="-2.34121">
        <ele>4.1999998092651</ele>
        <time>2020-10-11T07:43:36.000Z</time>
      </trkpt>
      <trkpt lat="47.34631" lon="-2.34127">
        <ele>4.8000001907349</ele>
        <time>2020-10-11T07:43:37.000Z</time>
      </trkpt>
      <trkpt lat="47.34634" lon="-2.34133">
        <ele>5.1999998092651</ele>
        <time>2020-10-11T07:43:38.000Z</time>
      </trkpt>
      <trkpt lat="47.34638" lon="-2.34137">
        <ele>5.5999999046326</ele>
        <time>2020-10-11T07:43:39.000Z</time>
      </trkpt>
      <trkpt lat="47.34647" lon="-2.34146">
        <ele>5.5999999046326</ele>
        <time>2020-10-11T07:43:41.000Z</time>
      </trkpt>
      <trkpt lat="47.34652" lon="-2.34149">
        <ele>5.5999999046326</ele>
        <time>2020-10-11T07:43:42.000Z</time>
      </trkpt>
      <trkpt lat="47.34663" lon="-2.34151">
        <ele>5.5999999046326</ele>
        <time>2020-10-11T07:43:44.000Z</time>
      </trkpt>
      <trkpt lat="47.34672" lon="-2.34156">
        <ele>5.5999999046326</ele>
        <time>2020-10-11T07:43:46.000Z</time>
      </trkpt>
      <trkpt lat="47.34676" lon="-2.34168">
        <ele>5.5999999046326</ele>
        <time>2020-10-11T07:43:48.000Z</time>
      </trkpt>
      <trkpt lat="47.34669" lon="-2.3419">
        <ele>5.5999999046326</ele>
        <time>2020-10-11T07:43:51.000Z</time>
      </trkpt>
      <trkpt lat="47.34649" lon="-2.34244">
        <ele>6</ele>
        <time>2020-10-11T07:43:59.000Z</time>
      </trkpt>
      <trkpt lat="47.34647" lon="-2.34251">
        <ele>7</ele>
        <time>2020-10-11T07:44:00.000Z</time>
      </trkpt>
      <trkpt lat="47.34645" lon="-2.34257">
        <ele>7.4000000953674</ele>
        <time>2020-10-11T07:44:01.000Z</time>
      </trkpt>
      <trkpt lat="47.34643" lon="-2.34263">
        <ele>7.8000001907349</ele>
        <time>2020-10-11T07:44:02.000Z</time>
      </trkpt>
      <trkpt lat="47.34635" lon="-2.34281">
        <ele>7.8000001907349</ele>
        <time>2020-10-11T07:44:05.000Z</time>
      </trkpt>
      <trkpt lat="47.34624" lon="-2.34297">
        <ele>7.8000001907349</ele>
        <time>2020-10-11T07:44:09.000Z</time>
      </trkpt>
      <trkpt lat="47.34612" lon="-2.34298">
        <ele>8.1999998092651</ele>
        <time>2020-10-11T07:44:12.000Z</time>
      </trkpt>
      <trkpt lat="47.34608" lon="-2.34298">
        <ele>8.6000003814697</ele>
        <time>2020-10-11T07:44:13.000Z</time>
      </trkpt>
      <trkpt lat="47.34604" lon="-2.34298">
        <ele>9</ele>
        <time>2020-10-11T07:44:14.000Z</time>
      </trkpt>
      <trkpt lat="47.34599" lon="-2.34299">
        <ele>9.3999996185303</ele>
        <time>2020-10-11T07:44:15.000Z</time>
      </trkpt>
      <trkpt lat="47.34596" lon="-2.34299">
        <ele>9.8000001907349</ele>
        <time>2020-10-11T07:44:16.000Z</time>
      </trkpt>
      <trkpt lat="47.34585" lon="-2.34304">
        <ele>9.8000001907349</ele>
        <time>2020-10-11T07:44:19.000Z</time>
      </trkpt>
      <trkpt lat="47.34579" lon="-2.34306">
        <ele>10.199999809265</ele>
        <time>2020-10-11T07:44:21.000Z</time>
      </trkpt>
      <trkpt lat="47.34576" lon="-2.34308">
        <ele>10.60000038147</ele>
        <time>2020-10-11T07:44:22.000Z</time>
      </trkpt>
      <trkpt lat="47.34573" lon="-2.3431">
        <ele>11</ele>
        <time>2020-10-11T07:44:23.000Z</time>
      </trkpt>
      <trkpt lat="47.3457" lon="-2.34312">
        <ele>11.39999961853</ele>
        <time>2020-10-11T07:44:24.000Z</time>
      </trkpt>
      <trkpt lat="47.34568" lon="-2.34315">
        <ele>11.800000190735</ele>
        <time>2020-10-11T07:44:25.000Z</time>
      </trkpt>
      <trkpt lat="47.3455" lon="-2.34326">
        <ele>11.800000190735</ele>
        <time>2020-10-11T07:44:30.000Z</time>
      </trkpt>
      <trkpt lat="47.34535" lon="-2.34341">
        <ele>11.800000190735</ele>
        <time>2020-10-11T07:44:34.000Z</time>
      </trkpt>
      <trkpt lat="47.34528" lon="-2.34348">
        <ele>11.800000190735</ele>
        <time>2020-10-11T07:44:36.000Z</time>
      </trkpt>
      <trkpt lat="47.34503" lon="-2.34376">
        <ele>11.800000190735</ele>
        <time>2020-10-11T07:44:42.000Z</time>
      </trkpt>
      <trkpt lat="47.34489" lon="-2.34387">
        <ele>11.800000190735</ele>
        <time>2020-10-11T07:44:45.000Z</time>
      </trkpt>
      <trkpt lat="47.34479" lon="-2.34394">
        <ele>12.199999809265</ele>
        <time>2020-10-11T07:44:47.000Z</time>
      </trkpt>
      <trkpt lat="47.34474" lon="-2.34396">
        <ele>12.60000038147</ele>
        <time>2020-10-11T07:44:48.000Z</time>
      </trkpt>
      <trkpt lat="47.34469" lon="-2.34398">
        <ele>13.39999961853</ele>
        <time>2020-10-11T07:44:49.000Z</time>
      </trkpt>
      <trkpt lat="47.34463" lon="-2.344">
        <ele>13.800000190735</ele>
        <time>2020-10-11T07:44:50.000Z</time>
      </trkpt>
      <trkpt lat="47.34436" lon="-2.34409">
        <ele>13.800000190735</ele>
        <time>2020-10-11T07:44:55.000Z</time>
      </trkpt>
      <trkpt lat="47.34421" lon="-2.34415">
        <ele>13.800000190735</ele>
        <time>2020-10-11T07:44:58.000Z</time>
      </trkpt>
      <trkpt lat="47.34411" lon="-2.3442">
        <ele>13.800000190735</ele>
        <time>2020-10-11T07:45:00.000Z</time>
      </trkpt>
      <trkpt lat="47.34376" lon="-2.34437">
        <ele>13.800000190735</ele>
        <time>2020-10-11T07:45:07.000Z</time>
      </trkpt>
      <trkpt lat="47.34372" lon="-2.3444">
        <ele>13.800000190735</ele>
        <time>2020-10-11T07:45:08.000Z</time>
      </trkpt>
      <trkpt lat="47.34347" lon="-2.34456">
        <ele>13.800000190735</ele>
        <time>2020-10-11T07:45:13.000Z</time>
      </trkpt>
      <trkpt lat="47.34338" lon="-2.34461">
        <ele>13.800000190735</ele>
        <time>2020-10-11T07:45:15.000Z</time>
      </trkpt>
      <trkpt lat="47.34328" lon="-2.34464">
        <ele>13.800000190735</ele>
        <time>2020-10-11T07:45:17.000Z</time>
      </trkpt>
      <trkpt lat="47.34324" lon="-2.34466">
        <ele>13.800000190735</ele>
        <time>2020-10-11T07:45:18.000Z</time>
      </trkpt>
      <trkpt lat="47.3429" lon="-2.34469">
        <ele>13.800000190735</ele>
        <time>2020-10-11T07:45:24.000Z</time>
      </trkpt>
      <trkpt lat="47.34276" lon="-2.34472">
        <ele>13.800000190735</ele>
        <time>2020-10-11T07:45:27.000Z</time>
      </trkpt>
      <trkpt lat="47.3427" lon="-2.34472">
        <ele>13.800000190735</ele>
        <time>2020-10-11T07:45:28.000Z</time>
      </trkpt>
      <trkpt lat="47.34245" lon="-2.34483">
        <ele>13.800000190735</ele>
        <time>2020-10-11T07:45:33.000Z</time>
      </trkpt>
      <trkpt lat="47.34224" lon="-2.34494">
        <ele>13.800000190735</ele>
        <time>2020-10-11T07:45:37.000Z</time>
      </trkpt>
      <trkpt lat="47.34199" lon="-2.34506">
        <ele>13.800000190735</ele>
        <time>2020-10-11T07:45:42.000Z</time>
      </trkpt>
      <trkpt lat="47.34193" lon="-2.34508">
        <ele>13.800000190735</ele>
        <time>2020-10-11T07:45:43.000Z</time>
      </trkpt>
      <trkpt lat="47.34162" lon="-2.34519">
        <ele>14.39999961853</ele>
        <time>2020-10-11T07:45:49.000Z</time>
      </trkpt>
      <trkpt lat="47.34157" lon="-2.34521">
        <ele>14.800000190735</ele>
        <time>2020-10-11T07:45:50.000Z</time>
      </trkpt>
      <trkpt lat="47.34152" lon="-2.34523">
        <ele>15.199999809265</ele>
        <time>2020-10-11T07:45:51.000Z</time>
      </trkpt>
      <trkpt lat="47.34146" lon="-2.34525">
        <ele>15.60000038147</ele>
        <time>2020-10-11T07:45:52.000Z</time>
      </trkpt>
      <trkpt lat="47.34141" lon="-2.34527">
        <ele>16</ele>
        <time>2020-10-11T07:45:53.000Z</time>
      </trkpt>
      <trkpt lat="47.34112" lon="-2.34541">
        <ele>16</ele>
        <time>2020-10-11T07:45:59.000Z</time>
      </trkpt>
      <trkpt lat="47.34101" lon="-2.34548">
        <ele>16</ele>
        <time>2020-10-11T07:46:01.000Z</time>
      </trkpt>
      <trkpt lat="47.34078" lon="-2.34566">
        <ele>16</ele>
        <time>2020-10-11T07:46:06.000Z</time>
      </trkpt>
      <trkpt lat="47.3407" lon="-2.34576">
        <ele>16</ele>
        <time>2020-10-11T07:46:09.000Z</time>
      </trkpt>
      <trkpt lat="47.34055" lon="-2.34587">
        <ele>16</ele>
        <time>2020-10-11T07:46:13.000Z</time>
      </trkpt>
      <trkpt lat="47.34048" lon="-2.34591">
        <ele>16</ele>
        <time>2020-10-11T07:46:15.000Z</time>
      </trkpt>
      <trkpt lat="47.34038" lon="-2.34597">
        <ele>16</ele>
        <time>2020-10-11T07:46:18.000Z</time>
      </trkpt>
      <trkpt lat="47.34013" lon="-2.34602">
        <ele>16</ele>
        <time>2020-10-11T07:46:24.000Z</time>
      </trkpt>
      <trkpt lat="47.34004" lon="-2.34601">
        <ele>16.39999961853</ele>
        <time>2020-10-11T07:46:26.000Z</time>
      </trkpt>
      <trkpt lat="47.34" lon="-2.346">
        <ele>16.799999237061</ele>
        <time>2020-10-11T07:46:27.000Z</time>
      </trkpt>
      <trkpt lat="47.33995" lon="-2.34599">
        <ele>17.799999237061</ele>
        <time>2020-10-11T07:46:28.000Z</time>
      </trkpt>
      <trkpt lat="47.3399" lon="-2.34598">
        <ele>18.200000762939</ele>
        <time>2020-10-11T07:46:29.000Z</time>
      </trkpt>
      <trkpt lat="47.33981" lon="-2.34595">
        <ele>18.200000762939</ele>
        <time>2020-10-11T07:46:31.000Z</time>
      </trkpt>
      <trkpt lat="47.33976" lon="-2.34595">
        <ele>18.200000762939</ele>
        <time>2020-10-11T07:46:32.000Z</time>
      </trkpt>
      <trkpt lat="47.33959" lon="-2.34594">
        <ele>18.200000762939</ele>
        <time>2020-10-11T07:46:35.000Z</time>
      </trkpt>
      <trkpt lat="47.33954" lon="-2.34594">
        <ele>18.200000762939</ele>
        <time>2020-10-11T07:46:36.000Z</time>
      </trkpt>
      <trkpt lat="47.33933" lon="-2.34592">
        <ele>18.200000762939</ele>
        <time>2020-10-11T07:46:40.000Z</time>
      </trkpt>
      <trkpt lat="47.33917" lon="-2.34591">
        <ele>18.200000762939</ele>
        <time>2020-10-11T07:46:43.000Z</time>
      </trkpt>
      <trkpt lat="47.33912" lon="-2.34592">
        <ele>18.200000762939</ele>
        <time>2020-10-11T07:46:44.000Z</time>
      </trkpt>
      <trkpt lat="47.33898" lon="-2.34597">
        <ele>18.200000762939</ele>
        <time>2020-10-11T07:46:47.000Z</time>
      </trkpt>
      <trkpt lat="47.33888" lon="-2.34619">
        <ele>18.200000762939</ele>
        <time>2020-10-11T07:46:51.000Z</time>
      </trkpt>
      <trkpt lat="47.33884" lon="-2.34647">
        <ele>18.200000762939</ele>
        <time>2020-10-11T07:46:55.000Z</time>
      </trkpt>
      <trkpt lat="47.3388" lon="-2.34686">
        <ele>18.200000762939</ele>
        <time>2020-10-11T07:47:00.000Z</time>
      </trkpt>
      <trkpt lat="47.3388" lon="-2.34695">
        <ele>18.200000762939</ele>
        <time>2020-10-11T07:47:01.000Z</time>
      </trkpt>
      <trkpt lat="47.33877" lon="-2.34742">
        <ele>18.200000762939</ele>
        <time>2020-10-11T07:47:07.000Z</time>
      </trkpt>
      <trkpt lat="47.33872" lon="-2.34785">
        <ele>17.60000038147</ele>
        <time>2020-10-11T07:47:12.000Z</time>
      </trkpt>
      <trkpt lat="47.3387" lon="-2.34793">
        <ele>17.200000762939</ele>
        <time>2020-10-11T07:47:13.000Z</time>
      </trkpt>
      <trkpt lat="47.33868" lon="-2.34801">
        <ele>16.799999237061</ele>
        <time>2020-10-11T07:47:14.000Z</time>
      </trkpt>
      <trkpt lat="47.33866" lon="-2.34808">
        <ele>16.39999961853</ele>
        <time>2020-10-11T07:47:15.000Z</time>
      </trkpt>
      <trkpt lat="47.33864" lon="-2.34816">
        <ele>16</ele>
        <time>2020-10-11T07:47:16.000Z</time>
      </trkpt>
      <trkpt lat="47.33861" lon="-2.34824">
        <ele>16</ele>
        <time>2020-10-11T07:47:17.000Z</time>
      </trkpt>
      <trkpt lat="47.33858" lon="-2.3483">
        <ele>16</ele>
        <time>2020-10-11T07:47:18.000Z</time>
      </trkpt>
      <trkpt lat="47.33853" lon="-2.34834">
        <ele>15.39999961853</ele>
        <time>2020-10-11T07:47:19.000Z</time>
      </trkpt>
      <trkpt lat="47.33848" lon="-2.34839">
        <ele>15</ele>
        <time>2020-10-11T07:47:20.000Z</time>
      </trkpt>
      <trkpt lat="47.33844" lon="-2.34843">
        <ele>14.60000038147</ele>
        <time>2020-10-11T07:47:21.000Z</time>
      </trkpt>
      <trkpt lat="47.33839" lon="-2.34848">
        <ele>14.199999809265</ele>
        <time>2020-10-11T07:47:22.000Z</time>
      </trkpt>
      <trkpt lat="47.33835" lon="-2.34853">
        <ele>13.800000190735</ele>
        <time>2020-10-11T07:47:23.000Z</time>
      </trkpt>
      <trkpt lat="47.33827" lon="-2.34862">
        <ele>13.800000190735</ele>
        <time>2020-10-11T07:47:25.000Z</time>
      </trkpt>
      <trkpt lat="47.33824" lon="-2.34867">
        <ele>13.800000190735</ele>
        <time>2020-10-11T07:47:26.000Z</time>
      </trkpt>
      <trkpt lat="47.33811" lon="-2.34893">
        <ele>13.800000190735</ele>
        <time>2020-10-11T07:47:31.000Z</time>
      </trkpt>
      <trkpt lat="47.33808" lon="-2.34899">
        <ele>13.800000190735</ele>
        <time>2020-10-11T07:47:32.000Z</time>
      </trkpt>
      <trkpt lat="47.33793" lon="-2.34924">
        <ele>13.800000190735</ele>
        <time>2020-10-11T07:47:37.000Z</time>
      </trkpt>
      <trkpt lat="47.33782" lon="-2.3494">
        <ele>13.800000190735</ele>
        <time>2020-10-11T07:47:40.000Z</time>
      </trkpt>
      <trkpt lat="47.33773" lon="-2.34949">
        <ele>13.800000190735</ele>
        <time>2020-10-11T07:47:42.000Z</time>
      </trkpt>
      <trkpt lat="47.3377" lon="-2.34954">
        <ele>13.800000190735</ele>
        <time>2020-10-11T07:47:43.000Z</time>
      </trkpt>
      <trkpt lat="47.3375" lon="-2.34972">
        <ele>14.199999809265</ele>
        <time>2020-10-11T07:47:47.000Z</time>
      </trkpt>
      <trkpt lat="47.33745" lon="-2.34976">
        <ele>14.60000038147</ele>
        <time>2020-10-11T07:47:48.000Z</time>
      </trkpt>
      <trkpt lat="47.3374" lon="-2.34981">
        <ele>15</ele>
        <time>2020-10-11T07:47:49.000Z</time>
      </trkpt>
      <trkpt lat="47.33736" lon="-2.34985">
        <ele>15.39999961853</ele>
        <time>2020-10-11T07:47:50.000Z</time>
      </trkpt>
      <trkpt lat="47.33732" lon="-2.34988">
        <ele>15.800000190735</ele>
        <time>2020-10-11T07:47:51.000Z</time>
      </trkpt>
      <trkpt lat="47.33721" lon="-2.34999">
        <ele>15.800000190735</ele>
        <time>2020-10-11T07:47:54.000Z</time>
      </trkpt>
      <trkpt lat="47.33706" lon="-2.34999">
        <ele>15.800000190735</ele>
        <time>2020-10-11T07:47:58.000Z</time>
      </trkpt>
      <trkpt lat="47.33696" lon="-2.34988">
        <ele>15.800000190735</ele>
        <time>2020-10-11T07:48:01.000Z</time>
      </trkpt>
      <trkpt lat="47.33693" lon="-2.34983">
        <ele>15.800000190735</ele>
        <time>2020-10-11T07:48:02.000Z</time>
      </trkpt>
      <trkpt lat="47.33669" lon="-2.3496">
        <ele>15.800000190735</ele>
        <time>2020-10-11T07:48:08.000Z</time>
      </trkpt>
      <trkpt lat="47.33654" lon="-2.34964">
        <ele>15.800000190735</ele>
        <time>2020-10-11T07:48:11.000Z</time>
      </trkpt>
      <trkpt lat="47.3365" lon="-2.34965">
        <ele>15.800000190735</ele>
        <time>2020-10-11T07:48:12.000Z</time>
      </trkpt>
      <trkpt lat="47.3364" lon="-2.34962">
        <ele>15.800000190735</ele>
        <time>2020-10-11T07:48:15.000Z</time>
      </trkpt>
      <trkpt lat="47.33638" lon="-2.3496">
        <ele>16.39999961853</ele>
        <time>2020-10-11T07:48:16.000Z</time>
      </trkpt>
      <trkpt lat="47.33635" lon="-2.34959">
        <ele>16.799999237061</ele>
        <time>2020-10-11T07:48:17.000Z</time>
      </trkpt>
      <trkpt lat="47.33633" lon="-2.34957">
        <ele>17.200000762939</ele>
        <time>2020-10-11T07:48:18.000Z</time>
      </trkpt>
      <trkpt lat="47.3363" lon="-2.34955">
        <ele>17.60000038147</ele>
        <time>2020-10-11T07:48:19.000Z</time>
      </trkpt>
      <trkpt lat="47.33627" lon="-2.34952">
        <ele>18.200000762939</ele>
        <time>2020-10-11T07:48:20.000Z</time>
      </trkpt>
      <trkpt lat="47.33607" lon="-2.34943">
        <ele>18.200000762939</ele>
        <time>2020-10-11T07:48:25.000Z</time>
      </trkpt>
      <trkpt lat="47.33584" lon="-2.34932">
        <ele>18.60000038147</ele>
        <time>2020-10-11T07:48:31.000Z</time>
      </trkpt>
      <trkpt lat="47.3358" lon="-2.34929">
        <ele>19.39999961853</ele>
        <time>2020-10-11T07:48:32.000Z</time>
      </trkpt>
      <trkpt lat="47.33576" lon="-2.34927">
        <ele>19.799999237061</ele>
        <time>2020-10-11T07:48:33.000Z</time>
      </trkpt>
      <trkpt lat="47.33573" lon="-2.34925">
        <ele>20.200000762939</ele>
        <time>2020-10-11T07:48:34.000Z</time>
      </trkpt>
      <trkpt lat="47.33558" lon="-2.34921">
        <ele>20.200000762939</ele>
        <time>2020-10-11T07:48:38.000Z</time>
      </trkpt>
      <trkpt lat="47.33538" lon="-2.34909">
        <ele>20.200000762939</ele>
        <time>2020-10-11T07:48:43.000Z</time>
      </trkpt>
      <trkpt lat="47.33506" lon="-2.34896">
        <ele>20.200000762939</ele>
        <time>2020-10-11T07:48:50.000Z</time>
      </trkpt>
      <trkpt lat="47.33484" lon="-2.34904">
        <ele>20.200000762939</ele>
        <time>2020-10-11T07:48:55.000Z</time>
      </trkpt>
      <trkpt lat="47.33465" lon="-2.34908">
        <ele>20.60000038147</ele>
        <time>2020-10-11T07:48:59.000Z</time>
      </trkpt>
      <trkpt lat="47.3346" lon="-2.34909">
        <ele>21</ele>
        <time>2020-10-11T07:49:00.000Z</time>
      </trkpt>
      <trkpt lat="47.33456" lon="-2.34912">
        <ele>21.39999961853</ele>
        <time>2020-10-11T07:49:01.000Z</time>
      </trkpt>
      <trkpt lat="47.33451" lon="-2.34914">
        <ele>21.799999237061</ele>
        <time>2020-10-11T07:49:02.000Z</time>
      </trkpt>
      <trkpt lat="47.33446" lon="-2.34917">
        <ele>22.200000762939</ele>
        <time>2020-10-11T07:49:03.000Z</time>
      </trkpt>
      <trkpt lat="47.33441" lon="-2.34919">
        <ele>22.200000762939</ele>
        <time>2020-10-11T07:49:04.000Z</time>
      </trkpt>
      <trkpt lat="47.33425" lon="-2.34925">
        <ele>22.200000762939</ele>
        <time>2020-10-11T07:49:07.000Z</time>
      </trkpt>
      <trkpt lat="47.33399" lon="-2.34932">
        <ele>22.200000762939</ele>
        <time>2020-10-11T07:49:12.000Z</time>
      </trkpt>
      <trkpt lat="47.33393" lon="-2.34933">
        <ele>22.200000762939</ele>
        <time>2020-10-11T07:49:13.000Z</time>
      </trkpt>
      <trkpt lat="47.33382" lon="-2.34933">
        <ele>22.200000762939</ele>
        <time>2020-10-11T07:49:15.000Z</time>
      </trkpt>
      <trkpt lat="47.33363" lon="-2.34933">
        <ele>22.200000762939</ele>
        <time>2020-10-11T07:49:19.000Z</time>
      </trkpt>
      <trkpt lat="47.33357" lon="-2.34934">
        <ele>22.200000762939</ele>
        <time>2020-10-11T07:49:20.000Z</time>
      </trkpt>
      <trkpt lat="47.33344" lon="-2.34934">
        <ele>21.799999237061</ele>
        <time>2020-10-11T07:49:23.000Z</time>
      </trkpt>
      <trkpt lat="47.33341" lon="-2.34933">
        <ele>21.39999961853</ele>
        <time>2020-10-11T07:49:24.000Z</time>
      </trkpt>
      <trkpt lat="47.33337" lon="-2.34934">
        <ele>21</ele>
        <time>2020-10-11T07:49:25.000Z</time>
      </trkpt>
      <trkpt lat="47.33335" lon="-2.34934">
        <ele>20.60000038147</ele>
        <time>2020-10-11T07:49:26.000Z</time>
      </trkpt>
      <trkpt lat="47.33333" lon="-2.34934">
        <ele>20.200000762939</ele>
        <time>2020-10-11T07:49:27.000Z</time>
      </trkpt>
      <trkpt lat="47.33331" lon="-2.34936">
        <ele>20.200000762939</ele>
        <time>2020-10-11T07:49:28.000Z</time>
      </trkpt>
      <trkpt lat="47.33324" lon="-2.34939">
        <ele>20.200000762939</ele>
        <time>2020-10-11T07:49:33.000Z</time>
      </trkpt>
      <trkpt lat="47.33322" lon="-2.34939">
        <ele>20.200000762939</ele>
        <time>2020-10-11T07:49:34.000Z</time>
      </trkpt>
      <trkpt lat="47.33312" lon="-2.34939">
        <ele>20.200000762939</ele>
        <time>2020-10-11T07:49:38.000Z</time>
      </trkpt>
      <trkpt lat="47.33292" lon="-2.34941">
        <ele>20.200000762939</ele>
        <time>2020-10-11T07:49:42.000Z</time>
      </trkpt>
      <trkpt lat="47.3328" lon="-2.34942">
        <ele>20.200000762939</ele>
        <time>2020-10-11T07:49:44.000Z</time>
      </trkpt>
      <trkpt lat="47.33264" lon="-2.34946">
        <ele>20.200000762939</ele>
        <time>2020-10-11T07:49:47.000Z</time>
      </trkpt>
      <trkpt lat="47.33236" lon="-2.34958">
        <ele>20.200000762939</ele>
        <time>2020-10-11T07:49:52.000Z</time>
      </trkpt>
      <trkpt lat="47.33224" lon="-2.34966">
        <ele>20.200000762939</ele>
        <time>2020-10-11T07:49:55.000Z</time>
      </trkpt>
      <trkpt lat="47.33217" lon="-2.34975">
        <ele>20.200000762939</ele>
        <time>2020-10-11T07:49:57.000Z</time>
      </trkpt>
      <trkpt lat="47.33194" lon="-2.35001">
        <ele>20.200000762939</ele>
        <time>2020-10-11T07:50:03.000Z</time>
      </trkpt>
      <trkpt lat="47.33177" lon="-2.35017">
        <ele>20.200000762939</ele>
        <time>2020-10-11T07:50:08.000Z</time>
      </trkpt>
      <trkpt lat="47.33169" lon="-2.35009">
        <ele>20.200000762939</ele>
        <time>2020-10-11T07:50:11.000Z</time>
      </trkpt>
      <trkpt lat="47.33167" lon="-2.35006">
        <ele>19.799999237061</ele>
        <time>2020-10-11T07:50:12.000Z</time>
      </trkpt>
      <trkpt lat="47.33164" lon="-2.35006">
        <ele>19.39999961853</ele>
        <time>2020-10-11T07:50:13.000Z</time>
      </trkpt>
      <trkpt lat="47.33161" lon="-2.35005">
        <ele>19</ele>
        <time>2020-10-11T07:50:14.000Z</time>
      </trkpt>
      <trkpt lat="47.33159" lon="-2.35006">
        <ele>18.60000038147</ele>
        <time>2020-10-11T07:50:15.000Z</time>
      </trkpt>
      <trkpt lat="47.33156" lon="-2.35009">
        <ele>18.200000762939</ele>
        <time>2020-10-11T07:50:16.000Z</time>
      </trkpt>
      <trkpt lat="47.3315" lon="-2.35023">
        <ele>18.200000762939</ele>
        <time>2020-10-11T07:50:20.000Z</time>
      </trkpt>
      <trkpt lat="47.33145" lon="-2.3503">
        <ele>18.200000762939</ele>
        <time>2020-10-11T07:50:22.000Z</time>
      </trkpt>
      <trkpt lat="47.33139" lon="-2.35038">
        <ele>18.200000762939</ele>
        <time>2020-10-11T07:50:24.000Z</time>
      </trkpt>
      <trkpt lat="47.33125" lon="-2.35058">
        <ele>18.200000762939</ele>
        <time>2020-10-11T07:50:29.000Z</time>
      </trkpt>
      <trkpt lat="47.33109" lon="-2.35078">
        <ele>18.200000762939</ele>
        <time>2020-10-11T07:50:33.000Z</time>
      </trkpt>
      <trkpt lat="47.33102" lon="-2.35088">
        <ele>18.200000762939</ele>
        <time>2020-10-11T07:50:35.000Z</time>
      </trkpt>
      <trkpt lat="47.33092" lon="-2.35103">
        <ele>18.60000038147</ele>
        <time>2020-10-11T07:50:38.000Z</time>
      </trkpt>
      <trkpt lat="47.33088" lon="-2.35108">
        <ele>19</ele>
        <time>2020-10-11T07:50:39.000Z</time>
      </trkpt>
      <trkpt lat="47.33084" lon="-2.35113">
        <ele>19.39999961853</ele>
        <time>2020-10-11T07:50:40.000Z</time>
      </trkpt>
      <trkpt lat="47.3308" lon="-2.35118">
        <ele>20</ele>
        <time>2020-10-11T07:50:41.000Z</time>
      </trkpt>
      <trkpt lat="47.33077" lon="-2.35123">
        <ele>20.39999961853</ele>
        <time>2020-10-11T07:50:42.000Z</time>
      </trkpt>
      <trkpt lat="47.33065" lon="-2.3514">
        <ele>20.39999961853</ele>
        <time>2020-10-11T07:50:46.000Z</time>
      </trkpt>
      <trkpt lat="47.3306" lon="-2.35151">
        <ele>20.39999961853</ele>
        <time>2020-10-11T07:50:48.000Z</time>
      </trkpt>
      <trkpt lat="47.33053" lon="-2.35167">
        <ele>20.39999961853</ele>
        <time>2020-10-11T07:50:50.000Z</time>
      </trkpt>
      <trkpt lat="47.33046" lon="-2.3518">
        <ele>20.39999961853</ele>
        <time>2020-10-11T07:50:52.000Z</time>
      </trkpt>
      <trkpt lat="47.33037" lon="-2.35194">
        <ele>20.39999961853</ele>
        <time>2020-10-11T07:50:55.000Z</time>
      </trkpt>
      <trkpt lat="47.33036" lon="-2.35201">
        <ele>20.39999961853</ele>
        <time>2020-10-11T07:50:56.000Z</time>
      </trkpt>
      <trkpt lat="47.33032" lon="-2.35209">
        <ele>20.39999961853</ele>
        <time>2020-10-11T07:50:58.000Z</time>
      </trkpt>
      <trkpt lat="47.33027" lon="-2.35225">
        <ele>20.799999237061</ele>
        <time>2020-10-11T07:51:01.000Z</time>
      </trkpt>
      <trkpt lat="47.33028" lon="-2.35232">
        <ele>21.200000762939</ele>
        <time>2020-10-11T07:51:02.000Z</time>
      </trkpt>
      <trkpt lat="47.33029" lon="-2.35238">
        <ele>21.60000038147</ele>
        <time>2020-10-11T07:51:03.000Z</time>
      </trkpt>
      <trkpt lat="47.33029" lon="-2.35245">
        <ele>22</ele>
        <time>2020-10-11T07:51:04.000Z</time>
      </trkpt>
      <trkpt lat="47.33029" lon="-2.35251">
        <ele>22.39999961853</ele>
        <time>2020-10-11T07:51:05.000Z</time>
      </trkpt>
      <trkpt lat="47.33028" lon="-2.35269">
        <ele>22.39999961853</ele>
        <time>2020-10-11T07:51:08.000Z</time>
      </trkpt>
      <trkpt lat="47.33026" lon="-2.3529">
        <ele>22.39999961853</ele>
        <time>2020-10-11T07:51:11.000Z</time>
      </trkpt>
      <trkpt lat="47.33025" lon="-2.35304">
        <ele>22.39999961853</ele>
        <time>2020-10-11T07:51:13.000Z</time>
      </trkpt>
      <trkpt lat="47.33026" lon="-2.35347">
        <ele>22.39999961853</ele>
        <time>2020-10-11T07:51:18.000Z</time>
      </trkpt>
      <trkpt lat="47.33031" lon="-2.35411">
        <ele>22.39999961853</ele>
        <time>2020-10-11T07:51:26.000Z</time>
      </trkpt>
      <trkpt lat="47.33031" lon="-2.35449">
        <ele>22.39999961853</ele>
        <time>2020-10-11T07:51:31.000Z</time>
      </trkpt>
      <trkpt lat="47.3303" lon="-2.35465">
        <ele>22.39999961853</ele>
        <time>2020-10-11T07:51:33.000Z</time>
      </trkpt>
      <trkpt lat="47.3303" lon="-2.35473">
        <ele>22</ele>
        <time>2020-10-11T07:51:34.000Z</time>
      </trkpt>
      <trkpt lat="47.33029" lon="-2.35481">
        <ele>21.60000038147</ele>
        <time>2020-10-11T07:51:35.000Z</time>
      </trkpt>
      <trkpt lat="47.33028" lon="-2.3549">
        <ele>21.200000762939</ele>
        <time>2020-10-11T07:51:36.000Z</time>
      </trkpt>
      <trkpt lat="47.33028" lon="-2.35499">
        <ele>20.799999237061</ele>
        <time>2020-10-11T07:51:37.000Z</time>
      </trkpt>
      <trkpt lat="47.33027" lon="-2.35507">
        <ele>20.39999961853</ele>
        <time>2020-10-11T07:51:38.000Z</time>
      </trkpt>
      <trkpt lat="47.33027" lon="-2.35516">
        <ele>20.39999961853</ele>
        <time>2020-10-11T07:51:39.000Z</time>
      </trkpt>
      <trkpt lat="47.33028" lon="-2.35523">
        <ele>20.39999961853</ele>
        <time>2020-10-11T07:51:40.000Z</time>
      </trkpt>
      <trkpt lat="47.33028" lon="-2.35536">
        <ele>20.39999961853</ele>
        <time>2020-10-11T07:51:42.000Z</time>
      </trkpt>
      <trkpt lat="47.33025" lon="-2.35596">
        <ele>19.39999961853</ele>
        <time>2020-10-11T07:51:50.000Z</time>
      </trkpt>
      <trkpt lat="47.33024" lon="-2.35603">
        <ele>19</ele>
        <time>2020-10-11T07:51:51.000Z</time>
      </trkpt>
      <trkpt lat="47.33023" lon="-2.35612">
        <ele>18.60000038147</ele>
        <time>2020-10-11T07:51:52.000Z</time>
      </trkpt>
      <trkpt lat="47.33022" lon="-2.35621">
        <ele>18.200000762939</ele>
        <time>2020-10-11T07:51:53.000Z</time>
      </trkpt>
      <trkpt lat="47.33021" lon="-2.3563">
        <ele>18.200000762939</ele>
        <time>2020-10-11T07:51:54.000Z</time>
      </trkpt>
      <trkpt lat="47.33019" lon="-2.35647">
        <ele>18.200000762939</ele>
        <time>2020-10-11T07:51:56.000Z</time>
      </trkpt>
      <trkpt lat="47.33016" lon="-2.35673">
        <ele>17.799999237061</ele>
        <time>2020-10-11T07:51:59.000Z</time>
      </trkpt>
      <trkpt lat="47.33014" lon="-2.35682">
        <ele>17.200000762939</ele>
        <time>2020-10-11T07:52:00.000Z</time>
      </trkpt>
      <trkpt lat="47.33013" lon="-2.35692">
        <ele>16.799999237061</ele>
        <time>2020-10-11T07:52:01.000Z</time>
      </trkpt>
      <trkpt lat="47.33012" lon="-2.35701">
        <ele>16.39999961853</ele>
        <time>2020-10-11T07:52:02.000Z</time>
      </trkpt>
      <trkpt lat="47.33011" lon="-2.3571">
        <ele>16</ele>
        <time>2020-10-11T07:52:03.000Z</time>
      </trkpt>
      <trkpt lat="47.3301" lon="-2.35721">
        <ele>16</ele>
        <time>2020-10-11T07:52:04.000Z</time>
      </trkpt>
      <trkpt lat="47.33009" lon="-2.35739">
        <ele>16</ele>
        <time>2020-10-11T07:52:06.000Z</time>
      </trkpt>
      <trkpt lat="47.33009" lon="-2.35748">
        <ele>16</ele>
        <time>2020-10-11T07:52:07.000Z</time>
      </trkpt>
      <trkpt lat="47.33013" lon="-2.35773">
        <ele>16</ele>
        <time>2020-10-11T07:52:10.000Z</time>
      </trkpt>
      <trkpt lat="47.3302" lon="-2.35787">
        <ele>16</ele>
        <time>2020-10-11T07:52:12.000Z</time>
      </trkpt>
      <trkpt lat="47.33037" lon="-2.35805">
        <ele>16</ele>
        <time>2020-10-11T07:52:16.000Z</time>
      </trkpt>
      <trkpt lat="47.33045" lon="-2.35809">
        <ele>16</ele>
        <time>2020-10-11T07:52:18.000Z</time>
      </trkpt>
      <trkpt lat="47.33058" lon="-2.3581">
        <ele>16</ele>
        <time>2020-10-11T07:52:20.000Z</time>
      </trkpt>
      <trkpt lat="47.33068" lon="-2.3581">
        <ele>16</ele>
        <time>2020-10-11T07:52:22.000Z</time>
      </trkpt>
      <trkpt lat="47.33085" lon="-2.3581">
        <ele>16</ele>
        <time>2020-10-11T07:52:25.000Z</time>
      </trkpt>
      <trkpt lat="47.33106" lon="-2.3581">
        <ele>16.39999961853</ele>
        <time>2020-10-11T07:52:29.000Z</time>
      </trkpt>
      <trkpt lat="47.33111" lon="-2.35809">
        <ele>16.799999237061</ele>
        <time>2020-10-11T07:52:30.000Z</time>
      </trkpt>
      <trkpt lat="47.33116" lon="-2.35809">
        <ele>17.200000762939</ele>
        <time>2020-10-11T07:52:31.000Z</time>
      </trkpt>
      <trkpt lat="47.33121" lon="-2.35809">
        <ele>17.799999237061</ele>
        <time>2020-10-11T07:52:32.000Z</time>
      </trkpt>
      <trkpt lat="47.33126" lon="-2.35809">
        <ele>18.200000762939</ele>
        <time>2020-10-11T07:52:33.000Z</time>
      </trkpt>
      <trkpt lat="47.33155" lon="-2.35811">
        <ele>18.200000762939</ele>
        <time>2020-10-11T07:52:39.000Z</time>
      </trkpt>
      <trkpt lat="47.3316" lon="-2.35812">
        <ele>19</ele>
        <time>2020-10-11T07:52:40.000Z</time>
      </trkpt>
      <trkpt lat="47.33165" lon="-2.35813">
        <ele>19.39999961853</ele>
        <time>2020-10-11T07:52:41.000Z</time>
      </trkpt>
      <trkpt lat="47.3317" lon="-2.35814">
        <ele>19.799999237061</ele>
        <time>2020-10-11T07:52:42.000Z</time>
      </trkpt>
      <trkpt lat="47.33175" lon="-2.35816">
        <ele>20.200000762939</ele>
        <time>2020-10-11T07:52:43.000Z</time>
      </trkpt>
      <trkpt lat="47.3319" lon="-2.35819">
        <ele>20.200000762939</ele>
        <time>2020-10-11T07:52:46.000Z</time>
      </trkpt>
      <trkpt lat="47.33195" lon="-2.3582">
        <ele>20.200000762939</ele>
        <time>2020-10-11T07:52:47.000Z</time>
      </trkpt>
      <trkpt lat="47.33216" lon="-2.35823">
        <ele>20.200000762939</ele>
        <time>2020-10-11T07:52:51.000Z</time>
      </trkpt>
      <trkpt lat="47.33236" lon="-2.35831">
        <ele>20.200000762939</ele>
        <time>2020-10-11T07:52:55.000Z</time>
      </trkpt>
      <trkpt lat="47.33245" lon="-2.35837">
        <ele>20.60000038147</ele>
        <time>2020-10-11T07:52:57.000Z</time>
      </trkpt>
      <trkpt lat="47.33249" lon="-2.35841">
        <ele>21</ele>
        <time>2020-10-11T07:52:58.000Z</time>
      </trkpt>
      <trkpt lat="47.33253" lon="-2.35844">
        <ele>21.39999961853</ele>
        <time>2020-10-11T07:52:59.000Z</time>
      </trkpt>
      <trkpt lat="47.33257" lon="-2.35848">
        <ele>21.799999237061</ele>
        <time>2020-10-11T07:53:00.000Z</time>
      </trkpt>
      <trkpt lat="47.33261" lon="-2.35852">
        <ele>22.39999961853</ele>
        <time>2020-10-11T07:53:01.000Z</time>
      </trkpt>
      <trkpt lat="47.33272" lon="-2.35864">
        <ele>22.799999237061</ele>
        <time>2020-10-11T07:53:04.000Z</time>
      </trkpt>
      <trkpt lat="47.33275" lon="-2.35868">
        <ele>23.200000762939</ele>
        <time>2020-10-11T07:53:05.000Z</time>
      </trkpt>
      <trkpt lat="47.33279" lon="-2.35871">
        <ele>23.60000038147</ele>
        <time>2020-10-11T07:53:06.000Z</time>
      </trkpt>
      <trkpt lat="47.33283" lon="-2.35875">
        <ele>24</ele>
        <time>2020-10-11T07:53:07.000Z</time>
      </trkpt>
      <trkpt lat="47.33287" lon="-2.35879">
        <ele>24.39999961853</ele>
        <time>2020-10-11T07:53:08.000Z</time>
      </trkpt>
      <trkpt lat="47.33291" lon="-2.35882">
        <ele>24.39999961853</ele>
        <time>2020-10-11T07:53:09.000Z</time>
      </trkpt>
      <trkpt lat="47.33304" lon="-2.35891">
        <ele>24.39999961853</ele>
        <time>2020-10-11T07:53:12.000Z</time>
      </trkpt>
      <trkpt lat="47.33307" lon="-2.35895">
        <ele>24.799999237061</ele>
        <time>2020-10-11T07:53:13.000Z</time>
      </trkpt>
      <trkpt lat="47.3331" lon="-2.359">
        <ele>25.200000762939</ele>
        <time>2020-10-11T07:53:14.000Z</time>
      </trkpt>
      <trkpt lat="47.33312" lon="-2.35905">
        <ele>25.799999237061</ele>
        <time>2020-10-11T07:53:15.000Z</time>
      </trkpt>
      <trkpt lat="47.33314" lon="-2.3591">
        <ele>26.200000762939</ele>
        <time>2020-10-11T07:53:16.000Z</time>
      </trkpt>
      <trkpt lat="47.33317" lon="-2.35916">
        <ele>26.60000038147</ele>
        <time>2020-10-11T07:53:17.000Z</time>
      </trkpt>
      <trkpt lat="47.33323" lon="-2.3594">
        <ele>26.60000038147</ele>
        <time>2020-10-11T07:53:21.000Z</time>
      </trkpt>
      <trkpt lat="47.33324" lon="-2.35961">
        <ele>26.60000038147</ele>
        <time>2020-10-11T07:53:24.000Z</time>
      </trkpt>
      <trkpt lat="47.33322" lon="-2.35975">
        <ele>26.60000038147</ele>
        <time>2020-10-11T07:53:26.000Z</time>
      </trkpt>
      <trkpt lat="47.33315" lon="-2.36019">
        <ele>26.60000038147</ele>
        <time>2020-10-11T07:53:32.000Z</time>
      </trkpt>
      <trkpt lat="47.3331" lon="-2.36081">
        <ele>26.60000038147</ele>
        <time>2020-10-11T07:53:40.000Z</time>
      </trkpt>
      <trkpt lat="47.3331" lon="-2.36146">
        <ele>26.60000038147</ele>
        <time>2020-10-11T07:53:48.000Z</time>
      </trkpt>
      <trkpt lat="47.3331" lon="-2.36197">
        <ele>26.60000038147</ele>
        <time>2020-10-11T07:53:54.000Z</time>
      </trkpt>
      <trkpt lat="47.3331" lon="-2.36204">
        <ele>26.60000038147</ele>
        <time>2020-10-11T07:53:55.000Z</time>
      </trkpt>
      <trkpt lat="47.33319" lon="-2.36217">
        <ele>26.60000038147</ele>
        <time>2020-10-11T07:53:58.000Z</time>
      </trkpt>
      <trkpt lat="47.33333" lon="-2.36208">
        <ele>26.60000038147</ele>
        <time>2020-10-11T07:54:01.000Z</time>
      </trkpt>
      <trkpt lat="47.33337" lon="-2.36204">
        <ele>26.60000038147</ele>
        <time>2020-10-11T07:54:02.000Z</time>
      </trkpt>
      <trkpt lat="47.33374" lon="-2.36179">
        <ele>26.60000038147</ele>
        <time>2020-10-11T07:54:10.000Z</time>
      </trkpt>
      <trkpt lat="47.33402" lon="-2.36162">
        <ele>26.60000038147</ele>
        <time>2020-10-11T07:54:16.000Z</time>
      </trkpt>
      <trkpt lat="47.33406" lon="-2.36162">
        <ele>26.60000038147</ele>
        <time>2020-10-11T07:54:17.000Z</time>
      </trkpt>
      <trkpt lat="47.33414" lon="-2.36178">
        <ele>26.60000038147</ele>
        <time>2020-10-11T07:54:20.000Z</time>
      </trkpt>
      <trkpt lat="47.33415" lon="-2.3621">
        <ele>26.60000038147</ele>
        <time>2020-10-11T07:54:24.000Z</time>
      </trkpt>
      <trkpt lat="47.33412" lon="-2.36247">
        <ele>26.60000038147</ele>
        <time>2020-10-11T07:54:28.000Z</time>
      </trkpt>
      <trkpt lat="47.33412" lon="-2.36257">
        <ele>26.60000038147</ele>
        <time>2020-10-11T07:54:29.000Z</time>
      </trkpt>
      <trkpt lat="47.33411" lon="-2.36275">
        <ele>26.60000038147</ele>
        <time>2020-10-11T07:54:31.000Z</time>
      </trkpt>
      <trkpt lat="47.33414" lon="-2.36301">
        <ele>26.60000038147</ele>
        <time>2020-10-11T07:54:34.000Z</time>
      </trkpt>
      <trkpt lat="47.33419" lon="-2.36317">
        <ele>26.60000038147</ele>
        <time>2020-10-11T07:54:36.000Z</time>
      </trkpt>
      <trkpt lat="47.33429" lon="-2.36349">
        <ele>26.60000038147</ele>
        <time>2020-10-11T07:54:40.000Z</time>
      </trkpt>
      <trkpt lat="47.33435" lon="-2.36365">
        <ele>25.799999237061</ele>
        <time>2020-10-11T07:54:42.000Z</time>
      </trkpt>
      <trkpt lat="47.33437" lon="-2.36372">
        <ele>25.39999961853</ele>
        <time>2020-10-11T07:54:43.000Z</time>
      </trkpt>
      <trkpt lat="47.3344" lon="-2.3638">
        <ele>24.799999237061</ele>
        <time>2020-10-11T07:54:44.000Z</time>
      </trkpt>
      <trkpt lat="47.33442" lon="-2.36388">
        <ele>24.39999961853</ele>
        <time>2020-10-11T07:54:45.000Z</time>
      </trkpt>
      <trkpt lat="47.33445" lon="-2.36395">
        <ele>24.39999961853</ele>
        <time>2020-10-11T07:54:46.000Z</time>
      </trkpt>
      <trkpt lat="47.33449" lon="-2.36407">
        <ele>24.39999961853</ele>
        <time>2020-10-11T07:54:48.000Z</time>
      </trkpt>
      <trkpt lat="47.33455" lon="-2.36415">
        <ele>24</ele>
        <time>2020-10-11T07:54:50.000Z</time>
      </trkpt>
      <trkpt lat="47.33459" lon="-2.36417">
        <ele>23.60000038147</ele>
        <time>2020-10-11T07:54:51.000Z</time>
      </trkpt>
      <trkpt lat="47.33464" lon="-2.36418">
        <ele>23.200000762939</ele>
        <time>2020-10-11T07:54:52.000Z</time>
      </trkpt>
      <trkpt lat="47.33468" lon="-2.3642">
        <ele>22.799999237061</ele>
        <time>2020-10-11T07:54:53.000Z</time>
      </trkpt>
      <trkpt lat="47.33472" lon="-2.36422">
        <ele>22.39999961853</ele>
        <time>2020-10-11T07:54:54.000Z</time>
      </trkpt>
      <trkpt lat="47.33474" lon="-2.36426">
        <ele>22.39999961853</ele>
        <time>2020-10-11T07:54:55.000Z</time>
      </trkpt>
      <trkpt lat="47.33476" lon="-2.36441">
        <ele>22.39999961853</ele>
        <time>2020-10-11T07:54:58.000Z</time>
      </trkpt>
      <trkpt lat="47.33476" lon="-2.36455">
        <ele>22.39999961853</ele>
        <time>2020-10-11T07:55:00.000Z</time>
      </trkpt>
      <trkpt lat="47.33476" lon="-2.3648">
        <ele>22.39999961853</ele>
        <time>2020-10-11T07:55:03.000Z</time>
      </trkpt>
      <trkpt lat="47.33476" lon="-2.36496">
        <ele>22.39999961853</ele>
        <time>2020-10-11T07:55:05.000Z</time>
      </trkpt>
      <trkpt lat="47.33472" lon="-2.3655">
        <ele>22</ele>
        <time>2020-10-11T07:55:11.000Z</time>
      </trkpt>
      <trkpt lat="47.33472" lon="-2.36558">
        <ele>21.60000038147</ele>
        <time>2020-10-11T07:55:12.000Z</time>
      </trkpt>
      <trkpt lat="47.33471" lon="-2.36566">
        <ele>21</ele>
        <time>2020-10-11T07:55:13.000Z</time>
      </trkpt>
      <trkpt lat="47.33471" lon="-2.36574">
        <ele>20.60000038147</ele>
        <time>2020-10-11T07:55:14.000Z</time>
      </trkpt>
      <trkpt lat="47.33472" lon="-2.36582">
        <ele>20.200000762939</ele>
        <time>2020-10-11T07:55:15.000Z</time>
      </trkpt>
      <trkpt lat="47.33474" lon="-2.36587">
        <ele>20.200000762939</ele>
        <time>2020-10-11T07:55:16.000Z</time>
      </trkpt>
      <trkpt lat="47.33486" lon="-2.36592">
        <ele>20.200000762939</ele>
        <time>2020-10-11T07:55:19.000Z</time>
      </trkpt>
      <trkpt lat="47.33506" lon="-2.36601">
        <ele>20.200000762939</ele>
        <time>2020-10-11T07:55:24.000Z</time>
      </trkpt>
      <trkpt lat="47.33519" lon="-2.3661">
        <ele>20.200000762939</ele>
        <time>2020-10-11T07:55:27.000Z</time>
      </trkpt>
      <trkpt lat="47.33527" lon="-2.36615">
        <ele>19.799999237061</ele>
        <time>2020-10-11T07:55:29.000Z</time>
      </trkpt>
      <trkpt lat="47.33529" lon="-2.36619">
        <ele>19.39999961853</ele>
        <time>2020-10-11T07:55:30.000Z</time>
      </trkpt>
      <trkpt lat="47.33531" lon="-2.36621">
        <ele>19</ele>
        <time>2020-10-11T07:55:31.000Z</time>
      </trkpt>
      <trkpt lat="47.33534" lon="-2.36624">
        <ele>18</ele>
        <time>2020-10-11T07:55:32.000Z</time>
      </trkpt>
      <trkpt lat="47.33536" lon="-2.36626">
        <ele>17.39999961853</ele>
        <time>2020-10-11T07:55:33.000Z</time>
      </trkpt>
      <trkpt lat="47.33538" lon="-2.36629">
        <ele>16.799999237061</ele>
        <time>2020-10-11T07:55:34.000Z</time>
      </trkpt>
      <trkpt lat="47.3354" lon="-2.36632">
        <ele>16.200000762939</ele>
        <time>2020-10-11T07:55:35.000Z</time>
      </trkpt>
      <trkpt lat="47.33541" lon="-2.36637">
        <ele>15.60000038147</ele>
        <time>2020-10-11T07:55:36.000Z</time>
      </trkpt>
      <trkpt lat="47.3354" lon="-2.36642">
        <ele>14.800000190735</ele>
        <time>2020-10-11T07:55:37.000Z</time>
      </trkpt>
      <trkpt lat="47.33538" lon="-2.36647">
        <ele>14.199999809265</ele>
        <time>2020-10-11T07:55:38.000Z</time>
      </trkpt>
      <trkpt lat="47.33535" lon="-2.36652">
        <ele>13.60000038147</ele>
        <time>2020-10-11T07:55:39.000Z</time>
      </trkpt>
      <trkpt lat="47.33532" lon="-2.36657">
        <ele>13.60000038147</ele>
        <time>2020-10-11T07:55:40.000Z</time>
      </trkpt>
      <trkpt lat="47.33528" lon="-2.36661">
        <ele>13.199999809265</ele>
        <time>2020-10-11T07:55:41.000Z</time>
      </trkpt>
      <trkpt lat="47.33524" lon="-2.36665">
        <ele>12.800000190735</ele>
        <time>2020-10-11T07:55:42.000Z</time>
      </trkpt>
      <trkpt lat="47.3352" lon="-2.36669">
        <ele>12.39999961853</ele>
        <time>2020-10-11T07:55:43.000Z</time>
      </trkpt>
      <trkpt lat="47.33516" lon="-2.36674">
        <ele>11.800000190735</ele>
        <time>2020-10-11T07:55:44.000Z</time>
      </trkpt>
      <trkpt lat="47.33513" lon="-2.3668">
        <ele>11.39999961853</ele>
        <time>2020-10-11T07:55:45.000Z</time>
      </trkpt>
      <trkpt lat="47.33504" lon="-2.36696">
        <ele>11.39999961853</ele>
        <time>2020-10-11T07:55:48.000Z</time>
      </trkpt>
      <trkpt lat="47.33497" lon="-2.36707">
        <ele>11.39999961853</ele>
        <time>2020-10-11T07:55:50.000Z</time>
      </trkpt>
      <trkpt lat="47.33495" lon="-2.36712">
        <ele>11.39999961853</ele>
        <time>2020-10-11T07:55:51.000Z</time>
      </trkpt>
      <trkpt lat="47.3348" lon="-2.36749">
        <ele>11.39999961853</ele>
        <time>2020-10-11T07:55:58.000Z</time>
      </trkpt>
      <trkpt lat="47.33473" lon="-2.36772">
        <ele>11.39999961853</ele>
        <time>2020-10-11T07:56:02.000Z</time>
      </trkpt>
      <trkpt lat="47.33472" lon="-2.3678">
        <ele>11.39999961853</ele>
        <time>2020-10-11T07:56:03.000Z</time>
      </trkpt>
      <trkpt lat="47.3347" lon="-2.36802">
        <ele>11.39999961853</ele>
        <time>2020-10-11T07:56:06.000Z</time>
      </trkpt>
      <trkpt lat="47.3347" lon="-2.36809">
        <ele>11.39999961853</ele>
        <time>2020-10-11T07:56:07.000Z</time>
      </trkpt>
      <trkpt lat="47.33467" lon="-2.36828">
        <ele>11.39999961853</ele>
        <time>2020-10-11T07:56:10.000Z</time>
      </trkpt>
      <trkpt lat="47.33463" lon="-2.36839">
        <ele>11.39999961853</ele>
        <time>2020-10-11T07:56:12.000Z</time>
      </trkpt>
      <trkpt lat="47.3346" lon="-2.36842">
        <ele>11.39999961853</ele>
        <time>2020-10-11T07:56:13.000Z</time>
      </trkpt>
      <trkpt lat="47.33454" lon="-2.3685">
        <ele>11.39999961853</ele>
        <time>2020-10-11T07:56:15.000Z</time>
      </trkpt>
      <trkpt lat="47.33448" lon="-2.36863">
        <ele>12</ele>
        <time>2020-10-11T07:56:19.000Z</time>
      </trkpt>
      <trkpt lat="47.33446" lon="-2.36866">
        <ele>12.39999961853</ele>
        <time>2020-10-11T07:56:20.000Z</time>
      </trkpt>
      <trkpt lat="47.33446" lon="-2.36869">
        <ele>13.39999961853</ele>
        <time>2020-10-11T07:56:21.000Z</time>
      </trkpt>
      <trkpt lat="47.33445" lon="-2.36872">
        <ele>13.800000190735</ele>
        <time>2020-10-11T07:56:22.000Z</time>
      </trkpt>
      <trkpt lat="47.33446" lon="-2.36881">
        <ele>13.800000190735</ele>
        <time>2020-10-11T07:56:24.000Z</time>
      </trkpt>
      <trkpt lat="47.33452" lon="-2.36911">
        <ele>13.800000190735</ele>
        <time>2020-10-11T07:56:30.000Z</time>
      </trkpt>
      <trkpt lat="47.33453" lon="-2.36941">
        <ele>13.800000190735</ele>
        <time>2020-10-11T07:56:35.000Z</time>
      </trkpt>
      <trkpt lat="47.33462" lon="-2.36974">
        <ele>13.800000190735</ele>
        <time>2020-10-11T07:56:40.000Z</time>
      </trkpt>
      <trkpt lat="47.33471" lon="-2.36988">
        <ele>13.800000190735</ele>
        <time>2020-10-11T07:56:44.000Z</time>
      </trkpt>
      <trkpt lat="47.33478" lon="-2.36986">
        <ele>13.800000190735</ele>
        <time>2020-10-11T07:56:47.000Z</time>
      </trkpt>
      <trkpt lat="47.33488" lon="-2.36974">
        <ele>13.800000190735</ele>
        <time>2020-10-11T07:56:52.000Z</time>
      </trkpt>
      <trkpt lat="47.33494" lon="-2.36972">
        <ele>13.800000190735</ele>
        <time>2020-10-11T07:56:54.000Z</time>
      </trkpt>
      <trkpt lat="47.33497" lon="-2.36971">
        <ele>13.800000190735</ele>
        <time>2020-10-11T07:56:57.000Z</time>
      </trkpt>
      <trkpt lat="47.33502" lon="-2.3697">
        <ele>13.800000190735</ele>
        <time>2020-10-11T07:57:03.000Z</time>
      </trkpt>
      <trkpt lat="47.33508" lon="-2.36971">
        <ele>14.199999809265</ele>
        <time>2020-10-11T07:57:09.000Z</time>
      </trkpt>
      <trkpt lat="47.33509" lon="-2.3697">
        <ele>15.199999809265</ele>
        <time>2020-10-11T07:57:10.000Z</time>
      </trkpt>
      <trkpt lat="47.3351" lon="-2.3697">
        <ele>15.60000038147</ele>
        <time>2020-10-11T07:57:11.000Z</time>
      </trkpt>
      <trkpt lat="47.33533" lon="-2.36966">
        <ele>18.39999961853</ele>
        <time>2020-10-11T07:57:42.000Z</time>
      </trkpt>
      <trkpt lat="47.33535" lon="-2.36965">
        <ele>18.799999237061</ele>
        <time>2020-10-11T07:57:43.000Z</time>
      </trkpt>
      <trkpt lat="47.33537" lon="-2.36964">
        <ele>19.200000762939</ele>
        <time>2020-10-11T07:57:44.000Z</time>
      </trkpt>
      <trkpt lat="47.33541" lon="-2.36964">
        <ele>19.60000038147</ele>
        <time>2020-10-11T07:57:45.000Z</time>
      </trkpt>
      <trkpt lat="47.33545" lon="-2.36964">
        <ele>20</ele>
        <time>2020-10-11T07:57:46.000Z</time>
      </trkpt>
      <trkpt lat="47.33557" lon="-2.36963">
        <ele>20</ele>
        <time>2020-10-11T07:57:49.000Z</time>
      </trkpt>
      <trkpt lat="47.33577" lon="-2.36957">
        <ele>20</ele>
        <time>2020-10-11T07:57:54.000Z</time>
      </trkpt>
      <trkpt lat="47.33599" lon="-2.36953">
        <ele>20</ele>
        <time>2020-10-11T07:58:00.000Z</time>
      </trkpt>
      <trkpt lat="47.33603" lon="-2.36959">
        <ele>20.39999961853</ele>
        <time>2020-10-11T07:58:02.000Z</time>
      </trkpt>
      <trkpt lat="47.33604" lon="-2.36964">
        <ele>20.799999237061</ele>
        <time>2020-10-11T07:58:03.000Z</time>
      </trkpt>
      <trkpt lat="47.33603" lon="-2.3697">
        <ele>21.39999961853</ele>
        <time>2020-10-11T07:58:04.000Z</time>
      </trkpt>
      <trkpt lat="47.33603" lon="-2.36977">
        <ele>21.799999237061</ele>
        <time>2020-10-11T07:58:05.000Z</time>
      </trkpt>
      <trkpt lat="47.33602" lon="-2.36983">
        <ele>22.200000762939</ele>
        <time>2020-10-11T07:58:06.000Z</time>
      </trkpt>
      <trkpt lat="47.33602" lon="-2.3699">
        <ele>22.200000762939</ele>
        <time>2020-10-11T07:58:07.000Z</time>
      </trkpt>
      <trkpt lat="47.33603" lon="-2.37049">
        <ele>22.200000762939</ele>
        <time>2020-10-11T07:58:15.000Z</time>
      </trkpt>
      <trkpt lat="47.33604" lon="-2.37097">
        <ele>22.200000762939</ele>
        <time>2020-10-11T07:58:21.000Z</time>
      </trkpt>
      <trkpt lat="47.33602" lon="-2.37163">
        <ele>22.200000762939</ele>
        <time>2020-10-11T07:58:29.000Z</time>
      </trkpt>
      <trkpt lat="47.33597" lon="-2.37203">
        <ele>22.200000762939</ele>
        <time>2020-10-11T07:58:34.000Z</time>
      </trkpt>
      <trkpt lat="47.33597" lon="-2.37211">
        <ele>22.200000762939</ele>
        <time>2020-10-11T07:58:35.000Z</time>
      </trkpt>
      <trkpt lat="47.33597" lon="-2.37225">
        <ele>22.200000762939</ele>
        <time>2020-10-11T07:58:37.000Z</time>
      </trkpt>
      <trkpt lat="47.3359" lon="-2.37235">
        <ele>22.200000762939</ele>
        <time>2020-10-11T07:58:39.000Z</time>
      </trkpt>
      <trkpt lat="47.33576" lon="-2.37235">
        <ele>22.200000762939</ele>
        <time>2020-10-11T07:58:42.000Z</time>
      </trkpt>
      <trkpt lat="47.33565" lon="-2.37234">
        <ele>22.200000762939</ele>
        <time>2020-10-11T07:58:44.000Z</time>
      </trkpt>
      <trkpt lat="47.33544" lon="-2.37231">
        <ele>22.200000762939</ele>
        <time>2020-10-11T07:58:48.000Z</time>
      </trkpt>
      <trkpt lat="47.33522" lon="-2.37233">
        <ele>22.200000762939</ele>
        <time>2020-10-11T07:58:52.000Z</time>
      </trkpt>
      <trkpt lat="47.33512" lon="-2.37232">
        <ele>22.200000762939</ele>
        <time>2020-10-11T07:58:54.000Z</time>
      </trkpt>
      <trkpt lat="47.33503" lon="-2.3723">
        <ele>21.799999237061</ele>
        <time>2020-10-11T07:58:56.000Z</time>
      </trkpt>
      <trkpt lat="47.33501" lon="-2.37232">
        <ele>21.39999961853</ele>
        <time>2020-10-11T07:58:57.000Z</time>
      </trkpt>
      <trkpt lat="47.335" lon="-2.37236">
        <ele>21</ele>
        <time>2020-10-11T07:58:58.000Z</time>
      </trkpt>
      <trkpt lat="47.335" lon="-2.3724">
        <ele>20.60000038147</ele>
        <time>2020-10-11T07:58:59.000Z</time>
      </trkpt>
      <trkpt lat="47.33502" lon="-2.37244">
        <ele>20.200000762939</ele>
        <time>2020-10-11T07:59:00.000Z</time>
      </trkpt>
      <trkpt lat="47.33505" lon="-2.37254">
        <ele>20.200000762939</ele>
        <time>2020-10-11T07:59:02.000Z</time>
      </trkpt>
      <trkpt lat="47.33515" lon="-2.37283">
        <ele>20.200000762939</ele>
        <time>2020-10-11T07:59:07.000Z</time>
      </trkpt>
      <trkpt lat="47.33517" lon="-2.3729">
        <ele>20.60000038147</ele>
        <time>2020-10-11T07:59:08.000Z</time>
      </trkpt>
      <trkpt lat="47.33518" lon="-2.37296">
        <ele>21</ele>
        <time>2020-10-11T07:59:09.000Z</time>
      </trkpt>
      <trkpt lat="47.3352" lon="-2.37302">
        <ele>21.39999961853</ele>
        <time>2020-10-11T07:59:10.000Z</time>
      </trkpt>
      <trkpt lat="47.33521" lon="-2.37309">
        <ele>21.799999237061</ele>
        <time>2020-10-11T07:59:11.000Z</time>
      </trkpt>
      <trkpt lat="47.33523" lon="-2.37315">
        <ele>22.200000762939</ele>
        <time>2020-10-11T07:59:12.000Z</time>
      </trkpt>
      <trkpt lat="47.33525" lon="-2.37321">
        <ele>22.200000762939</ele>
        <time>2020-10-11T07:59:13.000Z</time>
      </trkpt>
      <trkpt lat="47.33536" lon="-2.37363">
        <ele>22.60000038147</ele>
        <time>2020-10-11T07:59:20.000Z</time>
      </trkpt>
      <trkpt lat="47.33537" lon="-2.37369">
        <ele>23</ele>
        <time>2020-10-11T07:59:21.000Z</time>
      </trkpt>
      <trkpt lat="47.33537" lon="-2.37375">
        <ele>23.39999961853</ele>
        <time>2020-10-11T07:59:22.000Z</time>
      </trkpt>
      <trkpt lat="47.33538" lon="-2.37381">
        <ele>24</ele>
        <time>2020-10-11T07:59:23.000Z</time>
      </trkpt>
      <trkpt lat="47.33539" lon="-2.37387">
        <ele>24.39999961853</ele>
        <time>2020-10-11T07:59:24.000Z</time>
      </trkpt>
      <trkpt lat="47.33539" lon="-2.37393">
        <ele>24.39999961853</ele>
        <time>2020-10-11T07:59:25.000Z</time>
      </trkpt>
      <trkpt lat="47.33539" lon="-2.37406">
        <ele>24.39999961853</ele>
        <time>2020-10-11T07:59:27.000Z</time>
      </trkpt>
      <trkpt lat="47.33538" lon="-2.37425">
        <ele>24.39999961853</ele>
        <time>2020-10-11T07:59:30.000Z</time>
      </trkpt>
      <trkpt lat="47.33537" lon="-2.37437">
        <ele>24.39999961853</ele>
        <time>2020-10-11T07:59:32.000Z</time>
      </trkpt>
      <trkpt lat="47.33536" lon="-2.3745">
        <ele>24.39999961853</ele>
        <time>2020-10-11T07:59:34.000Z</time>
      </trkpt>
      <trkpt lat="47.33535" lon="-2.37457">
        <ele>24.799999237061</ele>
        <time>2020-10-11T07:59:35.000Z</time>
      </trkpt>
      <trkpt lat="47.33534" lon="-2.37463">
        <ele>25.200000762939</ele>
        <time>2020-10-11T07:59:36.000Z</time>
      </trkpt>
      <trkpt lat="47.33532" lon="-2.37469">
        <ele>25.60000038147</ele>
        <time>2020-10-11T07:59:37.000Z</time>
      </trkpt>
      <trkpt lat="47.3353" lon="-2.37475">
        <ele>26</ele>
        <time>2020-10-11T07:59:38.000Z</time>
      </trkpt>
      <trkpt lat="47.33528" lon="-2.37482">
        <ele>26.60000038147</ele>
        <time>2020-10-11T07:59:39.000Z</time>
      </trkpt>
      <trkpt lat="47.33513" lon="-2.37515">
        <ele>26.60000038147</ele>
        <time>2020-10-11T07:59:45.000Z</time>
      </trkpt>
      <trkpt lat="47.33495" lon="-2.37544">
        <ele>27</ele>
        <time>2020-10-11T07:59:51.000Z</time>
      </trkpt>
      <trkpt lat="47.33492" lon="-2.37548">
        <ele>27.39999961853</ele>
        <time>2020-10-11T07:59:52.000Z</time>
      </trkpt>
      <trkpt lat="47.33489" lon="-2.37553">
        <ele>27.799999237061</ele>
        <time>2020-10-11T07:59:53.000Z</time>
      </trkpt>
      <trkpt lat="47.33486" lon="-2.37558">
        <ele>28.200000762939</ele>
        <time>2020-10-11T07:59:54.000Z</time>
      </trkpt>
      <trkpt lat="47.33483" lon="-2.37563">
        <ele>28.60000038147</ele>
        <time>2020-10-11T07:59:55.000Z</time>
      </trkpt>
      <trkpt lat="47.33479" lon="-2.37568">
        <ele>28.60000038147</ele>
        <time>2020-10-11T07:59:56.000Z</time>
      </trkpt>
      <trkpt lat="47.33476" lon="-2.37572">
        <ele>28.60000038147</ele>
        <time>2020-10-11T07:59:57.000Z</time>
      </trkpt>
      <trkpt lat="47.33451" lon="-2.37594">
        <ele>28.60000038147</ele>
        <time>2020-10-11T08:00:03.000Z</time>
      </trkpt>
      <trkpt lat="47.33422" lon="-2.37618">
        <ele>28.60000038147</ele>
        <time>2020-10-11T08:00:10.000Z</time>
      </trkpt>
      <trkpt lat="47.33401" lon="-2.37639">
        <ele>28.60000038147</ele>
        <time>2020-10-11T08:00:15.000Z</time>
      </trkpt>
      <trkpt lat="47.33395" lon="-2.37651">
        <ele>28.60000038147</ele>
        <time>2020-10-11T08:00:17.000Z</time>
      </trkpt>
      <trkpt lat="47.33388" lon="-2.37678">
        <ele>28.60000038147</ele>
        <time>2020-10-11T08:00:21.000Z</time>
      </trkpt>
      <trkpt lat="47.33388" lon="-2.37685">
        <ele>29</ele>
        <time>2020-10-11T08:00:22.000Z</time>
      </trkpt>
      <trkpt lat="47.33388" lon="-2.37691">
        <ele>29.39999961853</ele>
        <time>2020-10-11T08:00:23.000Z</time>
      </trkpt>
      <trkpt lat="47.33388" lon="-2.37698">
        <ele>29.799999237061</ele>
        <time>2020-10-11T08:00:24.000Z</time>
      </trkpt>
      <trkpt lat="47.33387" lon="-2.37704">
        <ele>30.39999961853</ele>
        <time>2020-10-11T08:00:25.000Z</time>
      </trkpt>
      <trkpt lat="47.33387" lon="-2.3771">
        <ele>30.799999237061</ele>
        <time>2020-10-11T08:00:26.000Z</time>
      </trkpt>
      <trkpt lat="47.33387" lon="-2.37717">
        <ele>30.799999237061</ele>
        <time>2020-10-11T08:00:27.000Z</time>
      </trkpt>
      <trkpt lat="47.33387" lon="-2.37775">
        <ele>30.799999237061</ele>
        <time>2020-10-11T08:00:35.000Z</time>
      </trkpt>
      <trkpt lat="47.33385" lon="-2.378">
        <ele>30.799999237061</ele>
        <time>2020-10-11T08:00:38.000Z</time>
      </trkpt>
      <trkpt lat="47.33381" lon="-2.37815">
        <ele>30.799999237061</ele>
        <time>2020-10-11T08:00:40.000Z</time>
      </trkpt>
      <trkpt lat="47.33366" lon="-2.37851">
        <ele>30.799999237061</ele>
        <time>2020-10-11T08:00:45.000Z</time>
      </trkpt>
      <trkpt lat="47.33362" lon="-2.37855">
        <ele>30.799999237061</ele>
        <time>2020-10-11T08:00:46.000Z</time>
      </trkpt>
      <trkpt lat="47.33358" lon="-2.37856">
        <ele>30.799999237061</ele>
        <time>2020-10-11T08:00:47.000Z</time>
      </trkpt>
      <trkpt lat="47.33348" lon="-2.37855">
        <ele>30.39999961853</ele>
        <time>2020-10-11T08:00:49.000Z</time>
      </trkpt>
      <trkpt lat="47.33343" lon="-2.37854">
        <ele>30</ele>
        <time>2020-10-11T08:00:50.000Z</time>
      </trkpt>
      <trkpt lat="47.33337" lon="-2.37855">
        <ele>29.60000038147</ele>
        <time>2020-10-11T08:00:51.000Z</time>
      </trkpt>
      <trkpt lat="47.33331" lon="-2.37856">
        <ele>29.200000762939</ele>
        <time>2020-10-11T08:00:52.000Z</time>
      </trkpt>
      <trkpt lat="47.33325" lon="-2.37858">
        <ele>28.60000038147</ele>
        <time>2020-10-11T08:00:53.000Z</time>
      </trkpt>
      <trkpt lat="47.33306" lon="-2.37864">
        <ele>28.60000038147</ele>
        <time>2020-10-11T08:00:56.000Z</time>
      </trkpt>
      <trkpt lat="47.33265" lon="-2.37878">
        <ele>28.200000762939</ele>
        <time>2020-10-11T08:01:02.000Z</time>
      </trkpt>
      <trkpt lat="47.33258" lon="-2.37879">
        <ele>27.60000038147</ele>
        <time>2020-10-11T08:01:03.000Z</time>
      </trkpt>
      <trkpt lat="47.33252" lon="-2.37879">
        <ele>27.200000762939</ele>
        <time>2020-10-11T08:01:04.000Z</time>
      </trkpt>
      <trkpt lat="47.33245" lon="-2.37876">
        <ele>26.60000038147</ele>
        <time>2020-10-11T08:01:05.000Z</time>
      </trkpt>
      <trkpt lat="47.33238" lon="-2.37871">
        <ele>25.799999237061</ele>
        <time>2020-10-11T08:01:06.000Z</time>
      </trkpt>
      <trkpt lat="47.33232" lon="-2.37867">
        <ele>25.200000762939</ele>
        <time>2020-10-11T08:01:07.000Z</time>
      </trkpt>
      <trkpt lat="47.33225" lon="-2.37862">
        <ele>24.60000038147</ele>
        <time>2020-10-11T08:01:08.000Z</time>
      </trkpt>
      <trkpt lat="47.3322" lon="-2.37856">
        <ele>24</ele>
        <time>2020-10-11T08:01:09.000Z</time>
      </trkpt>
      <trkpt lat="47.33215" lon="-2.37848">
        <ele>23.39999961853</ele>
        <time>2020-10-11T08:01:10.000Z</time>
      </trkpt>
      <trkpt lat="47.3321" lon="-2.3784">
        <ele>22.799999237061</ele>
        <time>2020-10-11T08:01:11.000Z</time>
      </trkpt>
      <trkpt lat="47.33205" lon="-2.37831">
        <ele>22.200000762939</ele>
        <time>2020-10-11T08:01:12.000Z</time>
      </trkpt>
      <trkpt lat="47.332" lon="-2.37822">
        <ele>21.799999237061</ele>
        <time>2020-10-11T08:01:13.000Z</time>
      </trkpt>
      <trkpt lat="47.33195" lon="-2.37813">
        <ele>21.799999237061</ele>
        <time>2020-10-11T08:01:14.000Z</time>
      </trkpt>
      <trkpt lat="47.33186" lon="-2.37796">
        <ele>21.799999237061</ele>
        <time>2020-10-11T08:01:16.000Z</time>
      </trkpt>
      <trkpt lat="47.3316" lon="-2.37746">
        <ele>21.200000762939</ele>
        <time>2020-10-11T08:01:22.000Z</time>
      </trkpt>
      <trkpt lat="47.33155" lon="-2.37739">
        <ele>20.799999237061</ele>
        <time>2020-10-11T08:01:23.000Z</time>
      </trkpt>
      <trkpt lat="47.33149" lon="-2.37735">
        <ele>20.200000762939</ele>
        <time>2020-10-11T08:01:24.000Z</time>
      </trkpt>
      <trkpt lat="47.33143" lon="-2.37733">
        <ele>19.799999237061</ele>
        <time>2020-10-11T08:01:25.000Z</time>
      </trkpt>
      <trkpt lat="47.33137" lon="-2.37735">
        <ele>19.200000762939</ele>
        <time>2020-10-11T08:01:26.000Z</time>
      </trkpt>
      <trkpt lat="47.33126" lon="-2.37742">
        <ele>19.200000762939</ele>
        <time>2020-10-11T08:01:28.000Z</time>
      </trkpt>
      <trkpt lat="47.33122" lon="-2.37746">
        <ele>19.200000762939</ele>
        <time>2020-10-11T08:01:29.000Z</time>
      </trkpt>
      <trkpt lat="47.33107" lon="-2.37763">
        <ele>19.200000762939</ele>
        <time>2020-10-11T08:01:33.000Z</time>
      </trkpt>
      <trkpt lat="47.3309" lon="-2.37781">
        <ele>19.200000762939</ele>
        <time>2020-10-11T08:01:38.000Z</time>
      </trkpt>
      <trkpt lat="47.33082" lon="-2.3779">
        <ele>19.200000762939</ele>
        <time>2020-10-11T08:01:40.000Z</time>
      </trkpt>
      <trkpt lat="47.33067" lon="-2.37805">
        <ele>19.200000762939</ele>
        <time>2020-10-11T08:01:43.000Z</time>
      </trkpt>
      <trkpt lat="47.33046" lon="-2.37827">
        <ele>19.200000762939</ele>
        <time>2020-10-11T08:01:48.000Z</time>
      </trkpt>
      <trkpt lat="47.33024" lon="-2.37855">
        <ele>19.200000762939</ele>
        <time>2020-10-11T08:01:54.000Z</time>
      </trkpt>
      <trkpt lat="47.33022" lon="-2.37861">
        <ele>19.200000762939</ele>
        <time>2020-10-11T08:01:55.000Z</time>
      </trkpt>
      <trkpt lat="47.33018" lon="-2.37872">
        <ele>19.200000762939</ele>
        <time>2020-10-11T08:01:57.000Z</time>
      </trkpt>
      <trkpt lat="47.33008" lon="-2.37891">
        <ele>19.200000762939</ele>
        <time>2020-10-11T08:02:00.000Z</time>
      </trkpt>
      <trkpt lat="47.33001" lon="-2.37903">
        <ele>19.799999237061</ele>
        <time>2020-10-11T08:02:02.000Z</time>
      </trkpt>
      <trkpt lat="47.32998" lon="-2.37909">
        <ele>20.200000762939</ele>
        <time>2020-10-11T08:02:03.000Z</time>
      </trkpt>
      <trkpt lat="47.32995" lon="-2.37914">
        <ele>20.60000038147</ele>
        <time>2020-10-11T08:02:04.000Z</time>
      </trkpt>
      <trkpt lat="47.32992" lon="-2.37919">
        <ele>21</ele>
        <time>2020-10-11T08:02:05.000Z</time>
      </trkpt>
      <trkpt lat="47.32988" lon="-2.37925">
        <ele>21.39999961853</ele>
        <time>2020-10-11T08:02:06.000Z</time>
      </trkpt>
      <trkpt lat="47.32985" lon="-2.3793">
        <ele>21.39999961853</ele>
        <time>2020-10-11T08:02:07.000Z</time>
      </trkpt>
      <trkpt lat="47.32972" lon="-2.37951">
        <ele>21.39999961853</ele>
        <time>2020-10-11T08:02:11.000Z</time>
      </trkpt>
      <trkpt lat="47.32968" lon="-2.37956">
        <ele>21.39999961853</ele>
        <time>2020-10-11T08:02:12.000Z</time>
      </trkpt>
      <trkpt lat="47.32964" lon="-2.37961">
        <ele>21.39999961853</ele>
        <time>2020-10-11T08:02:13.000Z</time>
      </trkpt>
      <trkpt lat="47.32949" lon="-2.37982">
        <ele>21.39999961853</ele>
        <time>2020-10-11T08:02:17.000Z</time>
      </trkpt>
      <trkpt lat="47.32929" lon="-2.3801">
        <ele>21.39999961853</ele>
        <time>2020-10-11T08:02:22.000Z</time>
      </trkpt>
      <trkpt lat="47.32914" lon="-2.38032">
        <ele>21.39999961853</ele>
        <time>2020-10-11T08:02:26.000Z</time>
      </trkpt>
      <trkpt lat="47.32907" lon="-2.38044">
        <ele>21.39999961853</ele>
        <time>2020-10-11T08:02:28.000Z</time>
      </trkpt>
      <trkpt lat="47.32884" lon="-2.38085">
        <ele>21.799999237061</ele>
        <time>2020-10-11T08:02:35.000Z</time>
      </trkpt>
      <trkpt lat="47.32881" lon="-2.3809">
        <ele>22.200000762939</ele>
        <time>2020-10-11T08:02:36.000Z</time>
      </trkpt>
      <trkpt lat="47.32878" lon="-2.38096">
        <ele>22.60000038147</ele>
        <time>2020-10-11T08:02:37.000Z</time>
      </trkpt>
      <trkpt lat="47.32875" lon="-2.38102">
        <ele>23</ele>
        <time>2020-10-11T08:02:38.000Z</time>
      </trkpt>
      <trkpt lat="47.32872" lon="-2.38108">
        <ele>23.39999961853</ele>
        <time>2020-10-11T08:02:39.000Z</time>
      </trkpt>
      <trkpt lat="47.32864" lon="-2.38124">
        <ele>23.39999961853</ele>
        <time>2020-10-11T08:02:42.000Z</time>
      </trkpt>
      <trkpt lat="47.32854" lon="-2.3814">
        <ele>23.39999961853</ele>
        <time>2020-10-11T08:02:45.000Z</time>
      </trkpt>
      <trkpt lat="47.32846" lon="-2.38157">
        <ele>23.39999961853</ele>
        <time>2020-10-11T08:02:48.000Z</time>
      </trkpt>
      <trkpt lat="47.3283" lon="-2.38191">
        <ele>23.39999961853</ele>
        <time>2020-10-11T08:02:54.000Z</time>
      </trkpt>
      <trkpt lat="47.32825" lon="-2.38203">
        <ele>23.799999237061</ele>
        <time>2020-10-11T08:02:56.000Z</time>
      </trkpt>
      <trkpt lat="47.32824" lon="-2.38209">
        <ele>24.60000038147</ele>
        <time>2020-10-11T08:02:57.000Z</time>
      </trkpt>
      <trkpt lat="47.32822" lon="-2.38214">
        <ele>25.200000762939</ele>
        <time>2020-10-11T08:02:58.000Z</time>
      </trkpt>
      <trkpt lat="47.3282" lon="-2.3822">
        <ele>25.60000038147</ele>
        <time>2020-10-11T08:02:59.000Z</time>
      </trkpt>
      <trkpt lat="47.32814" lon="-2.38236">
        <ele>25.60000038147</ele>
        <time>2020-10-11T08:03:02.000Z</time>
      </trkpt>
      <trkpt lat="47.32811" lon="-2.38247">
        <ele>26</ele>
        <time>2020-10-11T08:03:04.000Z</time>
      </trkpt>
      <trkpt lat="47.3281" lon="-2.38253">
        <ele>26.39999961853</ele>
        <time>2020-10-11T08:03:05.000Z</time>
      </trkpt>
      <trkpt lat="47.32809" lon="-2.38258">
        <ele>26.799999237061</ele>
        <time>2020-10-11T08:03:06.000Z</time>
      </trkpt>
      <trkpt lat="47.32807" lon="-2.38263">
        <ele>27.39999961853</ele>
        <time>2020-10-11T08:03:07.000Z</time>
      </trkpt>
      <trkpt lat="47.32806" lon="-2.38268">
        <ele>27.799999237061</ele>
        <time>2020-10-11T08:03:08.000Z</time>
      </trkpt>
      <trkpt lat="47.32799" lon="-2.38296">
        <ele>27.799999237061</ele>
        <time>2020-10-11T08:03:14.000Z</time>
      </trkpt>
      <trkpt lat="47.32798" lon="-2.38301">
        <ele>28.200000762939</ele>
        <time>2020-10-11T08:03:15.000Z</time>
      </trkpt>
      <trkpt lat="47.32796" lon="-2.38305">
        <ele>28.60000038147</ele>
        <time>2020-10-11T08:03:16.000Z</time>
      </trkpt>
      <trkpt lat="47.32795" lon="-2.3831">
        <ele>29</ele>
        <time>2020-10-11T08:03:17.000Z</time>
      </trkpt>
      <trkpt lat="47.32794" lon="-2.38314">
        <ele>29.39999961853</ele>
        <time>2020-10-11T08:03:18.000Z</time>
      </trkpt>
      <trkpt lat="47.32793" lon="-2.38319">
        <ele>29.799999237061</ele>
        <time>2020-10-11T08:03:19.000Z</time>
      </trkpt>
      <trkpt lat="47.32792" lon="-2.38323">
        <ele>29.799999237061</ele>
        <time>2020-10-11T08:03:20.000Z</time>
      </trkpt>
      <trkpt lat="47.32789" lon="-2.38337">
        <ele>30.200000762939</ele>
        <time>2020-10-11T08:03:23.000Z</time>
      </trkpt>
      <trkpt lat="47.32788" lon="-2.38341">
        <ele>30.799999237061</ele>
        <time>2020-10-11T08:03:24.000Z</time>
      </trkpt>
      <trkpt lat="47.32788" lon="-2.38346">
        <ele>31.200000762939</ele>
        <time>2020-10-11T08:03:25.000Z</time>
      </trkpt>
      <trkpt lat="47.32787" lon="-2.38351">
        <ele>31.60000038147</ele>
        <time>2020-10-11T08:03:26.000Z</time>
      </trkpt>
      <trkpt lat="47.32786" lon="-2.38356">
        <ele>32</ele>
        <time>2020-10-11T08:03:27.000Z</time>
      </trkpt>
      <trkpt lat="47.32781" lon="-2.38387">
        <ele>32</ele>
        <time>2020-10-11T08:03:34.000Z</time>
      </trkpt>
      <trkpt lat="47.32778" lon="-2.38389">
        <ele>32.400001525879</ele>
        <time>2020-10-11T08:03:35.000Z</time>
      </trkpt>
      <trkpt lat="47.32775" lon="-2.38391">
        <ele>32.799999237061</ele>
        <time>2020-10-11T08:03:36.000Z</time>
      </trkpt>
      <trkpt lat="47.32771" lon="-2.38391">
        <ele>33.200000762939</ele>
        <time>2020-10-11T08:03:37.000Z</time>
      </trkpt>
      <trkpt lat="47.32767" lon="-2.38392">
        <ele>33.599998474121</ele>
        <time>2020-10-11T08:03:38.000Z</time>
      </trkpt>
      <trkpt lat="47.32763" lon="-2.38393">
        <ele>34</ele>
        <time>2020-10-11T08:03:39.000Z</time>
      </trkpt>
      <trkpt lat="47.32741" lon="-2.38398">
        <ele>34</ele>
        <time>2020-10-11T08:03:44.000Z</time>
      </trkpt>
      <trkpt lat="47.32713" lon="-2.38405">
        <ele>34</ele>
        <time>2020-10-11T08:03:49.000Z</time>
      </trkpt>
      <trkpt lat="47.32708" lon="-2.38405">
        <ele>34</ele>
        <time>2020-10-11T08:03:50.000Z</time>
      </trkpt>
      <trkpt lat="47.32691" lon="-2.38398">
        <ele>34</ele>
        <time>2020-10-11T08:03:53.000Z</time>
      </trkpt>
      <trkpt lat="47.32669" lon="-2.3837">
        <ele>34</ele>
        <time>2020-10-11T08:03:57.000Z</time>
      </trkpt>
      <trkpt lat="47.32658" lon="-2.38355">
        <ele>33.400001525879</ele>
        <time>2020-10-11T08:03:59.000Z</time>
      </trkpt>
      <trkpt lat="47.32652" lon="-2.38347">
        <ele>32.799999237061</ele>
        <time>2020-10-11T08:04:00.000Z</time>
      </trkpt>
      <trkpt lat="47.32646" lon="-2.38339">
        <ele>32.400001525879</ele>
        <time>2020-10-11T08:04:01.000Z</time>
      </trkpt>
      <trkpt lat="47.3264" lon="-2.38331">
        <ele>31.60000038147</ele>
        <time>2020-10-11T08:04:02.000Z</time>
      </trkpt>
      <trkpt lat="47.32634" lon="-2.38322">
        <ele>31</ele>
        <time>2020-10-11T08:04:03.000Z</time>
      </trkpt>
      <trkpt lat="47.32627" lon="-2.38314">
        <ele>30.200000762939</ele>
        <time>2020-10-11T08:04:04.000Z</time>
      </trkpt>
      <trkpt lat="47.3262" lon="-2.38307">
        <ele>29.39999961853</ele>
        <time>2020-10-11T08:04:05.000Z</time>
      </trkpt>
      <trkpt lat="47.32613" lon="-2.38301">
        <ele>29</ele>
        <time>2020-10-11T08:04:06.000Z</time>
      </trkpt>
      <trkpt lat="47.32604" lon="-2.38297">
        <ele>28.39999961853</ele>
        <time>2020-10-11T08:04:07.000Z</time>
      </trkpt>
      <trkpt lat="47.32597" lon="-2.38296">
        <ele>27.799999237061</ele>
        <time>2020-10-11T08:04:08.000Z</time>
      </trkpt>
      <trkpt lat="47.32589" lon="-2.38296">
        <ele>27.39999961853</ele>
        <time>2020-10-11T08:04:09.000Z</time>
      </trkpt>
      <trkpt lat="47.32581" lon="-2.38298">
        <ele>26.799999237061</ele>
        <time>2020-10-11T08:04:10.000Z</time>
      </trkpt>
      <trkpt lat="47.32574" lon="-2.38301">
        <ele>26.799999237061</ele>
        <time>2020-10-11T08:04:11.000Z</time>
      </trkpt>
      <trkpt lat="47.32567" lon="-2.38304">
        <ele>26.799999237061</ele>
        <time>2020-10-11T08:04:12.000Z</time>
      </trkpt>
      <trkpt lat="47.32542" lon="-2.3831">
        <ele>26.799999237061</ele>
        <time>2020-10-11T08:04:16.000Z</time>
      </trkpt>
      <trkpt lat="47.32532" lon="-2.38315">
        <ele>26.799999237061</ele>
        <time>2020-10-11T08:04:18.000Z</time>
      </trkpt>
      <trkpt lat="47.3253" lon="-2.38318">
        <ele>26.799999237061</ele>
        <time>2020-10-11T08:04:19.000Z</time>
      </trkpt>
      <trkpt lat="47.32526" lon="-2.38338">
        <ele>26.799999237061</ele>
        <time>2020-10-11T08:04:23.000Z</time>
      </trkpt>
      <trkpt lat="47.32524" lon="-2.38366">
        <ele>26.799999237061</ele>
        <time>2020-10-11T08:04:27.000Z</time>
      </trkpt>
      <trkpt lat="47.32523" lon="-2.38377">
        <ele>26.799999237061</ele>
        <time>2020-10-11T08:04:29.000Z</time>
      </trkpt>
      <trkpt lat="47.3252" lon="-2.38382">
        <ele>26.799999237061</ele>
        <time>2020-10-11T08:04:30.000Z</time>
      </trkpt>
      <trkpt lat="47.32511" lon="-2.38385">
        <ele>26.799999237061</ele>
        <time>2020-10-11T08:04:32.000Z</time>
      </trkpt>
      <trkpt lat="47.32495" lon="-2.38379">
        <ele>26.799999237061</ele>
        <time>2020-10-11T08:04:35.000Z</time>
      </trkpt>
      <trkpt lat="47.3249" lon="-2.38377">
        <ele>26.799999237061</ele>
        <time>2020-10-11T08:04:36.000Z</time>
      </trkpt>
      <trkpt lat="47.32464" lon="-2.38365">
        <ele>27.200000762939</ele>
        <time>2020-10-11T08:04:41.000Z</time>
      </trkpt>
      <trkpt lat="47.32459" lon="-2.38362">
        <ele>27.60000038147</ele>
        <time>2020-10-11T08:04:42.000Z</time>
      </trkpt>
      <trkpt lat="47.32454" lon="-2.3836">
        <ele>28</ele>
        <time>2020-10-11T08:04:43.000Z</time>
      </trkpt>
      <trkpt lat="47.32449" lon="-2.38358">
        <ele>28.39999961853</ele>
        <time>2020-10-11T08:04:44.000Z</time>
      </trkpt>
      <trkpt lat="47.32444" lon="-2.38356">
        <ele>28.799999237061</ele>
        <time>2020-10-11T08:04:45.000Z</time>
      </trkpt>
      <trkpt lat="47.32423" lon="-2.38346">
        <ele>28.799999237061</ele>
        <time>2020-10-11T08:04:49.000Z</time>
      </trkpt>
      <trkpt lat="47.32386" lon="-2.38329">
        <ele>28.799999237061</ele>
        <time>2020-10-11T08:04:56.000Z</time>
      </trkpt>
      <trkpt lat="47.32374" lon="-2.38324">
        <ele>28.799999237061</ele>
        <time>2020-10-11T08:04:58.000Z</time>
      </trkpt>
      <trkpt lat="47.32355" lon="-2.38315">
        <ele>28.799999237061</ele>
        <time>2020-10-11T08:05:01.000Z</time>
      </trkpt>
      <trkpt lat="47.32308" lon="-2.38296">
        <ele>28.799999237061</ele>
        <time>2020-10-11T08:05:08.000Z</time>
      </trkpt>
      <trkpt lat="47.32293" lon="-2.38291">
        <ele>28.39999961853</ele>
        <time>2020-10-11T08:05:10.000Z</time>
      </trkpt>
      <trkpt lat="47.32287" lon="-2.38289">
        <ele>28</ele>
        <time>2020-10-11T08:05:11.000Z</time>
      </trkpt>
      <trkpt lat="47.3228" lon="-2.38288">
        <ele>27.60000038147</ele>
        <time>2020-10-11T08:05:12.000Z</time>
      </trkpt>
      <trkpt lat="47.32273" lon="-2.38287">
        <ele>27.200000762939</ele>
        <time>2020-10-11T08:05:13.000Z</time>
      </trkpt>
      <trkpt lat="47.32266" lon="-2.38288">
        <ele>26.799999237061</ele>
        <time>2020-10-11T08:05:14.000Z</time>
      </trkpt>
      <trkpt lat="47.32246" lon="-2.38293">
        <ele>26.799999237061</ele>
        <time>2020-10-11T08:05:17.000Z</time>
      </trkpt>
      <trkpt lat="47.32228" lon="-2.38296">
        <ele>26.799999237061</ele>
        <time>2020-10-11T08:05:20.000Z</time>
      </trkpt>
      <trkpt lat="47.32217" lon="-2.38297">
        <ele>26.39999961853</ele>
        <time>2020-10-11T08:05:22.000Z</time>
      </trkpt>
      <trkpt lat="47.32213" lon="-2.383">
        <ele>26</ele>
        <time>2020-10-11T08:05:23.000Z</time>
      </trkpt>
      <trkpt lat="47.3221" lon="-2.38305">
        <ele>25.60000038147</ele>
        <time>2020-10-11T08:05:24.000Z</time>
      </trkpt>
      <trkpt lat="47.32206" lon="-2.3831">
        <ele>25.200000762939</ele>
        <time>2020-10-11T08:05:25.000Z</time>
      </trkpt>
      <trkpt lat="47.32202" lon="-2.38314">
        <ele>24.799999237061</ele>
        <time>2020-10-11T08:05:26.000Z</time>
      </trkpt>
      <trkpt lat="47.32195" lon="-2.38324">
        <ele>24.799999237061</ele>
        <time>2020-10-11T08:05:28.000Z</time>
      </trkpt>
      <trkpt lat="47.32184" lon="-2.38342">
        <ele>24.799999237061</ele>
        <time>2020-10-11T08:05:31.000Z</time>
      </trkpt>
      <trkpt lat="47.3218" lon="-2.38347">
        <ele>24.799999237061</ele>
        <time>2020-10-11T08:05:32.000Z</time>
      </trkpt>
      <trkpt lat="47.32168" lon="-2.38362">
        <ele>24.799999237061</ele>
        <time>2020-10-11T08:05:35.000Z</time>
      </trkpt>
      <trkpt lat="47.3216" lon="-2.38374">
        <ele>24.799999237061</ele>
        <time>2020-10-11T08:05:37.000Z</time>
      </trkpt>
      <trkpt lat="47.32148" lon="-2.3839">
        <ele>24.799999237061</ele>
        <time>2020-10-11T08:05:40.000Z</time>
      </trkpt>
      <trkpt lat="47.32133" lon="-2.38408">
        <ele>24.799999237061</ele>
        <time>2020-10-11T08:05:44.000Z</time>
      </trkpt>
      <trkpt lat="47.32129" lon="-2.38411">
        <ele>24.799999237061</ele>
        <time>2020-10-11T08:05:45.000Z</time>
      </trkpt>
      <trkpt lat="47.32125" lon="-2.38414">
        <ele>24.799999237061</ele>
        <time>2020-10-11T08:05:46.000Z</time>
      </trkpt>
      <trkpt lat="47.32107" lon="-2.38425">
        <ele>24.799999237061</ele>
        <time>2020-10-11T08:05:50.000Z</time>
      </trkpt>
      <trkpt lat="47.32102" lon="-2.38427">
        <ele>24.799999237061</ele>
        <time>2020-10-11T08:05:51.000Z</time>
      </trkpt>
      <trkpt lat="47.32072" lon="-2.38441">
        <ele>24.799999237061</ele>
        <time>2020-10-11T08:05:58.000Z</time>
      </trkpt>
      <trkpt lat="47.3206" lon="-2.38446">
        <ele>25.200000762939</ele>
        <time>2020-10-11T08:06:01.000Z</time>
      </trkpt>
      <trkpt lat="47.32055" lon="-2.38448">
        <ele>25.60000038147</ele>
        <time>2020-10-11T08:06:02.000Z</time>
      </trkpt>
      <trkpt lat="47.3205" lon="-2.38449">
        <ele>26</ele>
        <time>2020-10-11T08:06:03.000Z</time>
      </trkpt>
      <trkpt lat="47.32046" lon="-2.3845">
        <ele>26.39999961853</ele>
        <time>2020-10-11T08:06:04.000Z</time>
      </trkpt>
      <trkpt lat="47.32041" lon="-2.38451">
        <ele>26.799999237061</ele>
        <time>2020-10-11T08:06:05.000Z</time>
      </trkpt>
      <trkpt lat="47.32023" lon="-2.38458">
        <ele>26.799999237061</ele>
        <time>2020-10-11T08:06:09.000Z</time>
      </trkpt>
      <trkpt lat="47.32015" lon="-2.38463">
        <ele>26.799999237061</ele>
        <time>2020-10-11T08:06:11.000Z</time>
      </trkpt>
      <trkpt lat="47.32007" lon="-2.38466">
        <ele>26.799999237061</ele>
        <time>2020-10-11T08:06:13.000Z</time>
      </trkpt>
      <trkpt lat="47.31994" lon="-2.38471">
        <ele>26.799999237061</ele>
        <time>2020-10-11T08:06:16.000Z</time>
      </trkpt>
      <trkpt lat="47.31985" lon="-2.38474">
        <ele>26.799999237061</ele>
        <time>2020-10-11T08:06:18.000Z</time>
      </trkpt>
      <trkpt lat="47.31976" lon="-2.38478">
        <ele>26.799999237061</ele>
        <time>2020-10-11T08:06:20.000Z</time>
      </trkpt>
      <trkpt lat="47.31968" lon="-2.38481">
        <ele>27.39999961853</ele>
        <time>2020-10-11T08:06:22.000Z</time>
      </trkpt>
      <trkpt lat="47.31963" lon="-2.38482">
        <ele>27.799999237061</ele>
        <time>2020-10-11T08:06:23.000Z</time>
      </trkpt>
      <trkpt lat="47.31959" lon="-2.38483">
        <ele>28.200000762939</ele>
        <time>2020-10-11T08:06:24.000Z</time>
      </trkpt>
      <trkpt lat="47.31955" lon="-2.38485">
        <ele>28.60000038147</ele>
        <time>2020-10-11T08:06:25.000Z</time>
      </trkpt>
      <trkpt lat="47.31951" lon="-2.38486">
        <ele>29</ele>
        <time>2020-10-11T08:06:26.000Z</time>
      </trkpt>
      <trkpt lat="47.31947" lon="-2.38487">
        <ele>29</ele>
        <time>2020-10-11T08:06:27.000Z</time>
      </trkpt>
      <trkpt lat="47.31929" lon="-2.3849">
        <ele>29</ele>
        <time>2020-10-11T08:06:31.000Z</time>
      </trkpt>
      <trkpt lat="47.31921" lon="-2.38495">
        <ele>29</ele>
        <time>2020-10-11T08:06:33.000Z</time>
      </trkpt>
      <trkpt lat="47.31897" lon="-2.38508">
        <ele>29.60000038147</ele>
        <time>2020-10-11T08:06:39.000Z</time>
      </trkpt>
      <trkpt lat="47.31894" lon="-2.3851">
        <ele>30</ele>
        <time>2020-10-11T08:06:40.000Z</time>
      </trkpt>
      <trkpt lat="47.31891" lon="-2.38512">
        <ele>30.39999961853</ele>
        <time>2020-10-11T08:06:41.000Z</time>
      </trkpt>
      <trkpt lat="47.31887" lon="-2.38514">
        <ele>30.799999237061</ele>
        <time>2020-10-11T08:06:42.000Z</time>
      </trkpt>
      <trkpt lat="47.31884" lon="-2.38516">
        <ele>31.200000762939</ele>
        <time>2020-10-11T08:06:43.000Z</time>
      </trkpt>
      <trkpt lat="47.31872" lon="-2.38521">
        <ele>31.200000762939</ele>
        <time>2020-10-11T08:06:47.000Z</time>
      </trkpt>
      <trkpt lat="47.3185" lon="-2.3853">
        <ele>31.60000038147</ele>
        <time>2020-10-11T08:06:55.000Z</time>
      </trkpt>
      <trkpt lat="47.31848" lon="-2.3853">
        <ele>32</ele>
        <time>2020-10-11T08:06:56.000Z</time>
      </trkpt>
      <trkpt lat="47.31845" lon="-2.38531">
        <ele>32.400001525879</ele>
        <time>2020-10-11T08:06:57.000Z</time>
      </trkpt>
      <trkpt lat="47.31842" lon="-2.38531">
        <ele>32.799999237061</ele>
        <time>2020-10-11T08:06:58.000Z</time>
      </trkpt>
      <trkpt lat="47.31839" lon="-2.38532">
        <ele>33.200000762939</ele>
        <time>2020-10-11T08:06:59.000Z</time>
      </trkpt>
      <trkpt lat="47.31829" lon="-2.38535">
        <ele>33.200000762939</ele>
        <time>2020-10-11T08:07:03.000Z</time>
      </trkpt>
      <trkpt lat="47.31816" lon="-2.38534">
        <ele>33.200000762939</ele>
        <time>2020-10-11T08:07:08.000Z</time>
      </trkpt>
      <trkpt lat="47.31814" lon="-2.38531">
        <ele>33.599998474121</ele>
        <time>2020-10-11T08:07:09.000Z</time>
      </trkpt>
      <trkpt lat="47.31812" lon="-2.38528">
        <ele>34</ele>
        <time>2020-10-11T08:07:10.000Z</time>
      </trkpt>
      <trkpt lat="47.31811" lon="-2.38523">
        <ele>34.599998474121</ele>
        <time>2020-10-11T08:07:11.000Z</time>
      </trkpt>
      <trkpt lat="47.3181" lon="-2.38517">
        <ele>35</ele>
        <time>2020-10-11T08:07:12.000Z</time>
      </trkpt>
      <trkpt lat="47.3181" lon="-2.38512">
        <ele>35.400001525879</ele>
        <time>2020-10-11T08:07:13.000Z</time>
      </trkpt>
      <trkpt lat="47.3181" lon="-2.38506">
        <ele>35.400001525879</ele>
        <time>2020-10-11T08:07:14.000Z</time>
      </trkpt>
      <trkpt lat="47.31811" lon="-2.38454">
        <ele>35.400001525879</ele>
        <time>2020-10-11T08:07:21.000Z</time>
      </trkpt>
      <trkpt lat="47.3181" lon="-2.38397">
        <ele>35.400001525879</ele>
        <time>2020-10-11T08:07:28.000Z</time>
      </trkpt>
      <trkpt lat="47.31809" lon="-2.38339">
        <ele>35.400001525879</ele>
        <time>2020-10-11T08:07:34.000Z</time>
      </trkpt>
      <trkpt lat="47.31808" lon="-2.38272">
        <ele>35.400001525879</ele>
        <time>2020-10-11T08:07:40.000Z</time>
      </trkpt>
      <trkpt lat="47.31807" lon="-2.38248">
        <ele>35</ele>
        <time>2020-10-11T08:07:42.000Z</time>
      </trkpt>
      <trkpt lat="47.31807" lon="-2.38235">
        <ele>34.400001525879</ele>
        <time>2020-10-11T08:07:43.000Z</time>
      </trkpt>
      <trkpt lat="47.31806" lon="-2.38223">
        <ele>34</ele>
        <time>2020-10-11T08:07:44.000Z</time>
      </trkpt>
      <trkpt lat="47.31806" lon="-2.3821">
        <ele>33.599998474121</ele>
        <time>2020-10-11T08:07:45.000Z</time>
      </trkpt>
      <trkpt lat="47.31805" lon="-2.38197">
        <ele>33.200000762939</ele>
        <time>2020-10-11T08:07:46.000Z</time>
      </trkpt>
      <trkpt lat="47.31804" lon="-2.38172">
        <ele>32.799999237061</ele>
        <time>2020-10-11T08:07:48.000Z</time>
      </trkpt>
      <trkpt lat="47.31803" lon="-2.38159">
        <ele>32.400001525879</ele>
        <time>2020-10-11T08:07:49.000Z</time>
      </trkpt>
      <trkpt lat="47.31803" lon="-2.38147">
        <ele>32</ele>
        <time>2020-10-11T08:07:50.000Z</time>
      </trkpt>
      <trkpt lat="47.31802" lon="-2.38134">
        <ele>31.39999961853</ele>
        <time>2020-10-11T08:07:51.000Z</time>
      </trkpt>
      <trkpt lat="47.31802" lon="-2.38122">
        <ele>31</ele>
        <time>2020-10-11T08:07:52.000Z</time>
      </trkpt>
      <trkpt lat="47.31797" lon="-2.38036">
        <ele>30.60000038147</ele>
        <time>2020-10-11T08:07:59.000Z</time>
      </trkpt>
      <trkpt lat="47.31796" lon="-2.38024">
        <ele>30.200000762939</ele>
        <time>2020-10-11T08:08:00.000Z</time>
      </trkpt>
      <trkpt lat="47.31796" lon="-2.38012">
        <ele>29.799999237061</ele>
        <time>2020-10-11T08:08:01.000Z</time>
      </trkpt>
      <trkpt lat="47.31795" lon="-2.38">
        <ele>29.39999961853</ele>
        <time>2020-10-11T08:08:02.000Z</time>
      </trkpt>
      <trkpt lat="47.31795" lon="-2.37989">
        <ele>29</ele>
        <time>2020-10-11T08:08:03.000Z</time>
      </trkpt>
      <trkpt lat="47.31795" lon="-2.37957">
        <ele>29</ele>
        <time>2020-10-11T08:08:06.000Z</time>
      </trkpt>
      <trkpt lat="47.31798" lon="-2.37905">
        <ele>29</ele>
        <time>2020-10-11T08:08:12.000Z</time>
      </trkpt>
      <trkpt lat="47.31799" lon="-2.37896">
        <ele>29.60000038147</ele>
        <time>2020-10-11T08:08:13.000Z</time>
      </trkpt>
      <trkpt lat="47.318" lon="-2.37888">
        <ele>30</ele>
        <time>2020-10-11T08:08:14.000Z</time>
      </trkpt>
      <trkpt lat="47.31801" lon="-2.3788">
        <ele>30.39999961853</ele>
        <time>2020-10-11T08:08:15.000Z</time>
      </trkpt>
      <trkpt lat="47.31802" lon="-2.37873">
        <ele>30.799999237061</ele>
        <time>2020-10-11T08:08:16.000Z</time>
      </trkpt>
      <trkpt lat="47.31803" lon="-2.37866">
        <ele>31.39999961853</ele>
        <time>2020-10-11T08:08:17.000Z</time>
      </trkpt>
      <trkpt lat="47.31804" lon="-2.37859">
        <ele>31.39999961853</ele>
        <time>2020-10-11T08:08:18.000Z</time>
      </trkpt>
      <trkpt lat="47.31809" lon="-2.37809">
        <ele>31.39999961853</ele>
        <time>2020-10-11T08:08:25.000Z</time>
      </trkpt>
      <trkpt lat="47.31814" lon="-2.37753">
        <ele>31.799999237061</ele>
        <time>2020-10-11T08:08:33.000Z</time>
      </trkpt>
      <trkpt lat="47.31815" lon="-2.37746">
        <ele>32.200000762939</ele>
        <time>2020-10-11T08:08:34.000Z</time>
      </trkpt>
      <trkpt lat="47.31815" lon="-2.37738">
        <ele>32.599998474121</ele>
        <time>2020-10-11T08:08:35.000Z</time>
      </trkpt>
      <trkpt lat="47.31816" lon="-2.37731">
        <ele>33</ele>
        <time>2020-10-11T08:08:36.000Z</time>
      </trkpt>
      <trkpt lat="47.31816" lon="-2.37724">
        <ele>33.400001525879</ele>
        <time>2020-10-11T08:08:37.000Z</time>
      </trkpt>
      <trkpt lat="47.31822" lon="-2.37688">
        <ele>33.400001525879</ele>
        <time>2020-10-11T08:08:42.000Z</time>
      </trkpt>
      <trkpt lat="47.31825" lon="-2.37667">
        <ele>33.400001525879</ele>
        <time>2020-10-11T08:08:45.000Z</time>
      </trkpt>
      <trkpt lat="47.31822" lon="-2.37656">
        <ele>33.400001525879</ele>
        <time>2020-10-11T08:08:47.000Z</time>
      </trkpt>
      <trkpt lat="47.31811" lon="-2.3765">
        <ele>33.400001525879</ele>
        <time>2020-10-11T08:08:50.000Z</time>
      </trkpt>
      <trkpt lat="47.31792" lon="-2.37664">
        <ele>33.400001525879</ele>
        <time>2020-10-11T08:08:54.000Z</time>
      </trkpt>
      <trkpt lat="47.31761" lon="-2.37695">
        <ele>33.400001525879</ele>
        <time>2020-10-11T08:09:01.000Z</time>
      </trkpt>
      <trkpt lat="47.31736" lon="-2.37713">
        <ele>33.400001525879</ele>
        <time>2020-10-11T08:09:06.000Z</time>
      </trkpt>
      <trkpt lat="47.3173" lon="-2.37715">
        <ele>33.400001525879</ele>
        <time>2020-10-11T08:09:07.000Z</time>
      </trkpt>
      <trkpt lat="47.31714" lon="-2.37718">
        <ele>33.400001525879</ele>
        <time>2020-10-11T08:09:10.000Z</time>
      </trkpt>
      <trkpt lat="47.31702" lon="-2.37717">
        <ele>33.400001525879</ele>
        <time>2020-10-11T08:09:12.000Z</time>
      </trkpt>
      <trkpt lat="47.31686" lon="-2.37708">
        <ele>33.400001525879</ele>
        <time>2020-10-11T08:09:16.000Z</time>
      </trkpt>
      <trkpt lat="47.31681" lon="-2.37704">
        <ele>33.400001525879</ele>
        <time>2020-10-11T08:09:17.000Z</time>
      </trkpt>
      <trkpt lat="47.31671" lon="-2.37694">
        <ele>33.400001525879</ele>
        <time>2020-10-11T08:09:19.000Z</time>
      </trkpt>
      <trkpt lat="47.31658" lon="-2.37676">
        <ele>33.400001525879</ele>
        <time>2020-10-11T08:09:22.000Z</time>
      </trkpt>
      <trkpt lat="47.31642" lon="-2.37661">
        <ele>33.400001525879</ele>
        <time>2020-10-11T08:09:25.000Z</time>
      </trkpt>
      <trkpt lat="47.31629" lon="-2.37656">
        <ele>33.400001525879</ele>
        <time>2020-10-11T08:09:27.000Z</time>
      </trkpt>
      <trkpt lat="47.31614" lon="-2.37639">
        <ele>33.400001525879</ele>
        <time>2020-10-11T08:09:30.000Z</time>
      </trkpt>
      <trkpt lat="47.3161" lon="-2.37612">
        <ele>33.400001525879</ele>
        <time>2020-10-11T08:09:33.000Z</time>
      </trkpt>
      <trkpt lat="47.3161" lon="-2.37603">
        <ele>33.400001525879</ele>
        <time>2020-10-11T08:09:34.000Z</time>
      </trkpt>
      <trkpt lat="47.31613" lon="-2.37574">
        <ele>33.400001525879</ele>
        <time>2020-10-11T08:09:37.000Z</time>
      </trkpt>
      <trkpt lat="47.31614" lon="-2.37565">
        <ele>33.400001525879</ele>
        <time>2020-10-11T08:09:38.000Z</time>
      </trkpt>
      <trkpt lat="47.31616" lon="-2.37556">
        <ele>33.400001525879</ele>
        <time>2020-10-11T08:09:39.000Z</time>
      </trkpt>
      <trkpt lat="47.31627" lon="-2.37521">
        <ele>33.799999237061</ele>
        <time>2020-10-11T08:09:43.000Z</time>
      </trkpt>
      <trkpt lat="47.3163" lon="-2.37513">
        <ele>34.200000762939</ele>
        <time>2020-10-11T08:09:44.000Z</time>
      </trkpt>
      <trkpt lat="47.31632" lon="-2.37504">
        <ele>34.599998474121</ele>
        <time>2020-10-11T08:09:45.000Z</time>
      </trkpt>
      <trkpt lat="47.31634" lon="-2.37495">
        <ele>35</ele>
        <time>2020-10-11T08:09:46.000Z</time>
      </trkpt>
      <trkpt lat="47.31635" lon="-2.37487">
        <ele>35.400001525879</ele>
        <time>2020-10-11T08:09:47.000Z</time>
      </trkpt>
      <trkpt lat="47.31636" lon="-2.37467">
        <ele>35.400001525879</ele>
        <time>2020-10-11T08:09:49.000Z</time>
      </trkpt>
      <trkpt lat="47.31636" lon="-2.37458">
        <ele>35.400001525879</ele>
        <time>2020-10-11T08:09:50.000Z</time>
      </trkpt>
      <trkpt lat="47.31633" lon="-2.37402">
        <ele>35.400001525879</ele>
        <time>2020-10-11T08:09:56.000Z</time>
      </trkpt>
      <trkpt lat="47.31622" lon="-2.37339">
        <ele>35.400001525879</ele>
        <time>2020-10-11T08:10:03.000Z</time>
      </trkpt>
      <trkpt lat="47.31619" lon="-2.37322">
        <ele>35.400001525879</ele>
        <time>2020-10-11T08:10:05.000Z</time>
      </trkpt>
      <trkpt lat="47.3162" lon="-2.37294">
        <ele>35.400001525879</ele>
        <time>2020-10-11T08:10:08.000Z</time>
      </trkpt>
      <trkpt lat="47.31631" lon="-2.37275">
        <ele>35.799999237061</ele>
        <time>2020-10-11T08:10:11.000Z</time>
      </trkpt>
      <trkpt lat="47.31635" lon="-2.37269">
        <ele>36.200000762939</ele>
        <time>2020-10-11T08:10:12.000Z</time>
      </trkpt>
      <trkpt lat="47.3164" lon="-2.37265">
        <ele>36.599998474121</ele>
        <time>2020-10-11T08:10:13.000Z</time>
      </trkpt>
      <trkpt lat="47.31646" lon="-2.3726">
        <ele>37</ele>
        <time>2020-10-11T08:10:14.000Z</time>
      </trkpt>
      <trkpt lat="47.31651" lon="-2.37256">
        <ele>37.400001525879</ele>
        <time>2020-10-11T08:10:15.000Z</time>
      </trkpt>
      <trkpt lat="47.31661" lon="-2.37247">
        <ele>37.400001525879</ele>
        <time>2020-10-11T08:10:17.000Z</time>
      </trkpt>
      <trkpt lat="47.31681" lon="-2.37224">
        <ele>37.400001525879</ele>
        <time>2020-10-11T08:10:21.000Z</time>
      </trkpt>
      <trkpt lat="47.31684" lon="-2.37216">
        <ele>37.400001525879</ele>
        <time>2020-10-11T08:10:22.000Z</time>
      </trkpt>
      <trkpt lat="47.31687" lon="-2.37189">
        <ele>37.400001525879</ele>
        <time>2020-10-11T08:10:25.000Z</time>
      </trkpt>
      <trkpt lat="47.31687" lon="-2.3718">
        <ele>37.400001525879</ele>
        <time>2020-10-11T08:10:26.000Z</time>
      </trkpt>
      <trkpt lat="47.31685" lon="-2.37171">
        <ele>37.400001525879</ele>
        <time>2020-10-11T08:10:27.000Z</time>
      </trkpt>
      <trkpt lat="47.3168" lon="-2.37156">
        <ele>37.400001525879</ele>
        <time>2020-10-11T08:10:29.000Z</time>
      </trkpt>
      <trkpt lat="47.31672" lon="-2.37141">
        <ele>37.400001525879</ele>
        <time>2020-10-11T08:10:31.000Z</time>
      </trkpt>
      <trkpt lat="47.31657" lon="-2.37112">
        <ele>37.400001525879</ele>
        <time>2020-10-11T08:10:35.000Z</time>
      </trkpt>
      <trkpt lat="47.31629" lon="-2.37054">
        <ele>37.400001525879</ele>
        <time>2020-10-11T08:10:42.000Z</time>
      </trkpt>
      <trkpt lat="47.31614" lon="-2.37019">
        <ele>37.400001525879</ele>
        <time>2020-10-11T08:10:46.000Z</time>
      </trkpt>
      <trkpt lat="47.31608" lon="-2.36999">
        <ele>37.400001525879</ele>
        <time>2020-10-11T08:10:48.000Z</time>
      </trkpt>
      <trkpt lat="47.31582" lon="-2.36924">
        <ele>37.400001525879</ele>
        <time>2020-10-11T08:10:55.000Z</time>
      </trkpt>
      <trkpt lat="47.31579" lon="-2.36913">
        <ele>37</ele>
        <time>2020-10-11T08:10:56.000Z</time>
      </trkpt>
      <trkpt lat="47.31576" lon="-2.36901">
        <ele>36.599998474121</ele>
        <time>2020-10-11T08:10:57.000Z</time>
      </trkpt>
      <trkpt lat="47.31573" lon="-2.3689">
        <ele>36.200000762939</ele>
        <time>2020-10-11T08:10:58.000Z</time>
      </trkpt>
      <trkpt lat="47.31569" lon="-2.36878">
        <ele>35.599998474121</ele>
        <time>2020-10-11T08:10:59.000Z</time>
      </trkpt>
      <trkpt lat="47.31566" lon="-2.36865">
        <ele>35.200000762939</ele>
        <time>2020-10-11T08:11:00.000Z</time>
      </trkpt>
      <trkpt lat="47.31562" lon="-2.36854">
        <ele>35.200000762939</ele>
        <time>2020-10-11T08:11:01.000Z</time>
      </trkpt>
      <trkpt lat="47.31558" lon="-2.36842">
        <ele>34.799999237061</ele>
        <time>2020-10-11T08:11:02.000Z</time>
      </trkpt>
      <trkpt lat="47.31555" lon="-2.3683">
        <ele>34.200000762939</ele>
        <time>2020-10-11T08:11:03.000Z</time>
      </trkpt>
      <trkpt lat="47.31551" lon="-2.36817">
        <ele>33.799999237061</ele>
        <time>2020-10-11T08:11:04.000Z</time>
      </trkpt>
      <trkpt lat="47.31548" lon="-2.36805">
        <ele>33.400001525879</ele>
        <time>2020-10-11T08:11:05.000Z</time>
      </trkpt>
      <trkpt lat="47.31545" lon="-2.36793">
        <ele>32.799999237061</ele>
        <time>2020-10-11T08:11:06.000Z</time>
      </trkpt>
      <trkpt lat="47.31539" lon="-2.36768">
        <ele>32.400001525879</ele>
        <time>2020-10-11T08:11:08.000Z</time>
      </trkpt>
      <trkpt lat="47.31536" lon="-2.36756">
        <ele>32</ele>
        <time>2020-10-11T08:11:09.000Z</time>
      </trkpt>
      <trkpt lat="47.31533" lon="-2.36744">
        <ele>31.39999961853</ele>
        <time>2020-10-11T08:11:10.000Z</time>
      </trkpt>
      <trkpt lat="47.3153" lon="-2.36732">
        <ele>30.39999961853</ele>
        <time>2020-10-11T08:11:11.000Z</time>
      </trkpt>
      <trkpt lat="47.31524" lon="-2.36708">
        <ele>30</ele>
        <time>2020-10-11T08:11:13.000Z</time>
      </trkpt>
      <trkpt lat="47.31521" lon="-2.36697">
        <ele>29.60000038147</ele>
        <time>2020-10-11T08:11:14.000Z</time>
      </trkpt>
      <trkpt lat="47.31518" lon="-2.36685">
        <ele>29</ele>
        <time>2020-10-11T08:11:15.000Z</time>
      </trkpt>
      <trkpt lat="47.31516" lon="-2.36673">
        <ele>28.60000038147</ele>
        <time>2020-10-11T08:11:16.000Z</time>
      </trkpt>
      <trkpt lat="47.31513" lon="-2.36662">
        <ele>28.200000762939</ele>
        <time>2020-10-11T08:11:17.000Z</time>
      </trkpt>
      <trkpt lat="47.3151" lon="-2.36651">
        <ele>27.60000038147</ele>
        <time>2020-10-11T08:11:18.000Z</time>
      </trkpt>
      <trkpt lat="47.31508" lon="-2.3664">
        <ele>27.200000762939</ele>
        <time>2020-10-11T08:11:19.000Z</time>
      </trkpt>
      <trkpt lat="47.31506" lon="-2.3663">
        <ele>26.799999237061</ele>
        <time>2020-10-11T08:11:20.000Z</time>
      </trkpt>
      <trkpt lat="47.31503" lon="-2.36619">
        <ele>26.39999961853</ele>
        <time>2020-10-11T08:11:21.000Z</time>
      </trkpt>
      <trkpt lat="47.31501" lon="-2.36609">
        <ele>25.799999237061</ele>
        <time>2020-10-11T08:11:22.000Z</time>
      </trkpt>
      <trkpt lat="47.31498" lon="-2.36587">
        <ele>25.799999237061</ele>
        <time>2020-10-11T08:11:24.000Z</time>
      </trkpt>
      <trkpt lat="47.31497" lon="-2.36556">
        <ele>25.799999237061</ele>
        <time>2020-10-11T08:11:27.000Z</time>
      </trkpt>
      <trkpt lat="47.31497" lon="-2.36546">
        <ele>25.799999237061</ele>
        <time>2020-10-11T08:11:28.000Z</time>
      </trkpt>
      <trkpt lat="47.31499" lon="-2.36538">
        <ele>25.799999237061</ele>
        <time>2020-10-11T08:11:29.000Z</time>
      </trkpt>
      <trkpt lat="47.31502" lon="-2.36523">
        <ele>25.799999237061</ele>
        <time>2020-10-11T08:11:31.000Z</time>
      </trkpt>
      <trkpt lat="47.31502" lon="-2.36509">
        <ele>25.799999237061</ele>
        <time>2020-10-11T08:11:34.000Z</time>
      </trkpt>
      <trkpt lat="47.315" lon="-2.36486">
        <ele>25.799999237061</ele>
        <time>2020-10-11T08:11:39.000Z</time>
      </trkpt>
      <trkpt lat="47.31496" lon="-2.36461">
        <ele>25.799999237061</ele>
        <time>2020-10-11T08:11:43.000Z</time>
      </trkpt>
      <trkpt lat="47.31495" lon="-2.36448">
        <ele>25.799999237061</ele>
        <time>2020-10-11T08:11:45.000Z</time>
      </trkpt>
      <trkpt lat="47.31492" lon="-2.36401">
        <ele>25.799999237061</ele>
        <time>2020-10-11T08:11:52.000Z</time>
      </trkpt>
      <trkpt lat="47.31491" lon="-2.36379">
        <ele>26.200000762939</ele>
        <time>2020-10-11T08:11:56.000Z</time>
      </trkpt>
      <trkpt lat="47.31491" lon="-2.36374">
        <ele>26.799999237061</ele>
        <time>2020-10-11T08:11:57.000Z</time>
      </trkpt>
      <trkpt lat="47.31491" lon="-2.36369">
        <ele>27.200000762939</ele>
        <time>2020-10-11T08:11:58.000Z</time>
      </trkpt>
      <trkpt lat="47.31491" lon="-2.36364">
        <ele>27.60000038147</ele>
        <time>2020-10-11T08:11:59.000Z</time>
      </trkpt>
      <trkpt lat="47.31491" lon="-2.36359">
        <ele>28</ele>
        <time>2020-10-11T08:12:00.000Z</time>
      </trkpt>
      <trkpt lat="47.3149" lon="-2.36339">
        <ele>28</ele>
        <time>2020-10-11T08:12:04.000Z</time>
      </trkpt>
      <trkpt lat="47.31486" lon="-2.36305">
        <ele>28</ele>
        <time>2020-10-11T08:12:11.000Z</time>
      </trkpt>
      <trkpt lat="47.31485" lon="-2.36301">
        <ele>28.39999961853</ele>
        <time>2020-10-11T08:12:12.000Z</time>
      </trkpt>
      <trkpt lat="47.31484" lon="-2.36296">
        <ele>28.799999237061</ele>
        <time>2020-10-11T08:12:13.000Z</time>
      </trkpt>
      <trkpt lat="47.31483" lon="-2.36292">
        <ele>29.200000762939</ele>
        <time>2020-10-11T08:12:14.000Z</time>
      </trkpt>
      <trkpt lat="47.31482" lon="-2.36288">
        <ele>29.60000038147</ele>
        <time>2020-10-11T08:12:15.000Z</time>
      </trkpt>
      <trkpt lat="47.31481" lon="-2.36283">
        <ele>30</ele>
        <time>2020-10-11T08:12:16.000Z</time>
      </trkpt>
      <trkpt lat="47.31479" lon="-2.36274">
        <ele>30</ele>
        <time>2020-10-11T08:12:18.000Z</time>
      </trkpt>
      <trkpt lat="47.31473" lon="-2.36247">
        <ele>30</ele>
        <time>2020-10-11T08:12:25.000Z</time>
      </trkpt>
      <trkpt lat="47.31468" lon="-2.36221">
        <ele>30</ele>
        <time>2020-10-11T08:12:31.000Z</time>
      </trkpt>
      <trkpt lat="47.31463" lon="-2.36195">
        <ele>30.39999961853</ele>
        <time>2020-10-11T08:12:37.000Z</time>
      </trkpt>
      <trkpt lat="47.31462" lon="-2.36191">
        <ele>30.799999237061</ele>
        <time>2020-10-11T08:12:38.000Z</time>
      </trkpt>
      <trkpt lat="47.31461" lon="-2.36188">
        <ele>31.200000762939</ele>
        <time>2020-10-11T08:12:39.000Z</time>
      </trkpt>
      <trkpt lat="47.31459" lon="-2.36184">
        <ele>31.799999237061</ele>
        <time>2020-10-11T08:12:40.000Z</time>
      </trkpt>
      <trkpt lat="47.31458" lon="-2.36181">
        <ele>32.200000762939</ele>
        <time>2020-10-11T08:12:41.000Z</time>
      </trkpt>
      <trkpt lat="47.31455" lon="-2.3618">
        <ele>32.200000762939</ele>
        <time>2020-10-11T08:12:42.000Z</time>
      </trkpt>
      <trkpt lat="47.31452" lon="-2.3618">
        <ele>32.200000762939</ele>
        <time>2020-10-11T08:12:43.000Z</time>
      </trkpt>
      <trkpt lat="47.31437" lon="-2.36189">
        <ele>32.200000762939</ele>
        <time>2020-10-11T08:12:47.000Z</time>
      </trkpt>
      <trkpt lat="47.3143" lon="-2.36195">
        <ele>32.200000762939</ele>
        <time>2020-10-11T08:12:49.000Z</time>
      </trkpt>
      <trkpt lat="47.31416" lon="-2.36202">
        <ele>32.200000762939</ele>
        <time>2020-10-11T08:12:53.000Z</time>
      </trkpt>
      <trkpt lat="47.31413" lon="-2.36204">
        <ele>32.599998474121</ele>
        <time>2020-10-11T08:12:54.000Z</time>
      </trkpt>
      <trkpt lat="47.31409" lon="-2.36205">
        <ele>33</ele>
        <time>2020-10-11T08:12:55.000Z</time>
      </trkpt>
      <trkpt lat="47.31406" lon="-2.36208">
        <ele>33.400001525879</ele>
        <time>2020-10-11T08:12:56.000Z</time>
      </trkpt>
      <trkpt lat="47.31401" lon="-2.3621">
        <ele>33.799999237061</ele>
        <time>2020-10-11T08:12:57.000Z</time>
      </trkpt>
      <trkpt lat="47.31397" lon="-2.36211">
        <ele>34.200000762939</ele>
        <time>2020-10-11T08:12:58.000Z</time>
      </trkpt>
      <trkpt lat="47.31392" lon="-2.36213">
        <ele>34.200000762939</ele>
        <time>2020-10-11T08:12:59.000Z</time>
      </trkpt>
      <trkpt lat="47.31377" lon="-2.36219">
        <ele>34.200000762939</ele>
        <time>2020-10-11T08:13:02.000Z</time>
      </trkpt>
      <trkpt lat="47.31369" lon="-2.36226">
        <ele>34.200000762939</ele>
        <time>2020-10-11T08:13:04.000Z</time>
      </trkpt>
      <trkpt lat="47.31353" lon="-2.36245">
        <ele>34.200000762939</ele>
        <time>2020-10-11T08:13:08.000Z</time>
      </trkpt>
      <trkpt lat="47.3135" lon="-2.36251">
        <ele>34.200000762939</ele>
        <time>2020-10-11T08:13:09.000Z</time>
      </trkpt>
      <trkpt lat="47.31346" lon="-2.36256">
        <ele>34.200000762939</ele>
        <time>2020-10-11T08:13:10.000Z</time>
      </trkpt>
      <trkpt lat="47.31333" lon="-2.3627">
        <ele>34.200000762939</ele>
        <time>2020-10-11T08:13:13.000Z</time>
      </trkpt>
      <trkpt lat="47.31314" lon="-2.36287">
        <ele>34.200000762939</ele>
        <time>2020-10-11T08:13:17.000Z</time>
      </trkpt>
      <trkpt lat="47.31298" lon="-2.36298">
        <ele>34.200000762939</ele>
        <time>2020-10-11T08:13:20.000Z</time>
      </trkpt>
      <trkpt lat="47.31261" lon="-2.36315">
        <ele>34.200000762939</ele>
        <time>2020-10-11T08:13:26.000Z</time>
      </trkpt>
      <trkpt lat="47.31224" lon="-2.36341">
        <ele>34.200000762939</ele>
        <time>2020-10-11T08:13:32.000Z</time>
      </trkpt>
      <trkpt lat="47.3121" lon="-2.36348">
        <ele>33.799999237061</ele>
        <time>2020-10-11T08:13:34.000Z</time>
      </trkpt>
      <trkpt lat="47.31204" lon="-2.36351">
        <ele>33.400001525879</ele>
        <time>2020-10-11T08:13:35.000Z</time>
      </trkpt>
      <trkpt lat="47.31197" lon="-2.36355">
        <ele>33</ele>
        <time>2020-10-11T08:13:36.000Z</time>
      </trkpt>
      <trkpt lat="47.3119" lon="-2.36359">
        <ele>32.599998474121</ele>
        <time>2020-10-11T08:13:37.000Z</time>
      </trkpt>
      <trkpt lat="47.31183" lon="-2.36362">
        <ele>32.200000762939</ele>
        <time>2020-10-11T08:13:38.000Z</time>
      </trkpt>
      <trkpt lat="47.31146" lon="-2.36391">
        <ele>32.200000762939</ele>
        <time>2020-10-11T08:13:44.000Z</time>
      </trkpt>
      <trkpt lat="47.31115" lon="-2.3641">
        <ele>32.200000762939</ele>
        <time>2020-10-11T08:13:49.000Z</time>
      </trkpt>
      <trkpt lat="47.31093" lon="-2.36418">
        <ele>32.200000762939</ele>
        <time>2020-10-11T08:13:53.000Z</time>
      </trkpt>
      <trkpt lat="47.31087" lon="-2.36418">
        <ele>32.200000762939</ele>
        <time>2020-10-11T08:13:54.000Z</time>
      </trkpt>
      <trkpt lat="47.31059" lon="-2.36423">
        <ele>32.200000762939</ele>
        <time>2020-10-11T08:13:59.000Z</time>
      </trkpt>
      <trkpt lat="47.31032" lon="-2.36426">
        <ele>32.200000762939</ele>
        <time>2020-10-11T08:14:04.000Z</time>
      </trkpt>
      <trkpt lat="47.30995" lon="-2.36437">
        <ele>32.200000762939</ele>
        <time>2020-10-11T08:14:11.000Z</time>
      </trkpt>
      <trkpt lat="47.30966" lon="-2.36452">
        <ele>32.200000762939</ele>
        <time>2020-10-11T08:14:17.000Z</time>
      </trkpt>
      <trkpt lat="47.30937" lon="-2.36462">
        <ele>32.200000762939</ele>
        <time>2020-10-11T08:14:23.000Z</time>
      </trkpt>
      <trkpt lat="47.30901" lon="-2.36473">
        <ele>32.200000762939</ele>
        <time>2020-10-11T08:14:30.000Z</time>
      </trkpt>
      <trkpt lat="47.30872" lon="-2.36481">
        <ele>32.200000762939</ele>
        <time>2020-10-11T08:14:36.000Z</time>
      </trkpt>
      <trkpt lat="47.30867" lon="-2.36482">
        <ele>32.200000762939</ele>
        <time>2020-10-11T08:14:37.000Z</time>
      </trkpt>
      <trkpt lat="47.30849" lon="-2.36486">
        <ele>32.200000762939</ele>
        <time>2020-10-11T08:14:41.000Z</time>
      </trkpt>
      <trkpt lat="47.30832" lon="-2.36487">
        <ele>32.200000762939</ele>
        <time>2020-10-11T08:14:45.000Z</time>
      </trkpt>
      <trkpt lat="47.30824" lon="-2.36482">
        <ele>32.200000762939</ele>
        <time>2020-10-11T08:14:47.000Z</time>
      </trkpt>
      <trkpt lat="47.30813" lon="-2.36469">
        <ele>32.200000762939</ele>
        <time>2020-10-11T08:14:50.000Z</time>
      </trkpt>
      <trkpt lat="47.30808" lon="-2.36468">
        <ele>32.200000762939</ele>
        <time>2020-10-11T08:14:51.000Z</time>
      </trkpt>
      <trkpt lat="47.30803" lon="-2.36468">
        <ele>32.200000762939</ele>
        <time>2020-10-11T08:14:52.000Z</time>
      </trkpt>
      <trkpt lat="47.30788" lon="-2.36475">
        <ele>32.200000762939</ele>
        <time>2020-10-11T08:14:55.000Z</time>
      </trkpt>
      <trkpt lat="47.30782" lon="-2.36479">
        <ele>32.200000762939</ele>
        <time>2020-10-11T08:14:56.000Z</time>
      </trkpt>
      <trkpt lat="47.30758" lon="-2.36488">
        <ele>32.599998474121</ele>
        <time>2020-10-11T08:15:01.000Z</time>
      </trkpt>
      <trkpt lat="47.30753" lon="-2.3649">
        <ele>33</ele>
        <time>2020-10-11T08:15:02.000Z</time>
      </trkpt>
      <trkpt lat="47.30748" lon="-2.36492">
        <ele>33.400001525879</ele>
        <time>2020-10-11T08:15:03.000Z</time>
      </trkpt>
      <trkpt lat="47.30743" lon="-2.36494">
        <ele>33.799999237061</ele>
        <time>2020-10-11T08:15:04.000Z</time>
      </trkpt>
      <trkpt lat="47.30739" lon="-2.36496">
        <ele>34.200000762939</ele>
        <time>2020-10-11T08:15:05.000Z</time>
      </trkpt>
      <trkpt lat="47.30717" lon="-2.36505">
        <ele>34.200000762939</ele>
        <time>2020-10-11T08:15:10.000Z</time>
      </trkpt>
      <trkpt lat="47.30713" lon="-2.36508">
        <ele>34.200000762939</ele>
        <time>2020-10-11T08:15:11.000Z</time>
      </trkpt>
      <trkpt lat="47.30698" lon="-2.36518">
        <ele>34.799999237061</ele>
        <time>2020-10-11T08:15:16.000Z</time>
      </trkpt>
      <trkpt lat="47.30696" lon="-2.36515">
        <ele>35.200000762939</ele>
        <time>2020-10-11T08:15:17.000Z</time>
      </trkpt>
      <trkpt lat="47.30693" lon="-2.36512">
        <ele>35.599998474121</ele>
        <time>2020-10-11T08:15:18.000Z</time>
      </trkpt>
      <trkpt lat="47.30689" lon="-2.36512">
        <ele>36</ele>
        <time>2020-10-11T08:15:19.000Z</time>
      </trkpt>
      <trkpt lat="47.30685" lon="-2.36513">
        <ele>36.400001525879</ele>
        <time>2020-10-11T08:15:20.000Z</time>
      </trkpt>
      <trkpt lat="47.30676" lon="-2.36516">
        <ele>36.400001525879</ele>
        <time>2020-10-11T08:15:22.000Z</time>
      </trkpt>
      <trkpt lat="47.30662" lon="-2.36521">
        <ele>36.400001525879</ele>
        <time>2020-10-11T08:15:25.000Z</time>
      </trkpt>
      <trkpt lat="47.30634" lon="-2.36536">
        <ele>36.400001525879</ele>
        <time>2020-10-11T08:15:32.000Z</time>
      </trkpt>
      <trkpt lat="47.30625" lon="-2.36541">
        <ele>36.400001525879</ele>
        <time>2020-10-11T08:15:34.000Z</time>
      </trkpt>
      <trkpt lat="47.30607" lon="-2.36545">
        <ele>36.400001525879</ele>
        <time>2020-10-11T08:15:38.000Z</time>
      </trkpt>
      <trkpt lat="47.30571" lon="-2.36555">
        <ele>36.400001525879</ele>
        <time>2020-10-11T08:15:45.000Z</time>
      </trkpt>
      <trkpt lat="47.30567" lon="-2.36559">
        <ele>36.400001525879</ele>
        <time>2020-10-11T08:15:46.000Z</time>
      </trkpt>
      <trkpt lat="47.3055" lon="-2.36572">
        <ele>36.400001525879</ele>
        <time>2020-10-11T08:15:50.000Z</time>
      </trkpt>
      <trkpt lat="47.30543" lon="-2.36578">
        <ele>36.400001525879</ele>
        <time>2020-10-11T08:15:52.000Z</time>
      </trkpt>
      <trkpt lat="47.30534" lon="-2.36585">
        <ele>36.400001525879</ele>
        <time>2020-10-11T08:15:54.000Z</time>
      </trkpt>
      <trkpt lat="47.3053" lon="-2.36587">
        <ele>36.400001525879</ele>
        <time>2020-10-11T08:15:55.000Z</time>
      </trkpt>
      <trkpt lat="47.30519" lon="-2.36592">
        <ele>36.400001525879</ele>
        <time>2020-10-11T08:15:58.000Z</time>
      </trkpt>
      <trkpt lat="47.3051" lon="-2.36596">
        <ele>36.400001525879</ele>
        <time>2020-10-11T08:16:00.000Z</time>
      </trkpt>
      <trkpt lat="47.30482" lon="-2.36603">
        <ele>36.400001525879</ele>
        <time>2020-10-11T08:16:06.000Z</time>
      </trkpt>
      <trkpt lat="47.30477" lon="-2.36606">
        <ele>36.400001525879</ele>
        <time>2020-10-11T08:16:07.000Z</time>
      </trkpt>
      <trkpt lat="47.30465" lon="-2.36614">
        <ele>36.400001525879</ele>
        <time>2020-10-11T08:16:10.000Z</time>
      </trkpt>
      <trkpt lat="47.30461" lon="-2.36618">
        <ele>36.400001525879</ele>
        <time>2020-10-11T08:16:11.000Z</time>
      </trkpt>
      <trkpt lat="47.30436" lon="-2.36641">
        <ele>36.400001525879</ele>
        <time>2020-10-11T08:16:17.000Z</time>
      </trkpt>
      <trkpt lat="47.30428" lon="-2.36648">
        <ele>36.799999237061</ele>
        <time>2020-10-11T08:16:19.000Z</time>
      </trkpt>
      <trkpt lat="47.30424" lon="-2.3665">
        <ele>37.200000762939</ele>
        <time>2020-10-11T08:16:20.000Z</time>
      </trkpt>
      <trkpt lat="47.30419" lon="-2.36653">
        <ele>37.599998474121</ele>
        <time>2020-10-11T08:16:21.000Z</time>
      </trkpt>
      <trkpt lat="47.30415" lon="-2.36654">
        <ele>38</ele>
        <time>2020-10-11T08:16:22.000Z</time>
      </trkpt>
      <trkpt lat="47.30409" lon="-2.36655">
        <ele>38.400001525879</ele>
        <time>2020-10-11T08:16:23.000Z</time>
      </trkpt>
      <trkpt lat="47.30381" lon="-2.36657">
        <ele>38.400001525879</ele>
        <time>2020-10-11T08:16:28.000Z</time>
      </trkpt>
      <trkpt lat="47.30342" lon="-2.36652">
        <ele>38.400001525879</ele>
        <time>2020-10-11T08:16:34.000Z</time>
      </trkpt>
      <trkpt lat="47.30316" lon="-2.36647">
        <ele>38</ele>
        <time>2020-10-11T08:16:38.000Z</time>
      </trkpt>
      <trkpt lat="47.30309" lon="-2.36646">
        <ele>37.599998474121</ele>
        <time>2020-10-11T08:16:39.000Z</time>
      </trkpt>
      <trkpt lat="47.30303" lon="-2.36646">
        <ele>37.200000762939</ele>
        <time>2020-10-11T08:16:40.000Z</time>
      </trkpt>
      <trkpt lat="47.30296" lon="-2.36648">
        <ele>36.799999237061</ele>
        <time>2020-10-11T08:16:41.000Z</time>
      </trkpt>
      <trkpt lat="47.3029" lon="-2.3665">
        <ele>36.400001525879</ele>
        <time>2020-10-11T08:16:42.000Z</time>
      </trkpt>
      <trkpt lat="47.30279" lon="-2.36656">
        <ele>36.400001525879</ele>
        <time>2020-10-11T08:16:44.000Z</time>
      </trkpt>
      <trkpt lat="47.30272" lon="-2.36659">
        <ele>36.400001525879</ele>
        <time>2020-10-11T08:16:45.000Z</time>
      </trkpt>
      <trkpt lat="47.30248" lon="-2.36665">
        <ele>36.400001525879</ele>
        <time>2020-10-11T08:16:49.000Z</time>
      </trkpt>
      <trkpt lat="47.30235" lon="-2.36668">
        <ele>36.400001525879</ele>
        <time>2020-10-11T08:16:51.000Z</time>
      </trkpt>
      <trkpt lat="47.30217" lon="-2.36669">
        <ele>36.400001525879</ele>
        <time>2020-10-11T08:16:54.000Z</time>
      </trkpt>
      <trkpt lat="47.30192" lon="-2.36672">
        <ele>36.400001525879</ele>
        <time>2020-10-11T08:16:59.000Z</time>
      </trkpt>
      <trkpt lat="47.30185" lon="-2.36675">
        <ele>36.400001525879</ele>
        <time>2020-10-11T08:17:02.000Z</time>
      </trkpt>
      <trkpt lat="47.30184" lon="-2.36675">
        <ele>36.400001525879</ele>
        <time>2020-10-11T08:17:04.000Z</time>
      </trkpt>
      <trkpt lat="47.30176" lon="-2.36678">
        <ele>34.400001525879</ele>
        <time>2020-10-11T08:17:18.000Z</time>
      </trkpt>
      <trkpt lat="47.30173" lon="-2.36679">
        <ele>34.400001525879</ele>
        <time>2020-10-11T08:17:19.000Z</time>
      </trkpt>
      <trkpt lat="47.30166" lon="-2.3668">
        <ele>34.400001525879</ele>
        <time>2020-10-11T08:17:21.000Z</time>
      </trkpt>
      <trkpt lat="47.30159" lon="-2.36674">
        <ele>34.400001525879</ele>
        <time>2020-10-11T08:17:23.000Z</time>
      </trkpt>
      <trkpt lat="47.30148" lon="-2.36652">
        <ele>34.400001525879</ele>
        <time>2020-10-11T08:17:26.000Z</time>
      </trkpt>
      <trkpt lat="47.30145" lon="-2.36645">
        <ele>34.400001525879</ele>
        <time>2020-10-11T08:17:27.000Z</time>
      </trkpt>
      <trkpt lat="47.30141" lon="-2.36636">
        <ele>34.400001525879</ele>
        <time>2020-10-11T08:17:28.000Z</time>
      </trkpt>
      <trkpt lat="47.30129" lon="-2.36601">
        <ele>34.400001525879</ele>
        <time>2020-10-11T08:17:32.000Z</time>
      </trkpt>
      <trkpt lat="47.3012" lon="-2.36541">
        <ele>34.400001525879</ele>
        <time>2020-10-11T08:17:38.000Z</time>
      </trkpt>
      <trkpt lat="47.30112" lon="-2.36485">
        <ele>34</ele>
        <time>2020-10-11T08:17:44.000Z</time>
      </trkpt>
      <trkpt lat="47.30111" lon="-2.36474">
        <ele>33.599998474121</ele>
        <time>2020-10-11T08:17:45.000Z</time>
      </trkpt>
      <trkpt lat="47.30109" lon="-2.36462">
        <ele>33.200000762939</ele>
        <time>2020-10-11T08:17:46.000Z</time>
      </trkpt>
      <trkpt lat="47.30107" lon="-2.3645">
        <ele>32.799999237061</ele>
        <time>2020-10-11T08:17:47.000Z</time>
      </trkpt>
      <trkpt lat="47.30106" lon="-2.36438">
        <ele>32.200000762939</ele>
        <time>2020-10-11T08:17:48.000Z</time>
      </trkpt>
      <trkpt lat="47.30098" lon="-2.36366">
        <ele>32.200000762939</ele>
        <time>2020-10-11T08:17:54.000Z</time>
      </trkpt>
      <trkpt lat="47.30094" lon="-2.3633">
        <ele>31.799999237061</ele>
        <time>2020-10-11T08:17:57.000Z</time>
      </trkpt>
      <trkpt lat="47.30093" lon="-2.36317">
        <ele>31.39999961853</ele>
        <time>2020-10-11T08:17:58.000Z</time>
      </trkpt>
      <trkpt lat="47.30093" lon="-2.36304">
        <ele>31</ele>
        <time>2020-10-11T08:17:59.000Z</time>
      </trkpt>
      <trkpt lat="47.30092" lon="-2.36292">
        <ele>30.60000038147</ele>
        <time>2020-10-11T08:18:00.000Z</time>
      </trkpt>
      <trkpt lat="47.30091" lon="-2.3628">
        <ele>30.200000762939</ele>
        <time>2020-10-11T08:18:01.000Z</time>
      </trkpt>
      <trkpt lat="47.30086" lon="-2.36189">
        <ele>30.200000762939</ele>
        <time>2020-10-11T08:18:08.000Z</time>
      </trkpt>
      <trkpt lat="47.30091" lon="-2.36127">
        <ele>30.200000762939</ele>
        <time>2020-10-11T08:18:13.000Z</time>
      </trkpt>
      <trkpt lat="47.30095" lon="-2.36091">
        <ele>29.799999237061</ele>
        <time>2020-10-11T08:18:16.000Z</time>
      </trkpt>
      <trkpt lat="47.30097" lon="-2.36079">
        <ele>29.39999961853</ele>
        <time>2020-10-11T08:18:17.000Z</time>
      </trkpt>
      <trkpt lat="47.30098" lon="-2.36067">
        <ele>28.39999961853</ele>
        <time>2020-10-11T08:18:18.000Z</time>
      </trkpt>
      <trkpt lat="47.30099" lon="-2.36055">
        <ele>28</ele>
        <time>2020-10-11T08:18:19.000Z</time>
      </trkpt>
      <trkpt lat="47.30101" lon="-2.36031">
        <ele>28</ele>
        <time>2020-10-11T08:18:21.000Z</time>
      </trkpt>
      <trkpt lat="47.30112" lon="-2.35955">
        <ele>28</ele>
        <time>2020-10-11T08:18:28.000Z</time>
      </trkpt>
      <trkpt lat="47.30125" lon="-2.35887">
        <ele>28</ele>
        <time>2020-10-11T08:18:35.000Z</time>
      </trkpt>
      <trkpt lat="47.30136" lon="-2.35826">
        <ele>28</ele>
        <time>2020-10-11T08:18:42.000Z</time>
      </trkpt>
      <trkpt lat="47.30137" lon="-2.35818">
        <ele>28</ele>
        <time>2020-10-11T08:18:43.000Z</time>
      </trkpt>
      <trkpt lat="47.30137" lon="-2.35801">
        <ele>28.39999961853</ele>
        <time>2020-10-11T08:18:45.000Z</time>
      </trkpt>
      <trkpt lat="47.30138" lon="-2.35794">
        <ele>28.799999237061</ele>
        <time>2020-10-11T08:18:46.000Z</time>
      </trkpt>
      <trkpt lat="47.30137" lon="-2.35786">
        <ele>29.200000762939</ele>
        <time>2020-10-11T08:18:47.000Z</time>
      </trkpt>
      <trkpt lat="47.30137" lon="-2.35779">
        <ele>29.60000038147</ele>
        <time>2020-10-11T08:18:48.000Z</time>
      </trkpt>
      <trkpt lat="47.30137" lon="-2.35772">
        <ele>30</ele>
        <time>2020-10-11T08:18:49.000Z</time>
      </trkpt>
      <trkpt lat="47.30135" lon="-2.35742">
        <ele>30.39999961853</ele>
        <time>2020-10-11T08:18:53.000Z</time>
      </trkpt>
      <trkpt lat="47.30135" lon="-2.35735">
        <ele>30.799999237061</ele>
        <time>2020-10-11T08:18:54.000Z</time>
      </trkpt>
      <trkpt lat="47.30135" lon="-2.35728">
        <ele>31.200000762939</ele>
        <time>2020-10-11T08:18:55.000Z</time>
      </trkpt>
      <trkpt lat="47.30134" lon="-2.3572">
        <ele>31.60000038147</ele>
        <time>2020-10-11T08:18:56.000Z</time>
      </trkpt>
      <trkpt lat="47.30134" lon="-2.35713">
        <ele>32</ele>
        <time>2020-10-11T08:18:57.000Z</time>
      </trkpt>
      <trkpt lat="47.30132" lon="-2.35685">
        <ele>32</ele>
        <time>2020-10-11T08:19:01.000Z</time>
      </trkpt>
      <trkpt lat="47.30127" lon="-2.3562">
        <ele>32</ele>
        <time>2020-10-11T08:19:10.000Z</time>
      </trkpt>
      <trkpt lat="47.30124" lon="-2.35603">
        <ele>32</ele>
        <time>2020-10-11T08:19:12.000Z</time>
      </trkpt>
      <trkpt lat="47.30125" lon="-2.35585">
        <ele>32</ele>
        <time>2020-10-11T08:19:14.000Z</time>
      </trkpt>
      <trkpt lat="47.30125" lon="-2.35553">
        <ele>32</ele>
        <time>2020-10-11T08:19:17.000Z</time>
      </trkpt>
      <trkpt lat="47.30125" lon="-2.35542">
        <ele>32</ele>
        <time>2020-10-11T08:19:18.000Z</time>
      </trkpt>
      <trkpt lat="47.3012" lon="-2.35482">
        <ele>32</ele>
        <time>2020-10-11T08:19:23.000Z</time>
      </trkpt>
      <trkpt lat="47.30116" lon="-2.3547">
        <ele>32</ele>
        <time>2020-10-11T08:19:24.000Z</time>
      </trkpt>
      <trkpt lat="47.30098" lon="-2.35441">
        <ele>32</ele>
        <time>2020-10-11T08:19:27.000Z</time>
      </trkpt>
      <trkpt lat="47.30092" lon="-2.35432">
        <ele>32</ele>
        <time>2020-10-11T08:19:28.000Z</time>
      </trkpt>
      <trkpt lat="47.30067" lon="-2.35395">
        <ele>31.200000762939</ele>
        <time>2020-10-11T08:19:32.000Z</time>
      </trkpt>
      <trkpt lat="47.30061" lon="-2.35385">
        <ele>30.60000038147</ele>
        <time>2020-10-11T08:19:33.000Z</time>
      </trkpt>
      <trkpt lat="47.30056" lon="-2.35374">
        <ele>30.200000762939</ele>
        <time>2020-10-11T08:19:34.000Z</time>
      </trkpt>
      <trkpt lat="47.30051" lon="-2.35363">
        <ele>29.799999237061</ele>
        <time>2020-10-11T08:19:35.000Z</time>
      </trkpt>
      <trkpt lat="47.30036" lon="-2.3533">
        <ele>29.39999961853</ele>
        <time>2020-10-11T08:19:38.000Z</time>
      </trkpt>
      <trkpt lat="47.30032" lon="-2.35319">
        <ele>29</ele>
        <time>2020-10-11T08:19:39.000Z</time>
      </trkpt>
      <trkpt lat="47.30028" lon="-2.35309">
        <ele>28.60000038147</ele>
        <time>2020-10-11T08:19:40.000Z</time>
      </trkpt>
      <trkpt lat="47.30023" lon="-2.35298">
        <ele>28</ele>
        <time>2020-10-11T08:19:41.000Z</time>
      </trkpt>
      <trkpt lat="47.30019" lon="-2.35288">
        <ele>27.60000038147</ele>
        <time>2020-10-11T08:19:42.000Z</time>
      </trkpt>
      <trkpt lat="47.30011" lon="-2.35269">
        <ele>27.60000038147</ele>
        <time>2020-10-11T08:19:44.000Z</time>
      </trkpt>
      <trkpt lat="47.30009" lon="-2.35262">
        <ele>27.200000762939</ele>
        <time>2020-10-11T08:19:45.000Z</time>
      </trkpt>
      <trkpt lat="47.3001" lon="-2.35255">
        <ele>26.799999237061</ele>
        <time>2020-10-11T08:19:46.000Z</time>
      </trkpt>
      <trkpt lat="47.30012" lon="-2.35251">
        <ele>26.200000762939</ele>
        <time>2020-10-11T08:19:47.000Z</time>
      </trkpt>
      <trkpt lat="47.30015" lon="-2.35249">
        <ele>25.799999237061</ele>
        <time>2020-10-11T08:19:48.000Z</time>
      </trkpt>
      <trkpt lat="47.30017" lon="-2.35246">
        <ele>25.39999961853</ele>
        <time>2020-10-11T08:19:49.000Z</time>
      </trkpt>
      <trkpt lat="47.30022" lon="-2.35244">
        <ele>25.39999961853</ele>
        <time>2020-10-11T08:19:51.000Z</time>
      </trkpt>
      <trkpt lat="47.30028" lon="-2.35242">
        <ele>25.39999961853</ele>
        <time>2020-10-11T08:19:55.000Z</time>
      </trkpt>
      <trkpt lat="47.30042" lon="-2.35235">
        <ele>25.39999961853</ele>
        <time>2020-10-11T08:19:59.000Z</time>
      </trkpt>
      <trkpt lat="47.30051" lon="-2.35231">
        <ele>25.39999961853</ele>
        <time>2020-10-11T08:20:01.000Z</time>
      </trkpt>
      <trkpt lat="47.30064" lon="-2.35225">
        <ele>25.39999961853</ele>
        <time>2020-10-11T08:20:04.000Z</time>
      </trkpt>
      <trkpt lat="47.30069" lon="-2.35221">
        <ele>25.39999961853</ele>
        <time>2020-10-11T08:20:05.000Z</time>
      </trkpt>
      <trkpt lat="47.30084" lon="-2.35216">
        <ele>25.39999961853</ele>
        <time>2020-10-11T08:20:08.000Z</time>
      </trkpt>
      <trkpt lat="47.30094" lon="-2.3521">
        <ele>25.39999961853</ele>
        <time>2020-10-11T08:20:10.000Z</time>
      </trkpt>
      <trkpt lat="47.30099" lon="-2.35209">
        <ele>25.39999961853</ele>
        <time>2020-10-11T08:20:11.000Z</time>
      </trkpt>
      <trkpt lat="47.30105" lon="-2.35207">
        <ele>25.39999961853</ele>
        <time>2020-10-11T08:20:12.000Z</time>
      </trkpt>
      <trkpt lat="47.3011" lon="-2.35205">
        <ele>25.39999961853</ele>
        <time>2020-10-11T08:20:13.000Z</time>
      </trkpt>
      <trkpt lat="47.3013" lon="-2.35196">
        <ele>25.39999961853</ele>
        <time>2020-10-11T08:20:17.000Z</time>
      </trkpt>
      <trkpt lat="47.30154" lon="-2.35193">
        <ele>25.39999961853</ele>
        <time>2020-10-11T08:20:22.000Z</time>
      </trkpt>
      <trkpt lat="47.30165" lon="-2.35181">
        <ele>25.39999961853</ele>
        <time>2020-10-11T08:20:25.000Z</time>
      </trkpt>
      <trkpt lat="47.30174" lon="-2.35179">
        <ele>25.39999961853</ele>
        <time>2020-10-11T08:20:27.000Z</time>
      </trkpt>
      <trkpt lat="47.30179" lon="-2.35178">
        <ele>25.39999961853</ele>
        <time>2020-10-11T08:20:28.000Z</time>
      </trkpt>
      <trkpt lat="47.30189" lon="-2.35174">
        <ele>25.39999961853</ele>
        <time>2020-10-11T08:20:30.000Z</time>
      </trkpt>
      <trkpt lat="47.30199" lon="-2.35167">
        <ele>25.39999961853</ele>
        <time>2020-10-11T08:20:32.000Z</time>
      </trkpt>
      <trkpt lat="47.30205" lon="-2.35147">
        <ele>25.39999961853</ele>
        <time>2020-10-11T08:20:35.000Z</time>
      </trkpt>
      <trkpt lat="47.30205" lon="-2.35132">
        <ele>25.39999961853</ele>
        <time>2020-10-11T08:20:37.000Z</time>
      </trkpt>
      <trkpt lat="47.30206" lon="-2.35111">
        <ele>25.39999961853</ele>
        <time>2020-10-11T08:20:40.000Z</time>
      </trkpt>
      <trkpt lat="47.30207" lon="-2.35076">
        <ele>25.799999237061</ele>
        <time>2020-10-11T08:20:45.000Z</time>
      </trkpt>
      <trkpt lat="47.30206" lon="-2.3507">
        <ele>26.60000038147</ele>
        <time>2020-10-11T08:20:46.000Z</time>
      </trkpt>
      <trkpt lat="47.30207" lon="-2.35063">
        <ele>27.200000762939</ele>
        <time>2020-10-11T08:20:47.000Z</time>
      </trkpt>
      <trkpt lat="47.30207" lon="-2.35057">
        <ele>27.60000038147</ele>
        <time>2020-10-11T08:20:48.000Z</time>
      </trkpt>
      <trkpt lat="47.30206" lon="-2.35045">
        <ele>27.60000038147</ele>
        <time>2020-10-11T08:20:50.000Z</time>
      </trkpt>
      <trkpt lat="47.30206" lon="-2.35033">
        <ele>27.60000038147</ele>
        <time>2020-10-11T08:20:52.000Z</time>
      </trkpt>
      <trkpt lat="47.30206" lon="-2.35012">
        <ele>27.60000038147</ele>
        <time>2020-10-11T08:20:56.000Z</time>
      </trkpt>
      <trkpt lat="47.30206" lon="-2.34979">
        <ele>27.60000038147</ele>
        <time>2020-10-11T08:21:03.000Z</time>
      </trkpt>
      <trkpt lat="47.30208" lon="-2.34948">
        <ele>27.60000038147</ele>
        <time>2020-10-11T08:21:09.000Z</time>
      </trkpt>
      <trkpt lat="47.30207" lon="-2.34926">
        <ele>28</ele>
        <time>2020-10-11T08:21:13.000Z</time>
      </trkpt>
      <trkpt lat="47.30208" lon="-2.34921">
        <ele>28.39999961853</ele>
        <time>2020-10-11T08:21:14.000Z</time>
      </trkpt>
      <trkpt lat="47.30208" lon="-2.34916">
        <ele>29</ele>
        <time>2020-10-11T08:21:15.000Z</time>
      </trkpt>
      <trkpt lat="47.30209" lon="-2.34911">
        <ele>29.39999961853</ele>
        <time>2020-10-11T08:21:16.000Z</time>
      </trkpt>
      <trkpt lat="47.3021" lon="-2.34907">
        <ele>29.799999237061</ele>
        <time>2020-10-11T08:21:17.000Z</time>
      </trkpt>
      <trkpt lat="47.30213" lon="-2.34903">
        <ele>29.799999237061</ele>
        <time>2020-10-11T08:21:18.000Z</time>
      </trkpt>
      <trkpt lat="47.30215" lon="-2.349">
        <ele>29.799999237061</ele>
        <time>2020-10-11T08:21:19.000Z</time>
      </trkpt>
      <trkpt lat="47.30225" lon="-2.34889">
        <ele>29.799999237061</ele>
        <time>2020-10-11T08:21:22.000Z</time>
      </trkpt>
      <trkpt lat="47.30234" lon="-2.34883">
        <ele>29.799999237061</ele>
        <time>2020-10-11T08:21:24.000Z</time>
      </trkpt>
      <trkpt lat="47.30242" lon="-2.34878">
        <ele>29.799999237061</ele>
        <time>2020-10-11T08:21:26.000Z</time>
      </trkpt>
      <trkpt lat="47.30255" lon="-2.34871">
        <ele>29.799999237061</ele>
        <time>2020-10-11T08:21:29.000Z</time>
      </trkpt>
      <trkpt lat="47.30285" lon="-2.34854">
        <ele>29.799999237061</ele>
        <time>2020-10-11T08:21:36.000Z</time>
      </trkpt>
      <trkpt lat="47.30299" lon="-2.34838">
        <ele>29.799999237061</ele>
        <time>2020-10-11T08:21:40.000Z</time>
      </trkpt>
      <trkpt lat="47.30306" lon="-2.34829">
        <ele>29.799999237061</ele>
        <time>2020-10-11T08:21:42.000Z</time>
      </trkpt>
      <trkpt lat="47.30318" lon="-2.34808">
        <ele>29.799999237061</ele>
        <time>2020-10-11T08:21:46.000Z</time>
      </trkpt>
      <trkpt lat="47.30334" lon="-2.34785">
        <ele>30.200000762939</ele>
        <time>2020-10-11T08:21:51.000Z</time>
      </trkpt>
      <trkpt lat="47.30338" lon="-2.34781">
        <ele>30.60000038147</ele>
        <time>2020-10-11T08:21:52.000Z</time>
      </trkpt>
      <trkpt lat="47.30342" lon="-2.34778">
        <ele>31</ele>
        <time>2020-10-11T08:21:53.000Z</time>
      </trkpt>
      <trkpt lat="47.30346" lon="-2.34774">
        <ele>31.39999961853</ele>
        <time>2020-10-11T08:21:54.000Z</time>
      </trkpt>
      <trkpt lat="47.3035" lon="-2.34771">
        <ele>32</ele>
        <time>2020-10-11T08:21:55.000Z</time>
      </trkpt>
      <trkpt lat="47.30355" lon="-2.34768">
        <ele>32</ele>
        <time>2020-10-11T08:21:56.000Z</time>
      </trkpt>
      <trkpt lat="47.30384" lon="-2.34747">
        <ele>32</ele>
        <time>2020-10-11T08:22:02.000Z</time>
      </trkpt>
      <trkpt lat="47.30393" lon="-2.34741">
        <ele>32</ele>
        <time>2020-10-11T08:22:04.000Z</time>
      </trkpt>
      <trkpt lat="47.30408" lon="-2.34731">
        <ele>32</ele>
        <time>2020-10-11T08:22:07.000Z</time>
      </trkpt>
      <trkpt lat="47.30434" lon="-2.34707">
        <ele>32</ele>
        <time>2020-10-11T08:22:12.000Z</time>
      </trkpt>
      <trkpt lat="47.30461" lon="-2.34684">
        <ele>32</ele>
        <time>2020-10-11T08:22:17.000Z</time>
      </trkpt>
      <trkpt lat="47.30465" lon="-2.34678">
        <ele>32</ele>
        <time>2020-10-11T08:22:18.000Z</time>
      </trkpt>
      <trkpt lat="47.30476" lon="-2.34666">
        <ele>32</ele>
        <time>2020-10-11T08:22:20.000Z</time>
      </trkpt>
      <trkpt lat="47.30486" lon="-2.34657">
        <ele>32</ele>
        <time>2020-10-11T08:22:22.000Z</time>
      </trkpt>
      <trkpt lat="47.3049" lon="-2.34651">
        <ele>32</ele>
        <time>2020-10-11T08:22:23.000Z</time>
      </trkpt>
      <trkpt lat="47.30499" lon="-2.34637">
        <ele>32</ele>
        <time>2020-10-11T08:22:26.000Z</time>
      </trkpt>
      <trkpt lat="47.30513" lon="-2.34613">
        <ele>32</ele>
        <time>2020-10-11T08:22:31.000Z</time>
      </trkpt>
      <trkpt lat="47.3052" lon="-2.34605">
        <ele>32</ele>
        <time>2020-10-11T08:22:33.000Z</time>
      </trkpt>
      <trkpt lat="47.30532" lon="-2.34587">
        <ele>32</ele>
        <time>2020-10-11T08:22:36.000Z</time>
      </trkpt>
      <trkpt lat="47.30535" lon="-2.3458">
        <ele>32</ele>
        <time>2020-10-11T08:22:37.000Z</time>
      </trkpt>
      <trkpt lat="47.30543" lon="-2.34568">
        <ele>32</ele>
        <time>2020-10-11T08:22:39.000Z</time>
      </trkpt>
      <trkpt lat="47.30549" lon="-2.34557">
        <ele>32</ele>
        <time>2020-10-11T08:22:41.000Z</time>
      </trkpt>
      <trkpt lat="47.30569" lon="-2.3452">
        <ele>32</ele>
        <time>2020-10-11T08:22:48.000Z</time>
      </trkpt>
      <trkpt lat="47.30583" lon="-2.34496">
        <ele>32</ele>
        <time>2020-10-11T08:22:53.000Z</time>
      </trkpt>
      <trkpt lat="47.30605" lon="-2.3446">
        <ele>32</ele>
        <time>2020-10-11T08:23:00.000Z</time>
      </trkpt>
      <trkpt lat="47.30626" lon="-2.34432">
        <ele>32</ele>
        <time>2020-10-11T08:23:06.000Z</time>
      </trkpt>
      <trkpt lat="47.30648" lon="-2.34404">
        <ele>32</ele>
        <time>2020-10-11T08:23:12.000Z</time>
      </trkpt>
      <trkpt lat="47.30669" lon="-2.3437">
        <ele>32</ele>
        <time>2020-10-11T08:23:18.000Z</time>
      </trkpt>
      <trkpt lat="47.3069" lon="-2.3433">
        <ele>32</ele>
        <time>2020-10-11T08:23:24.000Z</time>
      </trkpt>
      <trkpt lat="47.30713" lon="-2.34284">
        <ele>32</ele>
        <time>2020-10-11T08:23:30.000Z</time>
      </trkpt>
      <trkpt lat="47.30716" lon="-2.34276">
        <ele>32</ele>
        <time>2020-10-11T08:23:31.000Z</time>
      </trkpt>
      <trkpt lat="47.3072" lon="-2.34246">
        <ele>32</ele>
        <time>2020-10-11T08:23:35.000Z</time>
      </trkpt>
      <trkpt lat="47.30722" lon="-2.34239">
        <ele>32</ele>
        <time>2020-10-11T08:23:36.000Z</time>
      </trkpt>
      <trkpt lat="47.30731" lon="-2.34232">
        <ele>32</ele>
        <time>2020-10-11T08:23:38.000Z</time>
      </trkpt>
      <trkpt lat="47.30745" lon="-2.34228">
        <ele>32</ele>
        <time>2020-10-11T08:23:41.000Z</time>
      </trkpt>
      <trkpt lat="47.30751" lon="-2.34226">
        <ele>32</ele>
        <time>2020-10-11T08:23:42.000Z</time>
      </trkpt>
      <trkpt lat="47.30756" lon="-2.34223">
        <ele>32</ele>
        <time>2020-10-11T08:23:43.000Z</time>
      </trkpt>
      <trkpt lat="47.30763" lon="-2.3421">
        <ele>32</ele>
        <time>2020-10-11T08:23:45.000Z</time>
      </trkpt>
      <trkpt lat="47.30765" lon="-2.34187">
        <ele>32</ele>
        <time>2020-10-11T08:23:48.000Z</time>
      </trkpt>
      <trkpt lat="47.30766" lon="-2.3415">
        <ele>32</ele>
        <time>2020-10-11T08:23:53.000Z</time>
      </trkpt>
      <trkpt lat="47.30767" lon="-2.34141">
        <ele>32</ele>
        <time>2020-10-11T08:23:54.000Z</time>
      </trkpt>
      <trkpt lat="47.30769" lon="-2.34123">
        <ele>32</ele>
        <time>2020-10-11T08:23:56.000Z</time>
      </trkpt>
      <trkpt lat="47.30769" lon="-2.34115">
        <ele>32</ele>
        <time>2020-10-11T08:23:57.000Z</time>
      </trkpt>
      <trkpt lat="47.30771" lon="-2.34097">
        <ele>32</ele>
        <time>2020-10-11T08:23:59.000Z</time>
      </trkpt>
      <trkpt lat="47.30773" lon="-2.34069">
        <ele>32</ele>
        <time>2020-10-11T08:24:02.000Z</time>
      </trkpt>
      <trkpt lat="47.30775" lon="-2.34033">
        <ele>32</ele>
        <time>2020-10-11T08:24:06.000Z</time>
      </trkpt>
      <trkpt lat="47.30776" lon="-2.34015">
        <ele>32</ele>
        <time>2020-10-11T08:24:08.000Z</time>
      </trkpt>
      <trkpt lat="47.30777" lon="-2.34007">
        <ele>32</ele>
        <time>2020-10-11T08:24:09.000Z</time>
      </trkpt>
      <trkpt lat="47.30783" lon="-2.33978">
        <ele>32</ele>
        <time>2020-10-11T08:24:13.000Z</time>
      </trkpt>
      <trkpt lat="47.30786" lon="-2.33973">
        <ele>32</ele>
        <time>2020-10-11T08:24:14.000Z</time>
      </trkpt>
      <trkpt lat="47.30796" lon="-2.33969">
        <ele>32</ele>
        <time>2020-10-11T08:24:16.000Z</time>
      </trkpt>
      <trkpt lat="47.30814" lon="-2.33963">
        <ele>32</ele>
        <time>2020-10-11T08:24:19.000Z</time>
      </trkpt>
      <trkpt lat="47.30826" lon="-2.3396">
        <ele>32</ele>
        <time>2020-10-11T08:24:21.000Z</time>
      </trkpt>
      <trkpt lat="47.30884" lon="-2.33949">
        <ele>32</ele>
        <time>2020-10-11T08:24:30.000Z</time>
      </trkpt>
      <trkpt lat="47.30925" lon="-2.33948">
        <ele>32</ele>
        <time>2020-10-11T08:24:37.000Z</time>
      </trkpt>
      <trkpt lat="47.30942" lon="-2.33951">
        <ele>32</ele>
        <time>2020-10-11T08:24:40.000Z</time>
      </trkpt>
      <trkpt lat="47.30954" lon="-2.33952">
        <ele>32</ele>
        <time>2020-10-11T08:24:42.000Z</time>
      </trkpt>
      <trkpt lat="47.30959" lon="-2.33953">
        <ele>32</ele>
        <time>2020-10-11T08:24:43.000Z</time>
      </trkpt>
      <trkpt lat="47.30997" lon="-2.33954">
        <ele>32</ele>
        <time>2020-10-11T08:24:49.000Z</time>
      </trkpt>
      <trkpt lat="47.31034" lon="-2.33949">
        <ele>32</ele>
        <time>2020-10-11T08:24:55.000Z</time>
      </trkpt>
      <trkpt lat="47.31052" lon="-2.33945">
        <ele>32</ele>
        <time>2020-10-11T08:24:58.000Z</time>
      </trkpt>
      <trkpt lat="47.31061" lon="-2.33934">
        <ele>31.39999961853</ele>
        <time>2020-10-11T08:25:00.000Z</time>
      </trkpt>
      <trkpt lat="47.31063" lon="-2.33925">
        <ele>31</ele>
        <time>2020-10-11T08:25:01.000Z</time>
      </trkpt>
      <trkpt lat="47.31063" lon="-2.33917">
        <ele>30.39999961853</ele>
        <time>2020-10-11T08:25:02.000Z</time>
      </trkpt>
      <trkpt lat="47.31062" lon="-2.33908">
        <ele>30</ele>
        <time>2020-10-11T08:25:03.000Z</time>
      </trkpt>
      <trkpt lat="47.31062" lon="-2.33899">
        <ele>29.39999961853</ele>
        <time>2020-10-11T08:25:04.000Z</time>
      </trkpt>
      <trkpt lat="47.31063" lon="-2.3389">
        <ele>29.39999961853</ele>
        <time>2020-10-11T08:25:05.000Z</time>
      </trkpt>
      <trkpt lat="47.31064" lon="-2.33861">
        <ele>29.39999961853</ele>
        <time>2020-10-11T08:25:08.000Z</time>
      </trkpt>
      <trkpt lat="47.3107" lon="-2.33802">
        <ele>29.39999961853</ele>
        <time>2020-10-11T08:25:14.000Z</time>
      </trkpt>
      <trkpt lat="47.31072" lon="-2.33792">
        <ele>29.39999961853</ele>
        <time>2020-10-11T08:25:15.000Z</time>
      </trkpt>
      <trkpt lat="47.31087" lon="-2.33755">
        <ele>29.39999961853</ele>
        <time>2020-10-11T08:25:19.000Z</time>
      </trkpt>
      <trkpt lat="47.3109" lon="-2.33745">
        <ele>29.39999961853</ele>
        <time>2020-10-11T08:25:20.000Z</time>
      </trkpt>
      <trkpt lat="47.311" lon="-2.33693">
        <ele>29.39999961853</ele>
        <time>2020-10-11T08:25:25.000Z</time>
      </trkpt>
      <trkpt lat="47.31109" lon="-2.33625">
        <ele>29.39999961853</ele>
        <time>2020-10-11T08:25:32.000Z</time>
      </trkpt>
      <trkpt lat="47.31111" lon="-2.33557">
        <ele>29.39999961853</ele>
        <time>2020-10-11T08:25:39.000Z</time>
      </trkpt>
      <trkpt lat="47.31106" lon="-2.3351">
        <ele>29.39999961853</ele>
        <time>2020-10-11T08:25:44.000Z</time>
      </trkpt>
      <trkpt lat="47.31098" lon="-2.33459">
        <ele>29.39999961853</ele>
        <time>2020-10-11T08:25:49.000Z</time>
      </trkpt>
      <trkpt lat="47.31096" lon="-2.3339">
        <ele>29.39999961853</ele>
        <time>2020-10-11T08:25:55.000Z</time>
      </trkpt>
      <trkpt lat="47.31097" lon="-2.3332">
        <ele>29.39999961853</ele>
        <time>2020-10-11T08:26:01.000Z</time>
      </trkpt>
      <trkpt lat="47.31099" lon="-2.33297">
        <ele>29</ele>
        <time>2020-10-11T08:26:03.000Z</time>
      </trkpt>
      <trkpt lat="47.31099" lon="-2.33286">
        <ele>28.60000038147</ele>
        <time>2020-10-11T08:26:04.000Z</time>
      </trkpt>
      <trkpt lat="47.311" lon="-2.33275">
        <ele>28.200000762939</ele>
        <time>2020-10-11T08:26:05.000Z</time>
      </trkpt>
      <trkpt lat="47.311" lon="-2.33263">
        <ele>27.60000038147</ele>
        <time>2020-10-11T08:26:06.000Z</time>
      </trkpt>
      <trkpt lat="47.31101" lon="-2.33252">
        <ele>27.200000762939</ele>
        <time>2020-10-11T08:26:07.000Z</time>
      </trkpt>
      <trkpt lat="47.31105" lon="-2.33221">
        <ele>27.200000762939</ele>
        <time>2020-10-11T08:26:10.000Z</time>
      </trkpt>
      <trkpt lat="47.31113" lon="-2.33207">
        <ele>27.200000762939</ele>
        <time>2020-10-11T08:26:12.000Z</time>
      </trkpt>
      <trkpt lat="47.31125" lon="-2.33197">
        <ele>27.200000762939</ele>
        <time>2020-10-11T08:26:14.000Z</time>
      </trkpt>
      <trkpt lat="47.31131" lon="-2.33193">
        <ele>27.200000762939</ele>
        <time>2020-10-11T08:26:15.000Z</time>
      </trkpt>
      <trkpt lat="47.31137" lon="-2.3319">
        <ele>27.200000762939</ele>
        <time>2020-10-11T08:26:16.000Z</time>
      </trkpt>
      <trkpt lat="47.31163" lon="-2.33171">
        <ele>26.799999237061</ele>
        <time>2020-10-11T08:26:20.000Z</time>
      </trkpt>
      <trkpt lat="47.3117" lon="-2.33167">
        <ele>26.39999961853</ele>
        <time>2020-10-11T08:26:21.000Z</time>
      </trkpt>
      <trkpt lat="47.31177" lon="-2.33164">
        <ele>26</ele>
        <time>2020-10-11T08:26:22.000Z</time>
      </trkpt>
      <trkpt lat="47.31184" lon="-2.3316">
        <ele>25.60000038147</ele>
        <time>2020-10-11T08:26:23.000Z</time>
      </trkpt>
      <trkpt lat="47.31191" lon="-2.33157">
        <ele>25.200000762939</ele>
        <time>2020-10-11T08:26:24.000Z</time>
      </trkpt>
      <trkpt lat="47.31207" lon="-2.33152">
        <ele>25.200000762939</ele>
        <time>2020-10-11T08:26:26.000Z</time>
      </trkpt>
      <trkpt lat="47.3122" lon="-2.33147">
        <ele>25.200000762939</ele>
        <time>2020-10-11T08:26:28.000Z</time>
      </trkpt>
      <trkpt lat="47.31236" lon="-2.33126">
        <ele>25.200000762939</ele>
        <time>2020-10-11T08:26:31.000Z</time>
      </trkpt>
      <trkpt lat="47.31246" lon="-2.33102">
        <ele>25.200000762939</ele>
        <time>2020-10-11T08:26:34.000Z</time>
      </trkpt>
      <trkpt lat="47.31249" lon="-2.33095">
        <ele>25.200000762939</ele>
        <time>2020-10-11T08:26:35.000Z</time>
      </trkpt>
      <trkpt lat="47.31252" lon="-2.33087">
        <ele>25.200000762939</ele>
        <time>2020-10-11T08:26:36.000Z</time>
      </trkpt>
      <trkpt lat="47.31267" lon="-2.33056">
        <ele>25.200000762939</ele>
        <time>2020-10-11T08:26:40.000Z</time>
      </trkpt>
      <trkpt lat="47.31294" lon="-2.33014">
        <ele>25.200000762939</ele>
        <time>2020-10-11T08:26:46.000Z</time>
      </trkpt>
      <trkpt lat="47.31319" lon="-2.32965">
        <ele>25.200000762939</ele>
        <time>2020-10-11T08:26:52.000Z</time>
      </trkpt>
      <trkpt lat="47.31341" lon="-2.32925">
        <ele>24.799999237061</ele>
        <time>2020-10-11T08:26:57.000Z</time>
      </trkpt>
      <trkpt lat="47.31345" lon="-2.32918">
        <ele>24.39999961853</ele>
        <time>2020-10-11T08:26:58.000Z</time>
      </trkpt>
      <trkpt lat="47.31349" lon="-2.3291">
        <ele>23.799999237061</ele>
        <time>2020-10-11T08:26:59.000Z</time>
      </trkpt>
      <trkpt lat="47.31352" lon="-2.32901">
        <ele>23.39999961853</ele>
        <time>2020-10-11T08:27:00.000Z</time>
      </trkpt>
      <trkpt lat="47.31353" lon="-2.32893">
        <ele>23</ele>
        <time>2020-10-11T08:27:01.000Z</time>
      </trkpt>
      <trkpt lat="47.31352" lon="-2.32886">
        <ele>23</ele>
        <time>2020-10-11T08:27:02.000Z</time>
      </trkpt>
      <trkpt lat="47.3134" lon="-2.32872">
        <ele>23</ele>
        <time>2020-10-11T08:27:05.000Z</time>
      </trkpt>
      <trkpt lat="47.31325" lon="-2.32853">
        <ele>23</ele>
        <time>2020-10-11T08:27:09.000Z</time>
      </trkpt>
      <trkpt lat="47.31304" lon="-2.32823">
        <ele>23</ele>
        <time>2020-10-11T08:27:14.000Z</time>
      </trkpt>
      <trkpt lat="47.31292" lon="-2.32805">
        <ele>23</ele>
        <time>2020-10-11T08:27:17.000Z</time>
      </trkpt>
      <trkpt lat="47.31285" lon="-2.32791">
        <ele>23</ele>
        <time>2020-10-11T08:27:19.000Z</time>
      </trkpt>
      <trkpt lat="47.31269" lon="-2.32776">
        <ele>23</ele>
        <time>2020-10-11T08:27:22.000Z</time>
      </trkpt>
      <trkpt lat="47.31263" lon="-2.32772">
        <ele>23</ele>
        <time>2020-10-11T08:27:23.000Z</time>
      </trkpt>
      <trkpt lat="47.31232" lon="-2.32748">
        <ele>23</ele>
        <time>2020-10-11T08:27:29.000Z</time>
      </trkpt>
      <trkpt lat="47.31212" lon="-2.32731">
        <ele>23</ele>
        <time>2020-10-11T08:27:33.000Z</time>
      </trkpt>
      <trkpt lat="47.31207" lon="-2.32718">
        <ele>23</ele>
        <time>2020-10-11T08:27:35.000Z</time>
      </trkpt>
      <trkpt lat="47.31201" lon="-2.32693">
        <ele>23</ele>
        <time>2020-10-11T08:27:38.000Z</time>
      </trkpt>
      <trkpt lat="47.31197" lon="-2.32677">
        <ele>23</ele>
        <time>2020-10-11T08:27:40.000Z</time>
      </trkpt>
      <trkpt lat="47.3118" lon="-2.32626">
        <ele>23</ele>
        <time>2020-10-11T08:27:46.000Z</time>
      </trkpt>
      <trkpt lat="47.31179" lon="-2.32616">
        <ele>23</ele>
        <time>2020-10-11T08:27:47.000Z</time>
      </trkpt>
      <trkpt lat="47.31177" lon="-2.3259">
        <ele>23</ele>
        <time>2020-10-11T08:27:50.000Z</time>
      </trkpt>
      <trkpt lat="47.31176" lon="-2.32561">
        <ele>23</ele>
        <time>2020-10-11T08:27:55.000Z</time>
      </trkpt>
      <trkpt lat="47.31176" lon="-2.32545">
        <ele>23</ele>
        <time>2020-10-11T08:28:02.000Z</time>
      </trkpt>
      <trkpt lat="47.31175" lon="-2.32543">
        <ele>22.60000038147</ele>
        <time>2020-10-11T08:28:03.000Z</time>
      </trkpt>
      <trkpt lat="47.31175" lon="-2.32541">
        <ele>22.200000762939</ele>
        <time>2020-10-11T08:28:04.000Z</time>
      </trkpt>
      <trkpt lat="47.31175" lon="-2.3254">
        <ele>21.799999237061</ele>
        <time>2020-10-11T08:28:05.000Z</time>
      </trkpt>
      <trkpt lat="47.31175" lon="-2.3254">
        <ele>21.39999961853</ele>
        <time>2020-10-11T08:28:06.000Z</time>
      </trkpt>
      <trkpt lat="47.31174" lon="-2.32528">
        <ele>21</ele>
        <time>2020-10-11T08:29:56.000Z</time>
      </trkpt>
      <trkpt lat="47.31174" lon="-2.32527">
        <ele>21</ele>
        <time>2020-10-11T08:29:57.000Z</time>
      </trkpt>
      <trkpt lat="47.31176" lon="-2.32525">
        <ele>21</ele>
        <time>2020-10-11T08:30:00.000Z</time>
      </trkpt>
      <trkpt lat="47.31177" lon="-2.32522">
        <ele>21</ele>
        <time>2020-10-11T08:30:01.000Z</time>
      </trkpt>
      <trkpt lat="47.31178" lon="-2.32515">
        <ele>21</ele>
        <time>2020-10-11T08:30:03.000Z</time>
      </trkpt>
      <trkpt lat="47.31178" lon="-2.32492">
        <ele>21</ele>
        <time>2020-10-11T08:30:07.000Z</time>
      </trkpt>
      <trkpt lat="47.31178" lon="-2.32484">
        <ele>21</ele>
        <time>2020-10-11T08:30:08.000Z</time>
      </trkpt>
      <trkpt lat="47.31178" lon="-2.32439">
        <ele>21</ele>
        <time>2020-10-11T08:30:14.000Z</time>
      </trkpt>
      <trkpt lat="47.31175" lon="-2.32432">
        <ele>21</ele>
        <time>2020-10-11T08:30:15.000Z</time>
      </trkpt>
      <trkpt lat="47.3116" lon="-2.32428">
        <ele>21</ele>
        <time>2020-10-11T08:30:18.000Z</time>
      </trkpt>
      <trkpt lat="47.31156" lon="-2.32427">
        <ele>21</ele>
        <time>2020-10-11T08:30:19.000Z</time>
      </trkpt>
      <trkpt lat="47.31152" lon="-2.32424">
        <ele>21</ele>
        <time>2020-10-11T08:30:20.000Z</time>
      </trkpt>
      <trkpt lat="47.31148" lon="-2.32415">
        <ele>21</ele>
        <time>2020-10-11T08:30:22.000Z</time>
      </trkpt>
      <trkpt lat="47.31147" lon="-2.32395">
        <ele>21</ele>
        <time>2020-10-11T08:30:25.000Z</time>
      </trkpt>
      <trkpt lat="47.31147" lon="-2.32388">
        <ele>21</ele>
        <time>2020-10-11T08:30:26.000Z</time>
      </trkpt>
      <trkpt lat="47.31146" lon="-2.32349">
        <ele>21</ele>
        <time>2020-10-11T08:30:31.000Z</time>
      </trkpt>
      <trkpt lat="47.31147" lon="-2.3234">
        <ele>20.60000038147</ele>
        <time>2020-10-11T08:30:33.000Z</time>
      </trkpt>
      <trkpt lat="47.31147" lon="-2.32339">
        <ele>20.200000762939</ele>
        <time>2020-10-11T08:30:34.000Z</time>
      </trkpt>
      <trkpt lat="47.31146" lon="-2.32339">
        <ele>19.799999237061</ele>
        <time>2020-10-11T08:30:35.000Z</time>
      </trkpt>
      <trkpt lat="47.31146" lon="-2.32338">
        <ele>19.39999961853</ele>
        <time>2020-10-11T08:30:36.000Z</time>
      </trkpt>
      <trkpt lat="47.31144" lon="-2.32338">
        <ele>19</ele>
        <time>2020-10-11T08:30:37.000Z</time>
      </trkpt>
      <trkpt lat="47.31142" lon="-2.32331">
        <ele>19</ele>
        <time>2020-10-11T08:30:39.000Z</time>
      </trkpt>
      <trkpt lat="47.3114" lon="-2.32326">
        <ele>19</ele>
        <time>2020-10-11T08:30:40.000Z</time>
      </trkpt>
      <trkpt lat="47.31135" lon="-2.32307">
        <ele>19</ele>
        <time>2020-10-11T08:30:43.000Z</time>
      </trkpt>
      <trkpt lat="47.31132" lon="-2.32301">
        <ele>19</ele>
        <time>2020-10-11T08:30:44.000Z</time>
      </trkpt>
      <trkpt lat="47.31115" lon="-2.32259">
        <ele>19</ele>
        <time>2020-10-11T08:30:50.000Z</time>
      </trkpt>
      <trkpt lat="47.31104" lon="-2.32229">
        <ele>18.39999961853</ele>
        <time>2020-10-11T08:30:53.000Z</time>
      </trkpt>
      <trkpt lat="47.311" lon="-2.32219">
        <ele>18</ele>
        <time>2020-10-11T08:30:54.000Z</time>
      </trkpt>
      <trkpt lat="47.31096" lon="-2.32209">
        <ele>17.39999961853</ele>
        <time>2020-10-11T08:30:55.000Z</time>
      </trkpt>
      <trkpt lat="47.31092" lon="-2.322">
        <ele>17</ele>
        <time>2020-10-11T08:30:56.000Z</time>
      </trkpt>
      <trkpt lat="47.31088" lon="-2.32192">
        <ele>16.39999961853</ele>
        <time>2020-10-11T08:30:57.000Z</time>
      </trkpt>
      <trkpt lat="47.31085" lon="-2.32185">
        <ele>16</ele>
        <time>2020-10-11T08:30:58.000Z</time>
      </trkpt>
      <trkpt lat="47.31081" lon="-2.32177">
        <ele>15.39999961853</ele>
        <time>2020-10-11T08:30:59.000Z</time>
      </trkpt>
      <trkpt lat="47.31077" lon="-2.32169">
        <ele>15</ele>
        <time>2020-10-11T08:31:00.000Z</time>
      </trkpt>
      <trkpt lat="47.31072" lon="-2.32162">
        <ele>14.60000038147</ele>
        <time>2020-10-11T08:31:01.000Z</time>
      </trkpt>
      <trkpt lat="47.31058" lon="-2.32139">
        <ele>14.60000038147</ele>
        <time>2020-10-11T08:31:04.000Z</time>
      </trkpt>
      <trkpt lat="47.31054" lon="-2.32133">
        <ele>14.60000038147</ele>
        <time>2020-10-11T08:31:05.000Z</time>
      </trkpt>
      <trkpt lat="47.31044" lon="-2.32121">
        <ele>14</ele>
        <time>2020-10-11T08:31:07.000Z</time>
      </trkpt>
      <trkpt lat="47.3104" lon="-2.32114">
        <ele>13.60000038147</ele>
        <time>2020-10-11T08:31:08.000Z</time>
      </trkpt>
      <trkpt lat="47.31035" lon="-2.32108">
        <ele>13.199999809265</ele>
        <time>2020-10-11T08:31:09.000Z</time>
      </trkpt>
      <trkpt lat="47.3103" lon="-2.32101">
        <ele>12.800000190735</ele>
        <time>2020-10-11T08:31:10.000Z</time>
      </trkpt>
      <trkpt lat="47.31026" lon="-2.32095">
        <ele>12.39999961853</ele>
        <time>2020-10-11T08:31:11.000Z</time>
      </trkpt>
      <trkpt lat="47.31022" lon="-2.32087">
        <ele>12.39999961853</ele>
        <time>2020-10-11T08:31:12.000Z</time>
      </trkpt>
      <trkpt lat="47.30996" lon="-2.32041">
        <ele>12.39999961853</ele>
        <time>2020-10-11T08:31:18.000Z</time>
      </trkpt>
      <trkpt lat="47.3097" lon="-2.31981">
        <ele>12</ele>
        <time>2020-10-11T08:31:25.000Z</time>
      </trkpt>
      <trkpt lat="47.30967" lon="-2.31973">
        <ele>11.60000038147</ele>
        <time>2020-10-11T08:31:26.000Z</time>
      </trkpt>
      <trkpt lat="47.30965" lon="-2.31964">
        <ele>11.199999809265</ele>
        <time>2020-10-11T08:31:27.000Z</time>
      </trkpt>
      <trkpt lat="47.30965" lon="-2.31955">
        <ele>10.39999961853</ele>
        <time>2020-10-11T08:31:28.000Z</time>
      </trkpt>
      <trkpt lat="47.30966" lon="-2.31947">
        <ele>10.39999961853</ele>
        <time>2020-10-11T08:31:29.000Z</time>
      </trkpt>
      <trkpt lat="47.30975" lon="-2.31919">
        <ele>10.39999961853</ele>
        <time>2020-10-11T08:31:33.000Z</time>
      </trkpt>
      <trkpt lat="47.30979" lon="-2.31903">
        <ele>10.39999961853</ele>
        <time>2020-10-11T08:31:35.000Z</time>
      </trkpt>
      <trkpt lat="47.30983" lon="-2.31877">
        <ele>10.39999961853</ele>
        <time>2020-10-11T08:31:38.000Z</time>
      </trkpt>
      <trkpt lat="47.30988" lon="-2.31862">
        <ele>10.39999961853</ele>
        <time>2020-10-11T08:31:40.000Z</time>
      </trkpt>
      <trkpt lat="47.30995" lon="-2.31847">
        <ele>10.39999961853</ele>
        <time>2020-10-11T08:31:42.000Z</time>
      </trkpt>
      <trkpt lat="47.30998" lon="-2.31838">
        <ele>10.39999961853</ele>
        <time>2020-10-11T08:31:43.000Z</time>
      </trkpt>
      <trkpt lat="47.30997" lon="-2.31824">
        <ele>10.39999961853</ele>
        <time>2020-10-11T08:31:45.000Z</time>
      </trkpt>
      <trkpt lat="47.30989" lon="-2.31815">
        <ele>10.39999961853</ele>
        <time>2020-10-11T08:31:47.000Z</time>
      </trkpt>
      <trkpt lat="47.30985" lon="-2.31811">
        <ele>10.39999961853</ele>
        <time>2020-10-11T08:31:48.000Z</time>
      </trkpt>
      <trkpt lat="47.30971" lon="-2.31796">
        <ele>10.39999961853</ele>
        <time>2020-10-11T08:31:51.000Z</time>
      </trkpt>
      <trkpt lat="47.30961" lon="-2.31785">
        <ele>10.39999961853</ele>
        <time>2020-10-11T08:31:53.000Z</time>
      </trkpt>
      <trkpt lat="47.30921" lon="-2.31738">
        <ele>10.39999961853</ele>
        <time>2020-10-11T08:32:02.000Z</time>
      </trkpt>
      <trkpt lat="47.30885" lon="-2.31694">
        <ele>10.39999961853</ele>
        <time>2020-10-11T08:32:10.000Z</time>
      </trkpt>
      <trkpt lat="47.3085" lon="-2.31651">
        <ele>10.39999961853</ele>
        <time>2020-10-11T08:32:18.000Z</time>
      </trkpt>
      <trkpt lat="47.30835" lon="-2.31655">
        <ele>10.39999961853</ele>
        <time>2020-10-11T08:32:21.000Z</time>
      </trkpt>
      <trkpt lat="47.30825" lon="-2.31668">
        <ele>10.39999961853</ele>
        <time>2020-10-11T08:32:23.000Z</time>
      </trkpt>
      <trkpt lat="47.30814" lon="-2.31681">
        <ele>10.39999961853</ele>
        <time>2020-10-11T08:32:25.000Z</time>
      </trkpt>
      <trkpt lat="47.30779" lon="-2.3172">
        <ele>10.39999961853</ele>
        <time>2020-10-11T08:32:31.000Z</time>
      </trkpt>
      <trkpt lat="47.30763" lon="-2.31739">
        <ele>10</ele>
        <time>2020-10-11T08:32:34.000Z</time>
      </trkpt>
      <trkpt lat="47.30758" lon="-2.31745">
        <ele>9.3999996185303</ele>
        <time>2020-10-11T08:32:35.000Z</time>
      </trkpt>
      <trkpt lat="47.30753" lon="-2.31749">
        <ele>9</ele>
        <time>2020-10-11T08:32:36.000Z</time>
      </trkpt>
      <trkpt lat="47.30748" lon="-2.31754">
        <ele>8.6000003814697</ele>
        <time>2020-10-11T08:32:37.000Z</time>
      </trkpt>
      <trkpt lat="47.30742" lon="-2.31756">
        <ele>8.1999998092651</ele>
        <time>2020-10-11T08:32:38.000Z</time>
      </trkpt>
      <trkpt lat="47.30729" lon="-2.31756">
        <ele>8.1999998092651</ele>
        <time>2020-10-11T08:32:40.000Z</time>
      </trkpt>
      <trkpt lat="47.30717" lon="-2.31733">
        <ele>8.1999998092651</ele>
        <time>2020-10-11T08:32:43.000Z</time>
      </trkpt>
      <trkpt lat="47.30714" lon="-2.31724">
        <ele>7.8000001907349</ele>
        <time>2020-10-11T08:32:44.000Z</time>
      </trkpt>
      <trkpt lat="47.30711" lon="-2.31715">
        <ele>7.4000000953674</ele>
        <time>2020-10-11T08:32:45.000Z</time>
      </trkpt>
      <trkpt lat="47.30707" lon="-2.31706">
        <ele>7</ele>
        <time>2020-10-11T08:32:46.000Z</time>
      </trkpt>
      <trkpt lat="47.30704" lon="-2.31698">
        <ele>6.5999999046326</ele>
        <time>2020-10-11T08:32:47.000Z</time>
      </trkpt>
      <trkpt lat="47.30699" lon="-2.31689">
        <ele>6.1999998092651</ele>
        <time>2020-10-11T08:32:48.000Z</time>
      </trkpt>
      <trkpt lat="47.30696" lon="-2.3168">
        <ele>6.1999998092651</ele>
        <time>2020-10-11T08:32:49.000Z</time>
      </trkpt>
      <trkpt lat="47.30676" lon="-2.31625">
        <ele>6.1999998092651</ele>
        <time>2020-10-11T08:32:54.000Z</time>
      </trkpt>
      <trkpt lat="47.30655" lon="-2.31577">
        <ele>6.1999998092651</ele>
        <time>2020-10-11T08:32:59.000Z</time>
      </trkpt>
      <trkpt lat="47.30627" lon="-2.31517">
        <ele>6.5999999046326</ele>
        <time>2020-10-11T08:33:06.000Z</time>
      </trkpt>
      <trkpt lat="47.30625" lon="-2.31508">
        <ele>7</ele>
        <time>2020-10-11T08:33:07.000Z</time>
      </trkpt>
      <trkpt lat="47.30621" lon="-2.315">
        <ele>7.4000000953674</ele>
        <time>2020-10-11T08:33:08.000Z</time>
      </trkpt>
      <trkpt lat="47.30618" lon="-2.31491">
        <ele>7.8000001907349</ele>
        <time>2020-10-11T08:33:09.000Z</time>
      </trkpt>
      <trkpt lat="47.30615" lon="-2.31483">
        <ele>8.1999998092651</ele>
        <time>2020-10-11T08:33:10.000Z</time>
      </trkpt>
      <trkpt lat="47.30608" lon="-2.31466">
        <ele>8.1999998092651</ele>
        <time>2020-10-11T08:33:12.000Z</time>
      </trkpt>
      <trkpt lat="47.30584" lon="-2.31407">
        <ele>8.1999998092651</ele>
        <time>2020-10-11T08:33:19.000Z</time>
      </trkpt>
      <trkpt lat="47.30573" lon="-2.31382">
        <ele>8.1999998092651</ele>
        <time>2020-10-11T08:33:22.000Z</time>
      </trkpt>
      <trkpt lat="47.30563" lon="-2.31366">
        <ele>8.1999998092651</ele>
        <time>2020-10-11T08:33:24.000Z</time>
      </trkpt>
      <trkpt lat="47.30533" lon="-2.31317">
        <ele>8.1999998092651</ele>
        <time>2020-10-11T08:33:30.000Z</time>
      </trkpt>
      <trkpt lat="47.30501" lon="-2.31265">
        <ele>8.1999998092651</ele>
        <time>2020-10-11T08:33:37.000Z</time>
      </trkpt>
      <trkpt lat="47.30475" lon="-2.31219">
        <ele>8.1999998092651</ele>
        <time>2020-10-11T08:33:43.000Z</time>
      </trkpt>
      <trkpt lat="47.30464" lon="-2.31186">
        <ele>8.1999998092651</ele>
        <time>2020-10-11T08:33:47.000Z</time>
      </trkpt>
      <trkpt lat="47.30454" lon="-2.31149">
        <ele>8.1999998092651</ele>
        <time>2020-10-11T08:33:52.000Z</time>
      </trkpt>
      <trkpt lat="47.3044" lon="-2.3112">
        <ele>8.1999998092651</ele>
        <time>2020-10-11T08:33:56.000Z</time>
      </trkpt>
      <trkpt lat="47.30435" lon="-2.31115">
        <ele>8.1999998092651</ele>
        <time>2020-10-11T08:33:57.000Z</time>
      </trkpt>
      <trkpt lat="47.30418" lon="-2.31102">
        <ele>8.1999998092651</ele>
        <time>2020-10-11T08:34:00.000Z</time>
      </trkpt>
      <trkpt lat="47.30412" lon="-2.31097">
        <ele>8.1999998092651</ele>
        <time>2020-10-11T08:34:01.000Z</time>
      </trkpt>
      <trkpt lat="47.304" lon="-2.31085">
        <ele>8.1999998092651</ele>
        <time>2020-10-11T08:34:03.000Z</time>
      </trkpt>
      <trkpt lat="47.30387" lon="-2.31072">
        <ele>8.1999998092651</ele>
        <time>2020-10-11T08:34:05.000Z</time>
      </trkpt>
      <trkpt lat="47.30359" lon="-2.31035">
        <ele>8.1999998092651</ele>
        <time>2020-10-11T08:34:10.000Z</time>
      </trkpt>
      <trkpt lat="47.30329" lon="-2.30995">
        <ele>8.1999998092651</ele>
        <time>2020-10-11T08:34:15.000Z</time>
      </trkpt>
      <trkpt lat="47.30295" lon="-2.30948">
        <ele>7.8000001907349</ele>
        <time>2020-10-11T08:34:20.000Z</time>
      </trkpt>
      <trkpt lat="47.30288" lon="-2.30938">
        <ele>7.1999998092651</ele>
        <time>2020-10-11T08:34:21.000Z</time>
      </trkpt>
      <trkpt lat="47.30281" lon="-2.30929">
        <ele>6.8000001907349</ele>
        <time>2020-10-11T08:34:22.000Z</time>
      </trkpt>
      <trkpt lat="47.30274" lon="-2.3092">
        <ele>6.1999998092651</ele>
        <time>2020-10-11T08:34:23.000Z</time>
      </trkpt>
      <trkpt lat="47.30267" lon="-2.30911">
        <ele>5.8000001907349</ele>
        <time>2020-10-11T08:34:24.000Z</time>
      </trkpt>
      <trkpt lat="47.30253" lon="-2.30892">
        <ele>5.4000000953674</ele>
        <time>2020-10-11T08:34:26.000Z</time>
      </trkpt>
      <trkpt lat="47.30245" lon="-2.30883">
        <ele>5</ele>
        <time>2020-10-11T08:34:27.000Z</time>
      </trkpt>
      <trkpt lat="47.30238" lon="-2.30874">
        <ele>4.5999999046326</ele>
        <time>2020-10-11T08:34:28.000Z</time>
      </trkpt>
      <trkpt lat="47.30231" lon="-2.30866">
        <ele>4.1999998092651</ele>
        <time>2020-10-11T08:34:29.000Z</time>
      </trkpt>
      <trkpt lat="47.30223" lon="-2.30858">
        <ele>3.5999999046326</ele>
        <time>2020-10-11T08:34:30.000Z</time>
      </trkpt>
      <trkpt lat="47.30207" lon="-2.30843">
        <ele>3.5999999046326</ele>
        <time>2020-10-11T08:34:32.000Z</time>
      </trkpt>
      <trkpt lat="47.302" lon="-2.30835">
        <ele>3.2000000476837</ele>
        <time>2020-10-11T08:34:33.000Z</time>
      </trkpt>
      <trkpt lat="47.30193" lon="-2.30827">
        <ele>2.7999999523163</ele>
        <time>2020-10-11T08:34:34.000Z</time>
      </trkpt>
      <trkpt lat="47.30187" lon="-2.30819">
        <ele>2.2000000476837</ele>
        <time>2020-10-11T08:34:35.000Z</time>
      </trkpt>
      <trkpt lat="47.30181" lon="-2.30812">
        <ele>1.7999999523163</ele>
        <time>2020-10-11T08:34:36.000Z</time>
      </trkpt>
      <trkpt lat="47.30175" lon="-2.30805">
        <ele>1.3999999761581</ele>
        <time>2020-10-11T08:34:37.000Z</time>
      </trkpt>
      <trkpt lat="47.30169" lon="-2.30799">
        <ele>0.80000001192093</ele>
        <time>2020-10-11T08:34:38.000Z</time>
      </trkpt>
      <trkpt lat="47.30164" lon="-2.30795">
        <ele>0.20000000298023</ele>
        <time>2020-10-11T08:34:39.000Z</time>
      </trkpt>
      <trkpt lat="47.30162" lon="-2.3079">
        <ele>-0.20000000298023</ele>
        <time>2020-10-11T08:34:40.000Z</time>
      </trkpt>
      <trkpt lat="47.30162" lon="-2.30786">
        <ele>-0.80000001192093</ele>
        <time>2020-10-11T08:34:41.000Z</time>
      </trkpt>
      <trkpt lat="47.30161" lon="-2.30782">
        <ele>-1.3999999761581</ele>
        <time>2020-10-11T08:34:42.000Z</time>
      </trkpt>
      <trkpt lat="47.30161" lon="-2.30777">
        <ele>-2</ele>
        <time>2020-10-11T08:34:43.000Z</time>
      </trkpt>
      <trkpt lat="47.3016" lon="-2.30771">
        <ele>-2.4000000953674</ele>
        <time>2020-10-11T08:34:44.000Z</time>
      </trkpt>
      <trkpt lat="47.3016" lon="-2.30764">
        <ele>-3.5999999046326</ele>
        <time>2020-10-11T08:34:45.000Z</time>
      </trkpt>
      <trkpt lat="47.30161" lon="-2.30748">
        <ele>-3.5999999046326</ele>
        <time>2020-10-11T08:34:47.000Z</time>
      </trkpt>
      <trkpt lat="47.30162" lon="-2.3074">
        <ele>-3.5999999046326</ele>
        <time>2020-10-11T08:34:48.000Z</time>
      </trkpt>
      <trkpt lat="47.30162" lon="-2.30704">
        <ele>-3.5999999046326</ele>
        <time>2020-10-11T08:34:52.000Z</time>
      </trkpt>
      <trkpt lat="47.30161" lon="-2.30695">
        <ele>-3.5999999046326</ele>
        <time>2020-10-11T08:34:53.000Z</time>
      </trkpt>
      <trkpt lat="47.30154" lon="-2.30646">
        <ele>-3.5999999046326</ele>
        <time>2020-10-11T08:34:59.000Z</time>
      </trkpt>
      <trkpt lat="47.30152" lon="-2.30638">
        <ele>-3.5999999046326</ele>
        <time>2020-10-11T08:35:00.000Z</time>
      </trkpt>
      <trkpt lat="47.30144" lon="-2.30616">
        <ele>-3.5999999046326</ele>
        <time>2020-10-11T08:35:03.000Z</time>
      </trkpt>
      <trkpt lat="47.30125" lon="-2.30565">
        <ele>-3.5999999046326</ele>
        <time>2020-10-11T08:35:09.000Z</time>
      </trkpt>
      <trkpt lat="47.30121" lon="-2.30557">
        <ele>-3.5999999046326</ele>
        <time>2020-10-11T08:35:10.000Z</time>
      </trkpt>
      <trkpt lat="47.30105" lon="-2.30542">
        <ele>-3.5999999046326</ele>
        <time>2020-10-11T08:35:13.000Z</time>
      </trkpt>
      <trkpt lat="47.30098" lon="-2.3054">
        <ele>-3.2000000476837</ele>
        <time>2020-10-11T08:35:14.000Z</time>
      </trkpt>
      <trkpt lat="47.30091" lon="-2.30539">
        <ele>-2.5999999046326</ele>
        <time>2020-10-11T08:35:15.000Z</time>
      </trkpt>
      <trkpt lat="47.30084" lon="-2.30538">
        <ele>-2.2000000476837</ele>
        <time>2020-10-11T08:35:16.000Z</time>
      </trkpt>
      <trkpt lat="47.30078" lon="-2.30539">
        <ele>-1.7999999523163</ele>
        <time>2020-10-11T08:35:17.000Z</time>
      </trkpt>
      <trkpt lat="47.30071" lon="-2.3054">
        <ele>-1.3999999761581</ele>
        <time>2020-10-11T08:35:18.000Z</time>
      </trkpt>
      <trkpt lat="47.30064" lon="-2.30541">
        <ele>-1.3999999761581</ele>
        <time>2020-10-11T08:35:19.000Z</time>
      </trkpt>
      <trkpt lat="47.30045" lon="-2.30541">
        <ele>-1.3999999761581</ele>
        <time>2020-10-11T08:35:22.000Z</time>
      </trkpt>
      <trkpt lat="47.29999" lon="-2.30537">
        <ele>-1.3999999761581</ele>
        <time>2020-10-11T08:35:29.000Z</time>
      </trkpt>
      <trkpt lat="47.29962" lon="-2.3052">
        <ele>-1.3999999761581</ele>
        <time>2020-10-11T08:35:35.000Z</time>
      </trkpt>
      <trkpt lat="47.29937" lon="-2.30506">
        <ele>-1</ele>
        <time>2020-10-11T08:35:39.000Z</time>
      </trkpt>
      <trkpt lat="47.29932" lon="-2.30502">
        <ele>-0.60000002384186</ele>
        <time>2020-10-11T08:35:40.000Z</time>
      </trkpt>
      <trkpt lat="47.29926" lon="-2.30499">
        <ele>-0.20000000298023</ele>
        <time>2020-10-11T08:35:41.000Z</time>
      </trkpt>
      <trkpt lat="47.2992" lon="-2.30495">
        <ele>0.20000000298023</ele>
        <time>2020-10-11T08:35:42.000Z</time>
      </trkpt>
      <trkpt lat="47.29914" lon="-2.30491">
        <ele>0.80000001192093</ele>
        <time>2020-10-11T08:35:43.000Z</time>
      </trkpt>
      <trkpt lat="47.29908" lon="-2.30489">
        <ele>0.80000001192093</ele>
        <time>2020-10-11T08:35:44.000Z</time>
      </trkpt>
      <trkpt lat="47.29884" lon="-2.30482">
        <ele>0.80000001192093</ele>
        <time>2020-10-11T08:35:48.000Z</time>
      </trkpt>
      <trkpt lat="47.29872" lon="-2.30482">
        <ele>1.2000000476837</ele>
        <time>2020-10-11T08:35:50.000Z</time>
      </trkpt>
      <trkpt lat="47.29866" lon="-2.30482">
        <ele>1.6000000238419</ele>
        <time>2020-10-11T08:35:51.000Z</time>
      </trkpt>
      <trkpt lat="47.29861" lon="-2.30484">
        <ele>2</ele>
        <time>2020-10-11T08:35:52.000Z</time>
      </trkpt>
      <trkpt lat="47.29855" lon="-2.30485">
        <ele>2.4000000953674</ele>
        <time>2020-10-11T08:35:53.000Z</time>
      </trkpt>
      <trkpt lat="47.2985" lon="-2.30486">
        <ele>2.7999999523163</ele>
        <time>2020-10-11T08:35:54.000Z</time>
      </trkpt>
      <trkpt lat="47.29811" lon="-2.30494">
        <ele>2.7999999523163</ele>
        <time>2020-10-11T08:36:01.000Z</time>
      </trkpt>
      <trkpt lat="47.29778" lon="-2.30502">
        <ele>2.7999999523163</ele>
        <time>2020-10-11T08:36:07.000Z</time>
      </trkpt>
      <trkpt lat="47.29773" lon="-2.30503">
        <ele>3.4000000953674</ele>
        <time>2020-10-11T08:36:08.000Z</time>
      </trkpt>
      <trkpt lat="47.29767" lon="-2.30505">
        <ele>3.7999999523163</ele>
        <time>2020-10-11T08:36:09.000Z</time>
      </trkpt>
      <trkpt lat="47.29762" lon="-2.30506">
        <ele>4.1999998092651</ele>
        <time>2020-10-11T08:36:10.000Z</time>
      </trkpt>
      <trkpt lat="47.29757" lon="-2.30508">
        <ele>4.5999999046326</ele>
        <time>2020-10-11T08:36:11.000Z</time>
      </trkpt>
      <trkpt lat="47.29753" lon="-2.3051">
        <ele>5</ele>
        <time>2020-10-11T08:36:12.000Z</time>
      </trkpt>
      <trkpt lat="47.29738" lon="-2.30514">
        <ele>5</ele>
        <time>2020-10-11T08:36:15.000Z</time>
      </trkpt>
      <trkpt lat="47.29704" lon="-2.30524">
        <ele>5.4000000953674</ele>
        <time>2020-10-11T08:36:22.000Z</time>
      </trkpt>
      <trkpt lat="47.29699" lon="-2.30526">
        <ele>5.8000001907349</ele>
        <time>2020-10-11T08:36:23.000Z</time>
      </trkpt>
      <trkpt lat="47.29695" lon="-2.30528">
        <ele>6.1999998092651</ele>
        <time>2020-10-11T08:36:24.000Z</time>
      </trkpt>
      <trkpt lat="47.2969" lon="-2.30529">
        <ele>6.5999999046326</ele>
        <time>2020-10-11T08:36:25.000Z</time>
      </trkpt>
      <trkpt lat="47.29685" lon="-2.3053">
        <ele>7.1999998092651</ele>
        <time>2020-10-11T08:36:26.000Z</time>
      </trkpt>
      <trkpt lat="47.29671" lon="-2.30533">
        <ele>7.1999998092651</ele>
        <time>2020-10-11T08:36:29.000Z</time>
      </trkpt>
      <trkpt lat="47.29666" lon="-2.30536">
        <ele>7.1999998092651</ele>
        <time>2020-10-11T08:36:30.000Z</time>
      </trkpt>
      <trkpt lat="47.29632" lon="-2.30551">
        <ele>7.1999998092651</ele>
        <time>2020-10-11T08:36:37.000Z</time>
      </trkpt>
      <trkpt lat="47.29627" lon="-2.30553">
        <ele>7.5999999046326</ele>
        <time>2020-10-11T08:36:38.000Z</time>
      </trkpt>
      <trkpt lat="47.29622" lon="-2.30555">
        <ele>8</ele>
        <time>2020-10-11T08:36:39.000Z</time>
      </trkpt>
      <trkpt lat="47.29616" lon="-2.30556">
        <ele>8.3999996185303</ele>
        <time>2020-10-11T08:36:40.000Z</time>
      </trkpt>
      <trkpt lat="47.29611" lon="-2.30557">
        <ele>8.8000001907349</ele>
        <time>2020-10-11T08:36:41.000Z</time>
      </trkpt>
      <trkpt lat="47.29606" lon="-2.30558">
        <ele>9.1999998092651</ele>
        <time>2020-10-11T08:36:42.000Z</time>
      </trkpt>
      <trkpt lat="47.29595" lon="-2.3056">
        <ele>9.1999998092651</ele>
        <time>2020-10-11T08:36:44.000Z</time>
      </trkpt>
      <trkpt lat="47.2954" lon="-2.30569">
        <ele>9.1999998092651</ele>
        <time>2020-10-11T08:36:54.000Z</time>
      </trkpt>
      <trkpt lat="47.29493" lon="-2.30575">
        <ele>9.1999998092651</ele>
        <time>2020-10-11T08:37:02.000Z</time>
      </trkpt>
      <trkpt lat="47.29438" lon="-2.30583">
        <ele>9.1999998092651</ele>
        <time>2020-10-11T08:37:10.000Z</time>
      </trkpt>
      <trkpt lat="47.2943" lon="-2.30583">
        <ele>9.1999998092651</ele>
        <time>2020-10-11T08:37:11.000Z</time>
      </trkpt>
      <trkpt lat="47.29415" lon="-2.30582">
        <ele>9.1999998092651</ele>
        <time>2020-10-11T08:37:13.000Z</time>
      </trkpt>
      <trkpt lat="47.294" lon="-2.30578">
        <ele>9.1999998092651</ele>
        <time>2020-10-11T08:37:15.000Z</time>
      </trkpt>
      <trkpt lat="47.29378" lon="-2.30567">
        <ele>8.8000001907349</ele>
        <time>2020-10-11T08:37:18.000Z</time>
      </trkpt>
      <trkpt lat="47.2937" lon="-2.30562">
        <ele>8.3999996185303</ele>
        <time>2020-10-11T08:37:19.000Z</time>
      </trkpt>
      <trkpt lat="47.29362" lon="-2.30557">
        <ele>8</ele>
        <time>2020-10-11T08:37:20.000Z</time>
      </trkpt>
      <trkpt lat="47.29354" lon="-2.30552">
        <ele>7.5999999046326</ele>
        <time>2020-10-11T08:37:21.000Z</time>
      </trkpt>
      <trkpt lat="47.29347" lon="-2.30547">
        <ele>7.1999998092651</ele>
        <time>2020-10-11T08:37:22.000Z</time>
      </trkpt>
      <trkpt lat="47.29315" lon="-2.30528">
        <ele>6.8000001907349</ele>
        <time>2020-10-11T08:37:26.000Z</time>
      </trkpt>
      <trkpt lat="47.29308" lon="-2.30523">
        <ele>6.1999998092651</ele>
        <time>2020-10-11T08:37:27.000Z</time>
      </trkpt>
      <trkpt lat="47.293" lon="-2.30518">
        <ele>5.8000001907349</ele>
        <time>2020-10-11T08:37:28.000Z</time>
      </trkpt>
      <trkpt lat="47.29292" lon="-2.30513">
        <ele>5.4000000953674</ele>
        <time>2020-10-11T08:37:29.000Z</time>
      </trkpt>
      <trkpt lat="47.29284" lon="-2.30508">
        <ele>4.8000001907349</ele>
        <time>2020-10-11T08:37:30.000Z</time>
      </trkpt>
      <trkpt lat="47.29268" lon="-2.305">
        <ele>4.8000001907349</ele>
        <time>2020-10-11T08:37:32.000Z</time>
      </trkpt>
      <trkpt lat="47.29244" lon="-2.30492">
        <ele>4.8000001907349</ele>
        <time>2020-10-11T08:37:35.000Z</time>
      </trkpt>
      <trkpt lat="47.29227" lon="-2.30491">
        <ele>4.8000001907349</ele>
        <time>2020-10-11T08:37:37.000Z</time>
      </trkpt>
      <trkpt lat="47.29219" lon="-2.30492">
        <ele>4.8000001907349</ele>
        <time>2020-10-11T08:37:38.000Z</time>
      </trkpt>
      <trkpt lat="47.29196" lon="-2.30497">
        <ele>4.8000001907349</ele>
        <time>2020-10-11T08:37:41.000Z</time>
      </trkpt>
      <trkpt lat="47.29163" lon="-2.30516">
        <ele>4.8000001907349</ele>
        <time>2020-10-11T08:37:46.000Z</time>
      </trkpt>
      <trkpt lat="47.29121" lon="-2.30546">
        <ele>4.8000001907349</ele>
        <time>2020-10-11T08:37:53.000Z</time>
      </trkpt>
      <trkpt lat="47.29072" lon="-2.30575">
        <ele>4.8000001907349</ele>
        <time>2020-10-11T08:38:01.000Z</time>
      </trkpt>
      <trkpt lat="47.29066" lon="-2.30579">
        <ele>4.8000001907349</ele>
        <time>2020-10-11T08:38:02.000Z</time>
      </trkpt>
      <trkpt lat="47.29043" lon="-2.30596">
        <ele>4.8000001907349</ele>
        <time>2020-10-11T08:38:06.000Z</time>
      </trkpt>
      <trkpt lat="47.29008" lon="-2.30621">
        <ele>4.8000001907349</ele>
        <time>2020-10-11T08:38:12.000Z</time>
      </trkpt>
      <trkpt lat="47.29002" lon="-2.30637">
        <ele>4.8000001907349</ele>
        <time>2020-10-11T08:38:14.000Z</time>
      </trkpt>
      <trkpt lat="47.29003" lon="-2.30666">
        <ele>4.8000001907349</ele>
        <time>2020-10-11T08:38:17.000Z</time>
      </trkpt>
      <trkpt lat="47.29004" lon="-2.30676">
        <ele>4.8000001907349</ele>
        <time>2020-10-11T08:38:18.000Z</time>
      </trkpt>
      <trkpt lat="47.29006" lon="-2.30739">
        <ele>4.8000001907349</ele>
        <time>2020-10-11T08:38:25.000Z</time>
      </trkpt>
      <trkpt lat="47.29008" lon="-2.30756">
        <ele>4.8000001907349</ele>
        <time>2020-10-11T08:38:27.000Z</time>
      </trkpt>
      <trkpt lat="47.29013" lon="-2.30781">
        <ele>4.8000001907349</ele>
        <time>2020-10-11T08:38:30.000Z</time>
      </trkpt>
      <trkpt lat="47.29022" lon="-2.30828">
        <ele>4.8000001907349</ele>
        <time>2020-10-11T08:38:36.000Z</time>
      </trkpt>
      <trkpt lat="47.29028" lon="-2.30884">
        <ele>4.8000001907349</ele>
        <time>2020-10-11T08:38:43.000Z</time>
      </trkpt>
      <trkpt lat="47.29031" lon="-2.3092">
        <ele>5.4000000953674</ele>
        <time>2020-10-11T08:38:48.000Z</time>
      </trkpt>
      <trkpt lat="47.29031" lon="-2.30927">
        <ele>5.8000001907349</ele>
        <time>2020-10-11T08:38:49.000Z</time>
      </trkpt>
      <trkpt lat="47.29031" lon="-2.30934">
        <ele>6.1999998092651</ele>
        <time>2020-10-11T08:38:50.000Z</time>
      </trkpt>
      <trkpt lat="47.29032" lon="-2.30941">
        <ele>7.1999998092651</ele>
        <time>2020-10-11T08:38:51.000Z</time>
      </trkpt>
      <trkpt lat="47.29032" lon="-2.30962">
        <ele>7.5999999046326</ele>
        <time>2020-10-11T08:38:54.000Z</time>
      </trkpt>
      <trkpt lat="47.29032" lon="-2.30968">
        <ele>8</ele>
        <time>2020-10-11T08:38:55.000Z</time>
      </trkpt>
      <trkpt lat="47.29033" lon="-2.30975">
        <ele>8.6000003814697</ele>
        <time>2020-10-11T08:38:56.000Z</time>
      </trkpt>
      <trkpt lat="47.29033" lon="-2.30981">
        <ele>9</ele>
        <time>2020-10-11T08:38:57.000Z</time>
      </trkpt>
      <trkpt lat="47.29033" lon="-2.30988">
        <ele>9.3999996185303</ele>
        <time>2020-10-11T08:38:58.000Z</time>
      </trkpt>
      <trkpt lat="47.29032" lon="-2.31029">
        <ele>9.3999996185303</ele>
        <time>2020-10-11T08:39:04.000Z</time>
      </trkpt>
      <trkpt lat="47.29031" lon="-2.31049">
        <ele>9.8000001907349</ele>
        <time>2020-10-11T08:39:07.000Z</time>
      </trkpt>
      <trkpt lat="47.29031" lon="-2.31055">
        <ele>10.199999809265</ele>
        <time>2020-10-11T08:39:08.000Z</time>
      </trkpt>
      <trkpt lat="47.29031" lon="-2.31062">
        <ele>10.60000038147</ele>
        <time>2020-10-11T08:39:09.000Z</time>
      </trkpt>
      <trkpt lat="47.29031" lon="-2.31068">
        <ele>11</ele>
        <time>2020-10-11T08:39:10.000Z</time>
      </trkpt>
      <trkpt lat="47.29032" lon="-2.31074">
        <ele>11.39999961853</ele>
        <time>2020-10-11T08:39:11.000Z</time>
      </trkpt>
      <trkpt lat="47.29035" lon="-2.31125">
        <ele>12</ele>
        <time>2020-10-11T08:39:19.000Z</time>
      </trkpt>
      <trkpt lat="47.29035" lon="-2.31131">
        <ele>12.39999961853</ele>
        <time>2020-10-11T08:39:20.000Z</time>
      </trkpt>
      <trkpt lat="47.29036" lon="-2.31137">
        <ele>12.800000190735</ele>
        <time>2020-10-11T08:39:21.000Z</time>
      </trkpt>
      <trkpt lat="47.29036" lon="-2.31143">
        <ele>13.199999809265</ele>
        <time>2020-10-11T08:39:22.000Z</time>
      </trkpt>
      <trkpt lat="47.29037" lon="-2.3115">
        <ele>13.60000038147</ele>
        <time>2020-10-11T08:39:23.000Z</time>
      </trkpt>
      <trkpt lat="47.29039" lon="-2.31176">
        <ele>13.60000038147</ele>
        <time>2020-10-11T08:39:27.000Z</time>
      </trkpt>
      <trkpt lat="47.29041" lon="-2.31212">
        <ele>13.60000038147</ele>
        <time>2020-10-11T08:39:32.000Z</time>
      </trkpt>
      <trkpt lat="47.29041" lon="-2.31219">
        <ele>13.60000038147</ele>
        <time>2020-10-11T08:39:33.000Z</time>
      </trkpt>
      <trkpt lat="47.29032" lon="-2.31247">
        <ele>13.60000038147</ele>
        <time>2020-10-11T08:39:37.000Z</time>
      </trkpt>
      <trkpt lat="47.29014" lon="-2.31288">
        <ele>13.60000038147</ele>
        <time>2020-10-11T08:39:44.000Z</time>
      </trkpt>
      <trkpt lat="47.29009" lon="-2.31301">
        <ele>14</ele>
        <time>2020-10-11T08:39:46.000Z</time>
      </trkpt>
      <trkpt lat="47.29006" lon="-2.31307">
        <ele>14.39999961853</ele>
        <time>2020-10-11T08:39:47.000Z</time>
      </trkpt>
      <trkpt lat="47.29003" lon="-2.31313">
        <ele>14.800000190735</ele>
        <time>2020-10-11T08:39:48.000Z</time>
      </trkpt>
      <trkpt lat="47.29" lon="-2.31319">
        <ele>15.39999961853</ele>
        <time>2020-10-11T08:39:49.000Z</time>
      </trkpt>
      <trkpt lat="47.28997" lon="-2.31325">
        <ele>15.800000190735</ele>
        <time>2020-10-11T08:39:50.000Z</time>
      </trkpt>
      <trkpt lat="47.28994" lon="-2.31331">
        <ele>15.800000190735</ele>
        <time>2020-10-11T08:39:51.000Z</time>
      </trkpt>
      <trkpt lat="47.28973" lon="-2.31362">
        <ele>15.800000190735</ele>
        <time>2020-10-11T08:39:57.000Z</time>
      </trkpt>
      <trkpt lat="47.2895" lon="-2.31384">
        <ele>15.800000190735</ele>
        <time>2020-10-11T08:40:02.000Z</time>
      </trkpt>
      <trkpt lat="47.28945" lon="-2.31387">
        <ele>15.800000190735</ele>
        <time>2020-10-11T08:40:03.000Z</time>
      </trkpt>
      <trkpt lat="47.28934" lon="-2.3139">
        <ele>16.200000762939</ele>
        <time>2020-10-11T08:40:05.000Z</time>
      </trkpt>
      <trkpt lat="47.28928" lon="-2.31391">
        <ele>16.60000038147</ele>
        <time>2020-10-11T08:40:06.000Z</time>
      </trkpt>
      <trkpt lat="47.28922" lon="-2.31392">
        <ele>17</ele>
        <time>2020-10-11T08:40:07.000Z</time>
      </trkpt>
      <trkpt lat="47.28916" lon="-2.31393">
        <ele>17.39999961853</ele>
        <time>2020-10-11T08:40:08.000Z</time>
      </trkpt>
      <trkpt lat="47.2891" lon="-2.31393">
        <ele>17.799999237061</ele>
        <time>2020-10-11T08:40:09.000Z</time>
      </trkpt>
      <trkpt lat="47.28876" lon="-2.31398">
        <ele>17.799999237061</ele>
        <time>2020-10-11T08:40:15.000Z</time>
      </trkpt>
      <trkpt lat="47.28842" lon="-2.31413">
        <ele>17.799999237061</ele>
        <time>2020-10-11T08:40:21.000Z</time>
      </trkpt>
      <trkpt lat="47.28797" lon="-2.3144">
        <ele>17.799999237061</ele>
        <time>2020-10-11T08:40:29.000Z</time>
      </trkpt>
      <trkpt lat="47.28764" lon="-2.31462">
        <ele>17.799999237061</ele>
        <time>2020-10-11T08:40:35.000Z</time>
      </trkpt>
      <trkpt lat="47.28709" lon="-2.3149">
        <ele>17.799999237061</ele>
        <time>2020-10-11T08:40:44.000Z</time>
      </trkpt>
      <trkpt lat="47.28697" lon="-2.31494">
        <ele>17.799999237061</ele>
        <time>2020-10-11T08:40:46.000Z</time>
      </trkpt>
      <trkpt lat="47.28686" lon="-2.31491">
        <ele>17.799999237061</ele>
        <time>2020-10-11T08:40:48.000Z</time>
      </trkpt>
      <trkpt lat="47.28673" lon="-2.31474">
        <ele>17.799999237061</ele>
        <time>2020-10-11T08:40:51.000Z</time>
      </trkpt>
      <trkpt lat="47.2866" lon="-2.31453">
        <ele>17.799999237061</ele>
        <time>2020-10-11T08:40:55.000Z</time>
      </trkpt>
      <trkpt lat="47.28655" lon="-2.31453">
        <ele>18.200000762939</ele>
        <time>2020-10-11T08:40:56.000Z</time>
      </trkpt>
      <trkpt lat="47.2865" lon="-2.31456">
        <ele>18.60000038147</ele>
        <time>2020-10-11T08:40:57.000Z</time>
      </trkpt>
      <trkpt lat="47.28646" lon="-2.31459">
        <ele>19</ele>
        <time>2020-10-11T08:40:58.000Z</time>
      </trkpt>
      <trkpt lat="47.28641" lon="-2.31462">
        <ele>19.60000038147</ele>
        <time>2020-10-11T08:40:59.000Z</time>
      </trkpt>
      <trkpt lat="47.28636" lon="-2.31465">
        <ele>20</ele>
        <time>2020-10-11T08:41:00.000Z</time>
      </trkpt>
      <trkpt lat="47.28622" lon="-2.31476">
        <ele>20</ele>
        <time>2020-10-11T08:41:03.000Z</time>
      </trkpt>
      <trkpt lat="47.28621" lon="-2.31502">
        <ele>20</ele>
        <time>2020-10-11T08:41:06.000Z</time>
      </trkpt>
      <trkpt lat="47.28622" lon="-2.31511">
        <ele>20</ele>
        <time>2020-10-11T08:41:07.000Z</time>
      </trkpt>
      <trkpt lat="47.28624" lon="-2.31557">
        <ele>20</ele>
        <time>2020-10-11T08:41:12.000Z</time>
      </trkpt>
      <trkpt lat="47.28624" lon="-2.31623">
        <ele>20</ele>
        <time>2020-10-11T08:41:19.000Z</time>
      </trkpt>
      <trkpt lat="47.28624" lon="-2.31652">
        <ele>20</ele>
        <time>2020-10-11T08:41:22.000Z</time>
      </trkpt>
      <trkpt lat="47.28625" lon="-2.3167">
        <ele>20</ele>
        <time>2020-10-11T08:41:24.000Z</time>
      </trkpt>
      <trkpt lat="47.28634" lon="-2.31734">
        <ele>20</ele>
        <time>2020-10-11T08:41:31.000Z</time>
      </trkpt>
      <trkpt lat="47.28644" lon="-2.31807">
        <ele>20</ele>
        <time>2020-10-11T08:41:39.000Z</time>
      </trkpt>
      <trkpt lat="47.28646" lon="-2.31824">
        <ele>20</ele>
        <time>2020-10-11T08:41:41.000Z</time>
      </trkpt>
      <trkpt lat="47.28644" lon="-2.3184">
        <ele>20</ele>
        <time>2020-10-11T08:41:43.000Z</time>
      </trkpt>
      <trkpt lat="47.28634" lon="-2.31854">
        <ele>20</ele>
        <time>2020-10-11T08:41:46.000Z</time>
      </trkpt>
      <trkpt lat="47.28631" lon="-2.31857">
        <ele>20</ele>
        <time>2020-10-11T08:41:47.000Z</time>
      </trkpt>
      <trkpt lat="47.28623" lon="-2.3186">
        <ele>20</ele>
        <time>2020-10-11T08:41:49.000Z</time>
      </trkpt>
      <trkpt lat="47.28618" lon="-2.3186">
        <ele>20</ele>
        <time>2020-10-11T08:41:50.000Z</time>
      </trkpt>
      <trkpt lat="47.28595" lon="-2.31863">
        <ele>20</ele>
        <time>2020-10-11T08:41:55.000Z</time>
      </trkpt>
      <trkpt lat="47.2859" lon="-2.31865">
        <ele>20</ele>
        <time>2020-10-11T08:41:56.000Z</time>
      </trkpt>
      <trkpt lat="47.28571" lon="-2.31885">
        <ele>20</ele>
        <time>2020-10-11T08:42:01.000Z</time>
      </trkpt>
      <trkpt lat="47.2856" lon="-2.31897">
        <ele>20</ele>
        <time>2020-10-11T08:42:05.000Z</time>
      </trkpt>
      <trkpt lat="47.28557" lon="-2.31899">
        <ele>20</ele>
        <time>2020-10-11T08:42:06.000Z</time>
      </trkpt>
      <trkpt lat="47.28538" lon="-2.31906">
        <ele>20</ele>
        <time>2020-10-11T08:42:11.000Z</time>
      </trkpt>
      <trkpt lat="47.28528" lon="-2.31907">
        <ele>20</ele>
        <time>2020-10-11T08:42:14.000Z</time>
      </trkpt>
      <trkpt lat="47.28526" lon="-2.31906">
        <ele>20</ele>
        <time>2020-10-11T08:42:15.000Z</time>
      </trkpt>
      <trkpt lat="47.2852" lon="-2.31908">
        <ele>20</ele>
        <time>2020-10-11T08:42:18.000Z</time>
      </trkpt>
      <trkpt lat="47.28509" lon="-2.31912">
        <ele>20</ele>
        <time>2020-10-11T08:42:23.000Z</time>
      </trkpt>
      <trkpt lat="47.28499" lon="-2.31909">
        <ele>20</ele>
        <time>2020-10-11T08:42:27.000Z</time>
      </trkpt>
      <trkpt lat="47.28484" lon="-2.31911">
        <ele>20</ele>
        <time>2020-10-11T08:42:31.000Z</time>
      </trkpt>
      <trkpt lat="47.28479" lon="-2.31912">
        <ele>20</ele>
        <time>2020-10-11T08:42:32.000Z</time>
      </trkpt>
      <trkpt lat="47.2847" lon="-2.31914">
        <ele>20</ele>
        <time>2020-10-11T08:42:34.000Z</time>
      </trkpt>
      <trkpt lat="47.28455" lon="-2.31917">
        <ele>20</ele>
        <time>2020-10-11T08:42:38.000Z</time>
      </trkpt>
      <trkpt lat="47.28441" lon="-2.31919">
        <ele>20</ele>
        <time>2020-10-11T08:42:43.000Z</time>
      </trkpt>
      <trkpt lat="47.28424" lon="-2.31922">
        <ele>20</ele>
        <time>2020-10-11T08:42:48.000Z</time>
      </trkpt>
      <trkpt lat="47.28398" lon="-2.31927">
        <ele>20</ele>
        <time>2020-10-11T08:42:54.000Z</time>
      </trkpt>
      <trkpt lat="47.28393" lon="-2.31928">
        <ele>20</ele>
        <time>2020-10-11T08:42:55.000Z</time>
      </trkpt>
      <trkpt lat="47.28377" lon="-2.31929">
        <ele>20</ele>
        <time>2020-10-11T08:42:59.000Z</time>
      </trkpt>
      <trkpt lat="47.28365" lon="-2.31929">
        <ele>20</ele>
        <time>2020-10-11T08:43:02.000Z</time>
      </trkpt>
      <trkpt lat="47.28352" lon="-2.31929">
        <ele>20</ele>
        <time>2020-10-11T08:43:05.000Z</time>
      </trkpt>
      <trkpt lat="47.28322" lon="-2.3193">
        <ele>20</ele>
        <time>2020-10-11T08:43:12.000Z</time>
      </trkpt>
      <trkpt lat="47.28316" lon="-2.31935">
        <ele>19.60000038147</ele>
        <time>2020-10-11T08:43:14.000Z</time>
      </trkpt>
      <trkpt lat="47.28313" lon="-2.3194">
        <ele>19.200000762939</ele>
        <time>2020-10-11T08:43:15.000Z</time>
      </trkpt>
      <trkpt lat="47.28312" lon="-2.31946">
        <ele>18.799999237061</ele>
        <time>2020-10-11T08:43:16.000Z</time>
      </trkpt>
      <trkpt lat="47.28311" lon="-2.31953">
        <ele>18.39999961853</ele>
        <time>2020-10-11T08:43:17.000Z</time>
      </trkpt>
      <trkpt lat="47.28311" lon="-2.31961">
        <ele>18</ele>
        <time>2020-10-11T08:43:18.000Z</time>
      </trkpt>
      <trkpt lat="47.28311" lon="-2.31987">
        <ele>18</ele>
        <time>2020-10-11T08:43:21.000Z</time>
      </trkpt>
      <trkpt lat="47.28308" lon="-2.32053">
        <ele>18</ele>
        <time>2020-10-11T08:43:28.000Z</time>
      </trkpt>
      <trkpt lat="47.28313" lon="-2.32115">
        <ele>18</ele>
        <time>2020-10-11T08:43:34.000Z</time>
      </trkpt>
      <trkpt lat="47.28324" lon="-2.32182">
        <ele>18</ele>
        <time>2020-10-11T08:43:40.000Z</time>
      </trkpt>
      <trkpt lat="47.28332" lon="-2.3223">
        <ele>17.39999961853</ele>
        <time>2020-10-11T08:43:44.000Z</time>
      </trkpt>
      <trkpt lat="47.28334" lon="-2.32242">
        <ele>17</ele>
        <time>2020-10-11T08:43:45.000Z</time>
      </trkpt>
      <trkpt lat="47.28336" lon="-2.32254">
        <ele>16.60000038147</ele>
        <time>2020-10-11T08:43:46.000Z</time>
      </trkpt>
      <trkpt lat="47.28339" lon="-2.32266">
        <ele>16</ele>
        <time>2020-10-11T08:43:47.000Z</time>
      </trkpt>
      <trkpt lat="47.28341" lon="-2.32278">
        <ele>15.60000038147</ele>
        <time>2020-10-11T08:43:48.000Z</time>
      </trkpt>
      <trkpt lat="47.2835" lon="-2.32316">
        <ele>15.199999809265</ele>
        <time>2020-10-11T08:43:51.000Z</time>
      </trkpt>
      <trkpt lat="47.28352" lon="-2.32328">
        <ele>14.800000190735</ele>
        <time>2020-10-11T08:43:52.000Z</time>
      </trkpt>
      <trkpt lat="47.28355" lon="-2.3234">
        <ele>14.39999961853</ele>
        <time>2020-10-11T08:43:53.000Z</time>
      </trkpt>
      <trkpt lat="47.28358" lon="-2.32353">
        <ele>13.800000190735</ele>
        <time>2020-10-11T08:43:54.000Z</time>
      </trkpt>
      <trkpt lat="47.2836" lon="-2.32365">
        <ele>13.39999961853</ele>
        <time>2020-10-11T08:43:55.000Z</time>
      </trkpt>
      <trkpt lat="47.28373" lon="-2.32425">
        <ele>13</ele>
        <time>2020-10-11T08:44:00.000Z</time>
      </trkpt>
      <trkpt lat="47.28375" lon="-2.32436">
        <ele>12.60000038147</ele>
        <time>2020-10-11T08:44:01.000Z</time>
      </trkpt>
      <trkpt lat="47.28377" lon="-2.32446">
        <ele>12.199999809265</ele>
        <time>2020-10-11T08:44:02.000Z</time>
      </trkpt>
      <trkpt lat="47.28379" lon="-2.32457">
        <ele>11.800000190735</ele>
        <time>2020-10-11T08:44:03.000Z</time>
      </trkpt>
      <trkpt lat="47.28382" lon="-2.32468">
        <ele>11.39999961853</ele>
        <time>2020-10-11T08:44:04.000Z</time>
      </trkpt>
      <trkpt lat="47.28389" lon="-2.32495">
        <ele>11.39999961853</ele>
        <time>2020-10-11T08:44:07.000Z</time>
      </trkpt>
      <trkpt lat="47.28391" lon="-2.32513">
        <ele>11.39999961853</ele>
        <time>2020-10-11T08:44:09.000Z</time>
      </trkpt>
      <trkpt lat="47.2839" lon="-2.32519">
        <ele>11.39999961853</ele>
        <time>2020-10-11T08:44:10.000Z</time>
      </trkpt>
      <trkpt lat="47.28384" lon="-2.32525">
        <ele>10.39999961853</ele>
        <time>2020-10-11T08:44:12.000Z</time>
      </trkpt>
      <trkpt lat="47.2838" lon="-2.32526">
        <ele>10</ele>
        <time>2020-10-11T08:44:13.000Z</time>
      </trkpt>
      <trkpt lat="47.28375" lon="-2.32526">
        <ele>9.6000003814697</ele>
        <time>2020-10-11T08:44:14.000Z</time>
      </trkpt>
      <trkpt lat="47.28371" lon="-2.32526">
        <ele>9.1999998092651</ele>
        <time>2020-10-11T08:44:15.000Z</time>
      </trkpt>
      <trkpt lat="47.28351" lon="-2.32526">
        <ele>9.1999998092651</ele>
        <time>2020-10-11T08:44:19.000Z</time>
      </trkpt>
      <trkpt lat="47.28328" lon="-2.32528">
        <ele>9.1999998092651</ele>
        <time>2020-10-11T08:44:23.000Z</time>
      </trkpt>
      <trkpt lat="47.28317" lon="-2.32529">
        <ele>9.1999998092651</ele>
        <time>2020-10-11T08:44:25.000Z</time>
      </trkpt>
      <trkpt lat="47.28298" lon="-2.32529">
        <ele>9.1999998092651</ele>
        <time>2020-10-11T08:44:28.000Z</time>
      </trkpt>
      <trkpt lat="47.2828" lon="-2.32527">
        <ele>9.1999998092651</ele>
        <time>2020-10-11T08:44:31.000Z</time>
      </trkpt>
      <trkpt lat="47.28266" lon="-2.32516">
        <ele>9.1999998092651</ele>
        <time>2020-10-11T08:44:34.000Z</time>
      </trkpt>
      <trkpt lat="47.2826" lon="-2.3251">
        <ele>9.1999998092651</ele>
        <time>2020-10-11T08:44:35.000Z</time>
      </trkpt>
      <trkpt lat="47.28241" lon="-2.32484">
        <ele>9.1999998092651</ele>
        <time>2020-10-11T08:44:39.000Z</time>
      </trkpt>
      <trkpt lat="47.28232" lon="-2.32474">
        <ele>9.1999998092651</ele>
        <time>2020-10-11T08:44:41.000Z</time>
      </trkpt>
      <trkpt lat="47.28221" lon="-2.32467">
        <ele>9.1999998092651</ele>
        <time>2020-10-11T08:44:43.000Z</time>
      </trkpt>
      <trkpt lat="47.28209" lon="-2.32463">
        <ele>9.1999998092651</ele>
        <time>2020-10-11T08:44:45.000Z</time>
      </trkpt>
      <trkpt lat="47.28192" lon="-2.32459">
        <ele>9.1999998092651</ele>
        <time>2020-10-11T08:44:48.000Z</time>
      </trkpt>
      <trkpt lat="47.28163" lon="-2.32457">
        <ele>9.1999998092651</ele>
        <time>2020-10-11T08:44:53.000Z</time>
      </trkpt>
      <trkpt lat="47.2814" lon="-2.32461">
        <ele>9.1999998092651</ele>
        <time>2020-10-11T08:44:57.000Z</time>
      </trkpt>
      <trkpt lat="47.28128" lon="-2.32458">
        <ele>9.1999998092651</ele>
        <time>2020-10-11T08:44:59.000Z</time>
      </trkpt>
      <trkpt lat="47.28117" lon="-2.32453">
        <ele>9.1999998092651</ele>
        <time>2020-10-11T08:45:01.000Z</time>
      </trkpt>
      <trkpt lat="47.28107" lon="-2.32447">
        <ele>9.1999998092651</ele>
        <time>2020-10-11T08:45:03.000Z</time>
      </trkpt>
      <trkpt lat="47.28101" lon="-2.32442">
        <ele>9.1999998092651</ele>
        <time>2020-10-11T08:45:04.000Z</time>
      </trkpt>
      <trkpt lat="47.28089" lon="-2.32435">
        <ele>9.1999998092651</ele>
        <time>2020-10-11T08:45:06.000Z</time>
      </trkpt>
      <trkpt lat="47.28072" lon="-2.32432">
        <ele>9.1999998092651</ele>
        <time>2020-10-11T08:45:09.000Z</time>
      </trkpt>
      <trkpt lat="47.2806" lon="-2.3243">
        <ele>9.1999998092651</ele>
        <time>2020-10-11T08:45:11.000Z</time>
      </trkpt>
      <trkpt lat="47.28043" lon="-2.32429">
        <ele>9.1999998092651</ele>
        <time>2020-10-11T08:45:14.000Z</time>
      </trkpt>
      <trkpt lat="47.28031" lon="-2.32427">
        <ele>9.1999998092651</ele>
        <time>2020-10-11T08:45:16.000Z</time>
      </trkpt>
      <trkpt lat="47.28013" lon="-2.32423">
        <ele>9.1999998092651</ele>
        <time>2020-10-11T08:45:19.000Z</time>
      </trkpt>
      <trkpt lat="47.27979" lon="-2.32414">
        <ele>9.1999998092651</ele>
        <time>2020-10-11T08:45:25.000Z</time>
      </trkpt>
      <trkpt lat="47.27948" lon="-2.32404">
        <ele>9.1999998092651</ele>
        <time>2020-10-11T08:45:31.000Z</time>
      </trkpt>
      <trkpt lat="47.27933" lon="-2.32401">
        <ele>9.1999998092651</ele>
        <time>2020-10-11T08:45:35.000Z</time>
      </trkpt>
      <trkpt lat="47.27919" lon="-2.32394">
        <ele>9.1999998092651</ele>
        <time>2020-10-11T08:45:39.000Z</time>
      </trkpt>
      <trkpt lat="47.27898" lon="-2.32388">
        <ele>9.1999998092651</ele>
        <time>2020-10-11T08:45:44.000Z</time>
      </trkpt>
      <trkpt lat="47.27887" lon="-2.32389">
        <ele>9.1999998092651</ele>
        <time>2020-10-11T08:45:47.000Z</time>
      </trkpt>
      <trkpt lat="47.27882" lon="-2.32388">
        <ele>9.1999998092651</ele>
        <time>2020-10-11T08:45:48.000Z</time>
      </trkpt>
      <trkpt lat="47.2787" lon="-2.32382">
        <ele>9.1999998092651</ele>
        <time>2020-10-11T08:45:51.000Z</time>
      </trkpt>
      <trkpt lat="47.27866" lon="-2.32381">
        <ele>10</ele>
        <time>2020-10-11T08:45:52.000Z</time>
      </trkpt>
      <trkpt lat="47.27862" lon="-2.32378">
        <ele>10.39999961853</ele>
        <time>2020-10-11T08:45:53.000Z</time>
      </trkpt>
      <trkpt lat="47.27858" lon="-2.32376">
        <ele>10.800000190735</ele>
        <time>2020-10-11T08:45:54.000Z</time>
      </trkpt>
      <trkpt lat="47.27854" lon="-2.32375">
        <ele>11.199999809265</ele>
        <time>2020-10-11T08:45:55.000Z</time>
      </trkpt>
      <trkpt lat="47.2784" lon="-2.32376">
        <ele>11.199999809265</ele>
        <time>2020-10-11T08:45:58.000Z</time>
      </trkpt>
      <trkpt lat="47.27831" lon="-2.32377">
        <ele>11.199999809265</ele>
        <time>2020-10-11T08:46:00.000Z</time>
      </trkpt>
      <trkpt lat="47.27819" lon="-2.3238">
        <ele>11.199999809265</ele>
        <time>2020-10-11T08:46:03.000Z</time>
      </trkpt>
      <trkpt lat="47.27799" lon="-2.32383">
        <ele>11.199999809265</ele>
        <time>2020-10-11T08:46:08.000Z</time>
      </trkpt>
      <trkpt lat="47.27786" lon="-2.32386">
        <ele>11.199999809265</ele>
        <time>2020-10-11T08:46:12.000Z</time>
      </trkpt>
      <trkpt lat="47.2778" lon="-2.32384">
        <ele>11.199999809265</ele>
        <time>2020-10-11T08:46:14.000Z</time>
      </trkpt>
      <trkpt lat="47.27778" lon="-2.3238">
        <ele>11.199999809265</ele>
        <time>2020-10-11T08:46:15.000Z</time>
      </trkpt>
      <trkpt lat="47.27765" lon="-2.3237">
        <ele>11.199999809265</ele>
        <time>2020-10-11T08:46:19.000Z</time>
      </trkpt>
      <trkpt lat="47.27743" lon="-2.32356">
        <ele>11.199999809265</ele>
        <time>2020-10-11T08:46:25.000Z</time>
      </trkpt>
      <trkpt lat="47.27736" lon="-2.32351">
        <ele>11.60000038147</ele>
        <time>2020-10-11T08:46:27.000Z</time>
      </trkpt>
      <trkpt lat="47.27732" lon="-2.32348">
        <ele>12</ele>
        <time>2020-10-11T08:46:28.000Z</time>
      </trkpt>
      <trkpt lat="47.27728" lon="-2.32344">
        <ele>12.39999961853</ele>
        <time>2020-10-11T08:46:29.000Z</time>
      </trkpt>
      <trkpt lat="47.27725" lon="-2.32342">
        <ele>12.800000190735</ele>
        <time>2020-10-11T08:46:30.000Z</time>
      </trkpt>
      <trkpt lat="47.27721" lon="-2.3234">
        <ele>13.199999809265</ele>
        <time>2020-10-11T08:46:31.000Z</time>
      </trkpt>
      <trkpt lat="47.27717" lon="-2.32337">
        <ele>13.199999809265</ele>
        <time>2020-10-11T08:46:32.000Z</time>
      </trkpt>
      <trkpt lat="47.277" lon="-2.32329">
        <ele>13.199999809265</ele>
        <time>2020-10-11T08:46:37.000Z</time>
      </trkpt>
      <trkpt lat="47.27678" lon="-2.32322">
        <ele>13.199999809265</ele>
        <time>2020-10-11T08:46:41.000Z</time>
      </trkpt>
      <trkpt lat="47.27672" lon="-2.3232">
        <ele>13.199999809265</ele>
        <time>2020-10-11T08:46:42.000Z</time>
      </trkpt>
      <trkpt lat="47.27644" lon="-2.32307">
        <ele>13.199999809265</ele>
        <time>2020-10-11T08:46:47.000Z</time>
      </trkpt>
      <trkpt lat="47.27638" lon="-2.32303">
        <ele>13.199999809265</ele>
        <time>2020-10-11T08:46:48.000Z</time>
      </trkpt>
      <trkpt lat="47.27623" lon="-2.32293">
        <ele>13.199999809265</ele>
        <time>2020-10-11T08:46:51.000Z</time>
      </trkpt>
      <trkpt lat="47.27596" lon="-2.32273">
        <ele>12.800000190735</ele>
        <time>2020-10-11T08:46:56.000Z</time>
      </trkpt>
      <trkpt lat="47.2759" lon="-2.32267">
        <ele>12.39999961853</ele>
        <time>2020-10-11T08:46:57.000Z</time>
      </trkpt>
      <trkpt lat="47.27583" lon="-2.32262">
        <ele>12</ele>
        <time>2020-10-11T08:46:58.000Z</time>
      </trkpt>
      <trkpt lat="47.27576" lon="-2.32256">
        <ele>11.60000038147</ele>
        <time>2020-10-11T08:46:59.000Z</time>
      </trkpt>
      <trkpt lat="47.27569" lon="-2.3225">
        <ele>11.199999809265</ele>
        <time>2020-10-11T08:47:00.000Z</time>
      </trkpt>
      <trkpt lat="47.27555" lon="-2.32237">
        <ele>11.199999809265</ele>
        <time>2020-10-11T08:47:02.000Z</time>
      </trkpt>
      <trkpt lat="47.27547" lon="-2.32231">
        <ele>10.800000190735</ele>
        <time>2020-10-11T08:47:03.000Z</time>
      </trkpt>
      <trkpt lat="47.27539" lon="-2.32224">
        <ele>10.39999961853</ele>
        <time>2020-10-11T08:47:04.000Z</time>
      </trkpt>
      <trkpt lat="47.27531" lon="-2.32216">
        <ele>10</ele>
        <time>2020-10-11T08:47:05.000Z</time>
      </trkpt>
      <trkpt lat="47.27524" lon="-2.32208">
        <ele>9.1999998092651</ele>
        <time>2020-10-11T08:47:06.000Z</time>
      </trkpt>
      <trkpt lat="47.27517" lon="-2.32198">
        <ele>9.1999998092651</ele>
        <time>2020-10-11T08:47:07.000Z</time>
      </trkpt>
      <trkpt lat="47.27509" lon="-2.32189">
        <ele>8.8000001907349</ele>
        <time>2020-10-11T08:47:08.000Z</time>
      </trkpt>
      <trkpt lat="47.27502" lon="-2.32179">
        <ele>8.3999996185303</ele>
        <time>2020-10-11T08:47:09.000Z</time>
      </trkpt>
      <trkpt lat="47.27493" lon="-2.32169">
        <ele>8</ele>
        <time>2020-10-11T08:47:10.000Z</time>
      </trkpt>
      <trkpt lat="47.27486" lon="-2.32159">
        <ele>7.5999999046326</ele>
        <time>2020-10-11T08:47:11.000Z</time>
      </trkpt>
      <trkpt lat="47.27478" lon="-2.32148">
        <ele>7.1999998092651</ele>
        <time>2020-10-11T08:47:12.000Z</time>
      </trkpt>
      <trkpt lat="47.27434" lon="-2.3209">
        <ele>7.1999998092651</ele>
        <time>2020-10-11T08:47:18.000Z</time>
      </trkpt>
      <trkpt lat="47.2742" lon="-2.32074">
        <ele>6.5999999046326</ele>
        <time>2020-10-11T08:47:20.000Z</time>
      </trkpt>
      <trkpt lat="47.27413" lon="-2.32066">
        <ele>6.1999998092651</ele>
        <time>2020-10-11T08:47:21.000Z</time>
      </trkpt>
      <trkpt lat="47.27405" lon="-2.32058">
        <ele>5.8000001907349</ele>
        <time>2020-10-11T08:47:22.000Z</time>
      </trkpt>
      <trkpt lat="47.27398" lon="-2.3205">
        <ele>5.1999998092651</ele>
        <time>2020-10-11T08:47:23.000Z</time>
      </trkpt>
      <trkpt lat="47.27391" lon="-2.32042">
        <ele>4.8000001907349</ele>
        <time>2020-10-11T08:47:24.000Z</time>
      </trkpt>
      <trkpt lat="47.27383" lon="-2.32034">
        <ele>4.1999998092651</ele>
        <time>2020-10-11T08:47:25.000Z</time>
      </trkpt>
      <trkpt lat="47.27376" lon="-2.32026">
        <ele>3.5999999046326</ele>
        <time>2020-10-11T08:47:26.000Z</time>
      </trkpt>
      <trkpt lat="47.27369" lon="-2.3202">
        <ele>3.2000000476837</ele>
        <time>2020-10-11T08:47:27.000Z</time>
      </trkpt>
      <trkpt lat="47.27363" lon="-2.32015">
        <ele>2.5999999046326</ele>
        <time>2020-10-11T08:47:28.000Z</time>
      </trkpt>
      <trkpt lat="47.27359" lon="-2.32012">
        <ele>2</ele>
        <time>2020-10-11T08:47:29.000Z</time>
      </trkpt>
      <trkpt lat="47.27357" lon="-2.32012">
        <ele>1.3999999761581</ele>
        <time>2020-10-11T08:47:30.000Z</time>
      </trkpt>
      <trkpt lat="47.27355" lon="-2.32015">
        <ele>0.40000000596046</ele>
        <time>2020-10-11T08:47:31.000Z</time>
      </trkpt>
      <trkpt lat="47.27355" lon="-2.32018">
        <ele>-0.20000000298023</ele>
        <time>2020-10-11T08:47:32.000Z</time>
      </trkpt>
      <trkpt lat="47.27356" lon="-2.32021">
        <ele>-0.60000002384186</ele>
        <time>2020-10-11T08:47:33.000Z</time>
      </trkpt>
      <trkpt lat="47.27359" lon="-2.32024">
        <ele>-1</ele>
        <time>2020-10-11T08:47:34.000Z</time>
      </trkpt>
      <trkpt lat="47.27361" lon="-2.32027">
        <ele>-1.3999999761581</ele>
        <time>2020-10-11T08:47:35.000Z</time>
      </trkpt>
      <trkpt lat="47.27364" lon="-2.32031">
        <ele>-1.7999999523163</ele>
        <time>2020-10-11T08:47:36.000Z</time>
      </trkpt>
      <trkpt lat="47.27368" lon="-2.32035">
        <ele>-2.2000000476837</ele>
        <time>2020-10-11T08:47:37.000Z</time>
      </trkpt>
      <trkpt lat="47.27388" lon="-2.32061">
        <ele>-2.2000000476837</ele>
        <time>2020-10-11T08:47:42.000Z</time>
      </trkpt>
      <trkpt lat="47.27401" lon="-2.32078">
        <ele>-2.2000000476837</ele>
        <time>2020-10-11T08:47:45.000Z</time>
      </trkpt>
      <trkpt lat="47.27406" lon="-2.32095">
        <ele>-2.2000000476837</ele>
        <time>2020-10-11T08:47:47.000Z</time>
      </trkpt>
      <trkpt lat="47.27406" lon="-2.32121">
        <ele>-2.2000000476837</ele>
        <time>2020-10-11T08:47:50.000Z</time>
      </trkpt>
      <trkpt lat="47.27403" lon="-2.32138">
        <ele>-2.2000000476837</ele>
        <time>2020-10-11T08:47:52.000Z</time>
      </trkpt>
      <trkpt lat="47.27399" lon="-2.32167">
        <ele>-2.2000000476837</ele>
        <time>2020-10-11T08:47:55.000Z</time>
      </trkpt>
      <trkpt lat="47.27391" lon="-2.32236">
        <ele>-2.2000000476837</ele>
        <time>2020-10-11T08:48:02.000Z</time>
      </trkpt>
      <trkpt lat="47.27381" lon="-2.32282">
        <ele>-2.2000000476837</ele>
        <time>2020-10-11T08:48:08.000Z</time>
      </trkpt>
      <trkpt lat="47.27379" lon="-2.32289">
        <ele>-1.7999999523163</ele>
        <time>2020-10-11T08:48:09.000Z</time>
      </trkpt>
      <trkpt lat="47.27377" lon="-2.32296">
        <ele>-1.3999999761581</ele>
        <time>2020-10-11T08:48:10.000Z</time>
      </trkpt>
      <trkpt lat="47.27376" lon="-2.32302">
        <ele>-0.80000001192093</ele>
        <time>2020-10-11T08:48:11.000Z</time>
      </trkpt>
      <trkpt lat="47.27375" lon="-2.32309">
        <ele>-0.40000000596046</ele>
        <time>2020-10-11T08:48:12.000Z</time>
      </trkpt>
      <trkpt lat="47.27373" lon="-2.32317">
        <ele>7.6</ele>
        <time>2020-10-11T08:48:13.000Z</time>
      </trkpt>
      <trkpt lat="47.27372" lon="-2.32325">
        <ele>7.6</ele>
        <time>2020-10-11T08:48:14.000Z</time>
      </trkpt>
      <trkpt lat="47.27368" lon="-2.32339">
        <ele>7.6</ele>
        <time>2020-10-11T08:48:16.000Z</time>
      </trkpt>
      <trkpt lat="47.27361" lon="-2.32371">
        <ele>6.6</ele>
        <time>2020-10-11T08:48:20.000Z</time>
      </trkpt>
      <trkpt lat="47.27349" lon="-2.32418">
        <ele>-0.40000000596046</ele>
        <time>2020-10-11T08:48:25.000Z</time>
      </trkpt>
      <trkpt lat="47.27346" lon="-2.32427">
        <ele>-0.80000001192093</ele>
        <time>2020-10-11T08:48:26.000Z</time>
      </trkpt>
      <trkpt lat="47.27343" lon="-2.32436">
        <ele>-1.2000000476837</ele>
        <time>2020-10-11T08:48:27.000Z</time>
      </trkpt>
      <trkpt lat="47.2734" lon="-2.32445">
        <ele>-1.6000000238419</ele>
        <time>2020-10-11T08:48:28.000Z</time>
      </trkpt>
      <trkpt lat="47.27336" lon="-2.32454">
        <ele>-2</ele>
        <time>2020-10-11T08:48:29.000Z</time>
      </trkpt>
      <trkpt lat="47.27329" lon="-2.32469">
        <ele>-2</ele>
        <time>2020-10-11T08:48:31.000Z</time>
      </trkpt>
      <trkpt lat="47.27325" lon="-2.32476">
        <ele>-2</ele>
        <time>2020-10-11T08:48:32.000Z</time>
      </trkpt>
      <trkpt lat="47.27313" lon="-2.32496">
        <ele>-2</ele>
        <time>2020-10-11T08:48:35.000Z</time>
      </trkpt>
      <trkpt lat="47.27306" lon="-2.32509">
        <ele>-2</ele>
        <time>2020-10-11T08:48:37.000Z</time>
      </trkpt>
      <trkpt lat="47.27285" lon="-2.32538">
        <ele>-2</ele>
        <time>2020-10-11T08:48:42.000Z</time>
      </trkpt>
      <trkpt lat="47.27258" lon="-2.32571">
        <ele>-2</ele>
        <time>2020-10-11T08:48:48.000Z</time>
      </trkpt>
      <trkpt lat="47.2722" lon="-2.32611">
        <ele>-2</ele>
        <time>2020-10-11T08:48:56.000Z</time>
      </trkpt>
      <trkpt lat="47.27191" lon="-2.3264">
        <ele>-1.6000000238419</ele>
        <time>2020-10-11T08:49:02.000Z</time>
      </trkpt>
      <trkpt lat="47.27186" lon="-2.32645">
        <ele>-1.2000000476837</ele>
        <time>2020-10-11T08:49:03.000Z</time>
      </trkpt>
      <trkpt lat="47.27181" lon="-2.32649">
        <ele>-0.80000001192093</ele>
        <time>2020-10-11T08:49:04.000Z</time>
      </trkpt>
      <trkpt lat="47.27176" lon="-2.32654">
        <ele>-0.40000000596046</ele>
        <time>2020-10-11T08:49:05.000Z</time>
      </trkpt>
      <trkpt lat="47.27172" lon="-2.32658">
        <ele>7.8</ele>
        <time>2020-10-11T08:49:06.000Z</time>
      </trkpt>
      <trkpt lat="47.27155" lon="-2.32674">
        <ele>7.3</ele>
        <time>2020-10-11T08:49:10.000Z</time>
      </trkpt>
      <trkpt lat="47.27135" lon="-2.32697">
        <ele>6.5</ele>
        <time>2020-10-11T08:49:15.000Z</time>
      </trkpt>
      <trkpt lat="47.27133" lon="-2.32703">
        <ele>6.6</ele>
        <time>2020-10-11T08:49:16.000Z</time>
      </trkpt>
      <trkpt lat="47.27123" lon="-2.32713">
        <ele>6.2</ele>
        <time>2020-10-11T08:49:19.000Z</time>
      </trkpt>
      <trkpt lat="47.27101" lon="-2.32732">
        <ele>5.6</ele>
        <time>2020-10-11T08:49:24.000Z</time>
      </trkpt>
      <trkpt lat="47.27064" lon="-2.32766">
        <ele>5.3</ele>
        <time>2020-10-11T08:49:31.000Z</time>
      </trkpt>
      <trkpt lat="47.27016" lon="-2.32811">
        <ele>4.9</ele>
        <time>2020-10-11T08:49:40.000Z</time>
      </trkpt>
      <trkpt lat="47.27011" lon="-2.32816">
        <ele>-0.40000000596046</ele>
        <time>2020-10-11T08:49:41.000Z</time>
      </trkpt>
      <trkpt lat="47.27006" lon="-2.3282">
        <ele>-0.80000001192093</ele>
        <time>2020-10-11T08:49:42.000Z</time>
      </trkpt>
      <trkpt lat="47.27" lon="-2.32825">
        <ele>-1.2000000476837</ele>
        <time>2020-10-11T08:49:43.000Z</time>
      </trkpt>
      <trkpt lat="47.26995" lon="-2.3283">
        <ele>-1.6000000238419</ele>
        <time>2020-10-11T08:49:44.000Z</time>
      </trkpt>
      <trkpt lat="47.2699" lon="-2.32835">
        <ele>-2</ele>
        <time>2020-10-11T08:49:45.000Z</time>
      </trkpt>
      <trkpt lat="47.2698" lon="-2.32844">
        <ele>-2</ele>
        <time>2020-10-11T08:49:47.000Z</time>
      </trkpt>
      <trkpt lat="47.26947" lon="-2.32874">
        <ele>-2</ele>
        <time>2020-10-11T08:49:54.000Z</time>
      </trkpt>
      <trkpt lat="47.26905" lon="-2.32913">
        <ele>-2</ele>
        <time>2020-10-11T08:50:03.000Z</time>
      </trkpt>
      <trkpt lat="47.26867" lon="-2.32947">
        <ele>-2</ele>
        <time>2020-10-11T08:50:11.000Z</time>
      </trkpt>
      <trkpt lat="47.26839" lon="-2.32974">
        <ele>-2</ele>
        <time>2020-10-11T08:50:17.000Z</time>
      </trkpt>
      <trkpt lat="47.2681" lon="-2.33001">
        <ele>-2</ele>
        <time>2020-10-11T08:50:23.000Z</time>
      </trkpt>
      <trkpt lat="47.26776" lon="-2.33036">
        <ele>-2</ele>
        <time>2020-10-11T08:50:30.000Z</time>
      </trkpt>
      <trkpt lat="47.26756" lon="-2.33056">
        <ele>-2.4000000953674</ele>
        <time>2020-10-11T08:50:35.000Z</time>
      </trkpt>
      <trkpt lat="47.26752" lon="-2.33059">
        <ele>-2.7999999523163</ele>
        <time>2020-10-11T08:50:36.000Z</time>
      </trkpt>
      <trkpt lat="47.2675" lon="-2.33061">
        <ele>-3.2000000476837</ele>
        <time>2020-10-11T08:50:37.000Z</time>
      </trkpt>
      <trkpt lat="47.26748" lon="-2.33063">
        <ele>-3.5999999046326</ele>
        <time>2020-10-11T08:50:38.000Z</time>
      </trkpt>
      <trkpt lat="47.26747" lon="-2.33064">
        <ele>-4</ele>
        <time>2020-10-11T08:50:39.000Z</time>
      </trkpt>
      <trkpt lat="47.26745" lon="-2.33065">
        <ele>-4</ele>
        <time>2020-10-11T08:50:40.000Z</time>
      </trkpt>
      <trkpt lat="47.26744" lon="-2.33065">
        <ele>-4</ele>
        <time>2020-10-11T08:50:41.000Z</time>
      </trkpt>
      <trkpt lat="47.26736" lon="-2.3306">
        <ele>-4</ele>
        <time>2020-10-11T08:50:44.000Z</time>
      </trkpt>
      <trkpt lat="47.26733" lon="-2.33046">
        <ele>-4</ele>
        <time>2020-10-11T08:50:47.000Z</time>
      </trkpt>
      <trkpt lat="47.26735" lon="-2.33024">
        <ele>-4</ele>
        <time>2020-10-11T08:50:51.000Z</time>
      </trkpt>
      <trkpt lat="47.26735" lon="-2.33018">
        <ele>-4</ele>
        <time>2020-10-11T08:50:52.000Z</time>
      </trkpt>
      <trkpt lat="47.26735" lon="-2.33011">
        <ele>-4</ele>
        <time>2020-10-11T08:50:53.000Z</time>
      </trkpt>
      <trkpt lat="47.26739" lon="-2.32989">
        <ele>-4</ele>
        <time>2020-10-11T08:50:56.000Z</time>
      </trkpt>
      <trkpt lat="47.26753" lon="-2.32963">
        <ele>-4</ele>
        <time>2020-10-11T08:51:00.000Z</time>
      </trkpt>
      <trkpt lat="47.26763" lon="-2.32953">
        <ele>-4</ele>
        <time>2020-10-11T08:51:02.000Z</time>
      </trkpt>
      <trkpt lat="47.26778" lon="-2.32936">
        <ele>-4</ele>
        <time>2020-10-11T08:51:05.000Z</time>
      </trkpt>
      <trkpt lat="47.26783" lon="-2.3293">
        <ele>-4</ele>
        <time>2020-10-11T08:51:06.000Z</time>
      </trkpt>
      <trkpt lat="47.26788" lon="-2.32925">
        <ele>-4</ele>
        <time>2020-10-11T08:51:07.000Z</time>
      </trkpt>
      <trkpt lat="47.26806" lon="-2.32912">
        <ele>-4</ele>
        <time>2020-10-11T08:51:10.000Z</time>
      </trkpt>
      <trkpt lat="47.26817" lon="-2.32904">
        <ele>-4</ele>
        <time>2020-10-11T08:51:12.000Z</time>
      </trkpt>
      <trkpt lat="47.26839" lon="-2.32886">
        <ele>-4</ele>
        <time>2020-10-11T08:51:16.000Z</time>
      </trkpt>
      <trkpt lat="47.26855" lon="-2.32879">
        <ele>-4</ele>
        <time>2020-10-11T08:51:19.000Z</time>
      </trkpt>
      <trkpt lat="47.2686" lon="-2.32877">
        <ele>-4</ele>
        <time>2020-10-11T08:51:20.000Z</time>
      </trkpt>
      <trkpt lat="47.26865" lon="-2.32866">
        <ele>-4</ele>
        <time>2020-10-11T08:51:22.000Z</time>
      </trkpt>
      <trkpt lat="47.26861" lon="-2.32849">
        <ele>-4</ele>
        <time>2020-10-11T08:51:25.000Z</time>
      </trkpt>
      <trkpt lat="47.26858" lon="-2.32844">
        <ele>-4</ele>
        <time>2020-10-11T08:51:26.000Z</time>
      </trkpt>
      <trkpt lat="47.26851" lon="-2.32826">
        <ele>-4</ele>
        <time>2020-10-11T08:51:30.000Z</time>
      </trkpt>
      <trkpt lat="47.2685" lon="-2.32822">
        <ele>-3.5999999046326</ele>
        <time>2020-10-11T08:51:31.000Z</time>
      </trkpt>
      <trkpt lat="47.26848" lon="-2.32818">
        <ele>-3.2000000476837</ele>
        <time>2020-10-11T08:51:32.000Z</time>
      </trkpt>
      <trkpt lat="47.26847" lon="-2.32814">
        <ele>-2.7999999523163</ele>
        <time>2020-10-11T08:51:33.000Z</time>
      </trkpt>
      <trkpt lat="47.26846" lon="-2.32811">
        <ele>-2.2000000476837</ele>
        <time>2020-10-11T08:51:34.000Z</time>
      </trkpt>
      <trkpt lat="47.26845" lon="-2.32807">
        <ele>-1.7999999523163</ele>
        <time>2020-10-11T08:51:35.000Z</time>
      </trkpt>
      <trkpt lat="47.26843" lon="-2.328">
        <ele>-1</ele>
        <time>2020-10-11T08:51:37.000Z</time>
      </trkpt>
      <trkpt lat="47.26842" lon="-2.32796">
        <ele>-0.40000000596046</ele>
        <time>2020-10-11T08:51:38.000Z</time>
      </trkpt>
      <trkpt lat="47.26841" lon="-2.32792">
        <ele>11.7</ele>
        <time>2020-10-11T08:51:39.000Z</time>
      </trkpt>
      <trkpt lat="47.26839" lon="-2.32788">
        <ele>0.40000000596046</ele>
        <time>2020-10-11T08:51:40.000Z</time>
      </trkpt>
      <trkpt lat="47.26837" lon="-2.32778">
        <ele>0.80000001192093</ele>
        <time>2020-10-11T08:51:43.000Z</time>
      </trkpt>
      <trkpt lat="47.26836" lon="-2.32774">
        <ele>1.2000000476837</ele>
        <time>2020-10-11T08:51:44.000Z</time>
      </trkpt>
      <trkpt lat="47.26835" lon="-2.32771">
        <ele>1.6000000238419</ele>
        <time>2020-10-11T08:51:45.000Z</time>
      </trkpt>
      <trkpt lat="47.26834" lon="-2.32767">
        <ele>2</ele>
        <time>2020-10-11T08:51:46.000Z</time>
      </trkpt>
      <trkpt lat="47.26833" lon="-2.32764">
        <ele>2.4000000953674</ele>
        <time>2020-10-11T08:51:47.000Z</time>
      </trkpt>
      <trkpt lat="47.26829" lon="-2.32752">
        <ele>2.7999999523163</ele>
        <time>2020-10-11T08:51:50.000Z</time>
      </trkpt>
      <trkpt lat="47.26827" lon="-2.32749">
        <ele>3.2000000476837</ele>
        <time>2020-10-11T08:51:51.000Z</time>
      </trkpt>
      <trkpt lat="47.26826" lon="-2.32746">
        <ele>3.5999999046326</ele>
        <time>2020-10-11T08:51:52.000Z</time>
      </trkpt>
      <trkpt lat="47.26825" lon="-2.32743">
        <ele>4.1999998092651</ele>
        <time>2020-10-11T08:51:53.000Z</time>
      </trkpt>
      <trkpt lat="47.26823" lon="-2.32739">
        <ele>4.5999999046326</ele>
        <time>2020-10-11T08:51:54.000Z</time>
      </trkpt>
      <trkpt lat="47.2682" lon="-2.32732">
        <ele>4.5999999046326</ele>
        <time>2020-10-11T08:51:56.000Z</time>
      </trkpt>
      <trkpt lat="47.26817" lon="-2.32724">
        <ele>5</ele>
        <time>2020-10-11T08:51:58.000Z</time>
      </trkpt>
      <trkpt lat="47.26815" lon="-2.3272">
        <ele>5.4000000953674</ele>
        <time>2020-10-11T08:51:59.000Z</time>
      </trkpt>
      <trkpt lat="47.26813" lon="-2.32716">
        <ele>5.8000001907349</ele>
        <time>2020-10-11T08:52:00.000Z</time>
      </trkpt>
      <trkpt lat="47.26811" lon="-2.32713">
        <ele>6.5999999046326</ele>
        <time>2020-10-11T08:52:01.000Z</time>
      </trkpt>
      <trkpt lat="47.26807" lon="-2.32705">
        <ele>6.5999999046326</ele>
        <time>2020-10-11T08:52:03.000Z</time>
      </trkpt>
      <trkpt lat="47.26802" lon="-2.32682">
        <ele>6.5999999046326</ele>
        <time>2020-10-11T08:52:08.000Z</time>
      </trkpt>
      <trkpt lat="47.26809" lon="-2.32658">
        <ele>6.5999999046326</ele>
        <time>2020-10-11T08:52:13.000Z</time>
      </trkpt>
      <trkpt lat="47.26808" lon="-2.32638">
        <ele>6.5999999046326</ele>
        <time>2020-10-11T08:52:16.000Z</time>
      </trkpt>
      <trkpt lat="47.26807" lon="-2.32631">
        <ele>6.5999999046326</ele>
        <time>2020-10-11T08:52:17.000Z</time>
      </trkpt>
      <trkpt lat="47.26803" lon="-2.32595">
        <ele>6.5999999046326</ele>
        <time>2020-10-11T08:52:22.000Z</time>
      </trkpt>
      <trkpt lat="47.26802" lon="-2.32588">
        <ele>6.5999999046326</ele>
        <time>2020-10-11T08:52:23.000Z</time>
      </trkpt>
      <trkpt lat="47.26801" lon="-2.3258">
        <ele>6.5999999046326</ele>
        <time>2020-10-11T08:52:24.000Z</time>
      </trkpt>
      <trkpt lat="47.26799" lon="-2.32549">
        <ele>6.5999999046326</ele>
        <time>2020-10-11T08:52:28.000Z</time>
      </trkpt>
      <trkpt lat="47.26798" lon="-2.32535">
        <ele>6.5999999046326</ele>
        <time>2020-10-11T08:52:30.000Z</time>
      </trkpt>
      <trkpt lat="47.26796" lon="-2.32514">
        <ele>6.5999999046326</ele>
        <time>2020-10-11T08:52:33.000Z</time>
      </trkpt>
      <trkpt lat="47.26796" lon="-2.32501">
        <ele>7</ele>
        <time>2020-10-11T08:52:35.000Z</time>
      </trkpt>
      <trkpt lat="47.26795" lon="-2.32494">
        <ele>7.4000000953674</ele>
        <time>2020-10-11T08:52:36.000Z</time>
      </trkpt>
      <trkpt lat="47.26794" lon="-2.32487">
        <ele>7.8000001907349</ele>
        <time>2020-10-11T08:52:37.000Z</time>
      </trkpt>
      <trkpt lat="47.26794" lon="-2.3248">
        <ele>8.1999998092651</ele>
        <time>2020-10-11T08:52:38.000Z</time>
      </trkpt>
      <trkpt lat="47.26793" lon="-2.32473">
        <ele>8.8000001907349</ele>
        <time>2020-10-11T08:52:39.000Z</time>
      </trkpt>
      <trkpt lat="47.26785" lon="-2.32416">
        <ele>8.8000001907349</ele>
        <time>2020-10-11T08:52:47.000Z</time>
      </trkpt>
      <trkpt lat="47.26779" lon="-2.32384">
        <ele>8.8000001907349</ele>
        <time>2020-10-11T08:52:52.000Z</time>
      </trkpt>
      <trkpt lat="47.26778" lon="-2.32377">
        <ele>8.8000001907349</ele>
        <time>2020-10-11T08:52:53.000Z</time>
      </trkpt>
      <trkpt lat="47.26787" lon="-2.32363">
        <ele>8.8000001907349</ele>
        <time>2020-10-11T08:52:56.000Z</time>
      </trkpt>
      <trkpt lat="47.26798" lon="-2.32358">
        <ele>8.8000001907349</ele>
        <time>2020-10-11T08:52:58.000Z</time>
      </trkpt>
      <trkpt lat="47.26811" lon="-2.32354">
        <ele>8.8000001907349</ele>
        <time>2020-10-11T08:53:00.000Z</time>
      </trkpt>
      <trkpt lat="47.26856" lon="-2.32341">
        <ele>8.8000001907349</ele>
        <time>2020-10-11T08:53:06.000Z</time>
      </trkpt>
      <trkpt lat="47.26865" lon="-2.32339">
        <ele>8.1999998092651</ele>
        <time>2020-10-11T08:53:07.000Z</time>
      </trkpt>
      <trkpt lat="47.26873" lon="-2.32337">
        <ele>7.8000001907349</ele>
        <time>2020-10-11T08:53:08.000Z</time>
      </trkpt>
      <trkpt lat="47.26881" lon="-2.32336">
        <ele>7.1999998092651</ele>
        <time>2020-10-11T08:53:09.000Z</time>
      </trkpt>
      <trkpt lat="47.2689" lon="-2.32334">
        <ele>6.8000001907349</ele>
        <time>2020-10-11T08:53:10.000Z</time>
      </trkpt>
      <trkpt lat="47.26897" lon="-2.32333">
        <ele>6.1999998092651</ele>
        <time>2020-10-11T08:53:11.000Z</time>
      </trkpt>
      <trkpt lat="47.26904" lon="-2.32333">
        <ele>5.8000001907349</ele>
        <time>2020-10-11T08:53:12.000Z</time>
      </trkpt>
      <trkpt lat="47.26911" lon="-2.32332">
        <ele>5.1999998092651</ele>
        <time>2020-10-11T08:53:13.000Z</time>
      </trkpt>
      <trkpt lat="47.26917" lon="-2.32333">
        <ele>4.5999999046326</ele>
        <time>2020-10-11T08:53:14.000Z</time>
      </trkpt>
      <trkpt lat="47.26922" lon="-2.32337">
        <ele>4</ele>
        <time>2020-10-11T08:53:15.000Z</time>
      </trkpt>
      <trkpt lat="47.26927" lon="-2.32343">
        <ele>2.5999999046326</ele>
        <time>2020-10-11T08:53:16.000Z</time>
      </trkpt>
      <trkpt lat="47.26932" lon="-2.3235">
        <ele>2</ele>
        <time>2020-10-11T08:53:17.000Z</time>
      </trkpt>
      <trkpt lat="47.26935" lon="-2.32357">
        <ele>1.3999999761581</ele>
        <time>2020-10-11T08:53:18.000Z</time>
      </trkpt>
      <trkpt lat="47.26938" lon="-2.32367">
        <ele>0.80000001192093</ele>
        <time>2020-10-11T08:53:19.000Z</time>
      </trkpt>
      <trkpt lat="47.26941" lon="-2.32376">
        <ele>0.40000000596046</ele>
        <time>2020-10-11T08:53:20.000Z</time>
      </trkpt>
      <trkpt lat="47.26943" lon="-2.32386">
        <ele>-0.20000000298023</ele>
        <time>2020-10-11T08:53:21.000Z</time>
      </trkpt>
      <trkpt lat="47.2696" lon="-2.3243">
        <ele>-0.20000000298023</ele>
        <time>2020-10-11T08:53:26.000Z</time>
      </trkpt>
      <trkpt lat="47.26985" lon="-2.32465">
        <ele>-0.20000000298023</ele>
        <time>2020-10-11T08:53:31.000Z</time>
      </trkpt>
      <trkpt lat="47.26989" lon="-2.32474">
        <ele>-0.20000000298023</ele>
        <time>2020-10-11T08:53:32.000Z</time>
      </trkpt>
      <trkpt lat="47.27003" lon="-2.32504">
        <ele>-0.20000000298023</ele>
        <time>2020-10-11T08:53:36.000Z</time>
      </trkpt>
      <trkpt lat="47.27008" lon="-2.32507">
        <ele>-0.60000002384186</ele>
        <time>2020-10-11T08:53:37.000Z</time>
      </trkpt>
      <trkpt lat="47.27014" lon="-2.32506">
        <ele>-1</ele>
        <time>2020-10-11T08:53:38.000Z</time>
      </trkpt>
      <trkpt lat="47.27019" lon="-2.32504">
        <ele>-1.3999999761581</ele>
        <time>2020-10-11T08:53:39.000Z</time>
      </trkpt>
      <trkpt lat="47.27025" lon="-2.32499">
        <ele>-2.4000000953674</ele>
        <time>2020-10-11T08:53:40.000Z</time>
      </trkpt>
      <trkpt lat="47.27029" lon="-2.32492">
        <ele>-2.4000000953674</ele>
        <time>2020-10-11T08:53:41.000Z</time>
      </trkpt>
      <trkpt lat="47.27032" lon="-2.32464">
        <ele>-2.4000000953674</ele>
        <time>2020-10-11T08:53:44.000Z</time>
      </trkpt>
      <trkpt lat="47.27033" lon="-2.32454">
        <ele>-2.4000000953674</ele>
        <time>2020-10-11T08:53:45.000Z</time>
      </trkpt>
      <trkpt lat="47.27031" lon="-2.32435">
        <ele>-2.4000000953674</ele>
        <time>2020-10-11T08:53:47.000Z</time>
      </trkpt>
      <trkpt lat="47.27031" lon="-2.32425">
        <ele>-2.4000000953674</ele>
        <time>2020-10-11T08:53:48.000Z</time>
      </trkpt>
      <trkpt lat="47.27024" lon="-2.32356">
        <ele>-2.4000000953674</ele>
        <time>2020-10-11T08:53:55.000Z</time>
      </trkpt>
      <trkpt lat="47.27021" lon="-2.32327">
        <ele>-2.4000000953674</ele>
        <time>2020-10-11T08:53:58.000Z</time>
      </trkpt>
      <trkpt lat="47.2702" lon="-2.32307">
        <ele>-2.4000000953674</ele>
        <time>2020-10-11T08:54:00.000Z</time>
      </trkpt>
      <trkpt lat="47.2702" lon="-2.32261">
        <ele>-2.7999999523163</ele>
        <time>2020-10-11T08:54:05.000Z</time>
      </trkpt>
      <trkpt lat="47.27021" lon="-2.32252">
        <ele>-3.2000000476837</ele>
        <time>2020-10-11T08:54:06.000Z</time>
      </trkpt>
      <trkpt lat="47.27021" lon="-2.32243">
        <ele>-3.5999999046326</ele>
        <time>2020-10-11T08:54:07.000Z</time>
      </trkpt>
      <trkpt lat="47.27021" lon="-2.32234">
        <ele>-4</ele>
        <time>2020-10-11T08:54:08.000Z</time>
      </trkpt>
      <trkpt lat="47.2702" lon="-2.32226">
        <ele>-4.4000000953674</ele>
        <time>2020-10-11T08:54:09.000Z</time>
      </trkpt>
      <trkpt lat="47.27017" lon="-2.3221">
        <ele>-4.4000000953674</ele>
        <time>2020-10-11T08:54:11.000Z</time>
      </trkpt>
      <trkpt lat="47.27013" lon="-2.32194">
        <ele>-4.4000000953674</ele>
        <time>2020-10-11T08:54:13.000Z</time>
      </trkpt>
      <trkpt lat="47.27003" lon="-2.32173">
        <ele>-4.4000000953674</ele>
        <time>2020-10-11T08:54:16.000Z</time>
      </trkpt>
      <trkpt lat="47.2699" lon="-2.32148">
        <ele>-4.4000000953674</ele>
        <time>2020-10-11T08:54:20.000Z</time>
      </trkpt>
      <trkpt lat="47.26996" lon="-2.32131">
        <ele>-4.4000000953674</ele>
        <time>2020-10-11T08:54:23.000Z</time>
      </trkpt>
      <trkpt lat="47.27003" lon="-2.32125">
        <ele>-4.4000000953674</ele>
        <time>2020-10-11T08:54:25.000Z</time>
      </trkpt>
      <trkpt lat="47.27011" lon="-2.32114">
        <ele>-4.4000000953674</ele>
        <time>2020-10-11T08:54:28.000Z</time>
      </trkpt>
      <trkpt lat="47.27014" lon="-2.32085">
        <ele>-4.4000000953674</ele>
        <time>2020-10-11T08:54:33.000Z</time>
      </trkpt>
      <trkpt lat="47.27014" lon="-2.3206">
        <ele>-4</ele>
        <time>2020-10-11T08:54:37.000Z</time>
      </trkpt>
      <trkpt lat="47.27014" lon="-2.32055">
        <ele>-3.4000000953674</ele>
        <time>2020-10-11T08:54:38.000Z</time>
      </trkpt>
      <trkpt lat="47.27014" lon="-2.3205">
        <ele>-3</ele>
        <time>2020-10-11T08:54:39.000Z</time>
      </trkpt>
      <trkpt lat="47.27014" lon="-2.32045">
        <ele>-2.5999999046326</ele>
        <time>2020-10-11T08:54:40.000Z</time>
      </trkpt>
      <trkpt lat="47.27013" lon="-2.32039">
        <ele>-2.2000000476837</ele>
        <time>2020-10-11T08:54:41.000Z</time>
      </trkpt>
      <trkpt lat="47.2701" lon="-2.32015">
        <ele>-2.2000000476837</ele>
        <time>2020-10-11T08:54:46.000Z</time>
      </trkpt>
      <trkpt lat="47.27007" lon="-2.31999">
        <ele>-1.7999999523163</ele>
        <time>2020-10-11T08:54:49.000Z</time>
      </trkpt>
      <trkpt lat="47.27007" lon="-2.31993">
        <ele>-1.3999999761581</ele>
        <time>2020-10-11T08:54:50.000Z</time>
      </trkpt>
      <trkpt lat="47.27008" lon="-2.31987">
        <ele>-0.80000001192093</ele>
        <time>2020-10-11T08:54:51.000Z</time>
      </trkpt>
      <trkpt lat="47.27011" lon="-2.31984">
        <ele>-0.40000000596046</ele>
        <time>2020-10-11T08:54:52.000Z</time>
      </trkpt>
      <trkpt lat="47.27015" lon="-2.31981">
        <ele>9.3</ele>
        <time>2020-10-11T08:54:53.000Z</time>
      </trkpt>
      <trkpt lat="47.27019" lon="-2.31978">
        <ele>9.3</ele>
        <time>2020-10-11T08:54:54.000Z</time>
      </trkpt>
      <trkpt lat="47.27023" lon="-2.31976">
        <ele>9.2</ele>
        <time>2020-10-11T08:54:55.000Z</time>
      </trkpt>
      <trkpt lat="47.27039" lon="-2.31965">
        <ele>9.8</ele>
        <time>2020-10-11T08:54:59.000Z</time>
      </trkpt>
      <trkpt lat="47.27047" lon="-2.31961">
        <ele>9.6</ele>
        <time>2020-10-11T08:55:01.000Z</time>
      </trkpt>
      <trkpt lat="47.27058" lon="-2.31959">
        <ele>8.9</ele>
        <time>2020-10-11T08:55:03.000Z</time>
      </trkpt>
      <trkpt lat="47.27064" lon="-2.31958">
        <ele>8.7</ele>
        <time>2020-10-11T08:55:04.000Z</time>
      </trkpt>
      <trkpt lat="47.27102" lon="-2.31957">
        <ele>7.7</ele>
        <time>2020-10-11T08:55:10.000Z</time>
      </trkpt>
      <trkpt lat="47.27114" lon="-2.31961">
        <ele>7.4</ele>
        <time>2020-10-11T08:55:12.000Z</time>
      </trkpt>
      <trkpt lat="47.27132" lon="-2.31972">
        <ele>7</ele>
        <time>2020-10-11T08:55:15.000Z</time>
      </trkpt>
      <trkpt lat="47.27138" lon="-2.31977">
        <ele>6.8</ele>
        <time>2020-10-11T08:55:16.000Z</time>
      </trkpt>
      <trkpt lat="47.27142" lon="-2.31981">
        <ele>-0.40000000596046</ele>
        <time>2020-10-11T08:55:17.000Z</time>
      </trkpt>
      <trkpt lat="47.27147" lon="-2.31985">
        <ele>-1</ele>
        <time>2020-10-11T08:55:18.000Z</time>
      </trkpt>
      <trkpt lat="47.27152" lon="-2.3199">
        <ele>-1.3999999761581</ele>
        <time>2020-10-11T08:55:19.000Z</time>
      </trkpt>
      <trkpt lat="47.27157" lon="-2.31993">
        <ele>-2.2000000476837</ele>
        <time>2020-10-11T08:55:20.000Z</time>
      </trkpt>
      <trkpt lat="47.27166" lon="-2.31989">
        <ele>-2.2000000476837</ele>
        <time>2020-10-11T08:55:22.000Z</time>
      </trkpt>
      <trkpt lat="47.27176" lon="-2.31974">
        <ele>-2.2000000476837</ele>
        <time>2020-10-11T08:55:25.000Z</time>
      </trkpt>
      <trkpt lat="47.27179" lon="-2.31969">
        <ele>-2.2000000476837</ele>
        <time>2020-10-11T08:55:26.000Z</time>
      </trkpt>
      <trkpt lat="47.27196" lon="-2.31955">
        <ele>-2.2000000476837</ele>
        <time>2020-10-11T08:55:30.000Z</time>
      </trkpt>
      <trkpt lat="47.27204" lon="-2.31948">
        <ele>-2.2000000476837</ele>
        <time>2020-10-11T08:55:32.000Z</time>
      </trkpt>
      <trkpt lat="47.27209" lon="-2.31938">
        <ele>-2.2000000476837</ele>
        <time>2020-10-11T08:55:34.000Z</time>
      </trkpt>
      <trkpt lat="47.27214" lon="-2.31921">
        <ele>-2.2000000476837</ele>
        <time>2020-10-11T08:55:38.000Z</time>
      </trkpt>
      <trkpt lat="47.27206" lon="-2.31914">
        <ele>-2.2000000476837</ele>
        <time>2020-10-11T08:55:41.000Z</time>
      </trkpt>
      <trkpt lat="47.27194" lon="-2.31901">
        <ele>-2.2000000476837</ele>
        <time>2020-10-11T08:55:44.000Z</time>
      </trkpt>
      <trkpt lat="47.2719" lon="-2.31896">
        <ele>-2.2000000476837</ele>
        <time>2020-10-11T08:55:45.000Z</time>
      </trkpt>
      <trkpt lat="47.27174" lon="-2.31875">
        <ele>-1.7999999523163</ele>
        <time>2020-10-11T08:55:49.000Z</time>
      </trkpt>
      <trkpt lat="47.2717" lon="-2.3187">
        <ele>-1.3999999761581</ele>
        <time>2020-10-11T08:55:50.000Z</time>
      </trkpt>
      <trkpt lat="47.27166" lon="-2.31865">
        <ele>-1</ele>
        <time>2020-10-11T08:55:51.000Z</time>
      </trkpt>
      <trkpt lat="47.27162" lon="-2.31861">
        <ele>-0.60000002384186</ele>
        <time>2020-10-11T08:55:52.000Z</time>
      </trkpt>
      <trkpt lat="47.27159" lon="-2.31856">
        <ele>-0.20000000298023</ele>
        <time>2020-10-11T08:55:53.000Z</time>
      </trkpt>
      <trkpt lat="47.27155" lon="-2.31851">
        <ele>-0.20000000298023</ele>
        <time>2020-10-11T08:55:54.000Z</time>
      </trkpt>
      <trkpt lat="47.2713" lon="-2.31815">
        <ele>-0.20000000298023</ele>
        <time>2020-10-11T08:56:01.000Z</time>
      </trkpt>
      <trkpt lat="47.27114" lon="-2.31794">
        <ele>0.40000000596046</ele>
        <time>2020-10-11T08:56:05.000Z</time>
      </trkpt>
      <trkpt lat="47.2711" lon="-2.3179">
        <ele>0.80000001192093</ele>
        <time>2020-10-11T08:56:06.000Z</time>
      </trkpt>
      <trkpt lat="47.27106" lon="-2.31786">
        <ele>1.2000000476837</ele>
        <time>2020-10-11T08:56:07.000Z</time>
      </trkpt>
      <trkpt lat="47.27102" lon="-2.31782">
        <ele>1.6000000238419</ele>
        <time>2020-10-11T08:56:08.000Z</time>
      </trkpt>
      <trkpt lat="47.27098" lon="-2.31778">
        <ele>2.2000000476837</ele>
        <time>2020-10-11T08:56:09.000Z</time>
      </trkpt>
      <trkpt lat="47.27066" lon="-2.3175">
        <ele>2.2000000476837</ele>
        <time>2020-10-11T08:56:17.000Z</time>
      </trkpt>
      <trkpt lat="47.27062" lon="-2.31747">
        <ele>2.5999999046326</ele>
        <time>2020-10-11T08:56:18.000Z</time>
      </trkpt>
      <trkpt lat="47.27058" lon="-2.31743">
        <ele>3</ele>
        <time>2020-10-11T08:56:19.000Z</time>
      </trkpt>
      <trkpt lat="47.27054" lon="-2.31739">
        <ele>3.4000000953674</ele>
        <time>2020-10-11T08:56:20.000Z</time>
      </trkpt>
      <trkpt lat="47.27051" lon="-2.31735">
        <ele>3.7999999523163</ele>
        <time>2020-10-11T08:56:21.000Z</time>
      </trkpt>
      <trkpt lat="47.27047" lon="-2.31731">
        <ele>4.1999998092651</ele>
        <time>2020-10-11T08:56:22.000Z</time>
      </trkpt>
      <trkpt lat="47.27043" lon="-2.31728">
        <ele>4.1999998092651</ele>
        <time>2020-10-11T08:56:23.000Z</time>
      </trkpt>
      <trkpt lat="47.27027" lon="-2.31709">
        <ele>4.1999998092651</ele>
        <time>2020-10-11T08:56:29.000Z</time>
      </trkpt>
      <trkpt lat="47.27027" lon="-2.31706">
        <ele>4.1999998092651</ele>
        <time>2020-10-11T08:56:30.000Z</time>
      </trkpt>
      <trkpt lat="47.27028" lon="-2.31693">
        <ele>4.1999998092651</ele>
        <time>2020-10-11T08:56:34.000Z</time>
      </trkpt>
      <trkpt lat="47.27031" lon="-2.31681">
        <ele>4.5999999046326</ele>
        <time>2020-10-11T08:56:37.000Z</time>
      </trkpt>
      <trkpt lat="47.27031" lon="-2.31676">
        <ele>5</ele>
        <time>2020-10-11T08:56:38.000Z</time>
      </trkpt>
      <trkpt lat="47.27032" lon="-2.31671">
        <ele>5.5999999046326</ele>
        <time>2020-10-11T08:56:39.000Z</time>
      </trkpt>
      <trkpt lat="47.27032" lon="-2.31667">
        <ele>6</ele>
        <time>2020-10-11T08:56:40.000Z</time>
      </trkpt>
      <trkpt lat="47.27032" lon="-2.31662">
        <ele>6.4000000953674</ele>
        <time>2020-10-11T08:56:41.000Z</time>
      </trkpt>
      <trkpt lat="47.27029" lon="-2.31638">
        <ele>6.4000000953674</ele>
        <time>2020-10-11T08:56:46.000Z</time>
      </trkpt>
      <trkpt lat="47.27026" lon="-2.31618">
        <ele>6.8000001907349</ele>
        <time>2020-10-11T08:56:50.000Z</time>
      </trkpt>
      <trkpt lat="47.27025" lon="-2.31614">
        <ele>7.1999998092651</ele>
        <time>2020-10-11T08:56:51.000Z</time>
      </trkpt>
      <trkpt lat="47.27025" lon="-2.3161">
        <ele>7.5999999046326</ele>
        <time>2020-10-11T08:56:52.000Z</time>
      </trkpt>
      <trkpt lat="47.27025" lon="-2.31606">
        <ele>8</ele>
        <time>2020-10-11T08:56:53.000Z</time>
      </trkpt>
      <trkpt lat="47.27024" lon="-2.31603">
        <ele>8.3999996185303</ele>
        <time>2020-10-11T08:56:54.000Z</time>
      </trkpt>
      <trkpt lat="47.27021" lon="-2.3159">
        <ele>9</ele>
        <time>2020-10-11T08:56:57.000Z</time>
      </trkpt>
      <trkpt lat="47.27019" lon="-2.31586">
        <ele>9.3999996185303</ele>
        <time>2020-10-11T08:56:58.000Z</time>
      </trkpt>
      <trkpt lat="47.27018" lon="-2.31582">
        <ele>10.199999809265</ele>
        <time>2020-10-11T08:56:59.000Z</time>
      </trkpt>
      <trkpt lat="47.27017" lon="-2.31578">
        <ele>10.60000038147</ele>
        <time>2020-10-11T08:57:00.000Z</time>
      </trkpt>
      <trkpt lat="47.27011" lon="-2.31553">
        <ele>10.60000038147</ele>
        <time>2020-10-11T08:57:06.000Z</time>
      </trkpt>
      <trkpt lat="47.2701" lon="-2.31547">
        <ele>11</ele>
        <time>2020-10-11T08:57:07.000Z</time>
      </trkpt>
      <trkpt lat="47.27008" lon="-2.31541">
        <ele>11.60000038147</ele>
        <time>2020-10-11T08:57:08.000Z</time>
      </trkpt>
      <trkpt lat="47.27007" lon="-2.31535">
        <ele>12</ele>
        <time>2020-10-11T08:57:09.000Z</time>
      </trkpt>
      <trkpt lat="47.27005" lon="-2.31529">
        <ele>12.39999961853</ele>
        <time>2020-10-11T08:57:10.000Z</time>
      </trkpt>
      <trkpt lat="47.27004" lon="-2.31524">
        <ele>12.800000190735</ele>
        <time>2020-10-11T08:57:11.000Z</time>
      </trkpt>
      <trkpt lat="47.26998" lon="-2.315">
        <ele>12.800000190735</ele>
        <time>2020-10-11T08:57:17.000Z</time>
      </trkpt>
      <trkpt lat="47.26998" lon="-2.31497">
        <ele>13.199999809265</ele>
        <time>2020-10-11T08:57:18.000Z</time>
      </trkpt>
      <trkpt lat="47.26997" lon="-2.31492">
        <ele>13.800000190735</ele>
        <time>2020-10-11T08:57:19.000Z</time>
      </trkpt>
      <trkpt lat="47.26997" lon="-2.31488">
        <ele>14.199999809265</ele>
        <time>2020-10-11T08:57:20.000Z</time>
      </trkpt>
      <trkpt lat="47.26996" lon="-2.31484">
        <ele>14.60000038147</ele>
        <time>2020-10-11T08:57:21.000Z</time>
      </trkpt>
      <trkpt lat="47.26995" lon="-2.3148">
        <ele>15</ele>
        <time>2020-10-11T08:57:22.000Z</time>
      </trkpt>
      <trkpt lat="47.26994" lon="-2.31476">
        <ele>15</ele>
        <time>2020-10-11T08:57:23.000Z</time>
      </trkpt>
      <trkpt lat="47.26991" lon="-2.31445">
        <ele>15</ele>
        <time>2020-10-11T08:57:29.000Z</time>
      </trkpt>
      <trkpt lat="47.26988" lon="-2.31428">
        <ele>15.39999961853</ele>
        <time>2020-10-11T08:57:32.000Z</time>
      </trkpt>
      <trkpt lat="47.26988" lon="-2.31422">
        <ele>15.800000190735</ele>
        <time>2020-10-11T08:57:33.000Z</time>
      </trkpt>
      <trkpt lat="47.26988" lon="-2.31416">
        <ele>16.200000762939</ele>
        <time>2020-10-11T08:57:34.000Z</time>
      </trkpt>
      <trkpt lat="47.26988" lon="-2.31411">
        <ele>16.60000038147</ele>
        <time>2020-10-11T08:57:35.000Z</time>
      </trkpt>
      <trkpt lat="47.26988" lon="-2.31406">
        <ele>17</ele>
        <time>2020-10-11T08:57:36.000Z</time>
      </trkpt>
      <trkpt lat="47.26987" lon="-2.3138">
        <ele>17</ele>
        <time>2020-10-11T08:57:41.000Z</time>
      </trkpt>
      <trkpt lat="47.26985" lon="-2.31361">
        <ele>17.39999961853</ele>
        <time>2020-10-11T08:57:45.000Z</time>
      </trkpt>
      <trkpt lat="47.26984" lon="-2.31357">
        <ele>17.799999237061</ele>
        <time>2020-10-11T08:57:46.000Z</time>
      </trkpt>
      <trkpt lat="47.26985" lon="-2.31352">
        <ele>18.200000762939</ele>
        <time>2020-10-11T08:57:47.000Z</time>
      </trkpt>
      <trkpt lat="47.26984" lon="-2.31348">
        <ele>19</ele>
        <time>2020-10-11T08:57:48.000Z</time>
      </trkpt>
      <trkpt lat="47.26981" lon="-2.31327">
        <ele>19</ele>
        <time>2020-10-11T08:57:52.000Z</time>
      </trkpt>
      <trkpt lat="47.2698" lon="-2.31292">
        <ele>19</ele>
        <time>2020-10-11T08:57:58.000Z</time>
      </trkpt>
      <trkpt lat="47.26978" lon="-2.31263">
        <ele>19</ele>
        <time>2020-10-11T08:58:02.000Z</time>
      </trkpt>
      <trkpt lat="47.26981" lon="-2.31225">
        <ele>19</ele>
        <time>2020-10-11T08:58:07.000Z</time>
      </trkpt>
      <trkpt lat="47.26989" lon="-2.31174">
        <ele>19</ele>
        <time>2020-10-11T08:58:13.000Z</time>
      </trkpt>
      <trkpt lat="47.26993" lon="-2.31125">
        <ele>19</ele>
        <time>2020-10-11T08:58:18.000Z</time>
      </trkpt>
      <trkpt lat="47.26993" lon="-2.31115">
        <ele>19</ele>
        <time>2020-10-11T08:58:19.000Z</time>
      </trkpt>
      <trkpt lat="47.26991" lon="-2.31082">
        <ele>18.39999961853</ele>
        <time>2020-10-11T08:58:23.000Z</time>
      </trkpt>
      <trkpt lat="47.26993" lon="-2.31076">
        <ele>18</ele>
        <time>2020-10-11T08:58:24.000Z</time>
      </trkpt>
      <trkpt lat="47.26996" lon="-2.3107">
        <ele>17.39999961853</ele>
        <time>2020-10-11T08:58:25.000Z</time>
      </trkpt>
      <trkpt lat="47.27001" lon="-2.31065">
        <ele>17</ele>
        <time>2020-10-11T08:58:26.000Z</time>
      </trkpt>
      <trkpt lat="47.27005" lon="-2.3106">
        <ele>16.39999961853</ele>
        <time>2020-10-11T08:58:27.000Z</time>
      </trkpt>
      <trkpt lat="47.2701" lon="-2.31055">
        <ele>16.39999961853</ele>
        <time>2020-10-11T08:58:28.000Z</time>
      </trkpt>
      <trkpt lat="47.2702" lon="-2.31046">
        <ele>16</ele>
        <time>2020-10-11T08:58:30.000Z</time>
      </trkpt>
      <trkpt lat="47.27025" lon="-2.31041">
        <ele>15.60000038147</ele>
        <time>2020-10-11T08:58:31.000Z</time>
      </trkpt>
      <trkpt lat="47.2703" lon="-2.31037">
        <ele>15.199999809265</ele>
        <time>2020-10-11T08:58:32.000Z</time>
      </trkpt>
      <trkpt lat="47.27035" lon="-2.31032">
        <ele>14.800000190735</ele>
        <time>2020-10-11T08:58:33.000Z</time>
      </trkpt>
      <trkpt lat="47.2704" lon="-2.31027">
        <ele>14.39999961853</ele>
        <time>2020-10-11T08:58:34.000Z</time>
      </trkpt>
      <trkpt lat="47.27054" lon="-2.31012">
        <ele>14.39999961853</ele>
        <time>2020-10-11T08:58:37.000Z</time>
      </trkpt>
      <trkpt lat="47.27058" lon="-2.31007">
        <ele>14</ele>
        <time>2020-10-11T08:58:38.000Z</time>
      </trkpt>
      <trkpt lat="47.27061" lon="-2.31001">
        <ele>13.60000038147</ele>
        <time>2020-10-11T08:58:39.000Z</time>
      </trkpt>
      <trkpt lat="47.27062" lon="-2.30996">
        <ele>13.199999809265</ele>
        <time>2020-10-11T08:58:40.000Z</time>
      </trkpt>
      <trkpt lat="47.27062" lon="-2.30989">
        <ele>12.800000190735</ele>
        <time>2020-10-11T08:58:41.000Z</time>
      </trkpt>
      <trkpt lat="47.27062" lon="-2.30982">
        <ele>12.39999961853</ele>
        <time>2020-10-11T08:58:42.000Z</time>
      </trkpt>
      <trkpt lat="47.27064" lon="-2.30954">
        <ele>12.39999961853</ele>
        <time>2020-10-11T08:58:46.000Z</time>
      </trkpt>
      <trkpt lat="47.27059" lon="-2.30935">
        <ele>12.39999961853</ele>
        <time>2020-10-11T08:58:50.000Z</time>
      </trkpt>
      <trkpt lat="47.27049" lon="-2.30912">
        <ele>12.39999961853</ele>
        <time>2020-10-11T08:58:55.000Z</time>
      </trkpt>
      <trkpt lat="47.27047" lon="-2.30906">
        <ele>12.39999961853</ele>
        <time>2020-10-11T08:58:56.000Z</time>
      </trkpt>
      <trkpt lat="47.27039" lon="-2.30888">
        <ele>12.39999961853</ele>
        <time>2020-10-11T08:58:59.000Z</time>
      </trkpt>
      <trkpt lat="47.2703" lon="-2.30869">
        <ele>12.39999961853</ele>
        <time>2020-10-11T08:59:02.000Z</time>
      </trkpt>
      <trkpt lat="47.2702" lon="-2.30852">
        <ele>12.39999961853</ele>
        <time>2020-10-11T08:59:05.000Z</time>
      </trkpt>
      <trkpt lat="47.27011" lon="-2.30837">
        <ele>12.39999961853</ele>
        <time>2020-10-11T08:59:08.000Z</time>
      </trkpt>
      <trkpt lat="47.27005" lon="-2.30826">
        <ele>12.39999961853</ele>
        <time>2020-10-11T08:59:10.000Z</time>
      </trkpt>
      <trkpt lat="47.27001" lon="-2.30821">
        <ele>12.39999961853</ele>
        <time>2020-10-11T08:59:11.000Z</time>
      </trkpt>
      <trkpt lat="47.26995" lon="-2.30812">
        <ele>12.800000190735</ele>
        <time>2020-10-11T08:59:13.000Z</time>
      </trkpt>
      <trkpt lat="47.26992" lon="-2.30807">
        <ele>13.199999809265</ele>
        <time>2020-10-11T08:59:14.000Z</time>
      </trkpt>
      <trkpt lat="47.26989" lon="-2.30803">
        <ele>13.60000038147</ele>
        <time>2020-10-11T08:59:15.000Z</time>
      </trkpt>
      <trkpt lat="47.26986" lon="-2.30799">
        <ele>14</ele>
        <time>2020-10-11T08:59:16.000Z</time>
      </trkpt>
      <trkpt lat="47.26983" lon="-2.30794">
        <ele>14.39999961853</ele>
        <time>2020-10-11T08:59:17.000Z</time>
      </trkpt>
      <trkpt lat="47.26972" lon="-2.30775">
        <ele>14.39999961853</ele>
        <time>2020-10-11T08:59:21.000Z</time>
      </trkpt>
      <trkpt lat="47.26969" lon="-2.30771">
        <ele>14.39999961853</ele>
        <time>2020-10-11T08:59:22.000Z</time>
      </trkpt>
      <trkpt lat="47.26954" lon="-2.3075">
        <ele>14.800000190735</ele>
        <time>2020-10-11T08:59:27.000Z</time>
      </trkpt>
      <trkpt lat="47.26951" lon="-2.30746">
        <ele>15.199999809265</ele>
        <time>2020-10-11T08:59:28.000Z</time>
      </trkpt>
      <trkpt lat="47.26949" lon="-2.30742">
        <ele>15.60000038147</ele>
        <time>2020-10-11T08:59:29.000Z</time>
      </trkpt>
      <trkpt lat="47.26946" lon="-2.30737">
        <ele>16</ele>
        <time>2020-10-11T08:59:30.000Z</time>
      </trkpt>
      <trkpt lat="47.26943" lon="-2.30733">
        <ele>16.39999961853</ele>
        <time>2020-10-11T08:59:31.000Z</time>
      </trkpt>
      <trkpt lat="47.2693" lon="-2.30713">
        <ele>16.39999961853</ele>
        <time>2020-10-11T08:59:36.000Z</time>
      </trkpt>
      <trkpt lat="47.26922" lon="-2.30701">
        <ele>16.799999237061</ele>
        <time>2020-10-11T08:59:39.000Z</time>
      </trkpt>
      <trkpt lat="47.26919" lon="-2.30697">
        <ele>17.39999961853</ele>
        <time>2020-10-11T08:59:40.000Z</time>
      </trkpt>
      <trkpt lat="47.26916" lon="-2.30693">
        <ele>17.799999237061</ele>
        <time>2020-10-11T08:59:41.000Z</time>
      </trkpt>
      <trkpt lat="47.26914" lon="-2.30689">
        <ele>18.200000762939</ele>
        <time>2020-10-11T08:59:42.000Z</time>
      </trkpt>
      <trkpt lat="47.26911" lon="-2.30685">
        <ele>18.60000038147</ele>
        <time>2020-10-11T08:59:43.000Z</time>
      </trkpt>
      <trkpt lat="47.26892" lon="-2.30668">
        <ele>18.60000038147</ele>
        <time>2020-10-11T08:59:49.000Z</time>
      </trkpt>
      <trkpt lat="47.26884" lon="-2.30679">
        <ele>18.60000038147</ele>
        <time>2020-10-11T08:59:52.000Z</time>
      </trkpt>
      <trkpt lat="47.2687" lon="-2.30701">
        <ele>18.60000038147</ele>
        <time>2020-10-11T08:59:57.000Z</time>
      </trkpt>
      <trkpt lat="47.26859" lon="-2.30722">
        <ele>18.60000038147</ele>
        <time>2020-10-11T09:00:01.000Z</time>
      </trkpt>
      <trkpt lat="47.26852" lon="-2.3074">
        <ele>18.60000038147</ele>
        <time>2020-10-11T09:00:04.000Z</time>
      </trkpt>
      <trkpt lat="47.26833" lon="-2.30785">
        <ele>18.60000038147</ele>
        <time>2020-10-11T09:00:12.000Z</time>
      </trkpt>
      <trkpt lat="47.26815" lon="-2.30802">
        <ele>18.60000038147</ele>
        <time>2020-10-11T09:00:17.000Z</time>
      </trkpt>
      <trkpt lat="47.268" lon="-2.30816">
        <ele>18.60000038147</ele>
        <time>2020-10-11T09:00:21.000Z</time>
      </trkpt>
      <trkpt lat="47.26792" lon="-2.30824">
        <ele>18.60000038147</ele>
        <time>2020-10-11T09:00:23.000Z</time>
      </trkpt>
      <trkpt lat="47.26754" lon="-2.3086">
        <ele>18.60000038147</ele>
        <time>2020-10-11T09:00:32.000Z</time>
      </trkpt>
      <trkpt lat="47.26737" lon="-2.30867">
        <ele>18.60000038147</ele>
        <time>2020-10-11T09:00:36.000Z</time>
      </trkpt>
      <trkpt lat="47.26724" lon="-2.30853">
        <ele>18.60000038147</ele>
        <time>2020-10-11T09:00:39.000Z</time>
      </trkpt>
      <trkpt lat="47.26718" lon="-2.30841">
        <ele>18.60000038147</ele>
        <time>2020-10-11T09:00:41.000Z</time>
      </trkpt>
      <trkpt lat="47.26706" lon="-2.30817">
        <ele>18.60000038147</ele>
        <time>2020-10-11T09:00:45.000Z</time>
      </trkpt>
      <trkpt lat="47.26687" lon="-2.30766">
        <ele>18.60000038147</ele>
        <time>2020-10-11T09:00:52.000Z</time>
      </trkpt>
      <trkpt lat="47.26669" lon="-2.30726">
        <ele>18</ele>
        <time>2020-10-11T09:00:57.000Z</time>
      </trkpt>
      <trkpt lat="47.26666" lon="-2.30718">
        <ele>17.60000038147</ele>
        <time>2020-10-11T09:00:58.000Z</time>
      </trkpt>
      <trkpt lat="47.26663" lon="-2.30711">
        <ele>17.200000762939</ele>
        <time>2020-10-11T09:00:59.000Z</time>
      </trkpt>
      <trkpt lat="47.26661" lon="-2.30705">
        <ele>16.799999237061</ele>
        <time>2020-10-11T09:01:00.000Z</time>
      </trkpt>
      <trkpt lat="47.26659" lon="-2.30699">
        <ele>16.39999961853</ele>
        <time>2020-10-11T09:01:01.000Z</time>
      </trkpt>
      <trkpt lat="47.26656" lon="-2.30694">
        <ele>16.39999961853</ele>
        <time>2020-10-11T09:01:02.000Z</time>
      </trkpt>
      <trkpt lat="47.26654" lon="-2.30693">
        <ele>16.39999961853</ele>
        <time>2020-10-11T09:01:03.000Z</time>
      </trkpt>
      <trkpt lat="47.26648" lon="-2.30702">
        <ele>16.39999961853</ele>
        <time>2020-10-11T09:01:06.000Z</time>
      </trkpt>
      <trkpt lat="47.26646" lon="-2.30706">
        <ele>16.39999961853</ele>
        <time>2020-10-11T09:01:07.000Z</time>
      </trkpt>
      <trkpt lat="47.26638" lon="-2.30723">
        <ele>15.800000190735</ele>
        <time>2020-10-11T09:01:10.000Z</time>
      </trkpt>
      <trkpt lat="47.26634" lon="-2.30727">
        <ele>15.39999961853</ele>
        <time>2020-10-11T09:01:11.000Z</time>
      </trkpt>
      <trkpt lat="47.2663" lon="-2.3073">
        <ele>15</ele>
        <time>2020-10-11T09:01:12.000Z</time>
      </trkpt>
      <trkpt lat="47.26627" lon="-2.30733">
        <ele>14.39999961853</ele>
        <time>2020-10-11T09:01:13.000Z</time>
      </trkpt>
      <trkpt lat="47.26624" lon="-2.30738">
        <ele>14</ele>
        <time>2020-10-11T09:01:14.000Z</time>
      </trkpt>
      <trkpt lat="47.26621" lon="-2.30742">
        <ele>14</ele>
        <time>2020-10-11T09:01:15.000Z</time>
      </trkpt>
      <trkpt lat="47.26617" lon="-2.30756">
        <ele>14</ele>
        <time>2020-10-11T09:01:18.000Z</time>
      </trkpt>
      <trkpt lat="47.26613" lon="-2.30762">
        <ele>14</ele>
        <time>2020-10-11T09:01:20.000Z</time>
      </trkpt>
      <trkpt lat="47.26607" lon="-2.30772">
        <ele>14</ele>
        <time>2020-10-11T09:01:22.000Z</time>
      </trkpt>
      <trkpt lat="47.26589" lon="-2.30795">
        <ele>14</ele>
        <time>2020-10-11T09:01:27.000Z</time>
      </trkpt>
      <trkpt lat="47.26585" lon="-2.30799">
        <ele>13.60000038147</ele>
        <time>2020-10-11T09:01:28.000Z</time>
      </trkpt>
      <trkpt lat="47.26582" lon="-2.30803">
        <ele>13.199999809265</ele>
        <time>2020-10-11T09:01:29.000Z</time>
      </trkpt>
      <trkpt lat="47.26578" lon="-2.30808">
        <ele>12.800000190735</ele>
        <time>2020-10-11T09:01:30.000Z</time>
      </trkpt>
      <trkpt lat="47.26575" lon="-2.30814">
        <ele>12.39999961853</ele>
        <time>2020-10-11T09:01:31.000Z</time>
      </trkpt>
      <trkpt lat="47.26572" lon="-2.30822">
        <ele>12</ele>
        <time>2020-10-11T09:01:32.000Z</time>
      </trkpt>
      <trkpt lat="47.26562" lon="-2.30835">
        <ele>11.60000038147</ele>
        <time>2020-10-11T09:01:35.000Z</time>
      </trkpt>
      <trkpt lat="47.26559" lon="-2.30839">
        <ele>11.199999809265</ele>
        <time>2020-10-11T09:01:36.000Z</time>
      </trkpt>
      <trkpt lat="47.26555" lon="-2.30843">
        <ele>10.800000190735</ele>
        <time>2020-10-11T09:01:37.000Z</time>
      </trkpt>
      <trkpt lat="47.26552" lon="-2.30847">
        <ele>10.39999961853</ele>
        <time>2020-10-11T09:01:38.000Z</time>
      </trkpt>
      <trkpt lat="47.26548" lon="-2.3085">
        <ele>10</ele>
        <time>2020-10-11T09:01:39.000Z</time>
      </trkpt>
      <trkpt lat="47.26544" lon="-2.30856">
        <ele>10</ele>
        <time>2020-10-11T09:01:40.000Z</time>
      </trkpt>
      <trkpt lat="47.26542" lon="-2.30863">
        <ele>10</ele>
        <time>2020-10-11T09:01:41.000Z</time>
      </trkpt>
      <trkpt lat="47.26531" lon="-2.30871">
        <ele>10</ele>
        <time>2020-10-11T09:01:44.000Z</time>
      </trkpt>
      <trkpt lat="47.26529" lon="-2.30874">
        <ele>10</ele>
        <time>2020-10-11T09:01:45.000Z</time>
      </trkpt>
      <trkpt lat="47.26517" lon="-2.30881">
        <ele>9.6000003814697</ele>
        <time>2020-10-11T09:01:49.000Z</time>
      </trkpt>
      <trkpt lat="47.26514" lon="-2.3088">
        <ele>9.1999998092651</ele>
        <time>2020-10-11T09:01:50.000Z</time>
      </trkpt>
      <trkpt lat="47.26512" lon="-2.30878">
        <ele>8.8000001907349</ele>
        <time>2020-10-11T09:01:51.000Z</time>
      </trkpt>
      <trkpt lat="47.2651" lon="-2.30877">
        <ele>8.3999996185303</ele>
        <time>2020-10-11T09:01:52.000Z</time>
      </trkpt>
      <trkpt lat="47.26507" lon="-2.30874">
        <ele>8</ele>
        <time>2020-10-11T09:01:53.000Z</time>
      </trkpt>
      <trkpt lat="47.26502" lon="-2.30867">
        <ele>8.3999996185303</ele>
        <time>2020-10-11T09:01:56.000Z</time>
      </trkpt>
      <trkpt lat="47.26501" lon="-2.30864">
        <ele>8.8000001907349</ele>
        <time>2020-10-11T09:01:57.000Z</time>
      </trkpt>
      <trkpt lat="47.26499" lon="-2.30861">
        <ele>9.3999996185303</ele>
        <time>2020-10-11T09:01:58.000Z</time>
      </trkpt>
      <trkpt lat="47.26497" lon="-2.30858">
        <ele>9.8000001907349</ele>
        <time>2020-10-11T09:01:59.000Z</time>
      </trkpt>
      <trkpt lat="47.26495" lon="-2.30856">
        <ele>10.199999809265</ele>
        <time>2020-10-11T09:02:00.000Z</time>
      </trkpt>
      <trkpt lat="47.26485" lon="-2.30837">
        <ele>10.60000038147</ele>
        <time>2020-10-11T09:02:05.000Z</time>
      </trkpt>
      <trkpt lat="47.26483" lon="-2.30833">
        <ele>11.199999809265</ele>
        <time>2020-10-11T09:02:06.000Z</time>
      </trkpt>
      <trkpt lat="47.26481" lon="-2.30829">
        <ele>11.60000038147</ele>
        <time>2020-10-11T09:02:07.000Z</time>
      </trkpt>
      <trkpt lat="47.2648" lon="-2.30825">
        <ele>12</ele>
        <time>2020-10-11T09:02:08.000Z</time>
      </trkpt>
      <trkpt lat="47.26479" lon="-2.30821">
        <ele>12.39999961853</ele>
        <time>2020-10-11T09:02:09.000Z</time>
      </trkpt>
      <trkpt lat="47.26476" lon="-2.30814">
        <ele>12.39999961853</ele>
        <time>2020-10-11T09:02:11.000Z</time>
      </trkpt>
      <trkpt lat="47.26464" lon="-2.30787">
        <ele>12.39999961853</ele>
        <time>2020-10-11T09:02:17.000Z</time>
      </trkpt>
      <trkpt lat="47.2646" lon="-2.30778">
        <ele>12.800000190735</ele>
        <time>2020-10-11T09:02:19.000Z</time>
      </trkpt>
      <trkpt lat="47.26458" lon="-2.30774">
        <ele>13.60000038147</ele>
        <time>2020-10-11T09:02:20.000Z</time>
      </trkpt>
      <trkpt lat="47.26456" lon="-2.30769">
        <ele>14</ele>
        <time>2020-10-11T09:02:21.000Z</time>
      </trkpt>
      <trkpt lat="47.26454" lon="-2.30765">
        <ele>14.39999961853</ele>
        <time>2020-10-11T09:02:22.000Z</time>
      </trkpt>
      <trkpt lat="47.26452" lon="-2.30761">
        <ele>14.39999961853</ele>
        <time>2020-10-11T09:02:23.000Z</time>
      </trkpt>
      <trkpt lat="47.26437" lon="-2.30729">
        <ele>14.39999961853</ele>
        <time>2020-10-11T09:02:30.000Z</time>
      </trkpt>
      <trkpt lat="47.26431" lon="-2.30716">
        <ele>14.800000190735</ele>
        <time>2020-10-11T09:02:33.000Z</time>
      </trkpt>
      <trkpt lat="47.26429" lon="-2.30712">
        <ele>15.39999961853</ele>
        <time>2020-10-11T09:02:34.000Z</time>
      </trkpt>
      <trkpt lat="47.26427" lon="-2.30708">
        <ele>15.800000190735</ele>
        <time>2020-10-11T09:02:35.000Z</time>
      </trkpt>
      <trkpt lat="47.26425" lon="-2.30703">
        <ele>16.200000762939</ele>
        <time>2020-10-11T09:02:36.000Z</time>
      </trkpt>
      <trkpt lat="47.26423" lon="-2.30699">
        <ele>16.60000038147</ele>
        <time>2020-10-11T09:02:37.000Z</time>
      </trkpt>
      <trkpt lat="47.26415" lon="-2.3069">
        <ele>16.60000038147</ele>
        <time>2020-10-11T09:02:40.000Z</time>
      </trkpt>
      <trkpt lat="47.26395" lon="-2.30674">
        <ele>16.60000038147</ele>
        <time>2020-10-11T09:02:45.000Z</time>
      </trkpt>
      <trkpt lat="47.26374" lon="-2.3065">
        <ele>16.60000038147</ele>
        <time>2020-10-11T09:02:51.000Z</time>
      </trkpt>
      <trkpt lat="47.2636" lon="-2.30624">
        <ele>16.60000038147</ele>
        <time>2020-10-11T09:02:57.000Z</time>
      </trkpt>
      <trkpt lat="47.26347" lon="-2.30593">
        <ele>16.60000038147</ele>
        <time>2020-10-11T09:03:04.000Z</time>
      </trkpt>
      <trkpt lat="47.26347" lon="-2.30585">
        <ele>16.60000038147</ele>
        <time>2020-10-11T09:03:07.000Z</time>
      </trkpt>
      <trkpt lat="47.26347" lon="-2.30576">
        <ele>16.60000038147</ele>
        <time>2020-10-11T09:03:18.000Z</time>
      </trkpt>
      <trkpt lat="47.26343" lon="-2.30556">
        <ele>16.60000038147</ele>
        <time>2020-10-11T09:03:23.000Z</time>
      </trkpt>
      <trkpt lat="47.26338" lon="-2.30532">
        <ele>17</ele>
        <time>2020-10-11T09:03:28.000Z</time>
      </trkpt>
      <trkpt lat="47.26337" lon="-2.30526">
        <ele>17.39999961853</ele>
        <time>2020-10-11T09:03:29.000Z</time>
      </trkpt>
      <trkpt lat="47.26336" lon="-2.3052">
        <ele>17.799999237061</ele>
        <time>2020-10-11T09:03:30.000Z</time>
      </trkpt>
      <trkpt lat="47.26334" lon="-2.30514">
        <ele>18.200000762939</ele>
        <time>2020-10-11T09:03:31.000Z</time>
      </trkpt>
      <trkpt lat="47.26333" lon="-2.30508">
        <ele>18.60000038147</ele>
        <time>2020-10-11T09:03:32.000Z</time>
      </trkpt>
      <trkpt lat="47.2633" lon="-2.30495">
        <ele>18.60000038147</ele>
        <time>2020-10-11T09:03:34.000Z</time>
      </trkpt>
      <trkpt lat="47.26329" lon="-2.30488">
        <ele>18.60000038147</ele>
        <time>2020-10-11T09:03:35.000Z</time>
      </trkpt>
      <trkpt lat="47.26327" lon="-2.3046">
        <ele>18.60000038147</ele>
        <time>2020-10-11T09:03:39.000Z</time>
      </trkpt>
      <trkpt lat="47.26323" lon="-2.30446">
        <ele>18.60000038147</ele>
        <time>2020-10-11T09:03:41.000Z</time>
      </trkpt>
      <trkpt lat="47.2632" lon="-2.30432">
        <ele>18.60000038147</ele>
        <time>2020-10-11T09:03:43.000Z</time>
      </trkpt>
      <trkpt lat="47.26318" lon="-2.30425">
        <ele>18.60000038147</ele>
        <time>2020-10-11T09:03:44.000Z</time>
      </trkpt>
      <trkpt lat="47.26307" lon="-2.30376">
        <ele>18.60000038147</ele>
        <time>2020-10-11T09:03:51.000Z</time>
      </trkpt>
      <trkpt lat="47.26298" lon="-2.30325">
        <ele>18.60000038147</ele>
        <time>2020-10-11T09:03:58.000Z</time>
      </trkpt>
      <trkpt lat="47.26286" lon="-2.3029">
        <ele>18.60000038147</ele>
        <time>2020-10-11T09:04:03.000Z</time>
      </trkpt>
      <trkpt lat="47.26277" lon="-2.30244">
        <ele>18.60000038147</ele>
        <time>2020-10-11T09:04:09.000Z</time>
      </trkpt>
      <trkpt lat="47.26271" lon="-2.30199">
        <ele>18.60000038147</ele>
        <time>2020-10-11T09:04:15.000Z</time>
      </trkpt>
      <trkpt lat="47.26269" lon="-2.30192">
        <ele>18.60000038147</ele>
        <time>2020-10-11T09:04:16.000Z</time>
      </trkpt>
      <trkpt lat="47.26266" lon="-2.30179">
        <ele>18.60000038147</ele>
        <time>2020-10-11T09:04:18.000Z</time>
      </trkpt>
      <trkpt lat="47.26261" lon="-2.30166">
        <ele>18.60000038147</ele>
        <time>2020-10-11T09:04:20.000Z</time>
      </trkpt>
      <trkpt lat="47.26259" lon="-2.30161">
        <ele>18.60000038147</ele>
        <time>2020-10-11T09:04:21.000Z</time>
      </trkpt>
      <trkpt lat="47.26255" lon="-2.3015">
        <ele>19.60000038147</ele>
        <time>2020-10-11T09:04:23.000Z</time>
      </trkpt>
      <trkpt lat="47.26254" lon="-2.30145">
        <ele>20</ele>
        <time>2020-10-11T09:04:24.000Z</time>
      </trkpt>
      <trkpt lat="47.26253" lon="-2.30141">
        <ele>20.39999961853</ele>
        <time>2020-10-11T09:04:25.000Z</time>
      </trkpt>
      <trkpt lat="47.26252" lon="-2.30138">
        <ele>20.799999237061</ele>
        <time>2020-10-11T09:04:26.000Z</time>
      </trkpt>
      <trkpt lat="47.26249" lon="-2.30134">
        <ele>20.799999237061</ele>
        <time>2020-10-11T09:04:28.000Z</time>
      </trkpt>
      <trkpt lat="47.26244" lon="-2.30133">
        <ele>20.799999237061</ele>
        <time>2020-10-11T09:04:30.000Z</time>
      </trkpt>
      <trkpt lat="47.26242" lon="-2.30134">
        <ele>20.799999237061</ele>
        <time>2020-10-11T09:04:31.000Z</time>
      </trkpt>
      <trkpt lat="47.26231" lon="-2.30138">
        <ele>20.799999237061</ele>
        <time>2020-10-11T09:04:34.000Z</time>
      </trkpt>
      <trkpt lat="47.26205" lon="-2.30147">
        <ele>20.799999237061</ele>
        <time>2020-10-11T09:04:39.000Z</time>
      </trkpt>
      <trkpt lat="47.26175" lon="-2.30156">
        <ele>20.799999237061</ele>
        <time>2020-10-11T09:04:46.000Z</time>
      </trkpt>
      <trkpt lat="47.26171" lon="-2.30147">
        <ele>20.39999961853</ele>
        <time>2020-10-11T09:04:49.000Z</time>
      </trkpt>
      <trkpt lat="47.26168" lon="-2.30147">
        <ele>20</ele>
        <time>2020-10-11T09:04:50.000Z</time>
      </trkpt>
      <trkpt lat="47.26165" lon="-2.30148">
        <ele>19.39999961853</ele>
        <time>2020-10-11T09:04:51.000Z</time>
      </trkpt>
      <trkpt lat="47.26161" lon="-2.3015">
        <ele>19</ele>
        <time>2020-10-11T09:04:52.000Z</time>
      </trkpt>
      <trkpt lat="47.26156" lon="-2.30152">
        <ele>18.60000038147</ele>
        <time>2020-10-11T09:04:53.000Z</time>
      </trkpt>
      <trkpt lat="47.26135" lon="-2.30158">
        <ele>18.60000038147</ele>
        <time>2020-10-11T09:04:57.000Z</time>
      </trkpt>
      <trkpt lat="47.26118" lon="-2.30163">
        <ele>18.60000038147</ele>
        <time>2020-10-11T09:05:00.000Z</time>
      </trkpt>
      <trkpt lat="47.26114" lon="-2.30164">
        <ele>18.200000762939</ele>
        <time>2020-10-11T09:05:01.000Z</time>
      </trkpt>
      <trkpt lat="47.2611" lon="-2.30165">
        <ele>17.799999237061</ele>
        <time>2020-10-11T09:05:02.000Z</time>
      </trkpt>
      <trkpt lat="47.26107" lon="-2.30166">
        <ele>17.39999961853</ele>
        <time>2020-10-11T09:05:03.000Z</time>
      </trkpt>
      <trkpt lat="47.26105" lon="-2.30164">
        <ele>17</ele>
        <time>2020-10-11T09:05:04.000Z</time>
      </trkpt>
      <trkpt lat="47.26103" lon="-2.30162">
        <ele>16.60000038147</ele>
        <time>2020-10-11T09:05:05.000Z</time>
      </trkpt>
      <trkpt lat="47.26101" lon="-2.30159">
        <ele>16.200000762939</ele>
        <time>2020-10-11T09:05:06.000Z</time>
      </trkpt>
      <trkpt lat="47.26099" lon="-2.30157">
        <ele>15.800000190735</ele>
        <time>2020-10-11T09:05:07.000Z</time>
      </trkpt>
      <trkpt lat="47.26095" lon="-2.30157">
        <ele>15.199999809265</ele>
        <time>2020-10-11T09:05:08.000Z</time>
      </trkpt>
      <trkpt lat="47.26092" lon="-2.30158">
        <ele>14.800000190735</ele>
        <time>2020-10-11T09:05:09.000Z</time>
      </trkpt>
      <trkpt lat="47.26088" lon="-2.30159">
        <ele>14.39999961853</ele>
        <time>2020-10-11T09:05:10.000Z</time>
      </trkpt>
      <trkpt lat="47.26076" lon="-2.30156">
        <ele>14.39999961853</ele>
        <time>2020-10-11T09:05:13.000Z</time>
      </trkpt>
      <trkpt lat="47.26072" lon="-2.30153">
        <ele>14.39999961853</ele>
        <time>2020-10-11T09:05:14.000Z</time>
      </trkpt>
      <trkpt lat="47.2606" lon="-2.30144">
        <ele>14</ele>
        <time>2020-10-11T09:05:17.000Z</time>
      </trkpt>
      <trkpt lat="47.26055" lon="-2.30145">
        <ele>13.60000038147</ele>
        <time>2020-10-11T09:05:18.000Z</time>
      </trkpt>
      <trkpt lat="47.2605" lon="-2.30146">
        <ele>13.199999809265</ele>
        <time>2020-10-11T09:05:19.000Z</time>
      </trkpt>
      <trkpt lat="47.26045" lon="-2.30147">
        <ele>12.800000190735</ele>
        <time>2020-10-11T09:05:20.000Z</time>
      </trkpt>
      <trkpt lat="47.26039" lon="-2.30146">
        <ele>12.39999961853</ele>
        <time>2020-10-11T09:05:21.000Z</time>
      </trkpt>
      <trkpt lat="47.26029" lon="-2.30142">
        <ele>12.39999961853</ele>
        <time>2020-10-11T09:05:23.000Z</time>
      </trkpt>
      <trkpt lat="47.2602" lon="-2.30137">
        <ele>12.39999961853</ele>
        <time>2020-10-11T09:05:25.000Z</time>
      </trkpt>
      <trkpt lat="47.25998" lon="-2.30138">
        <ele>12.39999961853</ele>
        <time>2020-10-11T09:05:29.000Z</time>
      </trkpt>
      <trkpt lat="47.25993" lon="-2.30137">
        <ele>12</ele>
        <time>2020-10-11T09:05:30.000Z</time>
      </trkpt>
      <trkpt lat="47.25988" lon="-2.30138">
        <ele>11.39999961853</ele>
        <time>2020-10-11T09:05:31.000Z</time>
      </trkpt>
      <trkpt lat="47.25985" lon="-2.30138">
        <ele>11</ele>
        <time>2020-10-11T09:05:32.000Z</time>
      </trkpt>
      <trkpt lat="47.25982" lon="-2.30138">
        <ele>10.60000038147</ele>
        <time>2020-10-11T09:05:33.000Z</time>
      </trkpt>
      <trkpt lat="47.25979" lon="-2.30135">
        <ele>10</ele>
        <time>2020-10-11T09:05:34.000Z</time>
      </trkpt>
      <trkpt lat="47.25975" lon="-2.30123">
        <ele>10</ele>
        <time>2020-10-11T09:05:36.000Z</time>
      </trkpt>
      <trkpt lat="47.25974" lon="-2.30116">
        <ele>9.1999998092651</ele>
        <time>2020-10-11T09:05:37.000Z</time>
      </trkpt>
      <trkpt lat="47.25974" lon="-2.30108">
        <ele>8.8000001907349</ele>
        <time>2020-10-11T09:05:38.000Z</time>
      </trkpt>
      <trkpt lat="47.25974" lon="-2.30099">
        <ele>8.3999996185303</ele>
        <time>2020-10-11T09:05:39.000Z</time>
      </trkpt>
      <trkpt lat="47.25974" lon="-2.30091">
        <ele>8</ele>
        <time>2020-10-11T09:05:40.000Z</time>
      </trkpt>
      <trkpt lat="47.25975" lon="-2.30025">
        <ele>8</ele>
        <time>2020-10-11T09:05:47.000Z</time>
      </trkpt>
      <trkpt lat="47.25975" lon="-2.30016">
        <ele>8.3999996185303</ele>
        <time>2020-10-11T09:05:48.000Z</time>
      </trkpt>
      <trkpt lat="47.25975" lon="-2.30007">
        <ele>8.8000001907349</ele>
        <time>2020-10-11T09:05:49.000Z</time>
      </trkpt>
      <trkpt lat="47.25976" lon="-2.29998">
        <ele>9.1999998092651</ele>
        <time>2020-10-11T09:05:50.000Z</time>
      </trkpt>
      <trkpt lat="47.25977" lon="-2.29989">
        <ele>9.6000003814697</ele>
        <time>2020-10-11T09:05:51.000Z</time>
      </trkpt>
      <trkpt lat="47.25978" lon="-2.29981">
        <ele>10</ele>
        <time>2020-10-11T09:05:52.000Z</time>
      </trkpt>
      <trkpt lat="47.25981" lon="-2.29964">
        <ele>10</ele>
        <time>2020-10-11T09:05:54.000Z</time>
      </trkpt>
      <trkpt lat="47.25985" lon="-2.29948">
        <ele>10</ele>
        <time>2020-10-11T09:05:56.000Z</time>
      </trkpt>
      <trkpt lat="47.25993" lon="-2.29931">
        <ele>10</ele>
        <time>2020-10-11T09:05:59.000Z</time>
      </trkpt>
      <trkpt lat="47.2599" lon="-2.29919">
        <ele>10</ele>
        <time>2020-10-11T09:06:02.000Z</time>
      </trkpt>
      <trkpt lat="47.2598" lon="-2.29905">
        <ele>10</ele>
        <time>2020-10-11T09:06:06.000Z</time>
      </trkpt>
      <trkpt lat="47.25978" lon="-2.299">
        <ele>10</ele>
        <time>2020-10-11T09:06:07.000Z</time>
      </trkpt>
      <trkpt lat="47.25975" lon="-2.29895">
        <ele>10</ele>
        <time>2020-10-11T09:06:08.000Z</time>
      </trkpt>
      <trkpt lat="47.25967" lon="-2.29881">
        <ele>10</ele>
        <time>2020-10-11T09:06:11.000Z</time>
      </trkpt>
      <trkpt lat="47.25961" lon="-2.29872">
        <ele>10</ele>
        <time>2020-10-11T09:06:15.000Z</time>
      </trkpt>
      <trkpt lat="47.25961" lon="-2.29866">
        <ele>10</ele>
        <time>2020-10-11T09:06:19.000Z</time>
      </trkpt>
      <trkpt lat="47.25961" lon="-2.29865">
        <ele>10</ele>
        <time>2020-10-11T09:06:20.000Z</time>
      </trkpt>
      <trkpt lat="47.2596" lon="-2.29861">
        <ele>10</ele>
        <time>2020-10-11T09:06:26.000Z</time>
      </trkpt>
      <trkpt lat="47.25958" lon="-2.29858">
        <ele>10</ele>
        <time>2020-10-11T09:06:27.000Z</time>
      </trkpt>
      <trkpt lat="47.25955" lon="-2.29832">
        <ele>10</ele>
        <time>2020-10-11T09:06:32.000Z</time>
      </trkpt>
      <trkpt lat="47.2595" lon="-2.29811">
        <ele>10</ele>
        <time>2020-10-11T09:06:36.000Z</time>
      </trkpt>
      <trkpt lat="47.25941" lon="-2.29784">
        <ele>10</ele>
        <time>2020-10-11T09:06:42.000Z</time>
      </trkpt>
      <trkpt lat="47.2593" lon="-2.29756">
        <ele>10</ele>
        <time>2020-10-11T09:06:48.000Z</time>
      </trkpt>
      <trkpt lat="47.2593" lon="-2.29753">
        <ele>10</ele>
        <time>2020-10-11T09:06:49.000Z</time>
      </trkpt>
      <trkpt lat="47.25929" lon="-2.29739">
        <ele>10</ele>
        <time>2020-10-11T09:06:52.000Z</time>
      </trkpt>
      <trkpt lat="47.2593" lon="-2.29733">
        <ele>10</ele>
        <time>2020-10-11T09:06:53.000Z</time>
      </trkpt>
      <trkpt lat="47.2593" lon="-2.29723">
        <ele>10.39999961853</ele>
        <time>2020-10-11T09:06:55.000Z</time>
      </trkpt>
      <trkpt lat="47.25932" lon="-2.29716">
        <ele>10.800000190735</ele>
        <time>2020-10-11T09:06:56.000Z</time>
      </trkpt>
      <trkpt lat="47.25933" lon="-2.2971">
        <ele>11.199999809265</ele>
        <time>2020-10-11T09:06:57.000Z</time>
      </trkpt>
      <trkpt lat="47.25934" lon="-2.29704">
        <ele>11.60000038147</ele>
        <time>2020-10-11T09:06:58.000Z</time>
      </trkpt>
      <trkpt lat="47.25934" lon="-2.29699">
        <ele>12</ele>
        <time>2020-10-11T09:06:59.000Z</time>
      </trkpt>
      <trkpt lat="47.25938" lon="-2.29672">
        <ele>12</ele>
        <time>2020-10-11T09:07:03.000Z</time>
      </trkpt>
      <trkpt lat="47.2594" lon="-2.29637">
        <ele>12.39999961853</ele>
        <time>2020-10-11T09:07:09.000Z</time>
      </trkpt>
      <trkpt lat="47.25943" lon="-2.29633">
        <ele>12.800000190735</ele>
        <time>2020-10-11T09:07:10.000Z</time>
      </trkpt>
      <trkpt lat="47.25946" lon="-2.29631">
        <ele>13.39999961853</ele>
        <time>2020-10-11T09:07:11.000Z</time>
      </trkpt>
      <trkpt lat="47.25949" lon="-2.29632">
        <ele>13.800000190735</ele>
        <time>2020-10-11T09:07:12.000Z</time>
      </trkpt>
      <trkpt lat="47.25952" lon="-2.29636">
        <ele>14.199999809265</ele>
        <time>2020-10-11T09:07:13.000Z</time>
      </trkpt>
      <trkpt lat="47.25955" lon="-2.29638">
        <ele>14.199999809265</ele>
        <time>2020-10-11T09:07:14.000Z</time>
      </trkpt>
      <trkpt lat="47.25962" lon="-2.29644">
        <ele>14.199999809265</ele>
        <time>2020-10-11T09:07:16.000Z</time>
      </trkpt>
      <trkpt lat="47.25978" lon="-2.2964">
        <ele>14.199999809265</ele>
        <time>2020-10-11T09:07:20.000Z</time>
      </trkpt>
      <trkpt lat="47.2599" lon="-2.29632">
        <ele>14.199999809265</ele>
        <time>2020-10-11T09:07:23.000Z</time>
      </trkpt>
      <trkpt lat="47.25998" lon="-2.29629">
        <ele>14.199999809265</ele>
        <time>2020-10-11T09:07:25.000Z</time>
      </trkpt>
      <trkpt lat="47.26017" lon="-2.29625">
        <ele>14.199999809265</ele>
        <time>2020-10-11T09:07:30.000Z</time>
      </trkpt>
      <trkpt lat="47.26037" lon="-2.29624">
        <ele>14.199999809265</ele>
        <time>2020-10-11T09:07:35.000Z</time>
      </trkpt>
      <trkpt lat="47.2605" lon="-2.29621">
        <ele>14.199999809265</ele>
        <time>2020-10-11T09:07:40.000Z</time>
      </trkpt>
      <trkpt lat="47.26065" lon="-2.29619">
        <ele>14.199999809265</ele>
        <time>2020-10-11T09:07:46.000Z</time>
      </trkpt>
      <trkpt lat="47.26074" lon="-2.29618">
        <ele>14.60000038147</ele>
        <time>2020-10-11T09:07:50.000Z</time>
      </trkpt>
      <trkpt lat="47.26075" lon="-2.29617">
        <ele>15</ele>
        <time>2020-10-11T09:07:51.000Z</time>
      </trkpt>
      <trkpt lat="47.26077" lon="-2.29616">
        <ele>15.39999961853</ele>
        <time>2020-10-11T09:07:52.000Z</time>
      </trkpt>
      <trkpt lat="47.26079" lon="-2.29615">
        <ele>15.800000190735</ele>
        <time>2020-10-11T09:07:53.000Z</time>
      </trkpt>
      <trkpt lat="47.26081" lon="-2.29614">
        <ele>16.200000762939</ele>
        <time>2020-10-11T09:07:54.000Z</time>
      </trkpt>
      <trkpt lat="47.26093" lon="-2.29612">
        <ele>16.200000762939</ele>
        <time>2020-10-11T09:08:00.000Z</time>
      </trkpt>
      <trkpt lat="47.26094" lon="-2.29611">
        <ele>16.60000038147</ele>
        <time>2020-10-11T09:08:01.000Z</time>
      </trkpt>
      <trkpt lat="47.26096" lon="-2.2961">
        <ele>17</ele>
        <time>2020-10-11T09:08:02.000Z</time>
      </trkpt>
      <trkpt lat="47.26098" lon="-2.29609">
        <ele>17.39999961853</ele>
        <time>2020-10-11T09:08:03.000Z</time>
      </trkpt>
      <trkpt lat="47.261" lon="-2.29608">
        <ele>18</ele>
        <time>2020-10-11T09:08:04.000Z</time>
      </trkpt>
      <trkpt lat="47.26103" lon="-2.29606">
        <ele>18.39999961853</ele>
        <time>2020-10-11T09:08:05.000Z</time>
      </trkpt>
      <trkpt lat="47.2612" lon="-2.296">
        <ele>18.799999237061</ele>
        <time>2020-10-11T09:08:10.000Z</time>
      </trkpt>
      <trkpt lat="47.26123" lon="-2.29597">
        <ele>19.200000762939</ele>
        <time>2020-10-11T09:08:11.000Z</time>
      </trkpt>
      <trkpt lat="47.26126" lon="-2.29595">
        <ele>19.60000038147</ele>
        <time>2020-10-11T09:08:12.000Z</time>
      </trkpt>
      <trkpt lat="47.2613" lon="-2.29593">
        <ele>20</ele>
        <time>2020-10-11T09:08:13.000Z</time>
      </trkpt>
      <trkpt lat="47.26134" lon="-2.29592">
        <ele>20.39999961853</ele>
        <time>2020-10-11T09:08:14.000Z</time>
      </trkpt>
      <trkpt lat="47.26144" lon="-2.29587">
        <ele>20.39999961853</ele>
        <time>2020-10-11T09:08:17.000Z</time>
      </trkpt>
      <trkpt lat="47.26148" lon="-2.29585">
        <ele>20.799999237061</ele>
        <time>2020-10-11T09:08:18.000Z</time>
      </trkpt>
      <trkpt lat="47.26151" lon="-2.29583">
        <ele>21.39999961853</ele>
        <time>2020-10-11T09:08:19.000Z</time>
      </trkpt>
      <trkpt lat="47.26154" lon="-2.29581">
        <ele>21.799999237061</ele>
        <time>2020-10-11T09:08:20.000Z</time>
      </trkpt>
      <trkpt lat="47.26157" lon="-2.2958">
        <ele>22.200000762939</ele>
        <time>2020-10-11T09:08:21.000Z</time>
      </trkpt>
      <trkpt lat="47.2616" lon="-2.29578">
        <ele>22.60000038147</ele>
        <time>2020-10-11T09:08:22.000Z</time>
      </trkpt>
      <trkpt lat="47.2617" lon="-2.29572">
        <ele>22.60000038147</ele>
        <time>2020-10-11T09:08:25.000Z</time>
      </trkpt>
      <trkpt lat="47.26176" lon="-2.29571">
        <ele>23</ele>
        <time>2020-10-11T09:08:27.000Z</time>
      </trkpt>
      <trkpt lat="47.2618" lon="-2.29571">
        <ele>23.39999961853</ele>
        <time>2020-10-11T09:08:28.000Z</time>
      </trkpt>
      <trkpt lat="47.26183" lon="-2.29571">
        <ele>23.799999237061</ele>
        <time>2020-10-11T09:08:29.000Z</time>
      </trkpt>
      <trkpt lat="47.26186" lon="-2.2957">
        <ele>24.200000762939</ele>
        <time>2020-10-11T09:08:30.000Z</time>
      </trkpt>
      <trkpt lat="47.26189" lon="-2.29569">
        <ele>24.60000038147</ele>
        <time>2020-10-11T09:08:31.000Z</time>
      </trkpt>
      <trkpt lat="47.26191" lon="-2.29565">
        <ele>24.60000038147</ele>
        <time>2020-10-11T09:08:32.000Z</time>
      </trkpt>
      <trkpt lat="47.26191" lon="-2.29555">
        <ele>24.60000038147</ele>
        <time>2020-10-11T09:08:34.000Z</time>
      </trkpt>
      <trkpt lat="47.26187" lon="-2.29546">
        <ele>24.60000038147</ele>
        <time>2020-10-11T09:08:36.000Z</time>
      </trkpt>
      <trkpt lat="47.26184" lon="-2.29542">
        <ele>24.60000038147</ele>
        <time>2020-10-11T09:08:37.000Z</time>
      </trkpt>
      <trkpt lat="47.26181" lon="-2.29538">
        <ele>24.60000038147</ele>
        <time>2020-10-11T09:08:38.000Z</time>
      </trkpt>
      <trkpt lat="47.26162" lon="-2.29524">
        <ele>24.60000038147</ele>
        <time>2020-10-11T09:08:42.000Z</time>
      </trkpt>
      <trkpt lat="47.26142" lon="-2.29502">
        <ele>24.60000038147</ele>
        <time>2020-10-11T09:08:46.000Z</time>
      </trkpt>
      <trkpt lat="47.26135" lon="-2.29487">
        <ele>24.60000038147</ele>
        <time>2020-10-11T09:08:48.000Z</time>
      </trkpt>
      <trkpt lat="47.26126" lon="-2.29463">
        <ele>24.60000038147</ele>
        <time>2020-10-11T09:08:51.000Z</time>
      </trkpt>
      <trkpt lat="47.26124" lon="-2.29454">
        <ele>24.60000038147</ele>
        <time>2020-10-11T09:08:52.000Z</time>
      </trkpt>
      <trkpt lat="47.26123" lon="-2.29427">
        <ele>24.60000038147</ele>
        <time>2020-10-11T09:08:55.000Z</time>
      </trkpt>
      <trkpt lat="47.26129" lon="-2.29392">
        <ele>24.60000038147</ele>
        <time>2020-10-11T09:08:59.000Z</time>
      </trkpt>
      <trkpt lat="47.26138" lon="-2.29353">
        <ele>24.60000038147</ele>
        <time>2020-10-11T09:09:04.000Z</time>
      </trkpt>
      <trkpt lat="47.26141" lon="-2.29349">
        <ele>24.60000038147</ele>
        <time>2020-10-11T09:09:05.000Z</time>
      </trkpt>
      <trkpt lat="47.26152" lon="-2.29349">
        <ele>24.60000038147</ele>
        <time>2020-10-11T09:09:08.000Z</time>
      </trkpt>
      <trkpt lat="47.26158" lon="-2.29353">
        <ele>24.60000038147</ele>
        <time>2020-10-11T09:09:10.000Z</time>
      </trkpt>
      <trkpt lat="47.26169" lon="-2.29356">
        <ele>24.60000038147</ele>
        <time>2020-10-11T09:09:13.000Z</time>
      </trkpt>
      <trkpt lat="47.26173" lon="-2.29355">
        <ele>24.60000038147</ele>
        <time>2020-10-11T09:09:14.000Z</time>
      </trkpt>
      <trkpt lat="47.26183" lon="-2.29351">
        <ele>25</ele>
        <time>2020-10-11T09:09:16.000Z</time>
      </trkpt>
      <trkpt lat="47.26187" lon="-2.29349">
        <ele>25.60000038147</ele>
        <time>2020-10-11T09:09:17.000Z</time>
      </trkpt>
      <trkpt lat="47.26192" lon="-2.29346">
        <ele>26</ele>
        <time>2020-10-11T09:09:18.000Z</time>
      </trkpt>
      <trkpt lat="47.26196" lon="-2.29343">
        <ele>26.39999961853</ele>
        <time>2020-10-11T09:09:19.000Z</time>
      </trkpt>
      <trkpt lat="47.262" lon="-2.2934">
        <ele>26.799999237061</ele>
        <time>2020-10-11T09:09:20.000Z</time>
      </trkpt>
      <trkpt lat="47.26214" lon="-2.2933">
        <ele>26.799999237061</ele>
        <time>2020-10-11T09:09:23.000Z</time>
      </trkpt>
      <trkpt lat="47.26236" lon="-2.29314">
        <ele>26.799999237061</ele>
        <time>2020-10-11T09:09:29.000Z</time>
      </trkpt>
      <trkpt lat="47.26241" lon="-2.2931">
        <ele>27.200000762939</ele>
        <time>2020-10-11T09:09:30.000Z</time>
      </trkpt>
      <trkpt lat="47.26245" lon="-2.29307">
        <ele>27.60000038147</ele>
        <time>2020-10-11T09:09:31.000Z</time>
      </trkpt>
      <trkpt lat="47.26249" lon="-2.29304">
        <ele>28</ele>
        <time>2020-10-11T09:09:32.000Z</time>
      </trkpt>
      <trkpt lat="47.26254" lon="-2.293">
        <ele>28.39999961853</ele>
        <time>2020-10-11T09:09:33.000Z</time>
      </trkpt>
      <trkpt lat="47.26258" lon="-2.29297">
        <ele>28.799999237061</ele>
        <time>2020-10-11T09:09:34.000Z</time>
      </trkpt>
      <trkpt lat="47.26273" lon="-2.29289">
        <ele>28.799999237061</ele>
        <time>2020-10-11T09:09:37.000Z</time>
      </trkpt>
      <trkpt lat="47.26286" lon="-2.29281">
        <ele>28.799999237061</ele>
        <time>2020-10-11T09:09:40.000Z</time>
      </trkpt>
      <trkpt lat="47.26294" lon="-2.29279">
        <ele>29.200000762939</ele>
        <time>2020-10-11T09:09:42.000Z</time>
      </trkpt>
      <trkpt lat="47.26299" lon="-2.29277">
        <ele>29.60000038147</ele>
        <time>2020-10-11T09:09:43.000Z</time>
      </trkpt>
      <trkpt lat="47.26303" lon="-2.29276">
        <ele>30</ele>
        <time>2020-10-11T09:09:44.000Z</time>
      </trkpt>
      <trkpt lat="47.26308" lon="-2.29275">
        <ele>30.799999237061</ele>
        <time>2020-10-11T09:09:45.000Z</time>
      </trkpt>
      <trkpt lat="47.26321" lon="-2.29272">
        <ele>30.799999237061</ele>
        <time>2020-10-11T09:09:48.000Z</time>
      </trkpt>
      <trkpt lat="47.26326" lon="-2.29271">
        <ele>30.799999237061</ele>
        <time>2020-10-11T09:09:49.000Z</time>
      </trkpt>
      <trkpt lat="47.26339" lon="-2.29271">
        <ele>30.799999237061</ele>
        <time>2020-10-11T09:09:52.000Z</time>
      </trkpt>
      <trkpt lat="47.26356" lon="-2.29275">
        <ele>30.799999237061</ele>
        <time>2020-10-11T09:09:56.000Z</time>
      </trkpt>
      <trkpt lat="47.26374" lon="-2.29283">
        <ele>30.799999237061</ele>
        <time>2020-10-11T09:10:00.000Z</time>
      </trkpt>
      <trkpt lat="47.26382" lon="-2.29288">
        <ele>30.799999237061</ele>
        <time>2020-10-11T09:10:02.000Z</time>
      </trkpt>
      <trkpt lat="47.26387" lon="-2.2929">
        <ele>31.39999961853</ele>
        <time>2020-10-11T09:10:03.000Z</time>
      </trkpt>
      <trkpt lat="47.26391" lon="-2.29293">
        <ele>31.799999237061</ele>
        <time>2020-10-11T09:10:04.000Z</time>
      </trkpt>
      <trkpt lat="47.26396" lon="-2.29296">
        <ele>32.200000762939</ele>
        <time>2020-10-11T09:10:05.000Z</time>
      </trkpt>
      <trkpt lat="47.26401" lon="-2.29299">
        <ele>32.599998474121</ele>
        <time>2020-10-11T09:10:06.000Z</time>
      </trkpt>
      <trkpt lat="47.26405" lon="-2.29302">
        <ele>33</ele>
        <time>2020-10-11T09:10:07.000Z</time>
      </trkpt>
      <trkpt lat="47.26419" lon="-2.2931">
        <ele>33</ele>
        <time>2020-10-11T09:10:10.000Z</time>
      </trkpt>
      <trkpt lat="47.26454" lon="-2.29329">
        <ele>33</ele>
        <time>2020-10-11T09:10:17.000Z</time>
      </trkpt>
      <trkpt lat="47.26488" lon="-2.2934">
        <ele>33</ele>
        <time>2020-10-11T09:10:24.000Z</time>
      </trkpt>
      <trkpt lat="47.2652" lon="-2.29332">
        <ele>33</ele>
        <time>2020-10-11T09:10:30.000Z</time>
      </trkpt>
      <trkpt lat="47.26552" lon="-2.29313">
        <ele>33</ele>
        <time>2020-10-11T09:10:36.000Z</time>
      </trkpt>
      <trkpt lat="47.26603" lon="-2.29282">
        <ele>33</ele>
        <time>2020-10-11T09:10:45.000Z</time>
      </trkpt>
      <trkpt lat="47.26643" lon="-2.29255">
        <ele>33</ele>
        <time>2020-10-11T09:10:52.000Z</time>
      </trkpt>
      <trkpt lat="47.26672" lon="-2.29228">
        <ele>32.599998474121</ele>
        <time>2020-10-11T09:10:57.000Z</time>
      </trkpt>
      <trkpt lat="47.26677" lon="-2.29223">
        <ele>31.799999237061</ele>
        <time>2020-10-11T09:10:58.000Z</time>
      </trkpt>
      <trkpt lat="47.26683" lon="-2.29217">
        <ele>31.39999961853</ele>
        <time>2020-10-11T09:10:59.000Z</time>
      </trkpt>
      <trkpt lat="47.26689" lon="-2.29211">
        <ele>31</ele>
        <time>2020-10-11T09:11:00.000Z</time>
      </trkpt>
      <trkpt lat="47.2673" lon="-2.2917">
        <ele>31</ele>
        <time>2020-10-11T09:11:07.000Z</time>
      </trkpt>
      <trkpt lat="47.26741" lon="-2.29158">
        <ele>30.60000038147</ele>
        <time>2020-10-11T09:11:09.000Z</time>
      </trkpt>
      <trkpt lat="47.26748" lon="-2.29152">
        <ele>30.200000762939</ele>
        <time>2020-10-11T09:11:10.000Z</time>
      </trkpt>
      <trkpt lat="47.26753" lon="-2.29146">
        <ele>29.799999237061</ele>
        <time>2020-10-11T09:11:11.000Z</time>
      </trkpt>
      <trkpt lat="47.2676" lon="-2.2914">
        <ele>29.39999961853</ele>
        <time>2020-10-11T09:11:12.000Z</time>
      </trkpt>
      <trkpt lat="47.26766" lon="-2.29134">
        <ele>29</ele>
        <time>2020-10-11T09:11:13.000Z</time>
      </trkpt>
      <trkpt lat="47.26791" lon="-2.29108">
        <ele>28.60000038147</ele>
        <time>2020-10-11T09:11:17.000Z</time>
      </trkpt>
      <trkpt lat="47.26797" lon="-2.29102">
        <ele>28</ele>
        <time>2020-10-11T09:11:18.000Z</time>
      </trkpt>
      <trkpt lat="47.26804" lon="-2.29095">
        <ele>27.60000038147</ele>
        <time>2020-10-11T09:11:19.000Z</time>
      </trkpt>
      <trkpt lat="47.2681" lon="-2.29089">
        <ele>27.200000762939</ele>
        <time>2020-10-11T09:11:20.000Z</time>
      </trkpt>
      <trkpt lat="47.26817" lon="-2.29083">
        <ele>26.799999237061</ele>
        <time>2020-10-11T09:11:21.000Z</time>
      </trkpt>
      <trkpt lat="47.26843" lon="-2.29058">
        <ele>26.799999237061</ele>
        <time>2020-10-11T09:11:25.000Z</time>
      </trkpt>
      <trkpt lat="47.26863" lon="-2.2904">
        <ele>26.200000762939</ele>
        <time>2020-10-11T09:11:28.000Z</time>
      </trkpt>
      <trkpt lat="47.2687" lon="-2.29034">
        <ele>25.799999237061</ele>
        <time>2020-10-11T09:11:29.000Z</time>
      </trkpt>
      <trkpt lat="47.26876" lon="-2.29028">
        <ele>25.39999961853</ele>
        <time>2020-10-11T09:11:30.000Z</time>
      </trkpt>
      <trkpt lat="47.26882" lon="-2.29022">
        <ele>25</ele>
        <time>2020-10-11T09:11:31.000Z</time>
      </trkpt>
      <trkpt lat="47.26888" lon="-2.29015">
        <ele>24.60000038147</ele>
        <time>2020-10-11T09:11:32.000Z</time>
      </trkpt>
      <trkpt lat="47.26894" lon="-2.29011">
        <ele>24.60000038147</ele>
        <time>2020-10-11T09:11:33.000Z</time>
      </trkpt>
      <trkpt lat="47.26912" lon="-2.28998">
        <ele>24.60000038147</ele>
        <time>2020-10-11T09:11:36.000Z</time>
      </trkpt>
      <trkpt lat="47.26945" lon="-2.28985">
        <ele>24.60000038147</ele>
        <time>2020-10-11T09:11:41.000Z</time>
      </trkpt>
      <trkpt lat="47.26964" lon="-2.28988">
        <ele>24.60000038147</ele>
        <time>2020-10-11T09:11:44.000Z</time>
      </trkpt>
      <trkpt lat="47.26971" lon="-2.2899">
        <ele>24.60000038147</ele>
        <time>2020-10-11T09:11:45.000Z</time>
      </trkpt>
      <trkpt lat="47.26992" lon="-2.28995">
        <ele>24.200000762939</ele>
        <time>2020-10-11T09:11:48.000Z</time>
      </trkpt>
      <trkpt lat="47.26999" lon="-2.28997">
        <ele>23.799999237061</ele>
        <time>2020-10-11T09:11:49.000Z</time>
      </trkpt>
      <trkpt lat="47.27005" lon="-2.28999">
        <ele>23.39999961853</ele>
        <time>2020-10-11T09:11:50.000Z</time>
      </trkpt>
      <trkpt lat="47.27012" lon="-2.29001">
        <ele>23</ele>
        <time>2020-10-11T09:11:51.000Z</time>
      </trkpt>
      <trkpt lat="47.27018" lon="-2.29003">
        <ele>22.60000038147</ele>
        <time>2020-10-11T09:11:52.000Z</time>
      </trkpt>
      <trkpt lat="47.27035" lon="-2.2901">
        <ele>22.60000038147</ele>
        <time>2020-10-11T09:11:55.000Z</time>
      </trkpt>
      <trkpt lat="47.27044" lon="-2.29022">
        <ele>22.60000038147</ele>
        <time>2020-10-11T09:11:57.000Z</time>
      </trkpt>
      <trkpt lat="47.27051" lon="-2.29046">
        <ele>22.60000038147</ele>
        <time>2020-10-11T09:12:00.000Z</time>
      </trkpt>
      <trkpt lat="47.27053" lon="-2.29053">
        <ele>22.60000038147</ele>
        <time>2020-10-11T09:12:01.000Z</time>
      </trkpt>
      <trkpt lat="47.27056" lon="-2.29057">
        <ele>22.60000038147</ele>
        <time>2020-10-11T09:12:02.000Z</time>
      </trkpt>
      <trkpt lat="47.27059" lon="-2.29059">
        <ele>22.60000038147</ele>
        <time>2020-10-11T09:12:04.000Z</time>
      </trkpt>
      <trkpt lat="47.27063" lon="-2.29059">
        <ele>22.200000762939</ele>
        <time>2020-10-11T09:12:07.000Z</time>
      </trkpt>
      <trkpt lat="47.27064" lon="-2.29059">
        <ele>21.799999237061</ele>
        <time>2020-10-11T09:12:08.000Z</time>
      </trkpt>
      <trkpt lat="47.27066" lon="-2.29059">
        <ele>21.39999961853</ele>
        <time>2020-10-11T09:12:09.000Z</time>
      </trkpt>
      <trkpt lat="47.27068" lon="-2.29059">
        <ele>21</ele>
        <time>2020-10-11T09:12:10.000Z</time>
      </trkpt>
      <trkpt lat="47.27072" lon="-2.29061">
        <ele>20.60000038147</ele>
        <time>2020-10-11T09:12:11.000Z</time>
      </trkpt>
      <trkpt lat="47.27074" lon="-2.29062">
        <ele>20.60000038147</ele>
        <time>2020-10-11T09:12:12.000Z</time>
      </trkpt>
      <trkpt lat="47.27082" lon="-2.29064">
        <ele>20.60000038147</ele>
        <time>2020-10-11T09:12:14.000Z</time>
      </trkpt>
      <trkpt lat="47.27106" lon="-2.29073">
        <ele>20.60000038147</ele>
        <time>2020-10-11T09:12:19.000Z</time>
      </trkpt>
      <trkpt lat="47.2714" lon="-2.29087">
        <ele>20.60000038147</ele>
        <time>2020-10-11T09:12:26.000Z</time>
      </trkpt>
      <trkpt lat="47.27166" lon="-2.29102">
        <ele>20.60000038147</ele>
        <time>2020-10-11T09:12:33.000Z</time>
      </trkpt>
      <trkpt lat="47.27182" lon="-2.29118">
        <ele>20.60000038147</ele>
        <time>2020-10-11T09:12:40.000Z</time>
      </trkpt>
      <trkpt lat="47.27182" lon="-2.29118">
        <ele>20.60000038147</ele>
        <time>2020-10-11T09:12:42.000Z</time>
      </trkpt>
      <trkpt lat="47.27183" lon="-2.29122">
        <ele>20.60000038147</ele>
        <time>2020-10-11T09:12:44.000Z</time>
      </trkpt>
      <trkpt lat="47.27182" lon="-2.29125">
        <ele>20.60000038147</ele>
        <time>2020-10-11T09:12:45.000Z</time>
      </trkpt>
      <trkpt lat="47.27176" lon="-2.29131">
        <ele>20.60000038147</ele>
        <time>2020-10-11T09:12:48.000Z</time>
      </trkpt>
      <trkpt lat="47.27173" lon="-2.29133">
        <ele>20.60000038147</ele>
        <time>2020-10-11T09:12:49.000Z</time>
      </trkpt>
      <trkpt lat="47.27163" lon="-2.29147">
        <ele>20.60000038147</ele>
        <time>2020-10-11T09:12:54.000Z</time>
      </trkpt>
      <trkpt lat="47.27152" lon="-2.29166">
        <ele>20.60000038147</ele>
        <time>2020-10-11T09:13:00.000Z</time>
      </trkpt>
      <trkpt lat="47.2715" lon="-2.29178">
        <ele>20.60000038147</ele>
        <time>2020-10-11T09:13:05.000Z</time>
      </trkpt>
      <trkpt lat="47.2715" lon="-2.29177">
        <ele>20.60000038147</ele>
        <time>2020-10-11T09:13:06.000Z</time>
      </trkpt>
    </trkseg>
  </trk>
</gpx>